<?xml version="1.0" encoding="UTF-8" standalone="no" ?>
<gpx xmlns="http://www.topografix.com/GPX/1/1" xmlns:xsi="http://www.w3.org/2001/XMLSchema-instance" xsi:schemaLocation="http://www.topografix.com/GPX/1/1 http://www.topografix.com/GPX/1/1/gpx.xsd" version="1.1" creator="VisuGPX - https://www.visugpx.com">
  <metadata>
    <name>2016-12-01 Walk from Les Sauvages</name>
    <desc><![CDATA[2016-12-01 Walk from Les Sauvages]]></desc>
  </metadata>
  <wpt lat="45.92426" lon="4.37708">
    <ele>727</ele>
    <name><![CDATA[2016-12-01 09:19 (Start)]]></name>
  </wpt>
  <wpt lat="45.92423" lon="4.37708">
    <ele>727</ele>
    <name><![CDATA[2016-12-01 09:19 (End)]]></name>
    <desc><![CDATA[Created by Google My Tracks on Android  Name: 2016-12-01 09:19 Activity type: walking Description: - Total distance: 18.10 km (11.2 mi) Total time: 5:25:38 Moving time: 4:49:20 Average speed: 3.33 km/h (2.1 mi/h) Average moving speed: 3.75 km/h (2.3 mi/h) Max speed: 5.98 km/h (3.7 mi/h) Average pace: 17:60 min/km (28:57 min/mi) Average moving pace: 15:59 min/km (25:44 min/mi) Fastest pace: 10:02 min/km (16:09 min/mi) Max elevation: 846 m (2775 ft) Min elevation: 129 m (424 ft) Elevation gain: 1482 m (4862 ft) Max grade: 3261 % Min grade: -28 % Recorded: 01/12/2016 09:19]]></desc>
  </wpt>
  <trk>
    <name><![CDATA[2016-12-01 09:19]]></name>
    <trkseg>
      <trkpt lat="45.92426" lon="4.37708">
        <ele>727</ele>
        <time>2016-12-01T08:19:54.035Z</time>
      </trkpt>
      <trkpt lat="45.92428" lon="4.3772">
        <ele>727</ele>
        <time>2016-12-01T08:26:40Z</time>
      </trkpt>
      <trkpt lat="45.92429" lon="4.3772">
        <ele>727</ele>
        <time>2016-12-01T08:26:41Z</time>
      </trkpt>
      <trkpt lat="45.92438" lon="4.37722">
        <ele>727</ele>
        <time>2016-12-01T08:26:49Z</time>
      </trkpt>
      <trkpt lat="45.92439" lon="4.37722">
        <ele>727</ele>
        <time>2016-12-01T08:26:50Z</time>
      </trkpt>
      <trkpt lat="45.92448" lon="4.37722">
        <ele>727</ele>
        <time>2016-12-01T08:26:58Z</time>
      </trkpt>
      <trkpt lat="45.92449" lon="4.37722">
        <ele>727</ele>
        <time>2016-12-01T08:26:59Z</time>
      </trkpt>
      <trkpt lat="45.92457" lon="4.37724">
        <ele>727</ele>
        <time>2016-12-01T08:27:07Z</time>
      </trkpt>
      <trkpt lat="45.92458" lon="4.37724">
        <ele>727</ele>
        <time>2016-12-01T08:27:08Z</time>
      </trkpt>
      <trkpt lat="45.92466" lon="4.37724">
        <ele>727</ele>
        <time>2016-12-01T08:27:15Z</time>
      </trkpt>
      <trkpt lat="45.92468" lon="4.37723">
        <ele>727</ele>
        <time>2016-12-01T08:27:16Z</time>
      </trkpt>
      <trkpt lat="45.92476" lon="4.37723">
        <ele>727</ele>
        <time>2016-12-01T08:27:23Z</time>
      </trkpt>
      <trkpt lat="45.92477" lon="4.37723">
        <ele>727</ele>
        <time>2016-12-01T08:27:24Z</time>
      </trkpt>
      <trkpt lat="45.92486" lon="4.37725">
        <ele>727</ele>
        <time>2016-12-01T08:27:32Z</time>
      </trkpt>
      <trkpt lat="45.92487" lon="4.37726">
        <ele>727</ele>
        <time>2016-12-01T08:27:33Z</time>
      </trkpt>
      <trkpt lat="45.92495" lon="4.37727">
        <ele>727</ele>
        <time>2016-12-01T08:27:40Z</time>
      </trkpt>
      <trkpt lat="45.92496" lon="4.37727">
        <ele>727</ele>
        <time>2016-12-01T08:27:41Z</time>
      </trkpt>
      <trkpt lat="45.92505" lon="4.37728">
        <ele>727</ele>
        <time>2016-12-01T08:27:48Z</time>
      </trkpt>
      <trkpt lat="45.92506" lon="4.37729">
        <ele>727</ele>
        <time>2016-12-01T08:27:49Z</time>
      </trkpt>
      <trkpt lat="45.92514" lon="4.37729">
        <ele>727</ele>
        <time>2016-12-01T08:27:57Z</time>
      </trkpt>
      <trkpt lat="45.92515" lon="4.37728">
        <ele>727</ele>
        <time>2016-12-01T08:27:58Z</time>
      </trkpt>
      <trkpt lat="45.92523" lon="4.3773">
        <ele>727</ele>
        <time>2016-12-01T08:28:05Z</time>
      </trkpt>
      <trkpt lat="45.92524" lon="4.3773">
        <ele>727</ele>
        <time>2016-12-01T08:28:06Z</time>
      </trkpt>
      <trkpt lat="45.92532" lon="4.37729">
        <ele>727</ele>
        <time>2016-12-01T08:28:13Z</time>
      </trkpt>
      <trkpt lat="45.92534" lon="4.37729">
        <ele>727</ele>
        <time>2016-12-01T08:28:14Z</time>
      </trkpt>
      <trkpt lat="45.92542" lon="4.37727">
        <ele>727</ele>
        <time>2016-12-01T08:28:21Z</time>
      </trkpt>
      <trkpt lat="45.92543" lon="4.37726">
        <ele>727</ele>
        <time>2016-12-01T08:28:22Z</time>
      </trkpt>
      <trkpt lat="45.92552" lon="4.37722">
        <ele>727</ele>
        <time>2016-12-01T08:28:28Z</time>
      </trkpt>
      <trkpt lat="45.92553" lon="4.37722">
        <ele>727</ele>
        <time>2016-12-01T08:28:29Z</time>
      </trkpt>
      <trkpt lat="45.92562" lon="4.37722">
        <ele>727</ele>
        <time>2016-12-01T08:28:43Z</time>
      </trkpt>
      <trkpt lat="45.92562" lon="4.37722">
        <ele>727</ele>
        <time>2016-12-01T08:28:44Z</time>
      </trkpt>
      <trkpt lat="45.92571" lon="4.37722">
        <ele>726</ele>
        <time>2016-12-01T08:28:53Z</time>
      </trkpt>
      <trkpt lat="45.92572" lon="4.37722">
        <ele>726</ele>
        <time>2016-12-01T08:28:54Z</time>
      </trkpt>
      <trkpt lat="45.92581" lon="4.37722">
        <ele>726</ele>
        <time>2016-12-01T08:29:00Z</time>
      </trkpt>
      <trkpt lat="45.92582" lon="4.37722">
        <ele>726</ele>
        <time>2016-12-01T08:29:01Z</time>
      </trkpt>
      <trkpt lat="45.9259" lon="4.37725">
        <ele>724</ele>
        <time>2016-12-01T08:29:10Z</time>
      </trkpt>
      <trkpt lat="45.92591" lon="4.37726">
        <ele>724</ele>
        <time>2016-12-01T08:29:11Z</time>
      </trkpt>
      <trkpt lat="45.92599" lon="4.37728">
        <ele>723</ele>
        <time>2016-12-01T08:29:17Z</time>
      </trkpt>
      <trkpt lat="45.926" lon="4.37728">
        <ele>723</ele>
        <time>2016-12-01T08:29:18Z</time>
      </trkpt>
      <trkpt lat="45.92609" lon="4.37728">
        <ele>723</ele>
        <time>2016-12-01T08:29:24Z</time>
      </trkpt>
      <trkpt lat="45.9261" lon="4.37729">
        <ele>723</ele>
        <time>2016-12-01T08:29:25Z</time>
      </trkpt>
      <trkpt lat="45.92619" lon="4.3773">
        <ele>723</ele>
        <time>2016-12-01T08:29:31Z</time>
      </trkpt>
      <trkpt lat="45.9262" lon="4.3773">
        <ele>723</ele>
        <time>2016-12-01T08:29:32Z</time>
      </trkpt>
      <trkpt lat="45.92628" lon="4.37732">
        <ele>722</ele>
        <time>2016-12-01T08:29:38Z</time>
      </trkpt>
      <trkpt lat="45.92629" lon="4.37733">
        <ele>722</ele>
        <time>2016-12-01T08:29:39Z</time>
      </trkpt>
      <trkpt lat="45.92637" lon="4.37735">
        <ele>722</ele>
        <time>2016-12-01T08:29:45Z</time>
      </trkpt>
      <trkpt lat="45.92638" lon="4.37735">
        <ele>722</ele>
        <time>2016-12-01T08:29:46Z</time>
      </trkpt>
      <trkpt lat="45.92645" lon="4.37741">
        <ele>721</ele>
        <time>2016-12-01T08:29:53Z</time>
      </trkpt>
      <trkpt lat="45.92646" lon="4.37742">
        <ele>721</ele>
        <time>2016-12-01T08:29:54Z</time>
      </trkpt>
      <trkpt lat="45.92652" lon="4.37751">
        <ele>721</ele>
        <time>2016-12-01T08:30:01Z</time>
      </trkpt>
      <trkpt lat="45.92653" lon="4.37752">
        <ele>721</ele>
        <time>2016-12-01T08:30:02Z</time>
      </trkpt>
      <trkpt lat="45.92661" lon="4.3775">
        <ele>720</ele>
        <time>2016-12-01T08:30:10Z</time>
      </trkpt>
      <trkpt lat="45.92662" lon="4.37749">
        <ele>720</ele>
        <time>2016-12-01T08:30:11Z</time>
      </trkpt>
      <trkpt lat="45.92667" lon="4.3774">
        <ele>719</ele>
        <time>2016-12-01T08:30:18Z</time>
      </trkpt>
      <trkpt lat="45.92668" lon="4.37739">
        <ele>719</ele>
        <time>2016-12-01T08:30:19Z</time>
      </trkpt>
      <trkpt lat="45.92671" lon="4.37728">
        <ele>718</ele>
        <time>2016-12-01T08:30:27Z</time>
      </trkpt>
      <trkpt lat="45.92672" lon="4.37727">
        <ele>718</ele>
        <time>2016-12-01T08:30:28Z</time>
      </trkpt>
      <trkpt lat="45.9268" lon="4.37726">
        <ele>717</ele>
        <time>2016-12-01T08:30:35Z</time>
      </trkpt>
      <trkpt lat="45.92682" lon="4.37725">
        <ele>717</ele>
        <time>2016-12-01T08:30:36Z</time>
      </trkpt>
      <trkpt lat="45.9269" lon="4.37725">
        <ele>717</ele>
        <time>2016-12-01T08:30:44Z</time>
      </trkpt>
      <trkpt lat="45.92691" lon="4.37726">
        <ele>717</ele>
        <time>2016-12-01T08:30:45Z</time>
      </trkpt>
      <trkpt lat="45.92699" lon="4.3773">
        <ele>717</ele>
        <time>2016-12-01T08:30:52Z</time>
      </trkpt>
      <trkpt lat="45.927" lon="4.37731">
        <ele>717</ele>
        <time>2016-12-01T08:30:53Z</time>
      </trkpt>
      <trkpt lat="45.92708" lon="4.37735">
        <ele>717</ele>
        <time>2016-12-01T08:30:59Z</time>
      </trkpt>
      <trkpt lat="45.92709" lon="4.37736">
        <ele>717</ele>
        <time>2016-12-01T08:31:00Z</time>
      </trkpt>
      <trkpt lat="45.92716" lon="4.37741">
        <ele>717</ele>
        <time>2016-12-01T08:31:06Z</time>
      </trkpt>
      <trkpt lat="45.92717" lon="4.37742">
        <ele>717</ele>
        <time>2016-12-01T08:31:07Z</time>
      </trkpt>
      <trkpt lat="45.92725" lon="4.37746">
        <ele>717</ele>
        <time>2016-12-01T08:31:13Z</time>
      </trkpt>
      <trkpt lat="45.92726" lon="4.37747">
        <ele>717</ele>
        <time>2016-12-01T08:31:14Z</time>
      </trkpt>
      <trkpt lat="45.92734" lon="4.37749">
        <ele>717</ele>
        <time>2016-12-01T08:31:20Z</time>
      </trkpt>
      <trkpt lat="45.92735" lon="4.37749">
        <ele>717</ele>
        <time>2016-12-01T08:31:21Z</time>
      </trkpt>
      <trkpt lat="45.92743" lon="4.37745">
        <ele>717</ele>
        <time>2016-12-01T08:31:29Z</time>
      </trkpt>
      <trkpt lat="45.92744" lon="4.37744">
        <ele>717</ele>
        <time>2016-12-01T08:31:30Z</time>
      </trkpt>
      <trkpt lat="45.92749" lon="4.37734">
        <ele>717</ele>
        <time>2016-12-01T08:31:38Z</time>
      </trkpt>
      <trkpt lat="45.9275" lon="4.37733">
        <ele>717</ele>
        <time>2016-12-01T08:31:39Z</time>
      </trkpt>
      <trkpt lat="45.92756" lon="4.37726">
        <ele>714</ele>
        <time>2016-12-01T08:31:48Z</time>
      </trkpt>
      <trkpt lat="45.92757" lon="4.37725">
        <ele>714</ele>
        <time>2016-12-01T08:31:49Z</time>
      </trkpt>
      <trkpt lat="45.92762" lon="4.37716">
        <ele>714</ele>
        <time>2016-12-01T08:31:56Z</time>
      </trkpt>
      <trkpt lat="45.92763" lon="4.37715">
        <ele>713</ele>
        <time>2016-12-01T08:31:57Z</time>
      </trkpt>
      <trkpt lat="45.9277" lon="4.37707">
        <ele>713</ele>
        <time>2016-12-01T08:32:05Z</time>
      </trkpt>
      <trkpt lat="45.92771" lon="4.37706">
        <ele>713</ele>
        <time>2016-12-01T08:32:06Z</time>
      </trkpt>
      <trkpt lat="45.92777" lon="4.37697">
        <ele>712</ele>
        <time>2016-12-01T08:32:14Z</time>
      </trkpt>
      <trkpt lat="45.92778" lon="4.37696">
        <ele>712</ele>
        <time>2016-12-01T08:32:15Z</time>
      </trkpt>
      <trkpt lat="45.92785" lon="4.3769">
        <ele>712</ele>
        <time>2016-12-01T08:32:24Z</time>
      </trkpt>
      <trkpt lat="45.92786" lon="4.37689">
        <ele>712</ele>
        <time>2016-12-01T08:32:25Z</time>
      </trkpt>
      <trkpt lat="45.92789" lon="4.37678">
        <ele>711</ele>
        <time>2016-12-01T08:32:32Z</time>
      </trkpt>
      <trkpt lat="45.9279" lon="4.37677">
        <ele>711</ele>
        <time>2016-12-01T08:32:33Z</time>
      </trkpt>
      <trkpt lat="45.92794" lon="4.37667">
        <ele>711</ele>
        <time>2016-12-01T08:32:39Z</time>
      </trkpt>
      <trkpt lat="45.92795" lon="4.37665">
        <ele>705</ele>
        <time>2016-12-01T08:32:40Z</time>
      </trkpt>
      <trkpt lat="45.92799" lon="4.37655">
        <ele>704</ele>
        <time>2016-12-01T08:32:46Z</time>
      </trkpt>
      <trkpt lat="45.928" lon="4.37654">
        <ele>704</ele>
        <time>2016-12-01T08:32:47Z</time>
      </trkpt>
      <trkpt lat="45.92806" lon="4.37645">
        <ele>704</ele>
        <time>2016-12-01T08:32:53Z</time>
      </trkpt>
      <trkpt lat="45.92806" lon="4.37644">
        <ele>704</ele>
        <time>2016-12-01T08:32:54Z</time>
      </trkpt>
      <trkpt lat="45.92813" lon="4.37636">
        <ele>703</ele>
        <time>2016-12-01T08:33:03Z</time>
      </trkpt>
      <trkpt lat="45.92814" lon="4.37635">
        <ele>703</ele>
        <time>2016-12-01T08:33:04Z</time>
      </trkpt>
      <trkpt lat="45.92822" lon="4.37631">
        <ele>703</ele>
        <time>2016-12-01T08:33:10Z</time>
      </trkpt>
      <trkpt lat="45.92823" lon="4.3763">
        <ele>703</ele>
        <time>2016-12-01T08:33:11Z</time>
      </trkpt>
      <trkpt lat="45.92829" lon="4.37622">
        <ele>702</ele>
        <time>2016-12-01T08:33:18Z</time>
      </trkpt>
      <trkpt lat="45.9283" lon="4.37621">
        <ele>702</ele>
        <time>2016-12-01T08:33:19Z</time>
      </trkpt>
      <trkpt lat="45.92836" lon="4.37613">
        <ele>700</ele>
        <time>2016-12-01T08:33:26Z</time>
      </trkpt>
      <trkpt lat="45.92837" lon="4.37613">
        <ele>700</ele>
        <time>2016-12-01T08:33:27Z</time>
      </trkpt>
      <trkpt lat="45.92843" lon="4.37604">
        <ele>699</ele>
        <time>2016-12-01T08:33:35Z</time>
      </trkpt>
      <trkpt lat="45.92843" lon="4.37603">
        <ele>699</ele>
        <time>2016-12-01T08:33:36Z</time>
      </trkpt>
      <trkpt lat="45.92849" lon="4.37593">
        <ele>698</ele>
        <time>2016-12-01T08:33:46Z</time>
      </trkpt>
      <trkpt lat="45.92849" lon="4.37592">
        <ele>698</ele>
        <time>2016-12-01T08:33:47Z</time>
      </trkpt>
      <trkpt lat="45.92854" lon="4.37582">
        <ele>690</ele>
        <time>2016-12-01T08:33:56Z</time>
      </trkpt>
      <trkpt lat="45.92855" lon="4.37581">
        <ele>690</ele>
        <time>2016-12-01T08:33:57Z</time>
      </trkpt>
      <trkpt lat="45.92861" lon="4.37573">
        <ele>689</ele>
        <time>2016-12-01T08:34:05Z</time>
      </trkpt>
      <trkpt lat="45.92862" lon="4.37572">
        <ele>689</ele>
        <time>2016-12-01T08:34:06Z</time>
      </trkpt>
      <trkpt lat="45.92869" lon="4.37565">
        <ele>688</ele>
        <time>2016-12-01T08:34:13Z</time>
      </trkpt>
      <trkpt lat="45.9287" lon="4.37564">
        <ele>688</ele>
        <time>2016-12-01T08:34:14Z</time>
      </trkpt>
      <trkpt lat="45.92877" lon="4.37556">
        <ele>687</ele>
        <time>2016-12-01T08:34:21Z</time>
      </trkpt>
      <trkpt lat="45.92878" lon="4.37555">
        <ele>687</ele>
        <time>2016-12-01T08:34:22Z</time>
      </trkpt>
      <trkpt lat="45.92885" lon="4.37547">
        <ele>686</ele>
        <time>2016-12-01T08:34:30Z</time>
      </trkpt>
      <trkpt lat="45.92885" lon="4.37546">
        <ele>686</ele>
        <time>2016-12-01T08:34:31Z</time>
      </trkpt>
      <trkpt lat="45.92891" lon="4.37537">
        <ele>685</ele>
        <time>2016-12-01T08:34:39Z</time>
      </trkpt>
      <trkpt lat="45.92892" lon="4.37536">
        <ele>685</ele>
        <time>2016-12-01T08:34:40Z</time>
      </trkpt>
      <trkpt lat="45.92898" lon="4.37528">
        <ele>683</ele>
        <time>2016-12-01T08:34:48Z</time>
      </trkpt>
      <trkpt lat="45.92898" lon="4.37527">
        <ele>683</ele>
        <time>2016-12-01T08:34:49Z</time>
      </trkpt>
      <trkpt lat="45.92903" lon="4.37519">
        <ele>682</ele>
        <time>2016-12-01T08:34:56Z</time>
      </trkpt>
      <trkpt lat="45.92904" lon="4.37517">
        <ele>681</ele>
        <time>2016-12-01T08:34:57Z</time>
      </trkpt>
      <trkpt lat="45.92911" lon="4.3751">
        <ele>679</ele>
        <time>2016-12-01T08:35:03Z</time>
      </trkpt>
      <trkpt lat="45.92912" lon="4.37509">
        <ele>679</ele>
        <time>2016-12-01T08:35:04Z</time>
      </trkpt>
      <trkpt lat="45.92919" lon="4.37502">
        <ele>677</ele>
        <time>2016-12-01T08:35:11Z</time>
      </trkpt>
      <trkpt lat="45.9292" lon="4.37501">
        <ele>677</ele>
        <time>2016-12-01T08:35:12Z</time>
      </trkpt>
      <trkpt lat="45.92925" lon="4.37492">
        <ele>674</ele>
        <time>2016-12-01T08:35:18Z</time>
      </trkpt>
      <trkpt lat="45.92926" lon="4.3749">
        <ele>674</ele>
        <time>2016-12-01T08:35:19Z</time>
      </trkpt>
      <trkpt lat="45.9293" lon="4.37479">
        <ele>673</ele>
        <time>2016-12-01T08:35:26Z</time>
      </trkpt>
      <trkpt lat="45.92931" lon="4.37478">
        <ele>672</ele>
        <time>2016-12-01T08:35:27Z</time>
      </trkpt>
      <trkpt lat="45.92937" lon="4.37469">
        <ele>672</ele>
        <time>2016-12-01T08:35:35Z</time>
      </trkpt>
      <trkpt lat="45.92938" lon="4.37469">
        <ele>672</ele>
        <time>2016-12-01T08:35:36Z</time>
      </trkpt>
      <trkpt lat="45.92943" lon="4.37459">
        <ele>671</ele>
        <time>2016-12-01T08:35:43Z</time>
      </trkpt>
      <trkpt lat="45.92944" lon="4.37458">
        <ele>671</ele>
        <time>2016-12-01T08:35:44Z</time>
      </trkpt>
      <trkpt lat="45.92949" lon="4.37449">
        <ele>670</ele>
        <time>2016-12-01T08:35:52Z</time>
      </trkpt>
      <trkpt lat="45.92949" lon="4.37448">
        <ele>670</ele>
        <time>2016-12-01T08:35:53Z</time>
      </trkpt>
      <trkpt lat="45.92955" lon="4.37438">
        <ele>670</ele>
        <time>2016-12-01T08:36:03Z</time>
      </trkpt>
      <trkpt lat="45.92955" lon="4.37437">
        <ele>670</ele>
        <time>2016-12-01T08:36:04Z</time>
      </trkpt>
      <trkpt lat="45.92959" lon="4.37426">
        <ele>669</ele>
        <time>2016-12-01T08:36:12Z</time>
      </trkpt>
      <trkpt lat="45.92959" lon="4.37425">
        <ele>669</ele>
        <time>2016-12-01T08:36:13Z</time>
      </trkpt>
      <trkpt lat="45.92964" lon="4.37415">
        <ele>663</ele>
        <time>2016-12-01T08:36:20Z</time>
      </trkpt>
      <trkpt lat="45.92965" lon="4.37414">
        <ele>663</ele>
        <time>2016-12-01T08:36:21Z</time>
      </trkpt>
      <trkpt lat="45.92972" lon="4.37406">
        <ele>663</ele>
        <time>2016-12-01T08:36:29Z</time>
      </trkpt>
      <trkpt lat="45.92972" lon="4.37405">
        <ele>663</ele>
        <time>2016-12-01T08:36:30Z</time>
      </trkpt>
      <trkpt lat="45.92977" lon="4.37394">
        <ele>662</ele>
        <time>2016-12-01T08:36:38Z</time>
      </trkpt>
      <trkpt lat="45.92978" lon="4.37393">
        <ele>662</ele>
        <time>2016-12-01T08:36:39Z</time>
      </trkpt>
      <trkpt lat="45.92985" lon="4.37386">
        <ele>662</ele>
        <time>2016-12-01T08:36:47Z</time>
      </trkpt>
      <trkpt lat="45.92986" lon="4.37384">
        <ele>662</ele>
        <time>2016-12-01T08:36:48Z</time>
      </trkpt>
      <trkpt lat="45.92991" lon="4.37375">
        <ele>661</ele>
        <time>2016-12-01T08:36:54Z</time>
      </trkpt>
      <trkpt lat="45.92992" lon="4.37374">
        <ele>661</ele>
        <time>2016-12-01T08:36:55Z</time>
      </trkpt>
      <trkpt lat="45.92997" lon="4.37365">
        <ele>660</ele>
        <time>2016-12-01T08:37:02Z</time>
      </trkpt>
      <trkpt lat="45.92998" lon="4.37365">
        <ele>660</ele>
        <time>2016-12-01T08:37:03Z</time>
      </trkpt>
      <trkpt lat="45.93004" lon="4.37356">
        <ele>660</ele>
        <time>2016-12-01T08:37:12Z</time>
      </trkpt>
      <trkpt lat="45.93005" lon="4.37355">
        <ele>660</ele>
        <time>2016-12-01T08:37:13Z</time>
      </trkpt>
      <trkpt lat="45.93013" lon="4.37348">
        <ele>659</ele>
        <time>2016-12-01T08:37:23Z</time>
      </trkpt>
      <trkpt lat="45.93014" lon="4.37348">
        <ele>659</ele>
        <time>2016-12-01T08:37:24Z</time>
      </trkpt>
      <trkpt lat="45.9302" lon="4.37339">
        <ele>659</ele>
        <time>2016-12-01T08:37:36Z</time>
      </trkpt>
      <trkpt lat="45.93021" lon="4.37338">
        <ele>659</ele>
        <time>2016-12-01T08:37:37Z</time>
      </trkpt>
      <trkpt lat="45.93025" lon="4.37329">
        <ele>652</ele>
        <time>2016-12-01T08:37:47Z</time>
      </trkpt>
      <trkpt lat="45.93027" lon="4.37327">
        <ele>652</ele>
        <time>2016-12-01T08:37:48Z</time>
      </trkpt>
      <trkpt lat="45.93033" lon="4.37317">
        <ele>652</ele>
        <time>2016-12-01T08:37:54Z</time>
      </trkpt>
      <trkpt lat="45.93033" lon="4.37315">
        <ele>652</ele>
        <time>2016-12-01T08:37:55Z</time>
      </trkpt>
      <trkpt lat="45.93036" lon="4.37304">
        <ele>651</ele>
        <time>2016-12-01T08:38:01Z</time>
      </trkpt>
      <trkpt lat="45.93036" lon="4.37302">
        <ele>651</ele>
        <time>2016-12-01T08:38:02Z</time>
      </trkpt>
      <trkpt lat="45.93037" lon="4.37291">
        <ele>650</ele>
        <time>2016-12-01T08:38:08Z</time>
      </trkpt>
      <trkpt lat="45.93037" lon="4.37289">
        <ele>650</ele>
        <time>2016-12-01T08:38:09Z</time>
      </trkpt>
      <trkpt lat="45.9304" lon="4.37277">
        <ele>649</ele>
        <time>2016-12-01T08:38:15Z</time>
      </trkpt>
      <trkpt lat="45.9304" lon="4.37275">
        <ele>649</ele>
        <time>2016-12-01T08:38:16Z</time>
      </trkpt>
      <trkpt lat="45.93043" lon="4.37264">
        <ele>648</ele>
        <time>2016-12-01T08:38:22Z</time>
      </trkpt>
      <trkpt lat="45.93043" lon="4.37262">
        <ele>648</ele>
        <time>2016-12-01T08:38:23Z</time>
      </trkpt>
      <trkpt lat="45.93047" lon="4.37252">
        <ele>648</ele>
        <time>2016-12-01T08:38:31Z</time>
      </trkpt>
      <trkpt lat="45.93048" lon="4.37251">
        <ele>648</ele>
        <time>2016-12-01T08:38:32Z</time>
      </trkpt>
      <trkpt lat="45.93052" lon="4.3724">
        <ele>642</ele>
        <time>2016-12-01T08:38:40Z</time>
      </trkpt>
      <trkpt lat="45.93052" lon="4.37239">
        <ele>642</ele>
        <time>2016-12-01T08:38:41Z</time>
      </trkpt>
      <trkpt lat="45.93054" lon="4.37227">
        <ele>641</ele>
        <time>2016-12-01T08:38:50Z</time>
      </trkpt>
      <trkpt lat="45.93054" lon="4.37225">
        <ele>641</ele>
        <time>2016-12-01T08:38:51Z</time>
      </trkpt>
      <trkpt lat="45.93057" lon="4.37214">
        <ele>640</ele>
        <time>2016-12-01T08:39:00Z</time>
      </trkpt>
      <trkpt lat="45.93057" lon="4.37213">
        <ele>640</ele>
        <time>2016-12-01T08:39:01Z</time>
      </trkpt>
      <trkpt lat="45.93056" lon="4.372">
        <ele>639</ele>
        <time>2016-12-01T08:39:10Z</time>
      </trkpt>
      <trkpt lat="45.93056" lon="4.37199">
        <ele>639</ele>
        <time>2016-12-01T08:39:11Z</time>
      </trkpt>
      <trkpt lat="45.93059" lon="4.37188">
        <ele>638</ele>
        <time>2016-12-01T08:39:18Z</time>
      </trkpt>
      <trkpt lat="45.9306" lon="4.37186">
        <ele>638</ele>
        <time>2016-12-01T08:39:19Z</time>
      </trkpt>
      <trkpt lat="45.93064" lon="4.37175">
        <ele>638</ele>
        <time>2016-12-01T08:39:28Z</time>
      </trkpt>
      <trkpt lat="45.93065" lon="4.37174">
        <ele>638</ele>
        <time>2016-12-01T08:39:29Z</time>
      </trkpt>
      <trkpt lat="45.9307" lon="4.37165">
        <ele>634</ele>
        <time>2016-12-01T08:39:38Z</time>
      </trkpt>
      <trkpt lat="45.93071" lon="4.37163">
        <ele>634</ele>
        <time>2016-12-01T08:39:39Z</time>
      </trkpt>
      <trkpt lat="45.93075" lon="4.37152">
        <ele>634</ele>
        <time>2016-12-01T08:39:49Z</time>
      </trkpt>
      <trkpt lat="45.93076" lon="4.37152">
        <ele>634</ele>
        <time>2016-12-01T08:39:50Z</time>
      </trkpt>
      <trkpt lat="45.93076" lon="4.3714">
        <ele>633</ele>
        <time>2016-12-01T08:39:59Z</time>
      </trkpt>
      <trkpt lat="45.93077" lon="4.37139">
        <ele>633</ele>
        <time>2016-12-01T08:40:00Z</time>
      </trkpt>
      <trkpt lat="45.93077" lon="4.37127">
        <ele>632</ele>
        <time>2016-12-01T08:40:10Z</time>
      </trkpt>
      <trkpt lat="45.93077" lon="4.37125">
        <ele>632</ele>
        <time>2016-12-01T08:40:11Z</time>
      </trkpt>
      <trkpt lat="45.93075" lon="4.37113">
        <ele>631</ele>
        <time>2016-12-01T08:40:19Z</time>
      </trkpt>
      <trkpt lat="45.93075" lon="4.37111">
        <ele>631</ele>
        <time>2016-12-01T08:40:20Z</time>
      </trkpt>
      <trkpt lat="45.93078" lon="4.37099">
        <ele>630</ele>
        <time>2016-12-01T08:40:25Z</time>
      </trkpt>
      <trkpt lat="45.93078" lon="4.37097">
        <ele>630</ele>
        <time>2016-12-01T08:40:26Z</time>
      </trkpt>
      <trkpt lat="45.93079" lon="4.37085">
        <ele>629</ele>
        <time>2016-12-01T08:40:32Z</time>
      </trkpt>
      <trkpt lat="45.9308" lon="4.37084">
        <ele>629</ele>
        <time>2016-12-01T08:40:33Z</time>
      </trkpt>
      <trkpt lat="45.93083" lon="4.37073">
        <ele>628</ele>
        <time>2016-12-01T08:40:41Z</time>
      </trkpt>
      <trkpt lat="45.93084" lon="4.37072">
        <ele>632</ele>
        <time>2016-12-01T08:40:42Z</time>
      </trkpt>
      <trkpt lat="45.93087" lon="4.37061">
        <ele>634</ele>
        <time>2016-12-01T08:40:48Z</time>
      </trkpt>
      <trkpt lat="45.93088" lon="4.37059">
        <ele>634</ele>
        <time>2016-12-01T08:40:49Z</time>
      </trkpt>
      <trkpt lat="45.93089" lon="4.37046">
        <ele>635</ele>
        <time>2016-12-01T08:40:55Z</time>
      </trkpt>
      <trkpt lat="45.93089" lon="4.37044">
        <ele>635</ele>
        <time>2016-12-01T08:40:56Z</time>
      </trkpt>
      <trkpt lat="45.93092" lon="4.37033">
        <ele>634</ele>
        <time>2016-12-01T08:41:02Z</time>
      </trkpt>
      <trkpt lat="45.93091" lon="4.37031">
        <ele>634</ele>
        <time>2016-12-01T08:41:03Z</time>
      </trkpt>
      <trkpt lat="45.93091" lon="4.37018">
        <ele>631</ele>
        <time>2016-12-01T08:41:09Z</time>
      </trkpt>
      <trkpt lat="45.93091" lon="4.37017">
        <ele>631</ele>
        <time>2016-12-01T08:41:10Z</time>
      </trkpt>
      <trkpt lat="45.9309" lon="4.37006">
        <ele>627</ele>
        <time>2016-12-01T08:41:19Z</time>
      </trkpt>
      <trkpt lat="45.93091" lon="4.37004">
        <ele>627</ele>
        <time>2016-12-01T08:41:20Z</time>
      </trkpt>
      <trkpt lat="45.93092" lon="4.36992">
        <ele>626</ele>
        <time>2016-12-01T08:41:26Z</time>
      </trkpt>
      <trkpt lat="45.93092" lon="4.36991">
        <ele>626</ele>
        <time>2016-12-01T08:41:27Z</time>
      </trkpt>
      <trkpt lat="45.93092" lon="4.36979">
        <ele>627</ele>
        <time>2016-12-01T08:41:34Z</time>
      </trkpt>
      <trkpt lat="45.93092" lon="4.36977">
        <ele>627</ele>
        <time>2016-12-01T08:41:35Z</time>
      </trkpt>
      <trkpt lat="45.93094" lon="4.36966">
        <ele>628</ele>
        <time>2016-12-01T08:41:43Z</time>
      </trkpt>
      <trkpt lat="45.93093" lon="4.36964">
        <ele>628</ele>
        <time>2016-12-01T08:41:44Z</time>
      </trkpt>
      <trkpt lat="45.93092" lon="4.36953">
        <ele>627</ele>
        <time>2016-12-01T08:41:51Z</time>
      </trkpt>
      <trkpt lat="45.93092" lon="4.36951">
        <ele>627</ele>
        <time>2016-12-01T08:41:52Z</time>
      </trkpt>
      <trkpt lat="45.93093" lon="4.36939">
        <ele>626</ele>
        <time>2016-12-01T08:42:06Z</time>
      </trkpt>
      <trkpt lat="45.93093" lon="4.36937">
        <ele>625</ele>
        <time>2016-12-01T08:42:07Z</time>
      </trkpt>
      <trkpt lat="45.93095" lon="4.36925">
        <ele>624</ele>
        <time>2016-12-01T08:42:15Z</time>
      </trkpt>
      <trkpt lat="45.93096" lon="4.36923">
        <ele>624</ele>
        <time>2016-12-01T08:42:16Z</time>
      </trkpt>
      <trkpt lat="45.93096" lon="4.36911">
        <ele>620</ele>
        <time>2016-12-01T08:42:23Z</time>
      </trkpt>
      <trkpt lat="45.93097" lon="4.3691">
        <ele>620</ele>
        <time>2016-12-01T08:42:24Z</time>
      </trkpt>
      <trkpt lat="45.93096" lon="4.36897">
        <ele>620</ele>
        <time>2016-12-01T08:42:32Z</time>
      </trkpt>
      <trkpt lat="45.93097" lon="4.36896">
        <ele>620</ele>
        <time>2016-12-01T08:42:33Z</time>
      </trkpt>
      <trkpt lat="45.93101" lon="4.36885">
        <ele>620</ele>
        <time>2016-12-01T08:42:40Z</time>
      </trkpt>
      <trkpt lat="45.93101" lon="4.36884">
        <ele>620</ele>
        <time>2016-12-01T08:42:41Z</time>
      </trkpt>
      <trkpt lat="45.93103" lon="4.36873">
        <ele>620</ele>
        <time>2016-12-01T08:42:47Z</time>
      </trkpt>
      <trkpt lat="45.93103" lon="4.36871">
        <ele>620</ele>
        <time>2016-12-01T08:42:48Z</time>
      </trkpt>
      <trkpt lat="45.93108" lon="4.36861">
        <ele>619</ele>
        <time>2016-12-01T08:42:54Z</time>
      </trkpt>
      <trkpt lat="45.93109" lon="4.3686">
        <ele>619</ele>
        <time>2016-12-01T08:42:55Z</time>
      </trkpt>
      <trkpt lat="45.93114" lon="4.36851">
        <ele>619</ele>
        <time>2016-12-01T08:43:01Z</time>
      </trkpt>
      <trkpt lat="45.93115" lon="4.3685">
        <ele>619</ele>
        <time>2016-12-01T08:43:02Z</time>
      </trkpt>
      <trkpt lat="45.93121" lon="4.36841">
        <ele>619</ele>
        <time>2016-12-01T08:43:13Z</time>
      </trkpt>
      <trkpt lat="45.93122" lon="4.3684">
        <ele>619</ele>
        <time>2016-12-01T08:43:14Z</time>
      </trkpt>
      <trkpt lat="45.93128" lon="4.36831">
        <ele>614</ele>
        <time>2016-12-01T08:43:22Z</time>
      </trkpt>
      <trkpt lat="45.93129" lon="4.3683">
        <ele>614</ele>
        <time>2016-12-01T08:43:23Z</time>
      </trkpt>
      <trkpt lat="45.93136" lon="4.36822">
        <ele>614</ele>
        <time>2016-12-01T08:43:29Z</time>
      </trkpt>
      <trkpt lat="45.93137" lon="4.36822">
        <ele>614</ele>
        <time>2016-12-01T08:43:30Z</time>
      </trkpt>
      <trkpt lat="45.93142" lon="4.36813">
        <ele>614</ele>
        <time>2016-12-01T08:43:35Z</time>
      </trkpt>
      <trkpt lat="45.93143" lon="4.36812">
        <ele>614</ele>
        <time>2016-12-01T08:43:36Z</time>
      </trkpt>
      <trkpt lat="45.93148" lon="4.36802">
        <ele>614</ele>
        <time>2016-12-01T08:43:42Z</time>
      </trkpt>
      <trkpt lat="45.93149" lon="4.36801">
        <ele>613</ele>
        <time>2016-12-01T08:43:43Z</time>
      </trkpt>
      <trkpt lat="45.93155" lon="4.36792">
        <ele>613</ele>
        <time>2016-12-01T08:43:48Z</time>
      </trkpt>
      <trkpt lat="45.93157" lon="4.36791">
        <ele>612</ele>
        <time>2016-12-01T08:43:49Z</time>
      </trkpt>
      <trkpt lat="45.93162" lon="4.36782">
        <ele>611</ele>
        <time>2016-12-01T08:43:54Z</time>
      </trkpt>
      <trkpt lat="45.93163" lon="4.3678">
        <ele>611</ele>
        <time>2016-12-01T08:43:55Z</time>
      </trkpt>
      <trkpt lat="45.93168" lon="4.36771">
        <ele>611</ele>
        <time>2016-12-01T08:44:01Z</time>
      </trkpt>
      <trkpt lat="45.93169" lon="4.3677">
        <ele>611</ele>
        <time>2016-12-01T08:44:02Z</time>
      </trkpt>
      <trkpt lat="45.93175" lon="4.36762">
        <ele>609</ele>
        <time>2016-12-01T08:44:09Z</time>
      </trkpt>
      <trkpt lat="45.93176" lon="4.3676">
        <ele>609</ele>
        <time>2016-12-01T08:44:10Z</time>
      </trkpt>
      <trkpt lat="45.93179" lon="4.36749">
        <ele>605</ele>
        <time>2016-12-01T08:44:16Z</time>
      </trkpt>
      <trkpt lat="45.93179" lon="4.36747">
        <ele>605</ele>
        <time>2016-12-01T08:44:17Z</time>
      </trkpt>
      <trkpt lat="45.93184" lon="4.36738">
        <ele>605</ele>
        <time>2016-12-01T08:44:24Z</time>
      </trkpt>
      <trkpt lat="45.93184" lon="4.36737">
        <ele>605</ele>
        <time>2016-12-01T08:44:25Z</time>
      </trkpt>
      <trkpt lat="45.93191" lon="4.36729">
        <ele>605</ele>
        <time>2016-12-01T08:44:33Z</time>
      </trkpt>
      <trkpt lat="45.93192" lon="4.36728">
        <ele>605</ele>
        <time>2016-12-01T08:44:34Z</time>
      </trkpt>
      <trkpt lat="45.93198" lon="4.36719">
        <ele>605</ele>
        <time>2016-12-01T08:44:41Z</time>
      </trkpt>
      <trkpt lat="45.93198" lon="4.36717">
        <ele>605</ele>
        <time>2016-12-01T08:44:42Z</time>
      </trkpt>
      <trkpt lat="45.93202" lon="4.36705">
        <ele>604</ele>
        <time>2016-12-01T08:44:48Z</time>
      </trkpt>
      <trkpt lat="45.93202" lon="4.36703">
        <ele>604</ele>
        <time>2016-12-01T08:44:49Z</time>
      </trkpt>
      <trkpt lat="45.93203" lon="4.36691">
        <ele>604</ele>
        <time>2016-12-01T08:44:57Z</time>
      </trkpt>
      <trkpt lat="45.93203" lon="4.36689">
        <ele>604</ele>
        <time>2016-12-01T08:44:58Z</time>
      </trkpt>
      <trkpt lat="45.93206" lon="4.36679">
        <ele>603</ele>
        <time>2016-12-01T08:45:04Z</time>
      </trkpt>
      <trkpt lat="45.93207" lon="4.36677">
        <ele>603</ele>
        <time>2016-12-01T08:45:05Z</time>
      </trkpt>
      <trkpt lat="45.93211" lon="4.36666">
        <ele>598</ele>
        <time>2016-12-01T08:45:11Z</time>
      </trkpt>
      <trkpt lat="45.93212" lon="4.36664">
        <ele>598</ele>
        <time>2016-12-01T08:45:12Z</time>
      </trkpt>
      <trkpt lat="45.93216" lon="4.36655">
        <ele>598</ele>
        <time>2016-12-01T08:45:17Z</time>
      </trkpt>
      <trkpt lat="45.93217" lon="4.36653">
        <ele>598</ele>
        <time>2016-12-01T08:45:18Z</time>
      </trkpt>
      <trkpt lat="45.93223" lon="4.36644">
        <ele>598</ele>
        <time>2016-12-01T08:45:24Z</time>
      </trkpt>
      <trkpt lat="45.93223" lon="4.36642">
        <ele>598</ele>
        <time>2016-12-01T08:45:25Z</time>
      </trkpt>
      <trkpt lat="45.93226" lon="4.3663">
        <ele>597</ele>
        <time>2016-12-01T08:45:31Z</time>
      </trkpt>
      <trkpt lat="45.93226" lon="4.36628">
        <ele>597</ele>
        <time>2016-12-01T08:45:32Z</time>
      </trkpt>
      <trkpt lat="45.93229" lon="4.36618">
        <ele>596</ele>
        <time>2016-12-01T08:45:38Z</time>
      </trkpt>
      <trkpt lat="45.93229" lon="4.36616">
        <ele>596</ele>
        <time>2016-12-01T08:45:39Z</time>
      </trkpt>
      <trkpt lat="45.93233" lon="4.36604">
        <ele>595</ele>
        <time>2016-12-01T08:45:45Z</time>
      </trkpt>
      <trkpt lat="45.93233" lon="4.36602">
        <ele>595</ele>
        <time>2016-12-01T08:45:46Z</time>
      </trkpt>
      <trkpt lat="45.93236" lon="4.36592">
        <ele>593</ele>
        <time>2016-12-01T08:45:51Z</time>
      </trkpt>
      <trkpt lat="45.93237" lon="4.3659">
        <ele>593</ele>
        <time>2016-12-01T08:45:52Z</time>
      </trkpt>
      <trkpt lat="45.93237" lon="4.36577">
        <ele>591</ele>
        <time>2016-12-01T08:45:59Z</time>
      </trkpt>
      <trkpt lat="45.93237" lon="4.36575">
        <ele>591</ele>
        <time>2016-12-01T08:46:00Z</time>
      </trkpt>
      <trkpt lat="45.93236" lon="4.36564">
        <ele>591</ele>
        <time>2016-12-01T08:46:06Z</time>
      </trkpt>
      <trkpt lat="45.93236" lon="4.36562">
        <ele>591</ele>
        <time>2016-12-01T08:46:07Z</time>
      </trkpt>
      <trkpt lat="45.93238" lon="4.36551">
        <ele>591</ele>
        <time>2016-12-01T08:46:13Z</time>
      </trkpt>
      <trkpt lat="45.93238" lon="4.36549">
        <ele>591</ele>
        <time>2016-12-01T08:46:14Z</time>
      </trkpt>
      <trkpt lat="45.93238" lon="4.36537">
        <ele>590</ele>
        <time>2016-12-01T08:46:22Z</time>
      </trkpt>
      <trkpt lat="45.93238" lon="4.36536">
        <ele>590</ele>
        <time>2016-12-01T08:46:23Z</time>
      </trkpt>
      <trkpt lat="45.93241" lon="4.36523">
        <ele>588</ele>
        <time>2016-12-01T08:46:31Z</time>
      </trkpt>
      <trkpt lat="45.93241" lon="4.36522">
        <ele>588</ele>
        <time>2016-12-01T08:46:32Z</time>
      </trkpt>
      <trkpt lat="45.93246" lon="4.36512">
        <ele>586</ele>
        <time>2016-12-01T08:46:38Z</time>
      </trkpt>
      <trkpt lat="45.93247" lon="4.3651">
        <ele>585</ele>
        <time>2016-12-01T08:46:39Z</time>
      </trkpt>
      <trkpt lat="45.9325" lon="4.36499">
        <ele>581</ele>
        <time>2016-12-01T08:46:46Z</time>
      </trkpt>
      <trkpt lat="45.93251" lon="4.36497">
        <ele>581</ele>
        <time>2016-12-01T08:46:47Z</time>
      </trkpt>
      <trkpt lat="45.93255" lon="4.36488">
        <ele>580</ele>
        <time>2016-12-01T08:46:54Z</time>
      </trkpt>
      <trkpt lat="45.93256" lon="4.36486">
        <ele>580</ele>
        <time>2016-12-01T08:46:55Z</time>
      </trkpt>
      <trkpt lat="45.93259" lon="4.36475">
        <ele>580</ele>
        <time>2016-12-01T08:47:02Z</time>
      </trkpt>
      <trkpt lat="45.9326" lon="4.36474">
        <ele>580</ele>
        <time>2016-12-01T08:47:03Z</time>
      </trkpt>
      <trkpt lat="45.93262" lon="4.36462">
        <ele>579</ele>
        <time>2016-12-01T08:47:12Z</time>
      </trkpt>
      <trkpt lat="45.93262" lon="4.3646">
        <ele>579</ele>
        <time>2016-12-01T08:47:13Z</time>
      </trkpt>
      <trkpt lat="45.93264" lon="4.3645">
        <ele>578</ele>
        <time>2016-12-01T08:47:19Z</time>
      </trkpt>
      <trkpt lat="45.93264" lon="4.36447">
        <ele>577</ele>
        <time>2016-12-01T08:47:20Z</time>
      </trkpt>
      <trkpt lat="45.93267" lon="4.36436">
        <ele>576</ele>
        <time>2016-12-01T08:47:26Z</time>
      </trkpt>
      <trkpt lat="45.93267" lon="4.36434">
        <ele>576</ele>
        <time>2016-12-01T08:47:27Z</time>
      </trkpt>
      <trkpt lat="45.93267" lon="4.36423">
        <ele>575</ele>
        <time>2016-12-01T08:47:35Z</time>
      </trkpt>
      <trkpt lat="45.93267" lon="4.36421">
        <ele>575</ele>
        <time>2016-12-01T08:47:36Z</time>
      </trkpt>
      <trkpt lat="45.93268" lon="4.36409">
        <ele>571</ele>
        <time>2016-12-01T08:47:43Z</time>
      </trkpt>
      <trkpt lat="45.93269" lon="4.36408">
        <ele>571</ele>
        <time>2016-12-01T08:47:44Z</time>
      </trkpt>
      <trkpt lat="45.93271" lon="4.36397">
        <ele>570</ele>
        <time>2016-12-01T08:47:50Z</time>
      </trkpt>
      <trkpt lat="45.93271" lon="4.36395">
        <ele>570</ele>
        <time>2016-12-01T08:47:51Z</time>
      </trkpt>
      <trkpt lat="45.93273" lon="4.36384">
        <ele>570</ele>
        <time>2016-12-01T08:47:58Z</time>
      </trkpt>
      <trkpt lat="45.93273" lon="4.36382">
        <ele>570</ele>
        <time>2016-12-01T08:47:59Z</time>
      </trkpt>
      <trkpt lat="45.93279" lon="4.36374">
        <ele>570</ele>
        <time>2016-12-01T08:48:06Z</time>
      </trkpt>
      <trkpt lat="45.93279" lon="4.36371">
        <ele>570</ele>
        <time>2016-12-01T08:48:07Z</time>
      </trkpt>
      <trkpt lat="45.93284" lon="4.36361">
        <ele>569</ele>
        <time>2016-12-01T08:48:13Z</time>
      </trkpt>
      <trkpt lat="45.93285" lon="4.36359">
        <ele>569</ele>
        <time>2016-12-01T08:48:14Z</time>
      </trkpt>
      <trkpt lat="45.93289" lon="4.36349">
        <ele>569</ele>
        <time>2016-12-01T08:48:20Z</time>
      </trkpt>
      <trkpt lat="45.9329" lon="4.36347">
        <ele>569</ele>
        <time>2016-12-01T08:48:21Z</time>
      </trkpt>
      <trkpt lat="45.93295" lon="4.36338">
        <ele>569</ele>
        <time>2016-12-01T08:48:27Z</time>
      </trkpt>
      <trkpt lat="45.93295" lon="4.36336">
        <ele>569</ele>
        <time>2016-12-01T08:48:28Z</time>
      </trkpt>
      <trkpt lat="45.933" lon="4.36325">
        <ele>565</ele>
        <time>2016-12-01T08:48:35Z</time>
      </trkpt>
      <trkpt lat="45.933" lon="4.36324">
        <ele>565</ele>
        <time>2016-12-01T08:48:36Z</time>
      </trkpt>
      <trkpt lat="45.93305" lon="4.36315">
        <ele>565</ele>
        <time>2016-12-01T08:48:42Z</time>
      </trkpt>
      <trkpt lat="45.93307" lon="4.36313">
        <ele>565</ele>
        <time>2016-12-01T08:48:43Z</time>
      </trkpt>
      <trkpt lat="45.93313" lon="4.36305">
        <ele>565</ele>
        <time>2016-12-01T08:48:48Z</time>
      </trkpt>
      <trkpt lat="45.93314" lon="4.36304">
        <ele>565</ele>
        <time>2016-12-01T08:48:49Z</time>
      </trkpt>
      <trkpt lat="45.9332" lon="4.36295">
        <ele>564</ele>
        <time>2016-12-01T08:48:56Z</time>
      </trkpt>
      <trkpt lat="45.93321" lon="4.36294">
        <ele>564</ele>
        <time>2016-12-01T08:48:57Z</time>
      </trkpt>
      <trkpt lat="45.93327" lon="4.36285">
        <ele>563</ele>
        <time>2016-12-01T08:49:03Z</time>
      </trkpt>
      <trkpt lat="45.93328" lon="4.36285">
        <ele>563</ele>
        <time>2016-12-01T08:49:04Z</time>
      </trkpt>
      <trkpt lat="45.93334" lon="4.36275">
        <ele>561</ele>
        <time>2016-12-01T08:49:12Z</time>
      </trkpt>
      <trkpt lat="45.93335" lon="4.36274">
        <ele>561</ele>
        <time>2016-12-01T08:49:13Z</time>
      </trkpt>
      <trkpt lat="45.93342" lon="4.36266">
        <ele>560</ele>
        <time>2016-12-01T08:49:20Z</time>
      </trkpt>
      <trkpt lat="45.93343" lon="4.36265">
        <ele>560</ele>
        <time>2016-12-01T08:49:21Z</time>
      </trkpt>
      <trkpt lat="45.93349" lon="4.36256">
        <ele>559</ele>
        <time>2016-12-01T08:49:28Z</time>
      </trkpt>
      <trkpt lat="45.9335" lon="4.36255">
        <ele>559</ele>
        <time>2016-12-01T08:49:29Z</time>
      </trkpt>
      <trkpt lat="45.93356" lon="4.36248">
        <ele>557</ele>
        <time>2016-12-01T08:49:36Z</time>
      </trkpt>
      <trkpt lat="45.93358" lon="4.36247">
        <ele>557</ele>
        <time>2016-12-01T08:49:37Z</time>
      </trkpt>
      <trkpt lat="45.93366" lon="4.36242">
        <ele>556</ele>
        <time>2016-12-01T08:49:44Z</time>
      </trkpt>
      <trkpt lat="45.93367" lon="4.36241">
        <ele>556</ele>
        <time>2016-12-01T08:49:45Z</time>
      </trkpt>
      <trkpt lat="45.93372" lon="4.36233">
        <ele>556</ele>
        <time>2016-12-01T08:49:51Z</time>
      </trkpt>
      <trkpt lat="45.93373" lon="4.36232">
        <ele>556</ele>
        <time>2016-12-01T08:49:52Z</time>
      </trkpt>
      <trkpt lat="45.93381" lon="4.36229">
        <ele>556</ele>
        <time>2016-12-01T08:49:58Z</time>
      </trkpt>
      <trkpt lat="45.93382" lon="4.36229">
        <ele>556</ele>
        <time>2016-12-01T08:49:59Z</time>
      </trkpt>
      <trkpt lat="45.93391" lon="4.36229">
        <ele>555</ele>
        <time>2016-12-01T08:50:06Z</time>
      </trkpt>
      <trkpt lat="45.93392" lon="4.36229">
        <ele>555</ele>
        <time>2016-12-01T08:50:07Z</time>
      </trkpt>
      <trkpt lat="45.934" lon="4.36228">
        <ele>555</ele>
        <time>2016-12-01T08:50:14Z</time>
      </trkpt>
      <trkpt lat="45.93402" lon="4.36228">
        <ele>555</ele>
        <time>2016-12-01T08:50:15Z</time>
      </trkpt>
      <trkpt lat="45.9341" lon="4.36225">
        <ele>555</ele>
        <time>2016-12-01T08:50:24Z</time>
      </trkpt>
      <trkpt lat="45.93411" lon="4.36225">
        <ele>555</ele>
        <time>2016-12-01T08:50:25Z</time>
      </trkpt>
      <trkpt lat="45.93418" lon="4.36221">
        <ele>551</ele>
        <time>2016-12-01T08:50:30Z</time>
      </trkpt>
      <trkpt lat="45.9342" lon="4.36221">
        <ele>551</ele>
        <time>2016-12-01T08:50:31Z</time>
      </trkpt>
      <trkpt lat="45.93428" lon="4.36219">
        <ele>551</ele>
        <time>2016-12-01T08:50:37Z</time>
      </trkpt>
      <trkpt lat="45.9343" lon="4.36219">
        <ele>551</ele>
        <time>2016-12-01T08:50:38Z</time>
      </trkpt>
      <trkpt lat="45.93435" lon="4.36209">
        <ele>551</ele>
        <time>2016-12-01T08:50:49Z</time>
      </trkpt>
      <trkpt lat="45.93435" lon="4.36208">
        <ele>551</ele>
        <time>2016-12-01T08:50:50Z</time>
      </trkpt>
      <trkpt lat="45.93432" lon="4.36197">
        <ele>550</ele>
        <time>2016-12-01T08:51:04Z</time>
      </trkpt>
      <trkpt lat="45.93432" lon="4.36195">
        <ele>550</ele>
        <time>2016-12-01T08:51:05Z</time>
      </trkpt>
      <trkpt lat="45.93431" lon="4.36183">
        <ele>550</ele>
        <time>2016-12-01T08:51:14Z</time>
      </trkpt>
      <trkpt lat="45.93431" lon="4.36182">
        <ele>550</ele>
        <time>2016-12-01T08:51:15Z</time>
      </trkpt>
      <trkpt lat="45.93433" lon="4.3617">
        <ele>549</ele>
        <time>2016-12-01T08:51:27Z</time>
      </trkpt>
      <trkpt lat="45.93434" lon="4.36169">
        <ele>549</ele>
        <time>2016-12-01T08:51:28Z</time>
      </trkpt>
      <trkpt lat="45.93439" lon="4.36158">
        <ele>551</ele>
        <time>2016-12-01T08:51:36Z</time>
      </trkpt>
      <trkpt lat="45.93439" lon="4.36157">
        <ele>551</ele>
        <time>2016-12-01T08:51:37Z</time>
      </trkpt>
      <trkpt lat="45.93447" lon="4.3615">
        <ele>551</ele>
        <time>2016-12-01T08:51:48Z</time>
      </trkpt>
      <trkpt lat="45.93447" lon="4.36149">
        <ele>551</ele>
        <time>2016-12-01T08:51:49Z</time>
      </trkpt>
      <trkpt lat="45.93451" lon="4.36139">
        <ele>552</ele>
        <time>2016-12-01T08:51:57Z</time>
      </trkpt>
      <trkpt lat="45.93452" lon="4.36138">
        <ele>552</ele>
        <time>2016-12-01T08:51:58Z</time>
      </trkpt>
      <trkpt lat="45.93459" lon="4.3613">
        <ele>552</ele>
        <time>2016-12-01T08:52:07Z</time>
      </trkpt>
      <trkpt lat="45.9346" lon="4.36129">
        <ele>552</ele>
        <time>2016-12-01T08:52:08Z</time>
      </trkpt>
      <trkpt lat="45.93466" lon="4.36122">
        <ele>552</ele>
        <time>2016-12-01T08:52:14Z</time>
      </trkpt>
      <trkpt lat="45.93467" lon="4.3612">
        <ele>552</ele>
        <time>2016-12-01T08:52:15Z</time>
      </trkpt>
      <trkpt lat="45.93474" lon="4.36113">
        <ele>551</ele>
        <time>2016-12-01T08:52:21Z</time>
      </trkpt>
      <trkpt lat="45.93475" lon="4.36112">
        <ele>551</ele>
        <time>2016-12-01T08:52:22Z</time>
      </trkpt>
      <trkpt lat="45.93481" lon="4.36105">
        <ele>550</ele>
        <time>2016-12-01T08:52:27Z</time>
      </trkpt>
      <trkpt lat="45.93482" lon="4.36104">
        <ele>550</ele>
        <time>2016-12-01T08:52:28Z</time>
      </trkpt>
      <trkpt lat="45.93488" lon="4.36097">
        <ele>549</ele>
        <time>2016-12-01T08:52:33Z</time>
      </trkpt>
      <trkpt lat="45.9349" lon="4.36097">
        <ele>548</ele>
        <time>2016-12-01T08:52:34Z</time>
      </trkpt>
      <trkpt lat="45.93497" lon="4.36091">
        <ele>547</ele>
        <time>2016-12-01T08:52:39Z</time>
      </trkpt>
      <trkpt lat="45.93498" lon="4.3609">
        <ele>546</ele>
        <time>2016-12-01T08:52:40Z</time>
      </trkpt>
      <trkpt lat="45.93506" lon="4.36087">
        <ele>544</ele>
        <time>2016-12-01T08:52:47Z</time>
      </trkpt>
      <trkpt lat="45.93507" lon="4.36086">
        <ele>544</ele>
        <time>2016-12-01T08:52:48Z</time>
      </trkpt>
      <trkpt lat="45.93514" lon="4.3608">
        <ele>545</ele>
        <time>2016-12-01T08:52:54Z</time>
      </trkpt>
      <trkpt lat="45.93515" lon="4.36079">
        <ele>545</ele>
        <time>2016-12-01T08:52:55Z</time>
      </trkpt>
      <trkpt lat="45.93521" lon="4.3607">
        <ele>545</ele>
        <time>2016-12-01T08:53:04Z</time>
      </trkpt>
      <trkpt lat="45.93522" lon="4.36069">
        <ele>545</ele>
        <time>2016-12-01T08:53:05Z</time>
      </trkpt>
      <trkpt lat="45.93529" lon="4.36063">
        <ele>545</ele>
        <time>2016-12-01T08:53:11Z</time>
      </trkpt>
      <trkpt lat="45.9353" lon="4.36061">
        <ele>545</ele>
        <time>2016-12-01T08:53:12Z</time>
      </trkpt>
      <trkpt lat="45.93537" lon="4.36056">
        <ele>545</ele>
        <time>2016-12-01T08:53:18Z</time>
      </trkpt>
      <trkpt lat="45.93538" lon="4.36055">
        <ele>545</ele>
        <time>2016-12-01T08:53:19Z</time>
      </trkpt>
      <trkpt lat="45.93544" lon="4.36047">
        <ele>545</ele>
        <time>2016-12-01T08:53:26Z</time>
      </trkpt>
      <trkpt lat="45.93545" lon="4.36045">
        <ele>545</ele>
        <time>2016-12-01T08:53:27Z</time>
      </trkpt>
      <trkpt lat="45.93549" lon="4.36035">
        <ele>545</ele>
        <time>2016-12-01T08:53:32Z</time>
      </trkpt>
      <trkpt lat="45.9355" lon="4.36034">
        <ele>545</ele>
        <time>2016-12-01T08:53:33Z</time>
      </trkpt>
      <trkpt lat="45.93556" lon="4.36025">
        <ele>545</ele>
        <time>2016-12-01T08:53:40Z</time>
      </trkpt>
      <trkpt lat="45.93556" lon="4.36024">
        <ele>545</ele>
        <time>2016-12-01T08:53:41Z</time>
      </trkpt>
      <trkpt lat="45.93561" lon="4.36013">
        <ele>544</ele>
        <time>2016-12-01T08:53:50Z</time>
      </trkpt>
      <trkpt lat="45.93562" lon="4.36012">
        <ele>544</ele>
        <time>2016-12-01T08:53:51Z</time>
      </trkpt>
      <trkpt lat="45.93569" lon="4.36004">
        <ele>543</ele>
        <time>2016-12-01T08:54:00Z</time>
      </trkpt>
      <trkpt lat="45.93569" lon="4.36003">
        <ele>543</ele>
        <time>2016-12-01T08:54:01Z</time>
      </trkpt>
      <trkpt lat="45.93573" lon="4.35991">
        <ele>547</ele>
        <time>2016-12-01T08:54:08Z</time>
      </trkpt>
      <trkpt lat="45.93574" lon="4.3599">
        <ele>548</ele>
        <time>2016-12-01T08:54:09Z</time>
      </trkpt>
      <trkpt lat="45.9358" lon="4.35982">
        <ele>549</ele>
        <time>2016-12-01T08:54:17Z</time>
      </trkpt>
      <trkpt lat="45.93581" lon="4.3598">
        <ele>549</ele>
        <time>2016-12-01T08:54:18Z</time>
      </trkpt>
      <trkpt lat="45.93586" lon="4.35971">
        <ele>540</ele>
        <time>2016-12-01T08:54:27Z</time>
      </trkpt>
      <trkpt lat="45.93587" lon="4.3597">
        <ele>540</ele>
        <time>2016-12-01T08:54:28Z</time>
      </trkpt>
      <trkpt lat="45.93593" lon="4.35962">
        <ele>541</ele>
        <time>2016-12-01T08:54:36Z</time>
      </trkpt>
      <trkpt lat="45.93594" lon="4.3596">
        <ele>541</ele>
        <time>2016-12-01T08:54:37Z</time>
      </trkpt>
      <trkpt lat="45.93598" lon="4.35949">
        <ele>541</ele>
        <time>2016-12-01T08:54:43Z</time>
      </trkpt>
      <trkpt lat="45.93599" lon="4.35948">
        <ele>541</ele>
        <time>2016-12-01T08:54:44Z</time>
      </trkpt>
      <trkpt lat="45.93605" lon="4.3594">
        <ele>542</ele>
        <time>2016-12-01T08:54:50Z</time>
      </trkpt>
      <trkpt lat="45.93606" lon="4.35939">
        <ele>542</ele>
        <time>2016-12-01T08:54:51Z</time>
      </trkpt>
      <trkpt lat="45.93609" lon="4.35927">
        <ele>542</ele>
        <time>2016-12-01T08:55:01Z</time>
      </trkpt>
      <trkpt lat="45.93609" lon="4.35926">
        <ele>542</ele>
        <time>2016-12-01T08:55:02Z</time>
      </trkpt>
      <trkpt lat="45.93616" lon="4.35918">
        <ele>541</ele>
        <time>2016-12-01T08:55:10Z</time>
      </trkpt>
      <trkpt lat="45.93617" lon="4.35916">
        <ele>544</ele>
        <time>2016-12-01T08:55:11Z</time>
      </trkpt>
      <trkpt lat="45.93622" lon="4.35907">
        <ele>544</ele>
        <time>2016-12-01T08:55:16Z</time>
      </trkpt>
      <trkpt lat="45.93623" lon="4.35905">
        <ele>544</ele>
        <time>2016-12-01T08:55:17Z</time>
      </trkpt>
      <trkpt lat="45.93626" lon="4.35895">
        <ele>544</ele>
        <time>2016-12-01T08:55:23Z</time>
      </trkpt>
      <trkpt lat="45.93626" lon="4.35893">
        <ele>544</ele>
        <time>2016-12-01T08:55:24Z</time>
      </trkpt>
      <trkpt lat="45.93624" lon="4.35881">
        <ele>544</ele>
        <time>2016-12-01T08:55:30Z</time>
      </trkpt>
      <trkpt lat="45.93624" lon="4.35879">
        <ele>544</ele>
        <time>2016-12-01T08:55:31Z</time>
      </trkpt>
      <trkpt lat="45.9362" lon="4.3587">
        <ele>545</ele>
        <time>2016-12-01T08:55:37Z</time>
      </trkpt>
      <trkpt lat="45.93619" lon="4.35868">
        <ele>546</ele>
        <time>2016-12-01T08:55:38Z</time>
      </trkpt>
      <trkpt lat="45.93615" lon="4.35858">
        <ele>547</ele>
        <time>2016-12-01T08:55:45Z</time>
      </trkpt>
      <trkpt lat="45.93615" lon="4.35857">
        <ele>547</ele>
        <time>2016-12-01T08:55:46Z</time>
      </trkpt>
      <trkpt lat="45.93611" lon="4.35846">
        <ele>549</ele>
        <time>2016-12-01T08:55:54Z</time>
      </trkpt>
      <trkpt lat="45.93611" lon="4.35844">
        <ele>549</ele>
        <time>2016-12-01T08:55:55Z</time>
      </trkpt>
      <trkpt lat="45.93609" lon="4.35832">
        <ele>554</ele>
        <time>2016-12-01T08:56:04Z</time>
      </trkpt>
      <trkpt lat="45.93609" lon="4.3583">
        <ele>554</ele>
        <time>2016-12-01T08:56:05Z</time>
      </trkpt>
      <trkpt lat="45.93613" lon="4.35819">
        <ele>553</ele>
        <time>2016-12-01T08:56:13Z</time>
      </trkpt>
      <trkpt lat="45.93613" lon="4.35818">
        <ele>553</ele>
        <time>2016-12-01T08:56:14Z</time>
      </trkpt>
      <trkpt lat="45.93619" lon="4.35809">
        <ele>552</ele>
        <time>2016-12-01T08:56:27Z</time>
      </trkpt>
      <trkpt lat="45.9362" lon="4.35808">
        <ele>552</ele>
        <time>2016-12-01T08:56:28Z</time>
      </trkpt>
      <trkpt lat="45.93625" lon="4.35799">
        <ele>551</ele>
        <time>2016-12-01T08:56:37Z</time>
      </trkpt>
      <trkpt lat="45.93626" lon="4.35797">
        <ele>551</ele>
        <time>2016-12-01T08:56:38Z</time>
      </trkpt>
      <trkpt lat="45.93631" lon="4.35787">
        <ele>551</ele>
        <time>2016-12-01T08:56:44Z</time>
      </trkpt>
      <trkpt lat="45.93632" lon="4.35786">
        <ele>551</ele>
        <time>2016-12-01T08:56:45Z</time>
      </trkpt>
      <trkpt lat="45.93638" lon="4.35779">
        <ele>550</ele>
        <time>2016-12-01T08:56:50Z</time>
      </trkpt>
      <trkpt lat="45.93639" lon="4.35777">
        <ele>550</ele>
        <time>2016-12-01T08:56:51Z</time>
      </trkpt>
      <trkpt lat="45.93642" lon="4.35766">
        <ele>549</ele>
        <time>2016-12-01T08:56:57Z</time>
      </trkpt>
      <trkpt lat="45.93643" lon="4.35764">
        <ele>549</ele>
        <time>2016-12-01T08:56:58Z</time>
      </trkpt>
      <trkpt lat="45.93643" lon="4.35752">
        <ele>549</ele>
        <time>2016-12-01T08:57:04Z</time>
      </trkpt>
      <trkpt lat="45.93643" lon="4.3575">
        <ele>549</ele>
        <time>2016-12-01T08:57:05Z</time>
      </trkpt>
      <trkpt lat="45.93643" lon="4.35738">
        <ele>553</ele>
        <time>2016-12-01T08:57:11Z</time>
      </trkpt>
      <trkpt lat="45.93643" lon="4.35736">
        <ele>553</ele>
        <time>2016-12-01T08:57:12Z</time>
      </trkpt>
      <trkpt lat="45.93644" lon="4.35724">
        <ele>554</ele>
        <time>2016-12-01T08:57:18Z</time>
      </trkpt>
      <trkpt lat="45.93644" lon="4.35722">
        <ele>554</ele>
        <time>2016-12-01T08:57:19Z</time>
      </trkpt>
      <trkpt lat="45.93648" lon="4.3571">
        <ele>554</ele>
        <time>2016-12-01T08:57:25Z</time>
      </trkpt>
      <trkpt lat="45.93648" lon="4.35709">
        <ele>554</ele>
        <time>2016-12-01T08:57:26Z</time>
      </trkpt>
      <trkpt lat="45.93653" lon="4.35699">
        <ele>554</ele>
        <time>2016-12-01T08:57:31Z</time>
      </trkpt>
      <trkpt lat="45.93654" lon="4.35698">
        <ele>553</ele>
        <time>2016-12-01T08:57:32Z</time>
      </trkpt>
      <trkpt lat="45.93658" lon="4.35688">
        <ele>552</ele>
        <time>2016-12-01T08:57:37Z</time>
      </trkpt>
      <trkpt lat="45.93659" lon="4.35686">
        <ele>552</ele>
        <time>2016-12-01T08:57:38Z</time>
      </trkpt>
      <trkpt lat="45.93665" lon="4.35679">
        <ele>551</ele>
        <time>2016-12-01T08:57:45Z</time>
      </trkpt>
      <trkpt lat="45.93666" lon="4.35678">
        <ele>550</ele>
        <time>2016-12-01T08:57:46Z</time>
      </trkpt>
      <trkpt lat="45.93671" lon="4.35668">
        <ele>546</ele>
        <time>2016-12-01T08:57:55Z</time>
      </trkpt>
      <trkpt lat="45.93671" lon="4.35667">
        <ele>546</ele>
        <time>2016-12-01T08:57:56Z</time>
      </trkpt>
      <trkpt lat="45.93673" lon="4.35655">
        <ele>547</ele>
        <time>2016-12-01T08:58:05Z</time>
      </trkpt>
      <trkpt lat="45.93674" lon="4.35654">
        <ele>547</ele>
        <time>2016-12-01T08:58:06Z</time>
      </trkpt>
      <trkpt lat="45.93681" lon="4.35647">
        <ele>547</ele>
        <time>2016-12-01T08:58:15Z</time>
      </trkpt>
      <trkpt lat="45.93682" lon="4.35646">
        <ele>547</ele>
        <time>2016-12-01T08:58:16Z</time>
      </trkpt>
      <trkpt lat="45.93686" lon="4.35636">
        <ele>548</ele>
        <time>2016-12-01T08:58:24Z</time>
      </trkpt>
      <trkpt lat="45.93687" lon="4.35634">
        <ele>548</ele>
        <time>2016-12-01T08:58:25Z</time>
      </trkpt>
      <trkpt lat="45.93694" lon="4.35628">
        <ele>548</ele>
        <time>2016-12-01T08:58:32Z</time>
      </trkpt>
      <trkpt lat="45.93695" lon="4.35627">
        <ele>548</ele>
        <time>2016-12-01T08:58:33Z</time>
      </trkpt>
      <trkpt lat="45.937" lon="4.35618">
        <ele>548</ele>
        <time>2016-12-01T08:58:40Z</time>
      </trkpt>
      <trkpt lat="45.93701" lon="4.35617">
        <ele>548</ele>
        <time>2016-12-01T08:58:41Z</time>
      </trkpt>
      <trkpt lat="45.93705" lon="4.35607">
        <ele>549</ele>
        <time>2016-12-01T08:58:48Z</time>
      </trkpt>
      <trkpt lat="45.93706" lon="4.35606">
        <ele>549</ele>
        <time>2016-12-01T08:58:49Z</time>
      </trkpt>
      <trkpt lat="45.93713" lon="4.35601">
        <ele>549</ele>
        <time>2016-12-01T08:58:57Z</time>
      </trkpt>
      <trkpt lat="45.93714" lon="4.35601">
        <ele>549</ele>
        <time>2016-12-01T08:58:58Z</time>
      </trkpt>
      <trkpt lat="45.93721" lon="4.35593">
        <ele>549</ele>
        <time>2016-12-01T08:59:05Z</time>
      </trkpt>
      <trkpt lat="45.93722" lon="4.35592">
        <ele>549</ele>
        <time>2016-12-01T08:59:06Z</time>
      </trkpt>
      <trkpt lat="45.93725" lon="4.35581">
        <ele>555</ele>
        <time>2016-12-01T08:59:14Z</time>
      </trkpt>
      <trkpt lat="45.93725" lon="4.3558">
        <ele>555</ele>
        <time>2016-12-01T08:59:15Z</time>
      </trkpt>
      <trkpt lat="45.93728" lon="4.35567">
        <ele>555</ele>
        <time>2016-12-01T08:59:23Z</time>
      </trkpt>
      <trkpt lat="45.93728" lon="4.35566">
        <ele>555</ele>
        <time>2016-12-01T08:59:24Z</time>
      </trkpt>
      <trkpt lat="45.93729" lon="4.35554">
        <ele>556</ele>
        <time>2016-12-01T08:59:32Z</time>
      </trkpt>
      <trkpt lat="45.93729" lon="4.35553">
        <ele>556</ele>
        <time>2016-12-01T08:59:33Z</time>
      </trkpt>
      <trkpt lat="45.93736" lon="4.35546">
        <ele>557</ele>
        <time>2016-12-01T08:59:42Z</time>
      </trkpt>
      <trkpt lat="45.93737" lon="4.35545">
        <ele>557</ele>
        <time>2016-12-01T08:59:43Z</time>
      </trkpt>
      <trkpt lat="45.9374" lon="4.35534">
        <ele>557</ele>
        <time>2016-12-01T08:59:53Z</time>
      </trkpt>
      <trkpt lat="45.93739" lon="4.35532">
        <ele>558</ele>
        <time>2016-12-01T08:59:54Z</time>
      </trkpt>
      <trkpt lat="45.93737" lon="4.3552">
        <ele>558</ele>
        <time>2016-12-01T09:00:04Z</time>
      </trkpt>
      <trkpt lat="45.93736" lon="4.35519">
        <ele>559</ele>
        <time>2016-12-01T09:00:05Z</time>
      </trkpt>
      <trkpt lat="45.93731" lon="4.35508">
        <ele>559</ele>
        <time>2016-12-01T09:00:14Z</time>
      </trkpt>
      <trkpt lat="45.9373" lon="4.35508">
        <ele>559</ele>
        <time>2016-12-01T09:00:15Z</time>
      </trkpt>
      <trkpt lat="45.93721" lon="4.35506">
        <ele>559</ele>
        <time>2016-12-01T09:00:25Z</time>
      </trkpt>
      <trkpt lat="45.9372" lon="4.35505">
        <ele>559</ele>
        <time>2016-12-01T09:00:26Z</time>
      </trkpt>
      <trkpt lat="45.93713" lon="4.35504">
        <ele>559</ele>
        <time>2016-12-01T09:00:33Z</time>
      </trkpt>
      <trkpt lat="45.93711" lon="4.35504">
        <ele>559</ele>
        <time>2016-12-01T09:00:34Z</time>
      </trkpt>
      <trkpt lat="45.93703" lon="4.35504">
        <ele>559</ele>
        <time>2016-12-01T09:00:41Z</time>
      </trkpt>
      <trkpt lat="45.93701" lon="4.35504">
        <ele>559</ele>
        <time>2016-12-01T09:00:42Z</time>
      </trkpt>
      <trkpt lat="45.93693" lon="4.35505">
        <ele>559</ele>
        <time>2016-12-01T09:00:48Z</time>
      </trkpt>
      <trkpt lat="45.93692" lon="4.35505">
        <ele>559</ele>
        <time>2016-12-01T09:00:49Z</time>
      </trkpt>
      <trkpt lat="45.93683" lon="4.35505">
        <ele>559</ele>
        <time>2016-12-01T09:00:56Z</time>
      </trkpt>
      <trkpt lat="45.93682" lon="4.35505">
        <ele>559</ele>
        <time>2016-12-01T09:00:57Z</time>
      </trkpt>
      <trkpt lat="45.93674" lon="4.35508">
        <ele>560</ele>
        <time>2016-12-01T09:01:03Z</time>
      </trkpt>
      <trkpt lat="45.93673" lon="4.35509">
        <ele>560</ele>
        <time>2016-12-01T09:01:04Z</time>
      </trkpt>
      <trkpt lat="45.93665" lon="4.35515">
        <ele>563</ele>
        <time>2016-12-01T09:01:11Z</time>
      </trkpt>
      <trkpt lat="45.93664" lon="4.35516">
        <ele>563</ele>
        <time>2016-12-01T09:01:12Z</time>
      </trkpt>
      <trkpt lat="45.93657" lon="4.35523">
        <ele>564</ele>
        <time>2016-12-01T09:01:19Z</time>
      </trkpt>
      <trkpt lat="45.93656" lon="4.35524">
        <ele>564</ele>
        <time>2016-12-01T09:01:20Z</time>
      </trkpt>
      <trkpt lat="45.93649" lon="4.3553">
        <ele>565</ele>
        <time>2016-12-01T09:01:27Z</time>
      </trkpt>
      <trkpt lat="45.93648" lon="4.35531">
        <ele>565</ele>
        <time>2016-12-01T09:01:28Z</time>
      </trkpt>
      <trkpt lat="45.93642" lon="4.35541">
        <ele>565</ele>
        <time>2016-12-01T09:01:36Z</time>
      </trkpt>
      <trkpt lat="45.93642" lon="4.35542">
        <ele>565</ele>
        <time>2016-12-01T09:01:37Z</time>
      </trkpt>
      <trkpt lat="45.93635" lon="4.35548">
        <ele>565</ele>
        <time>2016-12-01T09:01:45Z</time>
      </trkpt>
      <trkpt lat="45.93634" lon="4.3555">
        <ele>566</ele>
        <time>2016-12-01T09:01:46Z</time>
      </trkpt>
      <trkpt lat="45.93627" lon="4.35557">
        <ele>566</ele>
        <time>2016-12-01T09:01:56Z</time>
      </trkpt>
      <trkpt lat="45.93626" lon="4.35557">
        <ele>566</ele>
        <time>2016-12-01T09:01:57Z</time>
      </trkpt>
      <trkpt lat="45.93618" lon="4.35562">
        <ele>567</ele>
        <time>2016-12-01T09:02:09Z</time>
      </trkpt>
      <trkpt lat="45.93618" lon="4.35563">
        <ele>567</ele>
        <time>2016-12-01T09:02:10Z</time>
      </trkpt>
      <trkpt lat="45.9361" lon="4.3557">
        <ele>569</ele>
        <time>2016-12-01T09:02:19Z</time>
      </trkpt>
      <trkpt lat="45.93609" lon="4.3557">
        <ele>569</ele>
        <time>2016-12-01T09:02:20Z</time>
      </trkpt>
      <trkpt lat="45.93602" lon="4.35574">
        <ele>570</ele>
        <time>2016-12-01T09:02:29Z</time>
      </trkpt>
      <trkpt lat="45.93601" lon="4.35575">
        <ele>571</ele>
        <time>2016-12-01T09:02:30Z</time>
      </trkpt>
      <trkpt lat="45.93594" lon="4.3558">
        <ele>572</ele>
        <time>2016-12-01T09:02:39Z</time>
      </trkpt>
      <trkpt lat="45.93592" lon="4.3558">
        <ele>573</ele>
        <time>2016-12-01T09:02:40Z</time>
      </trkpt>
      <trkpt lat="45.93585" lon="4.35585">
        <ele>575</ele>
        <time>2016-12-01T09:02:50Z</time>
      </trkpt>
      <trkpt lat="45.93584" lon="4.35585">
        <ele>575</ele>
        <time>2016-12-01T09:02:51Z</time>
      </trkpt>
      <trkpt lat="45.93576" lon="4.35591">
        <ele>578</ele>
        <time>2016-12-01T09:03:04Z</time>
      </trkpt>
      <trkpt lat="45.93576" lon="4.35591">
        <ele>579</ele>
        <time>2016-12-01T09:03:05Z</time>
      </trkpt>
      <trkpt lat="45.93568" lon="4.35597">
        <ele>580</ele>
        <time>2016-12-01T09:03:17Z</time>
      </trkpt>
      <trkpt lat="45.93567" lon="4.35597">
        <ele>580</ele>
        <time>2016-12-01T09:03:18Z</time>
      </trkpt>
      <trkpt lat="45.93561" lon="4.35605">
        <ele>581</ele>
        <time>2016-12-01T09:03:28Z</time>
      </trkpt>
      <trkpt lat="45.93561" lon="4.35606">
        <ele>581</ele>
        <time>2016-12-01T09:03:29Z</time>
      </trkpt>
      <trkpt lat="45.93552" lon="4.35611">
        <ele>582</ele>
        <time>2016-12-01T09:03:41Z</time>
      </trkpt>
      <trkpt lat="45.93552" lon="4.35612">
        <ele>582</ele>
        <time>2016-12-01T09:03:42Z</time>
      </trkpt>
      <trkpt lat="45.93544" lon="4.35616">
        <ele>583</ele>
        <time>2016-12-01T09:03:52Z</time>
      </trkpt>
      <trkpt lat="45.93543" lon="4.35617">
        <ele>583</ele>
        <time>2016-12-01T09:03:53Z</time>
      </trkpt>
      <trkpt lat="45.93534" lon="4.3562">
        <ele>584</ele>
        <time>2016-12-01T09:04:02Z</time>
      </trkpt>
      <trkpt lat="45.93533" lon="4.3562">
        <ele>584</ele>
        <time>2016-12-01T09:04:03Z</time>
      </trkpt>
      <trkpt lat="45.93525" lon="4.35624">
        <ele>585</ele>
        <time>2016-12-01T09:04:14Z</time>
      </trkpt>
      <trkpt lat="45.93524" lon="4.35625">
        <ele>585</ele>
        <time>2016-12-01T09:04:15Z</time>
      </trkpt>
      <trkpt lat="45.93516" lon="4.35629">
        <ele>586</ele>
        <time>2016-12-01T09:04:25Z</time>
      </trkpt>
      <trkpt lat="45.93515" lon="4.35629">
        <ele>586</ele>
        <time>2016-12-01T09:04:26Z</time>
      </trkpt>
      <trkpt lat="45.93506" lon="4.3563">
        <ele>587</ele>
        <time>2016-12-01T09:04:36Z</time>
      </trkpt>
      <trkpt lat="45.93505" lon="4.35631">
        <ele>587</ele>
        <time>2016-12-01T09:04:37Z</time>
      </trkpt>
      <trkpt lat="45.93497" lon="4.35634">
        <ele>596</ele>
        <time>2016-12-01T09:04:47Z</time>
      </trkpt>
      <trkpt lat="45.93496" lon="4.35634">
        <ele>596</ele>
        <time>2016-12-01T09:04:48Z</time>
      </trkpt>
      <trkpt lat="45.93488" lon="4.35637">
        <ele>596</ele>
        <time>2016-12-01T09:04:56Z</time>
      </trkpt>
      <trkpt lat="45.93487" lon="4.35637">
        <ele>596</ele>
        <time>2016-12-01T09:04:57Z</time>
      </trkpt>
      <trkpt lat="45.93478" lon="4.3564">
        <ele>597</ele>
        <time>2016-12-01T09:05:05Z</time>
      </trkpt>
      <trkpt lat="45.93477" lon="4.35641">
        <ele>597</ele>
        <time>2016-12-01T09:05:06Z</time>
      </trkpt>
      <trkpt lat="45.9347" lon="4.35647">
        <ele>598</ele>
        <time>2016-12-01T09:05:14Z</time>
      </trkpt>
      <trkpt lat="45.93469" lon="4.35647">
        <ele>598</ele>
        <time>2016-12-01T09:05:15Z</time>
      </trkpt>
      <trkpt lat="45.93461" lon="4.35652">
        <ele>599</ele>
        <time>2016-12-01T09:05:21Z</time>
      </trkpt>
      <trkpt lat="45.9346" lon="4.35653">
        <ele>599</ele>
        <time>2016-12-01T09:05:22Z</time>
      </trkpt>
      <trkpt lat="45.93453" lon="4.35659">
        <ele>600</ele>
        <time>2016-12-01T09:05:29Z</time>
      </trkpt>
      <trkpt lat="45.93452" lon="4.3566">
        <ele>600</ele>
        <time>2016-12-01T09:05:30Z</time>
      </trkpt>
      <trkpt lat="45.93445" lon="4.35665">
        <ele>602</ele>
        <time>2016-12-01T09:05:37Z</time>
      </trkpt>
      <trkpt lat="45.93444" lon="4.35665">
        <ele>602</ele>
        <time>2016-12-01T09:05:38Z</time>
      </trkpt>
      <trkpt lat="45.93437" lon="4.35672">
        <ele>606</ele>
        <time>2016-12-01T09:05:45Z</time>
      </trkpt>
      <trkpt lat="45.93436" lon="4.35672">
        <ele>606</ele>
        <time>2016-12-01T09:05:46Z</time>
      </trkpt>
      <trkpt lat="45.93428" lon="4.35675">
        <ele>607</ele>
        <time>2016-12-01T09:05:54Z</time>
      </trkpt>
      <trkpt lat="45.93426" lon="4.35676">
        <ele>607</ele>
        <time>2016-12-01T09:05:55Z</time>
      </trkpt>
      <trkpt lat="45.93418" lon="4.35681">
        <ele>608</ele>
        <time>2016-12-01T09:06:03Z</time>
      </trkpt>
      <trkpt lat="45.93417" lon="4.35681">
        <ele>608</ele>
        <time>2016-12-01T09:06:04Z</time>
      </trkpt>
      <trkpt lat="45.93409" lon="4.35684">
        <ele>615</ele>
        <time>2016-12-01T09:06:12Z</time>
      </trkpt>
      <trkpt lat="45.93408" lon="4.35684">
        <ele>615</ele>
        <time>2016-12-01T09:06:13Z</time>
      </trkpt>
      <trkpt lat="45.934" lon="4.35689">
        <ele>616</ele>
        <time>2016-12-01T09:06:23Z</time>
      </trkpt>
      <trkpt lat="45.934" lon="4.35689">
        <ele>616</ele>
        <time>2016-12-01T09:06:24Z</time>
      </trkpt>
      <trkpt lat="45.93392" lon="4.35696">
        <ele>617</ele>
        <time>2016-12-01T09:06:36Z</time>
      </trkpt>
      <trkpt lat="45.93391" lon="4.35696">
        <ele>617</ele>
        <time>2016-12-01T09:06:37Z</time>
      </trkpt>
      <trkpt lat="45.93383" lon="4.35699">
        <ele>617</ele>
        <time>2016-12-01T09:06:48Z</time>
      </trkpt>
      <trkpt lat="45.93382" lon="4.35699">
        <ele>617</ele>
        <time>2016-12-01T09:06:49Z</time>
      </trkpt>
      <trkpt lat="45.93374" lon="4.35702">
        <ele>618</ele>
        <time>2016-12-01T09:07:02Z</time>
      </trkpt>
      <trkpt lat="45.93373" lon="4.35702">
        <ele>618</ele>
        <time>2016-12-01T09:07:03Z</time>
      </trkpt>
      <trkpt lat="45.93365" lon="4.35707">
        <ele>619</ele>
        <time>2016-12-01T09:07:13Z</time>
      </trkpt>
      <trkpt lat="45.93364" lon="4.35707">
        <ele>619</ele>
        <time>2016-12-01T09:07:14Z</time>
      </trkpt>
      <trkpt lat="45.93357" lon="4.35713">
        <ele>620</ele>
        <time>2016-12-01T09:07:24Z</time>
      </trkpt>
      <trkpt lat="45.93356" lon="4.35713">
        <ele>620</ele>
        <time>2016-12-01T09:07:25Z</time>
      </trkpt>
      <trkpt lat="45.93349" lon="4.3572">
        <ele>621</ele>
        <time>2016-12-01T09:07:34Z</time>
      </trkpt>
      <trkpt lat="45.93348" lon="4.35721">
        <ele>621</ele>
        <time>2016-12-01T09:07:35Z</time>
      </trkpt>
      <trkpt lat="45.93339" lon="4.35723">
        <ele>622</ele>
        <time>2016-12-01T09:07:43Z</time>
      </trkpt>
      <trkpt lat="45.93339" lon="4.35724">
        <ele>622</ele>
        <time>2016-12-01T09:07:44Z</time>
      </trkpt>
      <trkpt lat="45.9333" lon="4.35728">
        <ele>628</ele>
        <time>2016-12-01T09:07:53Z</time>
      </trkpt>
      <trkpt lat="45.93329" lon="4.35728">
        <ele>628</ele>
        <time>2016-12-01T09:07:54Z</time>
      </trkpt>
      <trkpt lat="45.93321" lon="4.35734">
        <ele>628</ele>
        <time>2016-12-01T09:08:04Z</time>
      </trkpt>
      <trkpt lat="45.93321" lon="4.35734">
        <ele>628</ele>
        <time>2016-12-01T09:08:05Z</time>
      </trkpt>
      <trkpt lat="45.93313" lon="4.35737">
        <ele>628</ele>
        <time>2016-12-01T09:08:15Z</time>
      </trkpt>
      <trkpt lat="45.93312" lon="4.35738">
        <ele>628</ele>
        <time>2016-12-01T09:08:16Z</time>
      </trkpt>
      <trkpt lat="45.93304" lon="4.35741">
        <ele>629</ele>
        <time>2016-12-01T09:08:23Z</time>
      </trkpt>
      <trkpt lat="45.93302" lon="4.35741">
        <ele>629</ele>
        <time>2016-12-01T09:08:24Z</time>
      </trkpt>
      <trkpt lat="45.93295" lon="4.35745">
        <ele>629</ele>
        <time>2016-12-01T09:08:32Z</time>
      </trkpt>
      <trkpt lat="45.93294" lon="4.35746">
        <ele>629</ele>
        <time>2016-12-01T09:08:33Z</time>
      </trkpt>
      <trkpt lat="45.93286" lon="4.35749">
        <ele>630</ele>
        <time>2016-12-01T09:08:42Z</time>
      </trkpt>
      <trkpt lat="45.93285" lon="4.3575">
        <ele>630</ele>
        <time>2016-12-01T09:08:43Z</time>
      </trkpt>
      <trkpt lat="45.93276" lon="4.35753">
        <ele>637</ele>
        <time>2016-12-01T09:08:51Z</time>
      </trkpt>
      <trkpt lat="45.93275" lon="4.35753">
        <ele>637</ele>
        <time>2016-12-01T09:08:52Z</time>
      </trkpt>
      <trkpt lat="45.93268" lon="4.35757">
        <ele>637</ele>
        <time>2016-12-01T09:09:01Z</time>
      </trkpt>
      <trkpt lat="45.93267" lon="4.35758">
        <ele>637</ele>
        <time>2016-12-01T09:09:02Z</time>
      </trkpt>
      <trkpt lat="45.93259" lon="4.35762">
        <ele>638</ele>
        <time>2016-12-01T09:09:11Z</time>
      </trkpt>
      <trkpt lat="45.93258" lon="4.35763">
        <ele>638</ele>
        <time>2016-12-01T09:09:12Z</time>
      </trkpt>
      <trkpt lat="45.93251" lon="4.35768">
        <ele>638</ele>
        <time>2016-12-01T09:09:21Z</time>
      </trkpt>
      <trkpt lat="45.9325" lon="4.35769">
        <ele>641</ele>
        <time>2016-12-01T09:09:22Z</time>
      </trkpt>
      <trkpt lat="45.93242" lon="4.35773">
        <ele>642</ele>
        <time>2016-12-01T09:09:31Z</time>
      </trkpt>
      <trkpt lat="45.93241" lon="4.35774">
        <ele>642</ele>
        <time>2016-12-01T09:09:32Z</time>
      </trkpt>
      <trkpt lat="45.93234" lon="4.3578">
        <ele>642</ele>
        <time>2016-12-01T09:09:41Z</time>
      </trkpt>
      <trkpt lat="45.93233" lon="4.3578">
        <ele>642</ele>
        <time>2016-12-01T09:09:42Z</time>
      </trkpt>
      <trkpt lat="45.93227" lon="4.35788">
        <ele>643</ele>
        <time>2016-12-01T09:09:50Z</time>
      </trkpt>
      <trkpt lat="45.93225" lon="4.35789">
        <ele>643</ele>
        <time>2016-12-01T09:09:51Z</time>
      </trkpt>
      <trkpt lat="45.93217" lon="4.35791">
        <ele>643</ele>
        <time>2016-12-01T09:09:58Z</time>
      </trkpt>
      <trkpt lat="45.93216" lon="4.35792">
        <ele>643</ele>
        <time>2016-12-01T09:09:59Z</time>
      </trkpt>
      <trkpt lat="45.93208" lon="4.35796">
        <ele>644</ele>
        <time>2016-12-01T09:10:07Z</time>
      </trkpt>
      <trkpt lat="45.93207" lon="4.35797">
        <ele>644</ele>
        <time>2016-12-01T09:10:08Z</time>
      </trkpt>
      <trkpt lat="45.932" lon="4.35803">
        <ele>644</ele>
        <time>2016-12-01T09:10:20Z</time>
      </trkpt>
      <trkpt lat="45.93199" lon="4.35803">
        <ele>644</ele>
        <time>2016-12-01T09:10:21Z</time>
      </trkpt>
      <trkpt lat="45.9319" lon="4.35806">
        <ele>644</ele>
        <time>2016-12-01T09:10:30Z</time>
      </trkpt>
      <trkpt lat="45.93189" lon="4.35807">
        <ele>644</ele>
        <time>2016-12-01T09:10:31Z</time>
      </trkpt>
      <trkpt lat="45.93181" lon="4.3581">
        <ele>644</ele>
        <time>2016-12-01T09:10:38Z</time>
      </trkpt>
      <trkpt lat="45.9318" lon="4.35811">
        <ele>644</ele>
        <time>2016-12-01T09:10:39Z</time>
      </trkpt>
      <trkpt lat="45.93171" lon="4.35813">
        <ele>645</ele>
        <time>2016-12-01T09:10:45Z</time>
      </trkpt>
      <trkpt lat="45.9317" lon="4.35813">
        <ele>645</ele>
        <time>2016-12-01T09:10:46Z</time>
      </trkpt>
      <trkpt lat="45.93161" lon="4.35812">
        <ele>647</ele>
        <time>2016-12-01T09:10:53Z</time>
      </trkpt>
      <trkpt lat="45.9316" lon="4.35812">
        <ele>647</ele>
        <time>2016-12-01T09:10:54Z</time>
      </trkpt>
      <trkpt lat="45.93152" lon="4.35812">
        <ele>647</ele>
        <time>2016-12-01T09:11:01Z</time>
      </trkpt>
      <trkpt lat="45.93151" lon="4.35812">
        <ele>647</ele>
        <time>2016-12-01T09:11:02Z</time>
      </trkpt>
      <trkpt lat="45.93142" lon="4.35814">
        <ele>647</ele>
        <time>2016-12-01T09:11:09Z</time>
      </trkpt>
      <trkpt lat="45.93141" lon="4.35815">
        <ele>647</ele>
        <time>2016-12-01T09:11:10Z</time>
      </trkpt>
      <trkpt lat="45.93133" lon="4.35814">
        <ele>647</ele>
        <time>2016-12-01T09:11:17Z</time>
      </trkpt>
      <trkpt lat="45.93132" lon="4.35813">
        <ele>647</ele>
        <time>2016-12-01T09:11:18Z</time>
      </trkpt>
      <trkpt lat="45.93124" lon="4.35813">
        <ele>648</ele>
        <time>2016-12-01T09:11:25Z</time>
      </trkpt>
      <trkpt lat="45.93123" lon="4.35813">
        <ele>648</ele>
        <time>2016-12-01T09:11:26Z</time>
      </trkpt>
      <trkpt lat="45.93114" lon="4.35815">
        <ele>648</ele>
        <time>2016-12-01T09:11:34Z</time>
      </trkpt>
      <trkpt lat="45.93113" lon="4.35815">
        <ele>648</ele>
        <time>2016-12-01T09:11:35Z</time>
      </trkpt>
      <trkpt lat="45.93122" lon="4.35816">
        <ele>648</ele>
        <time>2016-12-01T09:15:19Z</time>
      </trkpt>
      <trkpt lat="45.93122" lon="4.35816">
        <ele>648</ele>
        <time>2016-12-01T09:15:20Z</time>
      </trkpt>
      <trkpt lat="45.93114" lon="4.35812">
        <ele>648</ele>
        <time>2016-12-01T09:16:48Z</time>
      </trkpt>
      <trkpt lat="45.93113" lon="4.35812">
        <ele>648</ele>
        <time>2016-12-01T09:16:49Z</time>
      </trkpt>
      <trkpt lat="45.93105" lon="4.35815">
        <ele>648</ele>
        <time>2016-12-01T09:16:57Z</time>
      </trkpt>
      <trkpt lat="45.93103" lon="4.35815">
        <ele>648</ele>
        <time>2016-12-01T09:16:58Z</time>
      </trkpt>
      <trkpt lat="45.93095" lon="4.35815">
        <ele>648</ele>
        <time>2016-12-01T09:17:04Z</time>
      </trkpt>
      <trkpt lat="45.93094" lon="4.35814">
        <ele>648</ele>
        <time>2016-12-01T09:17:05Z</time>
      </trkpt>
      <trkpt lat="45.93085" lon="4.35811">
        <ele>648</ele>
        <time>2016-12-01T09:17:13Z</time>
      </trkpt>
      <trkpt lat="45.93084" lon="4.35811">
        <ele>648</ele>
        <time>2016-12-01T09:17:14Z</time>
      </trkpt>
      <trkpt lat="45.93076" lon="4.3581">
        <ele>650</ele>
        <time>2016-12-01T09:17:21Z</time>
      </trkpt>
      <trkpt lat="45.93075" lon="4.35809">
        <ele>650</ele>
        <time>2016-12-01T09:17:22Z</time>
      </trkpt>
      <trkpt lat="45.93066" lon="4.35808">
        <ele>651</ele>
        <time>2016-12-01T09:17:30Z</time>
      </trkpt>
      <trkpt lat="45.93065" lon="4.35809">
        <ele>651</ele>
        <time>2016-12-01T09:17:31Z</time>
      </trkpt>
      <trkpt lat="45.93057" lon="4.35806">
        <ele>651</ele>
        <time>2016-12-01T09:17:38Z</time>
      </trkpt>
      <trkpt lat="45.93056" lon="4.35806">
        <ele>651</ele>
        <time>2016-12-01T09:17:39Z</time>
      </trkpt>
      <trkpt lat="45.93047" lon="4.35807">
        <ele>651</ele>
        <time>2016-12-01T09:17:47Z</time>
      </trkpt>
      <trkpt lat="45.93046" lon="4.35807">
        <ele>651</ele>
        <time>2016-12-01T09:17:48Z</time>
      </trkpt>
      <trkpt lat="45.93037" lon="4.35804">
        <ele>651</ele>
        <time>2016-12-01T09:17:55Z</time>
      </trkpt>
      <trkpt lat="45.93036" lon="4.35804">
        <ele>651</ele>
        <time>2016-12-01T09:17:56Z</time>
      </trkpt>
      <trkpt lat="45.93027" lon="4.35802">
        <ele>651</ele>
        <time>2016-12-01T09:18:03Z</time>
      </trkpt>
      <trkpt lat="45.93026" lon="4.35801">
        <ele>651</ele>
        <time>2016-12-01T09:18:04Z</time>
      </trkpt>
      <trkpt lat="45.93018" lon="4.35804">
        <ele>651</ele>
        <time>2016-12-01T09:18:12Z</time>
      </trkpt>
      <trkpt lat="45.93016" lon="4.35804">
        <ele>651</ele>
        <time>2016-12-01T09:18:13Z</time>
      </trkpt>
      <trkpt lat="45.93008" lon="4.35802">
        <ele>651</ele>
        <time>2016-12-01T09:18:21Z</time>
      </trkpt>
      <trkpt lat="45.93007" lon="4.35802">
        <ele>651</ele>
        <time>2016-12-01T09:18:22Z</time>
      </trkpt>
      <trkpt lat="45.92999" lon="4.35801">
        <ele>654</ele>
        <time>2016-12-01T09:18:29Z</time>
      </trkpt>
      <trkpt lat="45.92998" lon="4.358">
        <ele>654</ele>
        <time>2016-12-01T09:18:30Z</time>
      </trkpt>
      <trkpt lat="45.92989" lon="4.35797">
        <ele>654</ele>
        <time>2016-12-01T09:18:36Z</time>
      </trkpt>
      <trkpt lat="45.92988" lon="4.35796">
        <ele>654</ele>
        <time>2016-12-01T09:18:37Z</time>
      </trkpt>
      <trkpt lat="45.92981" lon="4.3579">
        <ele>654</ele>
        <time>2016-12-01T09:18:43Z</time>
      </trkpt>
      <trkpt lat="45.9298" lon="4.35789">
        <ele>655</ele>
        <time>2016-12-01T09:18:44Z</time>
      </trkpt>
      <trkpt lat="45.92971" lon="4.35786">
        <ele>655</ele>
        <time>2016-12-01T09:18:50Z</time>
      </trkpt>
      <trkpt lat="45.9297" lon="4.35786">
        <ele>655</ele>
        <time>2016-12-01T09:18:51Z</time>
      </trkpt>
      <trkpt lat="45.92962" lon="4.35782">
        <ele>655</ele>
        <time>2016-12-01T09:18:57Z</time>
      </trkpt>
      <trkpt lat="45.92961" lon="4.35781">
        <ele>655</ele>
        <time>2016-12-01T09:18:58Z</time>
      </trkpt>
      <trkpt lat="45.92954" lon="4.35775">
        <ele>656</ele>
        <time>2016-12-01T09:19:05Z</time>
      </trkpt>
      <trkpt lat="45.92953" lon="4.35774">
        <ele>656</ele>
        <time>2016-12-01T09:19:06Z</time>
      </trkpt>
      <trkpt lat="45.92944" lon="4.3577">
        <ele>657</ele>
        <time>2016-12-01T09:19:14Z</time>
      </trkpt>
      <trkpt lat="45.92943" lon="4.35769">
        <ele>657</ele>
        <time>2016-12-01T09:19:15Z</time>
      </trkpt>
      <trkpt lat="45.92936" lon="4.35764">
        <ele>657</ele>
        <time>2016-12-01T09:19:21Z</time>
      </trkpt>
      <trkpt lat="45.92935" lon="4.35763">
        <ele>658</ele>
        <time>2016-12-01T09:19:22Z</time>
      </trkpt>
      <trkpt lat="45.92927" lon="4.35758">
        <ele>659</ele>
        <time>2016-12-01T09:19:28Z</time>
      </trkpt>
      <trkpt lat="45.92926" lon="4.35757">
        <ele>659</ele>
        <time>2016-12-01T09:19:29Z</time>
      </trkpt>
      <trkpt lat="45.92919" lon="4.35751">
        <ele>660</ele>
        <time>2016-12-01T09:19:35Z</time>
      </trkpt>
      <trkpt lat="45.92918" lon="4.3575">
        <ele>660</ele>
        <time>2016-12-01T09:19:36Z</time>
      </trkpt>
      <trkpt lat="45.92912" lon="4.35742">
        <ele>662</ele>
        <time>2016-12-01T09:19:43Z</time>
      </trkpt>
      <trkpt lat="45.92911" lon="4.35741">
        <ele>662</ele>
        <time>2016-12-01T09:19:44Z</time>
      </trkpt>
      <trkpt lat="45.92904" lon="4.35735">
        <ele>663</ele>
        <time>2016-12-01T09:19:51Z</time>
      </trkpt>
      <trkpt lat="45.92903" lon="4.35735">
        <ele>663</ele>
        <time>2016-12-01T09:19:52Z</time>
      </trkpt>
      <trkpt lat="45.92896" lon="4.35729">
        <ele>664</ele>
        <time>2016-12-01T09:19:58Z</time>
      </trkpt>
      <trkpt lat="45.92895" lon="4.35728">
        <ele>664</ele>
        <time>2016-12-01T09:19:59Z</time>
      </trkpt>
      <trkpt lat="45.92887" lon="4.35725">
        <ele>664</ele>
        <time>2016-12-01T09:20:06Z</time>
      </trkpt>
      <trkpt lat="45.92886" lon="4.35724">
        <ele>664</ele>
        <time>2016-12-01T09:20:07Z</time>
      </trkpt>
      <trkpt lat="45.92879" lon="4.35717">
        <ele>665</ele>
        <time>2016-12-01T09:20:14Z</time>
      </trkpt>
      <trkpt lat="45.92878" lon="4.35716">
        <ele>665</ele>
        <time>2016-12-01T09:20:15Z</time>
      </trkpt>
      <trkpt lat="45.92872" lon="4.35708">
        <ele>665</ele>
        <time>2016-12-01T09:20:22Z</time>
      </trkpt>
      <trkpt lat="45.92871" lon="4.35707">
        <ele>666</ele>
        <time>2016-12-01T09:20:23Z</time>
      </trkpt>
      <trkpt lat="45.92863" lon="4.35701">
        <ele>666</ele>
        <time>2016-12-01T09:20:31Z</time>
      </trkpt>
      <trkpt lat="45.92863" lon="4.357">
        <ele>666</ele>
        <time>2016-12-01T09:20:32Z</time>
      </trkpt>
      <trkpt lat="45.92856" lon="4.35694">
        <ele>667</ele>
        <time>2016-12-01T09:20:40Z</time>
      </trkpt>
      <trkpt lat="45.92855" lon="4.35694">
        <ele>667</ele>
        <time>2016-12-01T09:20:41Z</time>
      </trkpt>
      <trkpt lat="45.92847" lon="4.3569">
        <ele>668</ele>
        <time>2016-12-01T09:20:50Z</time>
      </trkpt>
      <trkpt lat="45.92846" lon="4.35689">
        <ele>669</ele>
        <time>2016-12-01T09:20:51Z</time>
      </trkpt>
      <trkpt lat="45.92838" lon="4.35684">
        <ele>670</ele>
        <time>2016-12-01T09:21:00Z</time>
      </trkpt>
      <trkpt lat="45.92837" lon="4.35683">
        <ele>670</ele>
        <time>2016-12-01T09:21:01Z</time>
      </trkpt>
      <trkpt lat="45.9283" lon="4.35677">
        <ele>676</ele>
        <time>2016-12-01T09:21:12Z</time>
      </trkpt>
      <trkpt lat="45.92829" lon="4.35677">
        <ele>676</ele>
        <time>2016-12-01T09:21:13Z</time>
      </trkpt>
      <trkpt lat="45.92822" lon="4.35669">
        <ele>676</ele>
        <time>2016-12-01T09:21:24Z</time>
      </trkpt>
      <trkpt lat="45.92821" lon="4.35668">
        <ele>676</ele>
        <time>2016-12-01T09:21:25Z</time>
      </trkpt>
      <trkpt lat="45.92814" lon="4.35663">
        <ele>680</ele>
        <time>2016-12-01T09:21:34Z</time>
      </trkpt>
      <trkpt lat="45.92813" lon="4.35663">
        <ele>681</ele>
        <time>2016-12-01T09:21:35Z</time>
      </trkpt>
      <trkpt lat="45.92806" lon="4.35657">
        <ele>682</ele>
        <time>2016-12-01T09:21:45Z</time>
      </trkpt>
      <trkpt lat="45.92805" lon="4.35656">
        <ele>682</ele>
        <time>2016-12-01T09:21:46Z</time>
      </trkpt>
      <trkpt lat="45.92799" lon="4.35647">
        <ele>683</ele>
        <time>2016-12-01T09:21:57Z</time>
      </trkpt>
      <trkpt lat="45.92798" lon="4.35646">
        <ele>684</ele>
        <time>2016-12-01T09:21:58Z</time>
      </trkpt>
      <trkpt lat="45.92791" lon="4.35641">
        <ele>685</ele>
        <time>2016-12-01T09:22:06Z</time>
      </trkpt>
      <trkpt lat="45.9279" lon="4.3564">
        <ele>685</ele>
        <time>2016-12-01T09:22:07Z</time>
      </trkpt>
      <trkpt lat="45.92783" lon="4.35634">
        <ele>686</ele>
        <time>2016-12-01T09:22:16Z</time>
      </trkpt>
      <trkpt lat="45.92782" lon="4.35634">
        <ele>686</ele>
        <time>2016-12-01T09:22:17Z</time>
      </trkpt>
      <trkpt lat="45.92774" lon="4.3563">
        <ele>686</ele>
        <time>2016-12-01T09:22:26Z</time>
      </trkpt>
      <trkpt lat="45.92773" lon="4.35629">
        <ele>687</ele>
        <time>2016-12-01T09:22:27Z</time>
      </trkpt>
      <trkpt lat="45.92765" lon="4.35625">
        <ele>687</ele>
        <time>2016-12-01T09:22:36Z</time>
      </trkpt>
      <trkpt lat="45.92764" lon="4.35624">
        <ele>687</ele>
        <time>2016-12-01T09:22:37Z</time>
      </trkpt>
      <trkpt lat="45.92757" lon="4.35618">
        <ele>688</ele>
        <time>2016-12-01T09:22:47Z</time>
      </trkpt>
      <trkpt lat="45.92756" lon="4.35617">
        <ele>688</ele>
        <time>2016-12-01T09:22:48Z</time>
      </trkpt>
      <trkpt lat="45.92748" lon="4.35613">
        <ele>696</ele>
        <time>2016-12-01T09:22:57Z</time>
      </trkpt>
      <trkpt lat="45.92747" lon="4.35612">
        <ele>696</ele>
        <time>2016-12-01T09:22:58Z</time>
      </trkpt>
      <trkpt lat="45.9274" lon="4.35607">
        <ele>696</ele>
        <time>2016-12-01T09:23:07Z</time>
      </trkpt>
      <trkpt lat="45.92739" lon="4.35607">
        <ele>696</ele>
        <time>2016-12-01T09:23:08Z</time>
      </trkpt>
      <trkpt lat="45.92732" lon="4.35601">
        <ele>697</ele>
        <time>2016-12-01T09:23:16Z</time>
      </trkpt>
      <trkpt lat="45.92731" lon="4.356">
        <ele>697</ele>
        <time>2016-12-01T09:23:17Z</time>
      </trkpt>
      <trkpt lat="45.92723" lon="4.35597">
        <ele>697</ele>
        <time>2016-12-01T09:23:24Z</time>
      </trkpt>
      <trkpt lat="45.92722" lon="4.35596">
        <ele>697</ele>
        <time>2016-12-01T09:23:25Z</time>
      </trkpt>
      <trkpt lat="45.92714" lon="4.3559">
        <ele>697</ele>
        <time>2016-12-01T09:23:34Z</time>
      </trkpt>
      <trkpt lat="45.92713" lon="4.35589">
        <ele>697</ele>
        <time>2016-12-01T09:23:35Z</time>
      </trkpt>
      <trkpt lat="45.92707" lon="4.35582">
        <ele>703</ele>
        <time>2016-12-01T09:23:44Z</time>
      </trkpt>
      <trkpt lat="45.92706" lon="4.35581">
        <ele>703</ele>
        <time>2016-12-01T09:23:45Z</time>
      </trkpt>
      <trkpt lat="45.927" lon="4.35573">
        <ele>703</ele>
        <time>2016-12-01T09:23:55Z</time>
      </trkpt>
      <trkpt lat="45.92699" lon="4.35573">
        <ele>703</ele>
        <time>2016-12-01T09:23:56Z</time>
      </trkpt>
      <trkpt lat="45.92692" lon="4.35565">
        <ele>704</ele>
        <time>2016-12-01T09:24:04Z</time>
      </trkpt>
      <trkpt lat="45.92691" lon="4.35564">
        <ele>704</ele>
        <time>2016-12-01T09:24:05Z</time>
      </trkpt>
      <trkpt lat="45.92683" lon="4.35559">
        <ele>704</ele>
        <time>2016-12-01T09:24:13Z</time>
      </trkpt>
      <trkpt lat="45.92682" lon="4.35558">
        <ele>704</ele>
        <time>2016-12-01T09:24:14Z</time>
      </trkpt>
      <trkpt lat="45.92676" lon="4.3555">
        <ele>705</ele>
        <time>2016-12-01T09:24:23Z</time>
      </trkpt>
      <trkpt lat="45.92675" lon="4.35549">
        <ele>705</ele>
        <time>2016-12-01T09:24:24Z</time>
      </trkpt>
      <trkpt lat="45.92668" lon="4.35544">
        <ele>705</ele>
        <time>2016-12-01T09:24:32Z</time>
      </trkpt>
      <trkpt lat="45.92667" lon="4.35544">
        <ele>710</ele>
        <time>2016-12-01T09:24:33Z</time>
      </trkpt>
      <trkpt lat="45.9266" lon="4.35536">
        <ele>711</ele>
        <time>2016-12-01T09:24:41Z</time>
      </trkpt>
      <trkpt lat="45.92659" lon="4.35535">
        <ele>711</ele>
        <time>2016-12-01T09:24:42Z</time>
      </trkpt>
      <trkpt lat="45.92651" lon="4.35532">
        <ele>712</ele>
        <time>2016-12-01T09:24:49Z</time>
      </trkpt>
      <trkpt lat="45.9265" lon="4.35532">
        <ele>712</ele>
        <time>2016-12-01T09:24:50Z</time>
      </trkpt>
      <trkpt lat="45.92642" lon="4.3553">
        <ele>712</ele>
        <time>2016-12-01T09:24:57Z</time>
      </trkpt>
      <trkpt lat="45.92641" lon="4.35529">
        <ele>712</ele>
        <time>2016-12-01T09:24:58Z</time>
      </trkpt>
      <trkpt lat="45.92633" lon="4.35526">
        <ele>713</ele>
        <time>2016-12-01T09:25:06Z</time>
      </trkpt>
      <trkpt lat="45.92632" lon="4.35526">
        <ele>713</ele>
        <time>2016-12-01T09:25:07Z</time>
      </trkpt>
      <trkpt lat="45.92623" lon="4.35523">
        <ele>713</ele>
        <time>2016-12-01T09:25:18Z</time>
      </trkpt>
      <trkpt lat="45.92622" lon="4.35522">
        <ele>713</ele>
        <time>2016-12-01T09:25:19Z</time>
      </trkpt>
      <trkpt lat="45.92614" lon="4.35519">
        <ele>714</ele>
        <time>2016-12-01T09:25:31Z</time>
      </trkpt>
      <trkpt lat="45.92613" lon="4.35518">
        <ele>714</ele>
        <time>2016-12-01T09:25:32Z</time>
      </trkpt>
      <trkpt lat="45.92605" lon="4.35516">
        <ele>715</ele>
        <time>2016-12-01T09:25:40Z</time>
      </trkpt>
      <trkpt lat="45.92604" lon="4.35516">
        <ele>715</ele>
        <time>2016-12-01T09:25:41Z</time>
      </trkpt>
      <trkpt lat="45.92595" lon="4.35512">
        <ele>716</ele>
        <time>2016-12-01T09:25:51Z</time>
      </trkpt>
      <trkpt lat="45.92595" lon="4.35512">
        <ele>716</ele>
        <time>2016-12-01T09:25:52Z</time>
      </trkpt>
      <trkpt lat="45.92586" lon="4.35509">
        <ele>718</ele>
        <time>2016-12-01T09:26:03Z</time>
      </trkpt>
      <trkpt lat="45.92585" lon="4.35509">
        <ele>718</ele>
        <time>2016-12-01T09:26:04Z</time>
      </trkpt>
      <trkpt lat="45.92577" lon="4.35505">
        <ele>721</ele>
        <time>2016-12-01T09:26:14Z</time>
      </trkpt>
      <trkpt lat="45.92576" lon="4.35505">
        <ele>721</ele>
        <time>2016-12-01T09:26:15Z</time>
      </trkpt>
      <trkpt lat="45.92568" lon="4.35501">
        <ele>722</ele>
        <time>2016-12-01T09:26:26Z</time>
      </trkpt>
      <trkpt lat="45.92567" lon="4.35501">
        <ele>722</ele>
        <time>2016-12-01T09:26:27Z</time>
      </trkpt>
      <trkpt lat="45.9256" lon="4.35495">
        <ele>726</ele>
        <time>2016-12-01T09:26:41Z</time>
      </trkpt>
      <trkpt lat="45.92559" lon="4.35495">
        <ele>726</ele>
        <time>2016-12-01T09:26:42Z</time>
      </trkpt>
      <trkpt lat="45.92551" lon="4.35491">
        <ele>728</ele>
        <time>2016-12-01T09:26:50Z</time>
      </trkpt>
      <trkpt lat="45.9255" lon="4.3549">
        <ele>728</ele>
        <time>2016-12-01T09:26:51Z</time>
      </trkpt>
      <trkpt lat="45.92542" lon="4.35484">
        <ele>729</ele>
        <time>2016-12-01T09:27:00Z</time>
      </trkpt>
      <trkpt lat="45.92541" lon="4.35484">
        <ele>729</ele>
        <time>2016-12-01T09:27:01Z</time>
      </trkpt>
      <trkpt lat="45.92535" lon="4.35475">
        <ele>730</ele>
        <time>2016-12-01T09:27:14Z</time>
      </trkpt>
      <trkpt lat="45.92534" lon="4.35475">
        <ele>730</ele>
        <time>2016-12-01T09:27:15Z</time>
      </trkpt>
      <trkpt lat="45.92526" lon="4.35468">
        <ele>731</ele>
        <time>2016-12-01T09:27:26Z</time>
      </trkpt>
      <trkpt lat="45.92526" lon="4.35468">
        <ele>731</ele>
        <time>2016-12-01T09:27:27Z</time>
      </trkpt>
      <trkpt lat="45.9252" lon="4.35459">
        <ele>732</ele>
        <time>2016-12-01T09:27:41Z</time>
      </trkpt>
      <trkpt lat="45.92519" lon="4.35459">
        <ele>732</ele>
        <time>2016-12-01T09:27:42Z</time>
      </trkpt>
      <trkpt lat="45.92512" lon="4.35453">
        <ele>733</ele>
        <time>2016-12-01T09:27:50Z</time>
      </trkpt>
      <trkpt lat="45.92511" lon="4.35453">
        <ele>733</ele>
        <time>2016-12-01T09:27:51Z</time>
      </trkpt>
      <trkpt lat="45.92502" lon="4.35449">
        <ele>734</ele>
        <time>2016-12-01T09:28:01Z</time>
      </trkpt>
      <trkpt lat="45.92501" lon="4.35449">
        <ele>734</ele>
        <time>2016-12-01T09:28:02Z</time>
      </trkpt>
      <trkpt lat="45.92493" lon="4.35443">
        <ele>742</ele>
        <time>2016-12-01T09:28:15Z</time>
      </trkpt>
      <trkpt lat="45.92492" lon="4.35443">
        <ele>742</ele>
        <time>2016-12-01T09:28:16Z</time>
      </trkpt>
      <trkpt lat="45.92484" lon="4.35439">
        <ele>742</ele>
        <time>2016-12-01T09:28:24Z</time>
      </trkpt>
      <trkpt lat="45.92483" lon="4.35438">
        <ele>742</ele>
        <time>2016-12-01T09:28:25Z</time>
      </trkpt>
      <trkpt lat="45.92474" lon="4.35436">
        <ele>743</ele>
        <time>2016-12-01T09:28:35Z</time>
      </trkpt>
      <trkpt lat="45.92473" lon="4.35436">
        <ele>743</ele>
        <time>2016-12-01T09:28:36Z</time>
      </trkpt>
      <trkpt lat="45.92465" lon="4.35433">
        <ele>743</ele>
        <time>2016-12-01T09:28:45Z</time>
      </trkpt>
      <trkpt lat="45.92464" lon="4.35433">
        <ele>743</ele>
        <time>2016-12-01T09:28:46Z</time>
      </trkpt>
      <trkpt lat="45.92457" lon="4.35426">
        <ele>744</ele>
        <time>2016-12-01T09:28:56Z</time>
      </trkpt>
      <trkpt lat="45.92456" lon="4.35426">
        <ele>744</ele>
        <time>2016-12-01T09:28:57Z</time>
      </trkpt>
      <trkpt lat="45.92448" lon="4.35421">
        <ele>745</ele>
        <time>2016-12-01T09:29:05Z</time>
      </trkpt>
      <trkpt lat="45.92447" lon="4.3542">
        <ele>745</ele>
        <time>2016-12-01T09:29:06Z</time>
      </trkpt>
      <trkpt lat="45.9244" lon="4.35415">
        <ele>753</ele>
        <time>2016-12-01T09:29:15Z</time>
      </trkpt>
      <trkpt lat="45.92439" lon="4.35414">
        <ele>753</ele>
        <time>2016-12-01T09:29:16Z</time>
      </trkpt>
      <trkpt lat="45.9243" lon="4.35413">
        <ele>753</ele>
        <time>2016-12-01T09:29:24Z</time>
      </trkpt>
      <trkpt lat="45.92429" lon="4.35412">
        <ele>753</ele>
        <time>2016-12-01T09:29:25Z</time>
      </trkpt>
      <trkpt lat="45.92424" lon="4.35404">
        <ele>753</ele>
        <time>2016-12-01T09:29:33Z</time>
      </trkpt>
      <trkpt lat="45.92422" lon="4.35404">
        <ele>753</ele>
        <time>2016-12-01T09:29:34Z</time>
      </trkpt>
      <trkpt lat="45.92415" lon="4.354">
        <ele>757</ele>
        <time>2016-12-01T09:29:42Z</time>
      </trkpt>
      <trkpt lat="45.92414" lon="4.35399">
        <ele>757</ele>
        <time>2016-12-01T09:29:43Z</time>
      </trkpt>
      <trkpt lat="45.92407" lon="4.35394">
        <ele>759</ele>
        <time>2016-12-01T09:29:50Z</time>
      </trkpt>
      <trkpt lat="45.92405" lon="4.35394">
        <ele>759</ele>
        <time>2016-12-01T09:29:51Z</time>
      </trkpt>
      <trkpt lat="45.92398" lon="4.3539">
        <ele>760</ele>
        <time>2016-12-01T09:29:58Z</time>
      </trkpt>
      <trkpt lat="45.92397" lon="4.35389">
        <ele>760</ele>
        <time>2016-12-01T09:29:59Z</time>
      </trkpt>
      <trkpt lat="45.92388" lon="4.35386">
        <ele>761</ele>
        <time>2016-12-01T09:30:09Z</time>
      </trkpt>
      <trkpt lat="45.92387" lon="4.35386">
        <ele>761</ele>
        <time>2016-12-01T09:30:10Z</time>
      </trkpt>
      <trkpt lat="45.9238" lon="4.3538">
        <ele>762</ele>
        <time>2016-12-01T09:34:02Z</time>
      </trkpt>
      <trkpt lat="45.92379" lon="4.35379">
        <ele>762</ele>
        <time>2016-12-01T09:34:03Z</time>
      </trkpt>
      <trkpt lat="45.92373" lon="4.35372">
        <ele>763</ele>
        <time>2016-12-01T09:34:12Z</time>
      </trkpt>
      <trkpt lat="45.92372" lon="4.35371">
        <ele>763</ele>
        <time>2016-12-01T09:34:13Z</time>
      </trkpt>
      <trkpt lat="45.92365" lon="4.35363">
        <ele>765</ele>
        <time>2016-12-01T09:34:22Z</time>
      </trkpt>
      <trkpt lat="45.92365" lon="4.35362">
        <ele>765</ele>
        <time>2016-12-01T09:34:23Z</time>
      </trkpt>
      <trkpt lat="45.92357" lon="4.35355">
        <ele>767</ele>
        <time>2016-12-01T09:34:31Z</time>
      </trkpt>
      <trkpt lat="45.92356" lon="4.35354">
        <ele>767</ele>
        <time>2016-12-01T09:34:32Z</time>
      </trkpt>
      <trkpt lat="45.92348" lon="4.35351">
        <ele>768</ele>
        <time>2016-12-01T09:34:38Z</time>
      </trkpt>
      <trkpt lat="45.92347" lon="4.3535">
        <ele>769</ele>
        <time>2016-12-01T09:34:39Z</time>
      </trkpt>
      <trkpt lat="45.9234" lon="4.35342">
        <ele>772</ele>
        <time>2016-12-01T09:34:48Z</time>
      </trkpt>
      <trkpt lat="45.92339" lon="4.35342">
        <ele>773</ele>
        <time>2016-12-01T09:34:49Z</time>
      </trkpt>
      <trkpt lat="45.92331" lon="4.35338">
        <ele>774</ele>
        <time>2016-12-01T09:34:57Z</time>
      </trkpt>
      <trkpt lat="45.9233" lon="4.35337">
        <ele>774</ele>
        <time>2016-12-01T09:34:58Z</time>
      </trkpt>
      <trkpt lat="45.92323" lon="4.35331">
        <ele>779</ele>
        <time>2016-12-01T09:35:05Z</time>
      </trkpt>
      <trkpt lat="45.92322" lon="4.3533">
        <ele>779</ele>
        <time>2016-12-01T09:35:06Z</time>
      </trkpt>
      <trkpt lat="45.92315" lon="4.35323">
        <ele>779</ele>
        <time>2016-12-01T09:35:13Z</time>
      </trkpt>
      <trkpt lat="45.92314" lon="4.35323">
        <ele>779</ele>
        <time>2016-12-01T09:35:14Z</time>
      </trkpt>
      <trkpt lat="45.92306" lon="4.35318">
        <ele>780</ele>
        <time>2016-12-01T09:35:23Z</time>
      </trkpt>
      <trkpt lat="45.92305" lon="4.35317">
        <ele>780</ele>
        <time>2016-12-01T09:35:24Z</time>
      </trkpt>
      <trkpt lat="45.92298" lon="4.35312">
        <ele>780</ele>
        <time>2016-12-01T09:35:31Z</time>
      </trkpt>
      <trkpt lat="45.92297" lon="4.35311">
        <ele>780</ele>
        <time>2016-12-01T09:35:32Z</time>
      </trkpt>
      <trkpt lat="45.9229" lon="4.35304">
        <ele>780</ele>
        <time>2016-12-01T09:35:39Z</time>
      </trkpt>
      <trkpt lat="45.92289" lon="4.35303">
        <ele>780</ele>
        <time>2016-12-01T09:35:40Z</time>
      </trkpt>
      <trkpt lat="45.9228" lon="4.353">
        <ele>780</ele>
        <time>2016-12-01T09:35:48Z</time>
      </trkpt>
      <trkpt lat="45.92279" lon="4.35299">
        <ele>780</ele>
        <time>2016-12-01T09:35:49Z</time>
      </trkpt>
      <trkpt lat="45.92271" lon="4.35294">
        <ele>780</ele>
        <time>2016-12-01T09:35:57Z</time>
      </trkpt>
      <trkpt lat="45.9227" lon="4.35293">
        <ele>780</ele>
        <time>2016-12-01T09:35:58Z</time>
      </trkpt>
      <trkpt lat="45.92263" lon="4.35287">
        <ele>781</ele>
        <time>2016-12-01T09:36:08Z</time>
      </trkpt>
      <trkpt lat="45.92263" lon="4.35285">
        <ele>781</ele>
        <time>2016-12-01T09:36:09Z</time>
      </trkpt>
      <trkpt lat="45.92255" lon="4.35279">
        <ele>782</ele>
        <time>2016-12-01T09:36:17Z</time>
      </trkpt>
      <trkpt lat="45.92254" lon="4.35279">
        <ele>782</ele>
        <time>2016-12-01T09:36:18Z</time>
      </trkpt>
      <trkpt lat="45.92247" lon="4.35271">
        <ele>778</ele>
        <time>2016-12-01T09:36:26Z</time>
      </trkpt>
      <trkpt lat="45.92246" lon="4.3527">
        <ele>778</ele>
        <time>2016-12-01T09:36:27Z</time>
      </trkpt>
      <trkpt lat="45.9224" lon="4.35263">
        <ele>779</ele>
        <time>2016-12-01T09:36:34Z</time>
      </trkpt>
      <trkpt lat="45.92239" lon="4.35263">
        <ele>779</ele>
        <time>2016-12-01T09:36:35Z</time>
      </trkpt>
      <trkpt lat="45.92232" lon="4.35254">
        <ele>779</ele>
        <time>2016-12-01T09:36:44Z</time>
      </trkpt>
      <trkpt lat="45.92232" lon="4.35253">
        <ele>779</ele>
        <time>2016-12-01T09:36:45Z</time>
      </trkpt>
      <trkpt lat="45.92225" lon="4.35247">
        <ele>786</ele>
        <time>2016-12-01T09:36:54Z</time>
      </trkpt>
      <trkpt lat="45.92224" lon="4.35245">
        <ele>786</ele>
        <time>2016-12-01T09:36:55Z</time>
      </trkpt>
      <trkpt lat="45.92219" lon="4.35236">
        <ele>786</ele>
        <time>2016-12-01T09:37:04Z</time>
      </trkpt>
      <trkpt lat="45.92218" lon="4.35235">
        <ele>786</ele>
        <time>2016-12-01T09:37:05Z</time>
      </trkpt>
      <trkpt lat="45.92212" lon="4.35226">
        <ele>786</ele>
        <time>2016-12-01T09:37:13Z</time>
      </trkpt>
      <trkpt lat="45.92211" lon="4.35224">
        <ele>786</ele>
        <time>2016-12-01T09:37:14Z</time>
      </trkpt>
      <trkpt lat="45.92206" lon="4.35214">
        <ele>786</ele>
        <time>2016-12-01T09:37:22Z</time>
      </trkpt>
      <trkpt lat="45.92205" lon="4.35214">
        <ele>786</ele>
        <time>2016-12-01T09:37:23Z</time>
      </trkpt>
      <trkpt lat="45.922" lon="4.35205">
        <ele>786</ele>
        <time>2016-12-01T09:37:30Z</time>
      </trkpt>
      <trkpt lat="45.92199" lon="4.35204">
        <ele>786</ele>
        <time>2016-12-01T09:37:31Z</time>
      </trkpt>
      <trkpt lat="45.92193" lon="4.35194">
        <ele>787</ele>
        <time>2016-12-01T09:37:40Z</time>
      </trkpt>
      <trkpt lat="45.92192" lon="4.35194">
        <ele>787</ele>
        <time>2016-12-01T09:37:41Z</time>
      </trkpt>
      <trkpt lat="45.92187" lon="4.35186">
        <ele>787</ele>
        <time>2016-12-01T09:37:49Z</time>
      </trkpt>
      <trkpt lat="45.92186" lon="4.35185">
        <ele>787</ele>
        <time>2016-12-01T09:37:50Z</time>
      </trkpt>
      <trkpt lat="45.92178" lon="4.3518">
        <ele>787</ele>
        <time>2016-12-01T09:37:57Z</time>
      </trkpt>
      <trkpt lat="45.92177" lon="4.35179">
        <ele>787</ele>
        <time>2016-12-01T09:37:58Z</time>
      </trkpt>
      <trkpt lat="45.92172" lon="4.35169">
        <ele>788</ele>
        <time>2016-12-01T09:38:05Z</time>
      </trkpt>
      <trkpt lat="45.92171" lon="4.35168">
        <ele>788</ele>
        <time>2016-12-01T09:38:06Z</time>
      </trkpt>
      <trkpt lat="45.92165" lon="4.3516">
        <ele>788</ele>
        <time>2016-12-01T09:38:16Z</time>
      </trkpt>
      <trkpt lat="45.92164" lon="4.35158">
        <ele>788</ele>
        <time>2016-12-01T09:38:17Z</time>
      </trkpt>
      <trkpt lat="45.92159" lon="4.35149">
        <ele>787</ele>
        <time>2016-12-01T09:38:24Z</time>
      </trkpt>
      <trkpt lat="45.92158" lon="4.35147">
        <ele>787</ele>
        <time>2016-12-01T09:38:25Z</time>
      </trkpt>
      <trkpt lat="45.92153" lon="4.35139">
        <ele>787</ele>
        <time>2016-12-01T09:38:31Z</time>
      </trkpt>
      <trkpt lat="45.92151" lon="4.35138">
        <ele>787</ele>
        <time>2016-12-01T09:38:32Z</time>
      </trkpt>
      <trkpt lat="45.92145" lon="4.3513">
        <ele>787</ele>
        <time>2016-12-01T09:38:39Z</time>
      </trkpt>
      <trkpt lat="45.92144" lon="4.35129">
        <ele>787</ele>
        <time>2016-12-01T09:38:40Z</time>
      </trkpt>
      <trkpt lat="45.92138" lon="4.35121">
        <ele>787</ele>
        <time>2016-12-01T09:38:47Z</time>
      </trkpt>
      <trkpt lat="45.92137" lon="4.3512">
        <ele>787</ele>
        <time>2016-12-01T09:38:48Z</time>
      </trkpt>
      <trkpt lat="45.92131" lon="4.3511">
        <ele>787</ele>
        <time>2016-12-01T09:38:56Z</time>
      </trkpt>
      <trkpt lat="45.9213" lon="4.35109">
        <ele>787</ele>
        <time>2016-12-01T09:38:57Z</time>
      </trkpt>
      <trkpt lat="45.92124" lon="4.351">
        <ele>787</ele>
        <time>2016-12-01T09:40:20Z</time>
      </trkpt>
      <trkpt lat="45.92124" lon="4.351">
        <ele>787</ele>
        <time>2016-12-01T09:40:21Z</time>
      </trkpt>
      <trkpt lat="45.92117" lon="4.35091">
        <ele>788</ele>
        <time>2016-12-01T09:41:19Z</time>
      </trkpt>
      <trkpt lat="45.92116" lon="4.3509">
        <ele>788</ele>
        <time>2016-12-01T09:41:20Z</time>
      </trkpt>
      <trkpt lat="45.92109" lon="4.35084">
        <ele>788</ele>
        <time>2016-12-01T09:41:26Z</time>
      </trkpt>
      <trkpt lat="45.92108" lon="4.35083">
        <ele>788</ele>
        <time>2016-12-01T09:41:27Z</time>
      </trkpt>
      <trkpt lat="45.921" lon="4.35077">
        <ele>788</ele>
        <time>2016-12-01T09:41:35Z</time>
      </trkpt>
      <trkpt lat="45.92099" lon="4.35076">
        <ele>788</ele>
        <time>2016-12-01T09:41:36Z</time>
      </trkpt>
      <trkpt lat="45.92092" lon="4.3507">
        <ele>788</ele>
        <time>2016-12-01T09:41:43Z</time>
      </trkpt>
      <trkpt lat="45.92091" lon="4.35069">
        <ele>788</ele>
        <time>2016-12-01T09:41:44Z</time>
      </trkpt>
      <trkpt lat="45.92084" lon="4.35065">
        <ele>788</ele>
        <time>2016-12-01T09:41:51Z</time>
      </trkpt>
      <trkpt lat="45.92082" lon="4.35065">
        <ele>789</ele>
        <time>2016-12-01T09:41:52Z</time>
      </trkpt>
      <trkpt lat="45.92074" lon="4.35061">
        <ele>789</ele>
        <time>2016-12-01T09:41:59Z</time>
      </trkpt>
      <trkpt lat="45.92073" lon="4.3506">
        <ele>789</ele>
        <time>2016-12-01T09:42:00Z</time>
      </trkpt>
      <trkpt lat="45.92066" lon="4.35053">
        <ele>789</ele>
        <time>2016-12-01T09:42:09Z</time>
      </trkpt>
      <trkpt lat="45.92065" lon="4.35052">
        <ele>789</ele>
        <time>2016-12-01T09:42:10Z</time>
      </trkpt>
      <trkpt lat="45.92059" lon="4.35045">
        <ele>789</ele>
        <time>2016-12-01T09:42:17Z</time>
      </trkpt>
      <trkpt lat="45.92058" lon="4.35043">
        <ele>789</ele>
        <time>2016-12-01T09:42:18Z</time>
      </trkpt>
      <trkpt lat="45.92051" lon="4.35036">
        <ele>789</ele>
        <time>2016-12-01T09:42:28Z</time>
      </trkpt>
      <trkpt lat="45.9205" lon="4.35035">
        <ele>789</ele>
        <time>2016-12-01T09:42:29Z</time>
      </trkpt>
      <trkpt lat="45.92044" lon="4.35028">
        <ele>789</ele>
        <time>2016-12-01T09:42:37Z</time>
      </trkpt>
      <trkpt lat="45.92043" lon="4.35027">
        <ele>789</ele>
        <time>2016-12-01T09:42:38Z</time>
      </trkpt>
      <trkpt lat="45.92035" lon="4.35021">
        <ele>789</ele>
        <time>2016-12-01T09:42:45Z</time>
      </trkpt>
      <trkpt lat="45.92034" lon="4.3502">
        <ele>789</ele>
        <time>2016-12-01T09:42:46Z</time>
      </trkpt>
      <trkpt lat="45.92027" lon="4.35013">
        <ele>790</ele>
        <time>2016-12-01T09:42:59Z</time>
      </trkpt>
      <trkpt lat="45.92026" lon="4.35013">
        <ele>790</ele>
        <time>2016-12-01T09:43:00Z</time>
      </trkpt>
      <trkpt lat="45.9202" lon="4.35005">
        <ele>790</ele>
        <time>2016-12-01T09:43:16Z</time>
      </trkpt>
      <trkpt lat="45.92019" lon="4.35005">
        <ele>790</ele>
        <time>2016-12-01T09:43:17Z</time>
      </trkpt>
      <trkpt lat="45.92014" lon="4.34996">
        <ele>788</ele>
        <time>2016-12-01T09:43:25Z</time>
      </trkpt>
      <trkpt lat="45.92014" lon="4.34994">
        <ele>788</ele>
        <time>2016-12-01T09:43:26Z</time>
      </trkpt>
      <trkpt lat="45.92008" lon="4.34985">
        <ele>788</ele>
        <time>2016-12-01T09:43:32Z</time>
      </trkpt>
      <trkpt lat="45.92007" lon="4.34983">
        <ele>788</ele>
        <time>2016-12-01T09:43:33Z</time>
      </trkpt>
      <trkpt lat="45.92001" lon="4.34974">
        <ele>787</ele>
        <time>2016-12-01T09:43:39Z</time>
      </trkpt>
      <trkpt lat="45.92" lon="4.34973">
        <ele>790</ele>
        <time>2016-12-01T09:43:40Z</time>
      </trkpt>
      <trkpt lat="45.91995" lon="4.34962">
        <ele>790</ele>
        <time>2016-12-01T09:43:48Z</time>
      </trkpt>
      <trkpt lat="45.91995" lon="4.34962">
        <ele>790</ele>
        <time>2016-12-01T09:43:49Z</time>
      </trkpt>
      <trkpt lat="45.92" lon="4.34972">
        <ele>790</ele>
        <time>2016-12-01T09:44:00Z</time>
      </trkpt>
      <trkpt lat="45.92" lon="4.34973">
        <ele>787</ele>
        <time>2016-12-01T09:44:01Z</time>
      </trkpt>
      <trkpt lat="45.92" lon="4.3496">
        <ele>790</ele>
        <time>2016-12-01T09:49:43Z</time>
      </trkpt>
      <trkpt lat="45.91999" lon="4.34959">
        <ele>790</ele>
        <time>2016-12-01T09:49:44Z</time>
      </trkpt>
      <trkpt lat="45.91992" lon="4.34954">
        <ele>789</ele>
        <time>2016-12-01T09:49:50Z</time>
      </trkpt>
      <trkpt lat="45.9199" lon="4.34953">
        <ele>789</ele>
        <time>2016-12-01T09:49:51Z</time>
      </trkpt>
      <trkpt lat="45.91984" lon="4.34947">
        <ele>789</ele>
        <time>2016-12-01T09:49:58Z</time>
      </trkpt>
      <trkpt lat="45.91983" lon="4.34946">
        <ele>789</ele>
        <time>2016-12-01T09:49:59Z</time>
      </trkpt>
      <trkpt lat="45.91978" lon="4.34937">
        <ele>789</ele>
        <time>2016-12-01T09:50:06Z</time>
      </trkpt>
      <trkpt lat="45.91977" lon="4.34936">
        <ele>789</ele>
        <time>2016-12-01T09:50:07Z</time>
      </trkpt>
      <trkpt lat="45.91969" lon="4.34929">
        <ele>789</ele>
        <time>2016-12-01T09:50:14Z</time>
      </trkpt>
      <trkpt lat="45.91968" lon="4.34928">
        <ele>789</ele>
        <time>2016-12-01T09:50:15Z</time>
      </trkpt>
      <trkpt lat="45.91962" lon="4.3492">
        <ele>790</ele>
        <time>2016-12-01T09:50:22Z</time>
      </trkpt>
      <trkpt lat="45.91961" lon="4.34919">
        <ele>790</ele>
        <time>2016-12-01T09:50:23Z</time>
      </trkpt>
      <trkpt lat="45.91955" lon="4.34911">
        <ele>786</ele>
        <time>2016-12-01T09:50:29Z</time>
      </trkpt>
      <trkpt lat="45.91954" lon="4.3491">
        <ele>786</ele>
        <time>2016-12-01T09:50:30Z</time>
      </trkpt>
      <trkpt lat="45.91947" lon="4.34902">
        <ele>787</ele>
        <time>2016-12-01T09:50:36Z</time>
      </trkpt>
      <trkpt lat="45.91945" lon="4.34901">
        <ele>787</ele>
        <time>2016-12-01T09:50:37Z</time>
      </trkpt>
      <trkpt lat="45.91939" lon="4.34893">
        <ele>787</ele>
        <time>2016-12-01T09:50:43Z</time>
      </trkpt>
      <trkpt lat="45.91939" lon="4.34891">
        <ele>787</ele>
        <time>2016-12-01T09:50:44Z</time>
      </trkpt>
      <trkpt lat="45.91935" lon="4.34881">
        <ele>787</ele>
        <time>2016-12-01T09:50:50Z</time>
      </trkpt>
      <trkpt lat="45.91934" lon="4.34879">
        <ele>786</ele>
        <time>2016-12-01T09:50:51Z</time>
      </trkpt>
      <trkpt lat="45.91928" lon="4.3487">
        <ele>786</ele>
        <time>2016-12-01T09:50:57Z</time>
      </trkpt>
      <trkpt lat="45.91927" lon="4.34869">
        <ele>786</ele>
        <time>2016-12-01T09:50:58Z</time>
      </trkpt>
      <trkpt lat="45.91922" lon="4.34858">
        <ele>786</ele>
        <time>2016-12-01T09:51:04Z</time>
      </trkpt>
      <trkpt lat="45.91921" lon="4.34856">
        <ele>786</ele>
        <time>2016-12-01T09:51:05Z</time>
      </trkpt>
      <trkpt lat="45.91916" lon="4.34846">
        <ele>790</ele>
        <time>2016-12-01T09:51:12Z</time>
      </trkpt>
      <trkpt lat="45.91915" lon="4.34845">
        <ele>790</ele>
        <time>2016-12-01T09:51:13Z</time>
      </trkpt>
      <trkpt lat="45.91908" lon="4.34839">
        <ele>790</ele>
        <time>2016-12-01T09:51:20Z</time>
      </trkpt>
      <trkpt lat="45.91907" lon="4.34838">
        <ele>790</ele>
        <time>2016-12-01T09:51:21Z</time>
      </trkpt>
      <trkpt lat="45.919" lon="4.34833">
        <ele>788</ele>
        <time>2016-12-01T09:51:27Z</time>
      </trkpt>
      <trkpt lat="45.91899" lon="4.34832">
        <ele>788</ele>
        <time>2016-12-01T09:51:28Z</time>
      </trkpt>
      <trkpt lat="45.91892" lon="4.34826">
        <ele>788</ele>
        <time>2016-12-01T09:51:34Z</time>
      </trkpt>
      <trkpt lat="45.91891" lon="4.34825">
        <ele>788</ele>
        <time>2016-12-01T09:51:35Z</time>
      </trkpt>
      <trkpt lat="45.91884" lon="4.34818">
        <ele>788</ele>
        <time>2016-12-01T09:51:42Z</time>
      </trkpt>
      <trkpt lat="45.91883" lon="4.34817">
        <ele>788</ele>
        <time>2016-12-01T09:51:43Z</time>
      </trkpt>
      <trkpt lat="45.91875" lon="4.34809">
        <ele>788</ele>
        <time>2016-12-01T09:51:50Z</time>
      </trkpt>
      <trkpt lat="45.91875" lon="4.34808">
        <ele>788</ele>
        <time>2016-12-01T09:51:51Z</time>
      </trkpt>
      <trkpt lat="45.91869" lon="4.34799">
        <ele>788</ele>
        <time>2016-12-01T09:51:58Z</time>
      </trkpt>
      <trkpt lat="45.91868" lon="4.34798">
        <ele>788</ele>
        <time>2016-12-01T09:51:59Z</time>
      </trkpt>
      <trkpt lat="45.91861" lon="4.3479">
        <ele>788</ele>
        <time>2016-12-01T09:52:05Z</time>
      </trkpt>
      <trkpt lat="45.9186" lon="4.34789">
        <ele>788</ele>
        <time>2016-12-01T09:52:06Z</time>
      </trkpt>
      <trkpt lat="45.91854" lon="4.3478">
        <ele>787</ele>
        <time>2016-12-01T09:52:12Z</time>
      </trkpt>
      <trkpt lat="45.91853" lon="4.34779">
        <ele>787</ele>
        <time>2016-12-01T09:52:13Z</time>
      </trkpt>
      <trkpt lat="45.91846" lon="4.34771">
        <ele>787</ele>
        <time>2016-12-01T09:52:20Z</time>
      </trkpt>
      <trkpt lat="45.91845" lon="4.3477">
        <ele>787</ele>
        <time>2016-12-01T09:52:21Z</time>
      </trkpt>
      <trkpt lat="45.9184" lon="4.34762">
        <ele>786</ele>
        <time>2016-12-01T09:52:27Z</time>
      </trkpt>
      <trkpt lat="45.91839" lon="4.3476">
        <ele>786</ele>
        <time>2016-12-01T09:52:28Z</time>
      </trkpt>
      <trkpt lat="45.91835" lon="4.3475">
        <ele>785</ele>
        <time>2016-12-01T09:52:34Z</time>
      </trkpt>
      <trkpt lat="45.91834" lon="4.34749">
        <ele>785</ele>
        <time>2016-12-01T09:52:35Z</time>
      </trkpt>
      <trkpt lat="45.91832" lon="4.34736">
        <ele>782</ele>
        <time>2016-12-01T09:52:42Z</time>
      </trkpt>
      <trkpt lat="45.91831" lon="4.34735">
        <ele>782</ele>
        <time>2016-12-01T09:52:43Z</time>
      </trkpt>
      <trkpt lat="45.91824" lon="4.34728">
        <ele>781</ele>
        <time>2016-12-01T09:52:51Z</time>
      </trkpt>
      <trkpt lat="45.91823" lon="4.34727">
        <ele>781</ele>
        <time>2016-12-01T09:52:52Z</time>
      </trkpt>
      <trkpt lat="45.91815" lon="4.34722">
        <ele>780</ele>
        <time>2016-12-01T09:53:00Z</time>
      </trkpt>
      <trkpt lat="45.91814" lon="4.34722">
        <ele>780</ele>
        <time>2016-12-01T09:53:01Z</time>
      </trkpt>
      <trkpt lat="45.91807" lon="4.34715">
        <ele>779</ele>
        <time>2016-12-01T09:53:08Z</time>
      </trkpt>
      <trkpt lat="45.91806" lon="4.34714">
        <ele>779</ele>
        <time>2016-12-01T09:53:09Z</time>
      </trkpt>
      <trkpt lat="45.918" lon="4.34706">
        <ele>779</ele>
        <time>2016-12-01T09:53:15Z</time>
      </trkpt>
      <trkpt lat="45.91799" lon="4.34705">
        <ele>778</ele>
        <time>2016-12-01T09:53:16Z</time>
      </trkpt>
      <trkpt lat="45.91792" lon="4.34698">
        <ele>778</ele>
        <time>2016-12-01T09:53:23Z</time>
      </trkpt>
      <trkpt lat="45.91791" lon="4.34696">
        <ele>778</ele>
        <time>2016-12-01T09:53:24Z</time>
      </trkpt>
      <trkpt lat="45.91786" lon="4.34689">
        <ele>777</ele>
        <time>2016-12-01T09:53:29Z</time>
      </trkpt>
      <trkpt lat="45.91784" lon="4.34688">
        <ele>777</ele>
        <time>2016-12-01T09:53:30Z</time>
      </trkpt>
      <trkpt lat="45.91777" lon="4.34681">
        <ele>776</ele>
        <time>2016-12-01T09:53:36Z</time>
      </trkpt>
      <trkpt lat="45.91777" lon="4.3468">
        <ele>776</ele>
        <time>2016-12-01T09:53:37Z</time>
      </trkpt>
      <trkpt lat="45.9177" lon="4.34673">
        <ele>775</ele>
        <time>2016-12-01T09:53:44Z</time>
      </trkpt>
      <trkpt lat="45.91769" lon="4.34672">
        <ele>775</ele>
        <time>2016-12-01T09:53:45Z</time>
      </trkpt>
      <trkpt lat="45.91762" lon="4.34665">
        <ele>769</ele>
        <time>2016-12-01T09:53:52Z</time>
      </trkpt>
      <trkpt lat="45.91761" lon="4.34664">
        <ele>769</ele>
        <time>2016-12-01T09:53:53Z</time>
      </trkpt>
      <trkpt lat="45.91755" lon="4.34656">
        <ele>769</ele>
        <time>2016-12-01T09:54:00Z</time>
      </trkpt>
      <trkpt lat="45.91754" lon="4.34656">
        <ele>769</ele>
        <time>2016-12-01T09:54:01Z</time>
      </trkpt>
      <trkpt lat="45.91746" lon="4.34652">
        <ele>767</ele>
        <time>2016-12-01T09:54:07Z</time>
      </trkpt>
      <trkpt lat="45.91744" lon="4.34652">
        <ele>767</ele>
        <time>2016-12-01T09:54:08Z</time>
      </trkpt>
      <trkpt lat="45.91736" lon="4.34653">
        <ele>767</ele>
        <time>2016-12-01T09:54:14Z</time>
      </trkpt>
      <trkpt lat="45.91735" lon="4.34653">
        <ele>767</ele>
        <time>2016-12-01T09:54:15Z</time>
      </trkpt>
      <trkpt lat="45.91726" lon="4.34654">
        <ele>767</ele>
        <time>2016-12-01T09:54:21Z</time>
      </trkpt>
      <trkpt lat="45.91725" lon="4.34654">
        <ele>766</ele>
        <time>2016-12-01T09:54:22Z</time>
      </trkpt>
      <trkpt lat="45.91716" lon="4.34654">
        <ele>766</ele>
        <time>2016-12-01T09:54:28Z</time>
      </trkpt>
      <trkpt lat="45.91714" lon="4.34655">
        <ele>766</ele>
        <time>2016-12-01T09:54:29Z</time>
      </trkpt>
      <trkpt lat="45.91706" lon="4.34656">
        <ele>766</ele>
        <time>2016-12-01T09:54:34Z</time>
      </trkpt>
      <trkpt lat="45.91705" lon="4.34657">
        <ele>766</ele>
        <time>2016-12-01T09:54:35Z</time>
      </trkpt>
      <trkpt lat="45.91697" lon="4.34659">
        <ele>766</ele>
        <time>2016-12-01T09:54:40Z</time>
      </trkpt>
      <trkpt lat="45.91695" lon="4.3466">
        <ele>766</ele>
        <time>2016-12-01T09:54:41Z</time>
      </trkpt>
      <trkpt lat="45.91687" lon="4.34662">
        <ele>767</ele>
        <time>2016-12-01T09:54:47Z</time>
      </trkpt>
      <trkpt lat="45.91685" lon="4.34662">
        <ele>767</ele>
        <time>2016-12-01T09:54:48Z</time>
      </trkpt>
      <trkpt lat="45.91676" lon="4.34661">
        <ele>767</ele>
        <time>2016-12-01T09:54:55Z</time>
      </trkpt>
      <trkpt lat="45.91675" lon="4.34661">
        <ele>768</ele>
        <time>2016-12-01T09:54:56Z</time>
      </trkpt>
      <trkpt lat="45.91666" lon="4.34661">
        <ele>768</ele>
        <time>2016-12-01T09:55:02Z</time>
      </trkpt>
      <trkpt lat="45.91665" lon="4.34661">
        <ele>767</ele>
        <time>2016-12-01T09:55:03Z</time>
      </trkpt>
      <trkpt lat="45.91657" lon="4.34658">
        <ele>766</ele>
        <time>2016-12-01T09:55:10Z</time>
      </trkpt>
      <trkpt lat="45.91656" lon="4.34658">
        <ele>766</ele>
        <time>2016-12-01T09:55:11Z</time>
      </trkpt>
      <trkpt lat="45.91648" lon="4.34652">
        <ele>765</ele>
        <time>2016-12-01T09:55:19Z</time>
      </trkpt>
      <trkpt lat="45.91647" lon="4.34651">
        <ele>765</ele>
        <time>2016-12-01T09:55:20Z</time>
      </trkpt>
      <trkpt lat="45.91639" lon="4.34646">
        <ele>764</ele>
        <time>2016-12-01T09:55:26Z</time>
      </trkpt>
      <trkpt lat="45.91637" lon="4.34645">
        <ele>764</ele>
        <time>2016-12-01T09:55:27Z</time>
      </trkpt>
      <trkpt lat="45.91629" lon="4.34641">
        <ele>763</ele>
        <time>2016-12-01T09:55:32Z</time>
      </trkpt>
      <trkpt lat="45.91628" lon="4.34641">
        <ele>763</ele>
        <time>2016-12-01T09:55:33Z</time>
      </trkpt>
      <trkpt lat="45.9162" lon="4.34637">
        <ele>763</ele>
        <time>2016-12-01T09:55:38Z</time>
      </trkpt>
      <trkpt lat="45.91619" lon="4.34636">
        <ele>762</ele>
        <time>2016-12-01T09:55:39Z</time>
      </trkpt>
      <trkpt lat="45.91612" lon="4.3463">
        <ele>762</ele>
        <time>2016-12-01T09:55:46Z</time>
      </trkpt>
      <trkpt lat="45.91611" lon="4.34629">
        <ele>762</ele>
        <time>2016-12-01T09:55:47Z</time>
      </trkpt>
      <trkpt lat="45.91603" lon="4.34624">
        <ele>762</ele>
        <time>2016-12-01T09:55:54Z</time>
      </trkpt>
      <trkpt lat="45.91602" lon="4.34624">
        <ele>762</ele>
        <time>2016-12-01T09:55:55Z</time>
      </trkpt>
      <trkpt lat="45.91594" lon="4.34621">
        <ele>762</ele>
        <time>2016-12-01T09:56:02Z</time>
      </trkpt>
      <trkpt lat="45.91593" lon="4.34621">
        <ele>762</ele>
        <time>2016-12-01T09:56:03Z</time>
      </trkpt>
      <trkpt lat="45.91584" lon="4.34621">
        <ele>761</ele>
        <time>2016-12-01T09:56:11Z</time>
      </trkpt>
      <trkpt lat="45.91583" lon="4.3462">
        <ele>757</ele>
        <time>2016-12-01T09:56:12Z</time>
      </trkpt>
      <trkpt lat="45.91576" lon="4.34613">
        <ele>756</ele>
        <time>2016-12-01T09:56:24Z</time>
      </trkpt>
      <trkpt lat="45.91575" lon="4.34612">
        <ele>756</ele>
        <time>2016-12-01T09:56:25Z</time>
      </trkpt>
      <trkpt lat="45.91578" lon="4.34624">
        <ele>756</ele>
        <time>2016-12-01T09:58:46Z</time>
      </trkpt>
      <trkpt lat="45.91578" lon="4.34625">
        <ele>756</ele>
        <time>2016-12-01T09:58:47Z</time>
      </trkpt>
      <trkpt lat="45.91575" lon="4.34637">
        <ele>757</ele>
        <time>2016-12-01T09:58:54Z</time>
      </trkpt>
      <trkpt lat="45.91575" lon="4.34639">
        <ele>757</ele>
        <time>2016-12-01T09:58:55Z</time>
      </trkpt>
      <trkpt lat="45.91574" lon="4.34651">
        <ele>758</ele>
        <time>2016-12-01T09:59:02Z</time>
      </trkpt>
      <trkpt lat="45.91574" lon="4.34653">
        <ele>758</ele>
        <time>2016-12-01T09:59:03Z</time>
      </trkpt>
      <trkpt lat="45.91574" lon="4.34664">
        <ele>759</ele>
        <time>2016-12-01T09:59:10Z</time>
      </trkpt>
      <trkpt lat="45.91574" lon="4.34666">
        <ele>759</ele>
        <time>2016-12-01T09:59:11Z</time>
      </trkpt>
      <trkpt lat="45.91576" lon="4.34678">
        <ele>760</ele>
        <time>2016-12-01T09:59:18Z</time>
      </trkpt>
      <trkpt lat="45.91576" lon="4.34679">
        <ele>759</ele>
        <time>2016-12-01T09:59:19Z</time>
      </trkpt>
      <trkpt lat="45.91575" lon="4.34692">
        <ele>759</ele>
        <time>2016-12-01T09:59:27Z</time>
      </trkpt>
      <trkpt lat="45.91575" lon="4.34693">
        <ele>759</ele>
        <time>2016-12-01T09:59:28Z</time>
      </trkpt>
      <trkpt lat="45.91576" lon="4.34705">
        <ele>759</ele>
        <time>2016-12-01T09:59:35Z</time>
      </trkpt>
      <trkpt lat="45.91576" lon="4.34706">
        <ele>759</ele>
        <time>2016-12-01T09:59:36Z</time>
      </trkpt>
      <trkpt lat="45.91576" lon="4.34718">
        <ele>760</ele>
        <time>2016-12-01T09:59:43Z</time>
      </trkpt>
      <trkpt lat="45.91576" lon="4.34719">
        <ele>760</ele>
        <time>2016-12-01T09:59:44Z</time>
      </trkpt>
      <trkpt lat="45.91575" lon="4.3473">
        <ele>761</ele>
        <time>2016-12-01T09:59:51Z</time>
      </trkpt>
      <trkpt lat="45.91576" lon="4.34732">
        <ele>762</ele>
        <time>2016-12-01T09:59:52Z</time>
      </trkpt>
      <trkpt lat="45.91576" lon="4.34744">
        <ele>765</ele>
        <time>2016-12-01T09:59:59Z</time>
      </trkpt>
      <trkpt lat="45.91576" lon="4.34746">
        <ele>765</ele>
        <time>2016-12-01T10:00:00Z</time>
      </trkpt>
      <trkpt lat="45.91577" lon="4.34758">
        <ele>766</ele>
        <time>2016-12-01T10:00:07Z</time>
      </trkpt>
      <trkpt lat="45.91577" lon="4.34759">
        <ele>765</ele>
        <time>2016-12-01T10:00:08Z</time>
      </trkpt>
      <trkpt lat="45.91577" lon="4.34772">
        <ele>763</ele>
        <time>2016-12-01T10:00:14Z</time>
      </trkpt>
      <trkpt lat="45.91577" lon="4.34774">
        <ele>763</ele>
        <time>2016-12-01T10:00:15Z</time>
      </trkpt>
      <trkpt lat="45.91578" lon="4.34785">
        <ele>763</ele>
        <time>2016-12-01T10:00:20Z</time>
      </trkpt>
      <trkpt lat="45.91578" lon="4.34787">
        <ele>763</ele>
        <time>2016-12-01T10:00:21Z</time>
      </trkpt>
      <trkpt lat="45.91579" lon="4.34798">
        <ele>763</ele>
        <time>2016-12-01T10:00:27Z</time>
      </trkpt>
      <trkpt lat="45.91579" lon="4.348">
        <ele>763</ele>
        <time>2016-12-01T10:00:28Z</time>
      </trkpt>
      <trkpt lat="45.9158" lon="4.34811">
        <ele>764</ele>
        <time>2016-12-01T10:00:34Z</time>
      </trkpt>
      <trkpt lat="45.9158" lon="4.34813">
        <ele>765</ele>
        <time>2016-12-01T10:00:35Z</time>
      </trkpt>
      <trkpt lat="45.91579" lon="4.34824">
        <ele>767</ele>
        <time>2016-12-01T10:00:41Z</time>
      </trkpt>
      <trkpt lat="45.91579" lon="4.34826">
        <ele>767</ele>
        <time>2016-12-01T10:00:42Z</time>
      </trkpt>
      <trkpt lat="45.91577" lon="4.34837">
        <ele>768</ele>
        <time>2016-12-01T10:00:48Z</time>
      </trkpt>
      <trkpt lat="45.91577" lon="4.3484">
        <ele>768</ele>
        <time>2016-12-01T10:00:49Z</time>
      </trkpt>
      <trkpt lat="45.91576" lon="4.34852">
        <ele>766</ele>
        <time>2016-12-01T10:00:55Z</time>
      </trkpt>
      <trkpt lat="45.91577" lon="4.34854">
        <ele>765</ele>
        <time>2016-12-01T10:00:56Z</time>
      </trkpt>
      <trkpt lat="45.91578" lon="4.34865">
        <ele>764</ele>
        <time>2016-12-01T10:01:03Z</time>
      </trkpt>
      <trkpt lat="45.91578" lon="4.34866">
        <ele>764</ele>
        <time>2016-12-01T10:01:04Z</time>
      </trkpt>
      <trkpt lat="45.91577" lon="4.34878">
        <ele>764</ele>
        <time>2016-12-01T10:01:11Z</time>
      </trkpt>
      <trkpt lat="45.91577" lon="4.3488">
        <ele>764</ele>
        <time>2016-12-01T10:01:12Z</time>
      </trkpt>
      <trkpt lat="45.91577" lon="4.34892">
        <ele>765</ele>
        <time>2016-12-01T10:01:19Z</time>
      </trkpt>
      <trkpt lat="45.91576" lon="4.34894">
        <ele>765</ele>
        <time>2016-12-01T10:01:20Z</time>
      </trkpt>
      <trkpt lat="45.91575" lon="4.34907">
        <ele>767</ele>
        <time>2016-12-01T10:01:27Z</time>
      </trkpt>
      <trkpt lat="45.91575" lon="4.34909">
        <ele>768</ele>
        <time>2016-12-01T10:01:28Z</time>
      </trkpt>
      <trkpt lat="45.91576" lon="4.34921">
        <ele>768</ele>
        <time>2016-12-01T10:01:35Z</time>
      </trkpt>
      <trkpt lat="45.91576" lon="4.34923">
        <ele>768</ele>
        <time>2016-12-01T10:01:36Z</time>
      </trkpt>
      <trkpt lat="45.91577" lon="4.34934">
        <ele>766</ele>
        <time>2016-12-01T10:01:43Z</time>
      </trkpt>
      <trkpt lat="45.91577" lon="4.34936">
        <ele>765</ele>
        <time>2016-12-01T10:01:44Z</time>
      </trkpt>
      <trkpt lat="45.91578" lon="4.34948">
        <ele>764</ele>
        <time>2016-12-01T10:01:51Z</time>
      </trkpt>
      <trkpt lat="45.91578" lon="4.3495">
        <ele>764</ele>
        <time>2016-12-01T10:01:52Z</time>
      </trkpt>
      <trkpt lat="45.91578" lon="4.34961">
        <ele>764</ele>
        <time>2016-12-01T10:01:58Z</time>
      </trkpt>
      <trkpt lat="45.91578" lon="4.34962">
        <ele>764</ele>
        <time>2016-12-01T10:01:59Z</time>
      </trkpt>
      <trkpt lat="45.9158" lon="4.34974">
        <ele>764</ele>
        <time>2016-12-01T10:02:05Z</time>
      </trkpt>
      <trkpt lat="45.9158" lon="4.34975">
        <ele>765</ele>
        <time>2016-12-01T10:02:06Z</time>
      </trkpt>
      <trkpt lat="45.91581" lon="4.34987">
        <ele>767</ele>
        <time>2016-12-01T10:02:13Z</time>
      </trkpt>
      <trkpt lat="45.91581" lon="4.34988">
        <ele>767</ele>
        <time>2016-12-01T10:02:14Z</time>
      </trkpt>
      <trkpt lat="45.91582" lon="4.35001">
        <ele>770</ele>
        <time>2016-12-01T10:02:22Z</time>
      </trkpt>
      <trkpt lat="45.91582" lon="4.35003">
        <ele>770</ele>
        <time>2016-12-01T10:02:23Z</time>
      </trkpt>
      <trkpt lat="45.91583" lon="4.35015">
        <ele>766</ele>
        <time>2016-12-01T10:02:30Z</time>
      </trkpt>
      <trkpt lat="45.91583" lon="4.35016">
        <ele>765</ele>
        <time>2016-12-01T10:02:31Z</time>
      </trkpt>
      <trkpt lat="45.91583" lon="4.35029">
        <ele>776</ele>
        <time>2016-12-01T10:02:37Z</time>
      </trkpt>
      <trkpt lat="45.91583" lon="4.35031">
        <ele>763</ele>
        <time>2016-12-01T10:02:38Z</time>
      </trkpt>
      <trkpt lat="45.91583" lon="4.35043">
        <ele>763</ele>
        <time>2016-12-01T10:02:44Z</time>
      </trkpt>
      <trkpt lat="45.91583" lon="4.35045">
        <ele>763</ele>
        <time>2016-12-01T10:02:45Z</time>
      </trkpt>
      <trkpt lat="45.91584" lon="4.35057">
        <ele>775</ele>
        <time>2016-12-01T10:02:52Z</time>
      </trkpt>
      <trkpt lat="45.91585" lon="4.35059">
        <ele>775</ele>
        <time>2016-12-01T10:02:53Z</time>
      </trkpt>
      <trkpt lat="45.91584" lon="4.35071">
        <ele>773</ele>
        <time>2016-12-01T10:03:00Z</time>
      </trkpt>
      <trkpt lat="45.91584" lon="4.35072">
        <ele>773</ele>
        <time>2016-12-01T10:03:01Z</time>
      </trkpt>
      <trkpt lat="45.91584" lon="4.35084">
        <ele>769</ele>
        <time>2016-12-01T10:03:09Z</time>
      </trkpt>
      <trkpt lat="45.91583" lon="4.35086">
        <ele>768</ele>
        <time>2016-12-01T10:03:10Z</time>
      </trkpt>
      <trkpt lat="45.91582" lon="4.35098">
        <ele>766</ele>
        <time>2016-12-01T10:03:16Z</time>
      </trkpt>
      <trkpt lat="45.91581" lon="4.351">
        <ele>765</ele>
        <time>2016-12-01T10:03:17Z</time>
      </trkpt>
      <trkpt lat="45.91581" lon="4.35112">
        <ele>765</ele>
        <time>2016-12-01T10:03:23Z</time>
      </trkpt>
      <trkpt lat="45.91581" lon="4.35114">
        <ele>765</ele>
        <time>2016-12-01T10:03:24Z</time>
      </trkpt>
      <trkpt lat="45.91581" lon="4.35126">
        <ele>765</ele>
        <time>2016-12-01T10:03:31Z</time>
      </trkpt>
      <trkpt lat="45.9158" lon="4.35128">
        <ele>765</ele>
        <time>2016-12-01T10:03:32Z</time>
      </trkpt>
      <trkpt lat="45.91581" lon="4.35139">
        <ele>766</ele>
        <time>2016-12-01T10:03:39Z</time>
      </trkpt>
      <trkpt lat="45.91581" lon="4.35141">
        <ele>767</ele>
        <time>2016-12-01T10:03:40Z</time>
      </trkpt>
      <trkpt lat="45.91583" lon="4.35153">
        <ele>769</ele>
        <time>2016-12-01T10:03:47Z</time>
      </trkpt>
      <trkpt lat="45.91584" lon="4.35154">
        <ele>777</ele>
        <time>2016-12-01T10:03:48Z</time>
      </trkpt>
      <trkpt lat="45.91584" lon="4.35166">
        <ele>775</ele>
        <time>2016-12-01T10:03:54Z</time>
      </trkpt>
      <trkpt lat="45.91584" lon="4.35168">
        <ele>776</ele>
        <time>2016-12-01T10:03:55Z</time>
      </trkpt>
      <trkpt lat="45.91584" lon="4.3518">
        <ele>779</ele>
        <time>2016-12-01T10:04:00Z</time>
      </trkpt>
      <trkpt lat="45.91584" lon="4.35181">
        <ele>779</ele>
        <time>2016-12-01T10:04:01Z</time>
      </trkpt>
      <trkpt lat="45.91582" lon="4.35192">
        <ele>771</ele>
        <time>2016-12-01T10:04:07Z</time>
      </trkpt>
      <trkpt lat="45.91582" lon="4.35194">
        <ele>771</ele>
        <time>2016-12-01T10:04:08Z</time>
      </trkpt>
      <trkpt lat="45.91579" lon="4.35205">
        <ele>771</ele>
        <time>2016-12-01T10:04:14Z</time>
      </trkpt>
      <trkpt lat="45.91579" lon="4.35207">
        <ele>771</ele>
        <time>2016-12-01T10:04:15Z</time>
      </trkpt>
      <trkpt lat="45.91578" lon="4.35219">
        <ele>772</ele>
        <time>2016-12-01T10:04:22Z</time>
      </trkpt>
      <trkpt lat="45.91577" lon="4.35221">
        <ele>772</ele>
        <time>2016-12-01T10:04:23Z</time>
      </trkpt>
      <trkpt lat="45.91576" lon="4.35232">
        <ele>773</ele>
        <time>2016-12-01T10:04:29Z</time>
      </trkpt>
      <trkpt lat="45.91576" lon="4.35234">
        <ele>774</ele>
        <time>2016-12-01T10:04:30Z</time>
      </trkpt>
      <trkpt lat="45.91575" lon="4.35246">
        <ele>776</ele>
        <time>2016-12-01T10:04:36Z</time>
      </trkpt>
      <trkpt lat="45.91575" lon="4.35249">
        <ele>776</ele>
        <time>2016-12-01T10:04:37Z</time>
      </trkpt>
      <trkpt lat="45.91576" lon="4.35261">
        <ele>776</ele>
        <time>2016-12-01T10:04:43Z</time>
      </trkpt>
      <trkpt lat="45.91576" lon="4.35263">
        <ele>775</ele>
        <time>2016-12-01T10:04:44Z</time>
      </trkpt>
      <trkpt lat="45.91578" lon="4.35276">
        <ele>774</ele>
        <time>2016-12-01T10:04:50Z</time>
      </trkpt>
      <trkpt lat="45.91578" lon="4.35278">
        <ele>774</ele>
        <time>2016-12-01T10:04:51Z</time>
      </trkpt>
      <trkpt lat="45.91578" lon="4.3529">
        <ele>774</ele>
        <time>2016-12-01T10:04:59Z</time>
      </trkpt>
      <trkpt lat="45.91578" lon="4.35292">
        <ele>774</ele>
        <time>2016-12-01T10:05:00Z</time>
      </trkpt>
      <trkpt lat="45.91578" lon="4.35303">
        <ele>774</ele>
        <time>2016-12-01T10:05:07Z</time>
      </trkpt>
      <trkpt lat="45.91577" lon="4.35305">
        <ele>774</ele>
        <time>2016-12-01T10:05:08Z</time>
      </trkpt>
      <trkpt lat="45.91578" lon="4.35317">
        <ele>776</ele>
        <time>2016-12-01T10:05:14Z</time>
      </trkpt>
      <trkpt lat="45.91578" lon="4.35319">
        <ele>776</ele>
        <time>2016-12-01T10:05:15Z</time>
      </trkpt>
      <trkpt lat="45.9158" lon="4.3533">
        <ele>780</ele>
        <time>2016-12-01T10:05:21Z</time>
      </trkpt>
      <trkpt lat="45.9158" lon="4.35332">
        <ele>780</ele>
        <time>2016-12-01T10:05:22Z</time>
      </trkpt>
      <trkpt lat="45.91581" lon="4.35344">
        <ele>777</ele>
        <time>2016-12-01T10:05:28Z</time>
      </trkpt>
      <trkpt lat="45.91581" lon="4.35346">
        <ele>776</ele>
        <time>2016-12-01T10:05:29Z</time>
      </trkpt>
      <trkpt lat="45.91577" lon="4.35357">
        <ele>773</ele>
        <time>2016-12-01T10:05:39Z</time>
      </trkpt>
      <trkpt lat="45.91575" lon="4.35356">
        <ele>773</ele>
        <time>2016-12-01T10:05:40Z</time>
      </trkpt>
      <trkpt lat="45.91577" lon="4.35368">
        <ele>772</ele>
        <time>2016-12-01T10:05:48Z</time>
      </trkpt>
      <trkpt lat="45.91578" lon="4.3537">
        <ele>772</ele>
        <time>2016-12-01T10:05:49Z</time>
      </trkpt>
      <trkpt lat="45.91579" lon="4.35382">
        <ele>771</ele>
        <time>2016-12-01T10:05:55Z</time>
      </trkpt>
      <trkpt lat="45.91579" lon="4.35384">
        <ele>771</ele>
        <time>2016-12-01T10:05:56Z</time>
      </trkpt>
      <trkpt lat="45.91579" lon="4.35395">
        <ele>772</ele>
        <time>2016-12-01T10:06:01Z</time>
      </trkpt>
      <trkpt lat="45.91579" lon="4.35397">
        <ele>772</ele>
        <time>2016-12-01T10:06:02Z</time>
      </trkpt>
      <trkpt lat="45.91579" lon="4.35409">
        <ele>774</ele>
        <time>2016-12-01T10:06:07Z</time>
      </trkpt>
      <trkpt lat="45.91579" lon="4.35411">
        <ele>774</ele>
        <time>2016-12-01T10:06:08Z</time>
      </trkpt>
      <trkpt lat="45.91579" lon="4.35424">
        <ele>773</ele>
        <time>2016-12-01T10:06:13Z</time>
      </trkpt>
      <trkpt lat="45.91579" lon="4.35426">
        <ele>772</ele>
        <time>2016-12-01T10:06:14Z</time>
      </trkpt>
      <trkpt lat="45.91579" lon="4.35439">
        <ele>769</ele>
        <time>2016-12-01T10:06:21Z</time>
      </trkpt>
      <trkpt lat="45.9158" lon="4.3544">
        <ele>769</ele>
        <time>2016-12-01T10:06:22Z</time>
      </trkpt>
      <trkpt lat="45.91582" lon="4.35451">
        <ele>768</ele>
        <time>2016-12-01T10:06:28Z</time>
      </trkpt>
      <trkpt lat="45.91583" lon="4.35453">
        <ele>767</ele>
        <time>2016-12-01T10:06:29Z</time>
      </trkpt>
      <trkpt lat="45.91587" lon="4.35464">
        <ele>779</ele>
        <time>2016-12-01T10:06:34Z</time>
      </trkpt>
      <trkpt lat="45.91587" lon="4.35467">
        <ele>779</ele>
        <time>2016-12-01T10:06:35Z</time>
      </trkpt>
      <trkpt lat="45.91589" lon="4.35478">
        <ele>778</ele>
        <time>2016-12-01T10:06:40Z</time>
      </trkpt>
      <trkpt lat="45.91588" lon="4.3548">
        <ele>778</ele>
        <time>2016-12-01T10:06:41Z</time>
      </trkpt>
      <trkpt lat="45.91589" lon="4.35491">
        <ele>776</ele>
        <time>2016-12-01T10:06:46Z</time>
      </trkpt>
      <trkpt lat="45.91589" lon="4.35494">
        <ele>776</ele>
        <time>2016-12-01T10:06:47Z</time>
      </trkpt>
      <trkpt lat="45.9159" lon="4.35507">
        <ele>775</ele>
        <time>2016-12-01T10:06:51Z</time>
      </trkpt>
      <trkpt lat="45.9159" lon="4.35509">
        <ele>776</ele>
        <time>2016-12-01T10:06:52Z</time>
      </trkpt>
      <trkpt lat="45.91589" lon="4.35522">
        <ele>777</ele>
        <time>2016-12-01T10:06:58Z</time>
      </trkpt>
      <trkpt lat="45.91589" lon="4.35524">
        <ele>777</ele>
        <time>2016-12-01T10:06:59Z</time>
      </trkpt>
      <trkpt lat="45.91589" lon="4.35535">
        <ele>777</ele>
        <time>2016-12-01T10:07:05Z</time>
      </trkpt>
      <trkpt lat="45.91589" lon="4.35537">
        <ele>777</ele>
        <time>2016-12-01T10:07:06Z</time>
      </trkpt>
      <trkpt lat="45.91589" lon="4.35549">
        <ele>777</ele>
        <time>2016-12-01T10:07:11Z</time>
      </trkpt>
      <trkpt lat="45.91589" lon="4.35551">
        <ele>777</ele>
        <time>2016-12-01T10:07:12Z</time>
      </trkpt>
      <trkpt lat="45.91588" lon="4.35563">
        <ele>776</ele>
        <time>2016-12-01T10:07:18Z</time>
      </trkpt>
      <trkpt lat="45.91587" lon="4.35565">
        <ele>775</ele>
        <time>2016-12-01T10:07:19Z</time>
      </trkpt>
      <trkpt lat="45.91589" lon="4.35577">
        <ele>773</ele>
        <time>2016-12-01T10:07:25Z</time>
      </trkpt>
      <trkpt lat="45.91589" lon="4.35579">
        <ele>773</ele>
        <time>2016-12-01T10:07:26Z</time>
      </trkpt>
      <trkpt lat="45.91588" lon="4.35592">
        <ele>773</ele>
        <time>2016-12-01T10:07:34Z</time>
      </trkpt>
      <trkpt lat="45.91588" lon="4.35593">
        <ele>773</ele>
        <time>2016-12-01T10:07:35Z</time>
      </trkpt>
      <trkpt lat="45.91588" lon="4.35605">
        <ele>775</ele>
        <time>2016-12-01T10:07:43Z</time>
      </trkpt>
      <trkpt lat="45.91588" lon="4.35607">
        <ele>775</ele>
        <time>2016-12-01T10:07:44Z</time>
      </trkpt>
      <trkpt lat="45.91588" lon="4.35618">
        <ele>775</ele>
        <time>2016-12-01T10:07:50Z</time>
      </trkpt>
      <trkpt lat="45.91587" lon="4.3562">
        <ele>775</ele>
        <time>2016-12-01T10:07:51Z</time>
      </trkpt>
      <trkpt lat="45.91585" lon="4.35632">
        <ele>775</ele>
        <time>2016-12-01T10:07:57Z</time>
      </trkpt>
      <trkpt lat="45.91585" lon="4.35634">
        <ele>775</ele>
        <time>2016-12-01T10:07:58Z</time>
      </trkpt>
      <trkpt lat="45.91583" lon="4.35645">
        <ele>773</ele>
        <time>2016-12-01T10:08:03Z</time>
      </trkpt>
      <trkpt lat="45.91583" lon="4.35647">
        <ele>762</ele>
        <time>2016-12-01T10:08:04Z</time>
      </trkpt>
      <trkpt lat="45.91582" lon="4.35658">
        <ele>764</ele>
        <time>2016-12-01T10:08:10Z</time>
      </trkpt>
      <trkpt lat="45.91582" lon="4.3566">
        <ele>764</ele>
        <time>2016-12-01T10:08:11Z</time>
      </trkpt>
      <trkpt lat="45.91581" lon="4.35672">
        <ele>765</ele>
        <time>2016-12-01T10:08:17Z</time>
      </trkpt>
      <trkpt lat="45.91581" lon="4.35674">
        <ele>765</ele>
        <time>2016-12-01T10:08:18Z</time>
      </trkpt>
      <trkpt lat="45.9158" lon="4.35686">
        <ele>762</ele>
        <time>2016-12-01T10:08:26Z</time>
      </trkpt>
      <trkpt lat="45.9158" lon="4.35687">
        <ele>762</ele>
        <time>2016-12-01T10:08:27Z</time>
      </trkpt>
      <trkpt lat="45.91578" lon="4.35698">
        <ele>761</ele>
        <time>2016-12-01T10:08:34Z</time>
      </trkpt>
      <trkpt lat="45.91578" lon="4.357">
        <ele>761</ele>
        <time>2016-12-01T10:08:35Z</time>
      </trkpt>
      <trkpt lat="45.91575" lon="4.35711">
        <ele>761</ele>
        <time>2016-12-01T10:08:41Z</time>
      </trkpt>
      <trkpt lat="45.91575" lon="4.35713">
        <ele>761</ele>
        <time>2016-12-01T10:08:42Z</time>
      </trkpt>
      <trkpt lat="45.91573" lon="4.35724">
        <ele>762</ele>
        <time>2016-12-01T10:08:49Z</time>
      </trkpt>
      <trkpt lat="45.91573" lon="4.35726">
        <ele>763</ele>
        <time>2016-12-01T10:08:50Z</time>
      </trkpt>
      <trkpt lat="45.91572" lon="4.35738">
        <ele>764</ele>
        <time>2016-12-01T10:08:57Z</time>
      </trkpt>
      <trkpt lat="45.91571" lon="4.3574">
        <ele>764</ele>
        <time>2016-12-01T10:08:58Z</time>
      </trkpt>
      <trkpt lat="45.91567" lon="4.3575">
        <ele>766</ele>
        <time>2016-12-01T10:09:04Z</time>
      </trkpt>
      <trkpt lat="45.91566" lon="4.35752">
        <ele>765</ele>
        <time>2016-12-01T10:09:05Z</time>
      </trkpt>
      <trkpt lat="45.91563" lon="4.35764">
        <ele>764</ele>
        <time>2016-12-01T10:09:12Z</time>
      </trkpt>
      <trkpt lat="45.91563" lon="4.35766">
        <ele>764</ele>
        <time>2016-12-01T10:09:13Z</time>
      </trkpt>
      <trkpt lat="45.9156" lon="4.35778">
        <ele>763</ele>
        <time>2016-12-01T10:09:21Z</time>
      </trkpt>
      <trkpt lat="45.91561" lon="4.35779">
        <ele>763</ele>
        <time>2016-12-01T10:09:22Z</time>
      </trkpt>
      <trkpt lat="45.91556" lon="4.35789">
        <ele>762</ele>
        <time>2016-12-01T10:10:02Z</time>
      </trkpt>
      <trkpt lat="45.91555" lon="4.3579">
        <ele>762</ele>
        <time>2016-12-01T10:10:03Z</time>
      </trkpt>
      <trkpt lat="45.9155" lon="4.35799">
        <ele>762</ele>
        <time>2016-12-01T10:10:09Z</time>
      </trkpt>
      <trkpt lat="45.91549" lon="4.35801">
        <ele>762</ele>
        <time>2016-12-01T10:10:10Z</time>
      </trkpt>
      <trkpt lat="45.91545" lon="4.35811">
        <ele>761</ele>
        <time>2016-12-01T10:10:16Z</time>
      </trkpt>
      <trkpt lat="45.91544" lon="4.35813">
        <ele>761</ele>
        <time>2016-12-01T10:10:17Z</time>
      </trkpt>
      <trkpt lat="45.91539" lon="4.35822">
        <ele>761</ele>
        <time>2016-12-01T10:10:23Z</time>
      </trkpt>
      <trkpt lat="45.91539" lon="4.35823">
        <ele>761</ele>
        <time>2016-12-01T10:10:24Z</time>
      </trkpt>
      <trkpt lat="45.91533" lon="4.35833">
        <ele>760</ele>
        <time>2016-12-01T10:10:31Z</time>
      </trkpt>
      <trkpt lat="45.91533" lon="4.35834">
        <ele>760</ele>
        <time>2016-12-01T10:10:32Z</time>
      </trkpt>
      <trkpt lat="45.91531" lon="4.35845">
        <ele>760</ele>
        <time>2016-12-01T10:10:39Z</time>
      </trkpt>
      <trkpt lat="45.9153" lon="4.35847">
        <ele>760</ele>
        <time>2016-12-01T10:10:40Z</time>
      </trkpt>
      <trkpt lat="45.91526" lon="4.35858">
        <ele>760</ele>
        <time>2016-12-01T10:10:47Z</time>
      </trkpt>
      <trkpt lat="45.91525" lon="4.35859">
        <ele>760</ele>
        <time>2016-12-01T10:10:48Z</time>
      </trkpt>
      <trkpt lat="45.9152" lon="4.35868">
        <ele>760</ele>
        <time>2016-12-01T10:10:55Z</time>
      </trkpt>
      <trkpt lat="45.91519" lon="4.3587">
        <ele>760</ele>
        <time>2016-12-01T10:10:56Z</time>
      </trkpt>
      <trkpt lat="45.91515" lon="4.35879">
        <ele>760</ele>
        <time>2016-12-01T10:11:02Z</time>
      </trkpt>
      <trkpt lat="45.91514" lon="4.35881">
        <ele>760</ele>
        <time>2016-12-01T10:11:03Z</time>
      </trkpt>
      <trkpt lat="45.9151" lon="4.3589">
        <ele>760</ele>
        <time>2016-12-01T10:11:13Z</time>
      </trkpt>
      <trkpt lat="45.91509" lon="4.35892">
        <ele>760</ele>
        <time>2016-12-01T10:11:14Z</time>
      </trkpt>
      <trkpt lat="45.91507" lon="4.35903">
        <ele>759</ele>
        <time>2016-12-01T10:11:20Z</time>
      </trkpt>
      <trkpt lat="45.91506" lon="4.35904">
        <ele>759</ele>
        <time>2016-12-01T10:11:21Z</time>
      </trkpt>
      <trkpt lat="45.91501" lon="4.35914">
        <ele>758</ele>
        <time>2016-12-01T10:11:28Z</time>
      </trkpt>
      <trkpt lat="45.915" lon="4.35915">
        <ele>757</ele>
        <time>2016-12-01T10:11:29Z</time>
      </trkpt>
      <trkpt lat="45.91494" lon="4.35924">
        <ele>757</ele>
        <time>2016-12-01T10:11:36Z</time>
      </trkpt>
      <trkpt lat="45.91493" lon="4.35925">
        <ele>757</ele>
        <time>2016-12-01T10:11:37Z</time>
      </trkpt>
      <trkpt lat="45.91491" lon="4.35936">
        <ele>757</ele>
        <time>2016-12-01T10:11:43Z</time>
      </trkpt>
      <trkpt lat="45.9149" lon="4.35938">
        <ele>757</ele>
        <time>2016-12-01T10:11:44Z</time>
      </trkpt>
      <trkpt lat="45.91488" lon="4.35949">
        <ele>757</ele>
        <time>2016-12-01T10:11:50Z</time>
      </trkpt>
      <trkpt lat="45.91487" lon="4.3595">
        <ele>757</ele>
        <time>2016-12-01T10:11:51Z</time>
      </trkpt>
      <trkpt lat="45.91485" lon="4.35961">
        <ele>757</ele>
        <time>2016-12-01T10:11:57Z</time>
      </trkpt>
      <trkpt lat="45.91485" lon="4.35963">
        <ele>757</ele>
        <time>2016-12-01T10:11:58Z</time>
      </trkpt>
      <trkpt lat="45.91479" lon="4.35972">
        <ele>757</ele>
        <time>2016-12-01T10:12:04Z</time>
      </trkpt>
      <trkpt lat="45.91479" lon="4.35974">
        <ele>757</ele>
        <time>2016-12-01T10:12:05Z</time>
      </trkpt>
      <trkpt lat="45.91475" lon="4.35984">
        <ele>757</ele>
        <time>2016-12-01T10:12:12Z</time>
      </trkpt>
      <trkpt lat="45.91475" lon="4.35986">
        <ele>757</ele>
        <time>2016-12-01T10:12:13Z</time>
      </trkpt>
      <trkpt lat="45.91469" lon="4.35995">
        <ele>757</ele>
        <time>2016-12-01T10:12:20Z</time>
      </trkpt>
      <trkpt lat="45.91468" lon="4.35997">
        <ele>757</ele>
        <time>2016-12-01T10:12:21Z</time>
      </trkpt>
      <trkpt lat="45.91464" lon="4.36008">
        <ele>758</ele>
        <time>2016-12-01T10:12:27Z</time>
      </trkpt>
      <trkpt lat="45.91464" lon="4.3601">
        <ele>758</ele>
        <time>2016-12-01T10:12:28Z</time>
      </trkpt>
      <trkpt lat="45.91461" lon="4.36022">
        <ele>758</ele>
        <time>2016-12-01T10:12:35Z</time>
      </trkpt>
      <trkpt lat="45.91461" lon="4.36024">
        <ele>758</ele>
        <time>2016-12-01T10:12:36Z</time>
      </trkpt>
      <trkpt lat="45.91456" lon="4.36034">
        <ele>758</ele>
        <time>2016-12-01T10:12:43Z</time>
      </trkpt>
      <trkpt lat="45.91455" lon="4.36035">
        <ele>758</ele>
        <time>2016-12-01T10:12:44Z</time>
      </trkpt>
      <trkpt lat="45.91449" lon="4.36043">
        <ele>759</ele>
        <time>2016-12-01T10:12:50Z</time>
      </trkpt>
      <trkpt lat="45.91448" lon="4.36044">
        <ele>759</ele>
        <time>2016-12-01T10:12:51Z</time>
      </trkpt>
      <trkpt lat="45.91443" lon="4.36054">
        <ele>759</ele>
        <time>2016-12-01T10:12:57Z</time>
      </trkpt>
      <trkpt lat="45.91442" lon="4.36055">
        <ele>760</ele>
        <time>2016-12-01T10:12:58Z</time>
      </trkpt>
      <trkpt lat="45.91437" lon="4.36064">
        <ele>760</ele>
        <time>2016-12-01T10:13:03Z</time>
      </trkpt>
      <trkpt lat="45.91436" lon="4.36066">
        <ele>761</ele>
        <time>2016-12-01T10:13:04Z</time>
      </trkpt>
      <trkpt lat="45.91431" lon="4.36076">
        <ele>762</ele>
        <time>2016-12-01T10:13:11Z</time>
      </trkpt>
      <trkpt lat="45.91431" lon="4.36078">
        <ele>762</ele>
        <time>2016-12-01T10:13:12Z</time>
      </trkpt>
      <trkpt lat="45.9143" lon="4.3609">
        <ele>761</ele>
        <time>2016-12-01T10:13:18Z</time>
      </trkpt>
      <trkpt lat="45.91429" lon="4.36091">
        <ele>761</ele>
        <time>2016-12-01T10:13:19Z</time>
      </trkpt>
      <trkpt lat="45.91425" lon="4.36102">
        <ele>761</ele>
        <time>2016-12-01T10:13:28Z</time>
      </trkpt>
      <trkpt lat="45.91424" lon="4.36103">
        <ele>760</ele>
        <time>2016-12-01T10:13:29Z</time>
      </trkpt>
      <trkpt lat="45.91423" lon="4.36116">
        <ele>759</ele>
        <time>2016-12-01T10:13:38Z</time>
      </trkpt>
      <trkpt lat="45.91423" lon="4.36117">
        <ele>759</ele>
        <time>2016-12-01T10:13:39Z</time>
      </trkpt>
      <trkpt lat="45.91425" lon="4.36129">
        <ele>759</ele>
        <time>2016-12-01T10:13:47Z</time>
      </trkpt>
      <trkpt lat="45.91425" lon="4.36131">
        <ele>759</ele>
        <time>2016-12-01T10:13:48Z</time>
      </trkpt>
      <trkpt lat="45.91418" lon="4.36138">
        <ele>759</ele>
        <time>2016-12-01T10:13:54Z</time>
      </trkpt>
      <trkpt lat="45.91417" lon="4.36139">
        <ele>759</ele>
        <time>2016-12-01T10:13:55Z</time>
      </trkpt>
      <trkpt lat="45.91411" lon="4.36146">
        <ele>768</ele>
        <time>2016-12-01T10:14:00Z</time>
      </trkpt>
      <trkpt lat="45.9141" lon="4.36148">
        <ele>768</ele>
        <time>2016-12-01T10:14:01Z</time>
      </trkpt>
      <trkpt lat="45.91403" lon="4.36154">
        <ele>768</ele>
        <time>2016-12-01T10:14:06Z</time>
      </trkpt>
      <trkpt lat="45.91402" lon="4.36155">
        <ele>768</ele>
        <time>2016-12-01T10:14:07Z</time>
      </trkpt>
      <trkpt lat="45.91398" lon="4.36166">
        <ele>768</ele>
        <time>2016-12-01T10:14:13Z</time>
      </trkpt>
      <trkpt lat="45.91398" lon="4.36168">
        <ele>767</ele>
        <time>2016-12-01T10:14:14Z</time>
      </trkpt>
      <trkpt lat="45.91395" lon="4.36179">
        <ele>768</ele>
        <time>2016-12-01T10:14:20Z</time>
      </trkpt>
      <trkpt lat="45.91395" lon="4.36181">
        <ele>768</ele>
        <time>2016-12-01T10:14:21Z</time>
      </trkpt>
      <trkpt lat="45.91391" lon="4.36192">
        <ele>769</ele>
        <time>2016-12-01T10:14:28Z</time>
      </trkpt>
      <trkpt lat="45.9139" lon="4.36193">
        <ele>769</ele>
        <time>2016-12-01T10:14:29Z</time>
      </trkpt>
      <trkpt lat="45.91385" lon="4.36202">
        <ele>770</ele>
        <time>2016-12-01T10:14:35Z</time>
      </trkpt>
      <trkpt lat="45.91384" lon="4.36203">
        <ele>770</ele>
        <time>2016-12-01T10:14:36Z</time>
      </trkpt>
      <trkpt lat="45.91381" lon="4.36214">
        <ele>770</ele>
        <time>2016-12-01T10:14:42Z</time>
      </trkpt>
      <trkpt lat="45.9138" lon="4.36216">
        <ele>770</ele>
        <time>2016-12-01T10:14:43Z</time>
      </trkpt>
      <trkpt lat="45.91375" lon="4.36225">
        <ele>770</ele>
        <time>2016-12-01T10:14:49Z</time>
      </trkpt>
      <trkpt lat="45.91374" lon="4.36227">
        <ele>770</ele>
        <time>2016-12-01T10:14:50Z</time>
      </trkpt>
      <trkpt lat="45.91369" lon="4.36237">
        <ele>771</ele>
        <time>2016-12-01T10:14:57Z</time>
      </trkpt>
      <trkpt lat="45.91368" lon="4.36239">
        <ele>771</ele>
        <time>2016-12-01T10:14:58Z</time>
      </trkpt>
      <trkpt lat="45.91364" lon="4.36249">
        <ele>772</ele>
        <time>2016-12-01T10:15:05Z</time>
      </trkpt>
      <trkpt lat="45.91363" lon="4.3625">
        <ele>770</ele>
        <time>2016-12-01T10:15:06Z</time>
      </trkpt>
      <trkpt lat="45.91356" lon="4.36257">
        <ele>771</ele>
        <time>2016-12-01T10:15:12Z</time>
      </trkpt>
      <trkpt lat="45.91356" lon="4.36259">
        <ele>771</ele>
        <time>2016-12-01T10:15:13Z</time>
      </trkpt>
      <trkpt lat="45.91355" lon="4.36272">
        <ele>770</ele>
        <time>2016-12-01T10:15:20Z</time>
      </trkpt>
      <trkpt lat="45.91355" lon="4.36273">
        <ele>770</ele>
        <time>2016-12-01T10:15:21Z</time>
      </trkpt>
      <trkpt lat="45.91351" lon="4.36284">
        <ele>770</ele>
        <time>2016-12-01T10:15:28Z</time>
      </trkpt>
      <trkpt lat="45.9135" lon="4.36285">
        <ele>770</ele>
        <time>2016-12-01T10:15:29Z</time>
      </trkpt>
      <trkpt lat="45.91347" lon="4.36296">
        <ele>770</ele>
        <time>2016-12-01T10:15:36Z</time>
      </trkpt>
      <trkpt lat="45.91347" lon="4.36298">
        <ele>770</ele>
        <time>2016-12-01T10:15:37Z</time>
      </trkpt>
      <trkpt lat="45.91345" lon="4.3631">
        <ele>770</ele>
        <time>2016-12-01T10:15:44Z</time>
      </trkpt>
      <trkpt lat="45.91344" lon="4.36311">
        <ele>770</ele>
        <time>2016-12-01T10:15:45Z</time>
      </trkpt>
      <trkpt lat="45.91338" lon="4.3632">
        <ele>770</ele>
        <time>2016-12-01T10:15:53Z</time>
      </trkpt>
      <trkpt lat="45.91338" lon="4.36321">
        <ele>770</ele>
        <time>2016-12-01T10:15:54Z</time>
      </trkpt>
      <trkpt lat="45.91333" lon="4.36331">
        <ele>773</ele>
        <time>2016-12-01T10:16:02Z</time>
      </trkpt>
      <trkpt lat="45.91333" lon="4.36333">
        <ele>772</ele>
        <time>2016-12-01T10:16:03Z</time>
      </trkpt>
      <trkpt lat="45.91331" lon="4.36346">
        <ele>774</ele>
        <time>2016-12-01T10:16:11Z</time>
      </trkpt>
      <trkpt lat="45.9133" lon="4.36347">
        <ele>774</ele>
        <time>2016-12-01T10:16:12Z</time>
      </trkpt>
      <trkpt lat="45.91324" lon="4.36356">
        <ele>775</ele>
        <time>2016-12-01T10:16:19Z</time>
      </trkpt>
      <trkpt lat="45.91323" lon="4.36358">
        <ele>775</ele>
        <time>2016-12-01T10:16:20Z</time>
      </trkpt>
      <trkpt lat="45.91317" lon="4.36366">
        <ele>775</ele>
        <time>2016-12-01T10:16:29Z</time>
      </trkpt>
      <trkpt lat="45.91316" lon="4.36367">
        <ele>775</ele>
        <time>2016-12-01T10:16:30Z</time>
      </trkpt>
      <trkpt lat="45.91315" lon="4.36378">
        <ele>775</ele>
        <time>2016-12-01T10:16:39Z</time>
      </trkpt>
      <trkpt lat="45.91315" lon="4.3638">
        <ele>775</ele>
        <time>2016-12-01T10:16:40Z</time>
      </trkpt>
      <trkpt lat="45.91316" lon="4.36392">
        <ele>774</ele>
        <time>2016-12-01T10:16:45Z</time>
      </trkpt>
      <trkpt lat="45.91316" lon="4.36395">
        <ele>773</ele>
        <time>2016-12-01T10:16:46Z</time>
      </trkpt>
      <trkpt lat="45.91314" lon="4.36407">
        <ele>773</ele>
        <time>2016-12-01T10:16:53Z</time>
      </trkpt>
      <trkpt lat="45.91313" lon="4.36409">
        <ele>773</ele>
        <time>2016-12-01T10:16:54Z</time>
      </trkpt>
      <trkpt lat="45.91305" lon="4.36415">
        <ele>774</ele>
        <time>2016-12-01T10:17:00Z</time>
      </trkpt>
      <trkpt lat="45.91305" lon="4.36417">
        <ele>770</ele>
        <time>2016-12-01T10:17:01Z</time>
      </trkpt>
      <trkpt lat="45.913" lon="4.36428">
        <ele>770</ele>
        <time>2016-12-01T10:17:07Z</time>
      </trkpt>
      <trkpt lat="45.91299" lon="4.36429">
        <ele>770</ele>
        <time>2016-12-01T10:17:08Z</time>
      </trkpt>
      <trkpt lat="45.91294" lon="4.36439">
        <ele>771</ele>
        <time>2016-12-01T10:17:14Z</time>
      </trkpt>
      <trkpt lat="45.91293" lon="4.36439">
        <ele>771</ele>
        <time>2016-12-01T10:17:15Z</time>
      </trkpt>
      <trkpt lat="45.91288" lon="4.36449">
        <ele>771</ele>
        <time>2016-12-01T10:17:22Z</time>
      </trkpt>
      <trkpt lat="45.91287" lon="4.36451">
        <ele>771</ele>
        <time>2016-12-01T10:17:23Z</time>
      </trkpt>
      <trkpt lat="45.91284" lon="4.36461">
        <ele>771</ele>
        <time>2016-12-01T10:17:28Z</time>
      </trkpt>
      <trkpt lat="45.91283" lon="4.36463">
        <ele>771</ele>
        <time>2016-12-01T10:17:29Z</time>
      </trkpt>
      <trkpt lat="45.91277" lon="4.36473">
        <ele>771</ele>
        <time>2016-12-01T10:17:35Z</time>
      </trkpt>
      <trkpt lat="45.91276" lon="4.36474">
        <ele>771</ele>
        <time>2016-12-01T10:17:36Z</time>
      </trkpt>
      <trkpt lat="45.91272" lon="4.36486">
        <ele>771</ele>
        <time>2016-12-01T10:17:42Z</time>
      </trkpt>
      <trkpt lat="45.91272" lon="4.36487">
        <ele>771</ele>
        <time>2016-12-01T10:17:43Z</time>
      </trkpt>
      <trkpt lat="45.91267" lon="4.36497">
        <ele>772</ele>
        <time>2016-12-01T10:17:49Z</time>
      </trkpt>
      <trkpt lat="45.91265" lon="4.36499">
        <ele>772</ele>
        <time>2016-12-01T10:17:50Z</time>
      </trkpt>
      <trkpt lat="45.9126" lon="4.36509">
        <ele>768</ele>
        <time>2016-12-01T10:17:56Z</time>
      </trkpt>
      <trkpt lat="45.91259" lon="4.36511">
        <ele>768</ele>
        <time>2016-12-01T10:17:57Z</time>
      </trkpt>
      <trkpt lat="45.91254" lon="4.3652">
        <ele>766</ele>
        <time>2016-12-01T10:18:03Z</time>
      </trkpt>
      <trkpt lat="45.91253" lon="4.36522">
        <ele>765</ele>
        <time>2016-12-01T10:18:04Z</time>
      </trkpt>
      <trkpt lat="45.91247" lon="4.36531">
        <ele>777</ele>
        <time>2016-12-01T10:18:10Z</time>
      </trkpt>
      <trkpt lat="45.91247" lon="4.36534">
        <ele>777</ele>
        <time>2016-12-01T10:18:11Z</time>
      </trkpt>
      <trkpt lat="45.91247" lon="4.36545">
        <ele>776</ele>
        <time>2016-12-01T10:18:16Z</time>
      </trkpt>
      <trkpt lat="45.91246" lon="4.36547">
        <ele>776</ele>
        <time>2016-12-01T10:18:17Z</time>
      </trkpt>
      <trkpt lat="45.91246" lon="4.36558">
        <ele>774</ele>
        <time>2016-12-01T10:18:23Z</time>
      </trkpt>
      <trkpt lat="45.91246" lon="4.3656">
        <ele>773</ele>
        <time>2016-12-01T10:18:24Z</time>
      </trkpt>
      <trkpt lat="45.91243" lon="4.3657">
        <ele>770</ele>
        <time>2016-12-01T10:18:31Z</time>
      </trkpt>
      <trkpt lat="45.91243" lon="4.36573">
        <ele>769</ele>
        <time>2016-12-01T10:18:32Z</time>
      </trkpt>
      <trkpt lat="45.9124" lon="4.36584">
        <ele>764</ele>
        <time>2016-12-01T10:18:38Z</time>
      </trkpt>
      <trkpt lat="45.91238" lon="4.36585">
        <ele>764</ele>
        <time>2016-12-01T10:18:39Z</time>
      </trkpt>
      <trkpt lat="45.91232" lon="4.36592">
        <ele>766</ele>
        <time>2016-12-01T10:18:45Z</time>
      </trkpt>
      <trkpt lat="45.91231" lon="4.36593">
        <ele>766</ele>
        <time>2016-12-01T10:18:46Z</time>
      </trkpt>
      <trkpt lat="45.91225" lon="4.36602">
        <ele>768</ele>
        <time>2016-12-01T10:18:52Z</time>
      </trkpt>
      <trkpt lat="45.91223" lon="4.36602">
        <ele>768</ele>
        <time>2016-12-01T10:18:53Z</time>
      </trkpt>
      <trkpt lat="45.91216" lon="4.3661">
        <ele>769</ele>
        <time>2016-12-01T10:18:59Z</time>
      </trkpt>
      <trkpt lat="45.91216" lon="4.36612">
        <ele>769</ele>
        <time>2016-12-01T10:19:00Z</time>
      </trkpt>
      <trkpt lat="45.91216" lon="4.36623">
        <ele>768</ele>
        <time>2016-12-01T10:19:06Z</time>
      </trkpt>
      <trkpt lat="45.91216" lon="4.36626">
        <ele>768</ele>
        <time>2016-12-01T10:19:07Z</time>
      </trkpt>
      <trkpt lat="45.91214" lon="4.36636">
        <ele>768</ele>
        <time>2016-12-01T10:19:17Z</time>
      </trkpt>
      <trkpt lat="45.91214" lon="4.36638">
        <ele>767</ele>
        <time>2016-12-01T10:19:18Z</time>
      </trkpt>
      <trkpt lat="45.91209" lon="4.36648">
        <ele>768</ele>
        <time>2016-12-01T10:19:25Z</time>
      </trkpt>
      <trkpt lat="45.91208" lon="4.3665">
        <ele>768</ele>
        <time>2016-12-01T10:19:26Z</time>
      </trkpt>
      <trkpt lat="45.91204" lon="4.36661">
        <ele>768</ele>
        <time>2016-12-01T10:19:33Z</time>
      </trkpt>
      <trkpt lat="45.91204" lon="4.36663">
        <ele>768</ele>
        <time>2016-12-01T10:19:34Z</time>
      </trkpt>
      <trkpt lat="45.91201" lon="4.36674">
        <ele>764</ele>
        <time>2016-12-01T10:19:40Z</time>
      </trkpt>
      <trkpt lat="45.91201" lon="4.36675">
        <ele>764</ele>
        <time>2016-12-01T10:19:41Z</time>
      </trkpt>
      <trkpt lat="45.91195" lon="4.36684">
        <ele>765</ele>
        <time>2016-12-01T10:19:47Z</time>
      </trkpt>
      <trkpt lat="45.91194" lon="4.36685">
        <ele>765</ele>
        <time>2016-12-01T10:19:48Z</time>
      </trkpt>
      <trkpt lat="45.91187" lon="4.36691">
        <ele>766</ele>
        <time>2016-12-01T10:19:53Z</time>
      </trkpt>
      <trkpt lat="45.91186" lon="4.36692">
        <ele>766</ele>
        <time>2016-12-01T10:19:54Z</time>
      </trkpt>
      <trkpt lat="45.91179" lon="4.367">
        <ele>766</ele>
        <time>2016-12-01T10:20:00Z</time>
      </trkpt>
      <trkpt lat="45.91178" lon="4.36702">
        <ele>766</ele>
        <time>2016-12-01T10:20:01Z</time>
      </trkpt>
      <trkpt lat="45.91172" lon="4.3671">
        <ele>766</ele>
        <time>2016-12-01T10:20:06Z</time>
      </trkpt>
      <trkpt lat="45.9117" lon="4.36711">
        <ele>766</ele>
        <time>2016-12-01T10:20:07Z</time>
      </trkpt>
      <trkpt lat="45.91163" lon="4.36717">
        <ele>781</ele>
        <time>2016-12-01T10:20:12Z</time>
      </trkpt>
      <trkpt lat="45.91161" lon="4.36718">
        <ele>781</ele>
        <time>2016-12-01T10:20:13Z</time>
      </trkpt>
      <trkpt lat="45.91156" lon="4.36726">
        <ele>780</ele>
        <time>2016-12-01T10:20:18Z</time>
      </trkpt>
      <trkpt lat="45.91155" lon="4.36727">
        <ele>780</ele>
        <time>2016-12-01T10:20:19Z</time>
      </trkpt>
      <trkpt lat="45.91151" lon="4.36737">
        <ele>780</ele>
        <time>2016-12-01T10:20:25Z</time>
      </trkpt>
      <trkpt lat="45.9115" lon="4.36738">
        <ele>780</ele>
        <time>2016-12-01T10:20:26Z</time>
      </trkpt>
      <trkpt lat="45.91147" lon="4.3675">
        <ele>777</ele>
        <time>2016-12-01T10:20:33Z</time>
      </trkpt>
      <trkpt lat="45.91147" lon="4.36752">
        <ele>777</ele>
        <time>2016-12-01T10:20:34Z</time>
      </trkpt>
      <trkpt lat="45.91143" lon="4.36763">
        <ele>778</ele>
        <time>2016-12-01T10:20:41Z</time>
      </trkpt>
      <trkpt lat="45.91142" lon="4.36765">
        <ele>778</ele>
        <time>2016-12-01T10:20:42Z</time>
      </trkpt>
      <trkpt lat="45.91138" lon="4.36775">
        <ele>779</ele>
        <time>2016-12-01T10:20:49Z</time>
      </trkpt>
      <trkpt lat="45.91138" lon="4.36777">
        <ele>779</ele>
        <time>2016-12-01T10:20:50Z</time>
      </trkpt>
      <trkpt lat="45.91141" lon="4.36788">
        <ele>779</ele>
        <time>2016-12-01T10:20:56Z</time>
      </trkpt>
      <trkpt lat="45.91141" lon="4.36789">
        <ele>779</ele>
        <time>2016-12-01T10:20:57Z</time>
      </trkpt>
      <trkpt lat="45.9114" lon="4.36801">
        <ele>778</ele>
        <time>2016-12-01T10:21:04Z</time>
      </trkpt>
      <trkpt lat="45.9114" lon="4.36803">
        <ele>778</ele>
        <time>2016-12-01T10:21:05Z</time>
      </trkpt>
      <trkpt lat="45.91139" lon="4.36814">
        <ele>778</ele>
        <time>2016-12-01T10:21:13Z</time>
      </trkpt>
      <trkpt lat="45.91138" lon="4.36815">
        <ele>778</ele>
        <time>2016-12-01T10:21:14Z</time>
      </trkpt>
      <trkpt lat="45.91134" lon="4.36825">
        <ele>778</ele>
        <time>2016-12-01T10:21:21Z</time>
      </trkpt>
      <trkpt lat="45.91134" lon="4.36827">
        <ele>778</ele>
        <time>2016-12-01T10:21:22Z</time>
      </trkpt>
      <trkpt lat="45.91132" lon="4.36838">
        <ele>775</ele>
        <time>2016-12-01T10:21:29Z</time>
      </trkpt>
      <trkpt lat="45.91131" lon="4.3684">
        <ele>776</ele>
        <time>2016-12-01T10:21:30Z</time>
      </trkpt>
      <trkpt lat="45.91125" lon="4.36848">
        <ele>776</ele>
        <time>2016-12-01T10:21:37Z</time>
      </trkpt>
      <trkpt lat="45.91124" lon="4.3685">
        <ele>777</ele>
        <time>2016-12-01T10:21:38Z</time>
      </trkpt>
      <trkpt lat="45.9112" lon="4.36861">
        <ele>777</ele>
        <time>2016-12-01T10:21:45Z</time>
      </trkpt>
      <trkpt lat="45.91119" lon="4.36862">
        <ele>777</ele>
        <time>2016-12-01T10:21:46Z</time>
      </trkpt>
      <trkpt lat="45.91113" lon="4.36869">
        <ele>777</ele>
        <time>2016-12-01T10:21:53Z</time>
      </trkpt>
      <trkpt lat="45.91112" lon="4.3687">
        <ele>777</ele>
        <time>2016-12-01T10:21:54Z</time>
      </trkpt>
      <trkpt lat="45.91109" lon="4.36881">
        <ele>777</ele>
        <time>2016-12-01T10:22:01Z</time>
      </trkpt>
      <trkpt lat="45.91109" lon="4.36883">
        <ele>777</ele>
        <time>2016-12-01T10:22:02Z</time>
      </trkpt>
      <trkpt lat="45.91106" lon="4.36894">
        <ele>777</ele>
        <time>2016-12-01T10:22:10Z</time>
      </trkpt>
      <trkpt lat="45.91106" lon="4.36895">
        <ele>777</ele>
        <time>2016-12-01T10:22:11Z</time>
      </trkpt>
      <trkpt lat="45.91103" lon="4.36906">
        <ele>777</ele>
        <time>2016-12-01T10:22:18Z</time>
      </trkpt>
      <trkpt lat="45.91103" lon="4.36908">
        <ele>777</ele>
        <time>2016-12-01T10:22:19Z</time>
      </trkpt>
      <trkpt lat="45.911" lon="4.36918">
        <ele>776</ele>
        <time>2016-12-01T10:22:25Z</time>
      </trkpt>
      <trkpt lat="45.91099" lon="4.36919">
        <ele>776</ele>
        <time>2016-12-01T10:22:26Z</time>
      </trkpt>
      <trkpt lat="45.91094" lon="4.36929">
        <ele>776</ele>
        <time>2016-12-01T10:22:32Z</time>
      </trkpt>
      <trkpt lat="45.91093" lon="4.36931">
        <ele>776</ele>
        <time>2016-12-01T10:22:33Z</time>
      </trkpt>
      <trkpt lat="45.91087" lon="4.3694">
        <ele>775</ele>
        <time>2016-12-01T10:22:39Z</time>
      </trkpt>
      <trkpt lat="45.91085" lon="4.36941">
        <ele>775</ele>
        <time>2016-12-01T10:22:40Z</time>
      </trkpt>
      <trkpt lat="45.9108" lon="4.36951">
        <ele>779</ele>
        <time>2016-12-01T10:22:47Z</time>
      </trkpt>
      <trkpt lat="45.9108" lon="4.36953">
        <ele>778</ele>
        <time>2016-12-01T10:22:48Z</time>
      </trkpt>
      <trkpt lat="45.91076" lon="4.36963">
        <ele>778</ele>
        <time>2016-12-01T10:22:54Z</time>
      </trkpt>
      <trkpt lat="45.91076" lon="4.36965">
        <ele>778</ele>
        <time>2016-12-01T10:22:55Z</time>
      </trkpt>
      <trkpt lat="45.9107" lon="4.36975">
        <ele>778</ele>
        <time>2016-12-01T10:23:02Z</time>
      </trkpt>
      <trkpt lat="45.91069" lon="4.36976">
        <ele>777</ele>
        <time>2016-12-01T10:23:03Z</time>
      </trkpt>
      <trkpt lat="45.91063" lon="4.36985">
        <ele>777</ele>
        <time>2016-12-01T10:23:10Z</time>
      </trkpt>
      <trkpt lat="45.91062" lon="4.36986">
        <ele>777</ele>
        <time>2016-12-01T10:23:11Z</time>
      </trkpt>
      <trkpt lat="45.91061" lon="4.36998">
        <ele>777</ele>
        <time>2016-12-01T10:23:18Z</time>
      </trkpt>
      <trkpt lat="45.9106" lon="4.36999">
        <ele>777</ele>
        <time>2016-12-01T10:23:19Z</time>
      </trkpt>
      <trkpt lat="45.91059" lon="4.37011">
        <ele>774</ele>
        <time>2016-12-01T10:23:26Z</time>
      </trkpt>
      <trkpt lat="45.91059" lon="4.37012">
        <ele>774</ele>
        <time>2016-12-01T10:23:27Z</time>
      </trkpt>
      <trkpt lat="45.91054" lon="4.37023">
        <ele>774</ele>
        <time>2016-12-01T10:23:34Z</time>
      </trkpt>
      <trkpt lat="45.91054" lon="4.37024">
        <ele>774</ele>
        <time>2016-12-01T10:23:35Z</time>
      </trkpt>
      <trkpt lat="45.91048" lon="4.37033">
        <ele>774</ele>
        <time>2016-12-01T10:23:42Z</time>
      </trkpt>
      <trkpt lat="45.91048" lon="4.37035">
        <ele>774</ele>
        <time>2016-12-01T10:23:43Z</time>
      </trkpt>
      <trkpt lat="45.91046" lon="4.37046">
        <ele>773</ele>
        <time>2016-12-01T10:23:51Z</time>
      </trkpt>
      <trkpt lat="45.91046" lon="4.37048">
        <ele>773</ele>
        <time>2016-12-01T10:23:52Z</time>
      </trkpt>
      <trkpt lat="45.9104" lon="4.37056">
        <ele>773</ele>
        <time>2016-12-01T10:24:01Z</time>
      </trkpt>
      <trkpt lat="45.91039" lon="4.37057">
        <ele>773</ele>
        <time>2016-12-01T10:24:02Z</time>
      </trkpt>
      <trkpt lat="45.91034" lon="4.37067">
        <ele>773</ele>
        <time>2016-12-01T10:24:09Z</time>
      </trkpt>
      <trkpt lat="45.91034" lon="4.37069">
        <ele>773</ele>
        <time>2016-12-01T10:24:10Z</time>
      </trkpt>
      <trkpt lat="45.91034" lon="4.37081">
        <ele>773</ele>
        <time>2016-12-01T10:24:16Z</time>
      </trkpt>
      <trkpt lat="45.91034" lon="4.37083">
        <ele>773</ele>
        <time>2016-12-01T10:24:17Z</time>
      </trkpt>
      <trkpt lat="45.9103" lon="4.37092">
        <ele>769</ele>
        <time>2016-12-01T10:24:25Z</time>
      </trkpt>
      <trkpt lat="45.91029" lon="4.37093">
        <ele>769</ele>
        <time>2016-12-01T10:24:26Z</time>
      </trkpt>
      <trkpt lat="45.91027" lon="4.37106">
        <ele>768</ele>
        <time>2016-12-01T10:24:33Z</time>
      </trkpt>
      <trkpt lat="45.91027" lon="4.37107">
        <ele>768</ele>
        <time>2016-12-01T10:24:34Z</time>
      </trkpt>
      <trkpt lat="45.91022" lon="4.37118">
        <ele>768</ele>
        <time>2016-12-01T10:24:42Z</time>
      </trkpt>
      <trkpt lat="45.91021" lon="4.37119">
        <ele>767</ele>
        <time>2016-12-01T10:24:43Z</time>
      </trkpt>
      <trkpt lat="45.91015" lon="4.37128">
        <ele>767</ele>
        <time>2016-12-01T10:24:48Z</time>
      </trkpt>
      <trkpt lat="45.91014" lon="4.37129">
        <ele>767</ele>
        <time>2016-12-01T10:24:49Z</time>
      </trkpt>
      <trkpt lat="45.91011" lon="4.3714">
        <ele>766</ele>
        <time>2016-12-01T10:24:57Z</time>
      </trkpt>
      <trkpt lat="45.91011" lon="4.37141">
        <ele>766</ele>
        <time>2016-12-01T10:24:58Z</time>
      </trkpt>
      <trkpt lat="45.91009" lon="4.37153">
        <ele>765</ele>
        <time>2016-12-01T10:25:09Z</time>
      </trkpt>
      <trkpt lat="45.91009" lon="4.37154">
        <ele>765</ele>
        <time>2016-12-01T10:25:10Z</time>
      </trkpt>
      <trkpt lat="45.91004" lon="4.37164">
        <ele>764</ele>
        <time>2016-12-01T10:25:16Z</time>
      </trkpt>
      <trkpt lat="45.91002" lon="4.37166">
        <ele>763</ele>
        <time>2016-12-01T10:25:17Z</time>
      </trkpt>
      <trkpt lat="45.91005" lon="4.37178">
        <ele>760</ele>
        <time>2016-12-01T10:25:31Z</time>
      </trkpt>
      <trkpt lat="45.91006" lon="4.37178">
        <ele>760</ele>
        <time>2016-12-01T10:25:32Z</time>
      </trkpt>
      <trkpt lat="45.91015" lon="4.37175">
        <ele>759</ele>
        <time>2016-12-01T10:25:42Z</time>
      </trkpt>
      <trkpt lat="45.91015" lon="4.37174">
        <ele>759</ele>
        <time>2016-12-01T10:25:43Z</time>
      </trkpt>
      <trkpt lat="45.91022" lon="4.37167">
        <ele>759</ele>
        <time>2016-12-01T10:25:50Z</time>
      </trkpt>
      <trkpt lat="45.91023" lon="4.37167">
        <ele>765</ele>
        <time>2016-12-01T10:25:51Z</time>
      </trkpt>
      <trkpt lat="45.9103" lon="4.37161">
        <ele>765</ele>
        <time>2016-12-01T10:25:57Z</time>
      </trkpt>
      <trkpt lat="45.91031" lon="4.3716">
        <ele>765</ele>
        <time>2016-12-01T10:25:58Z</time>
      </trkpt>
      <trkpt lat="45.91038" lon="4.37155">
        <ele>765</ele>
        <time>2016-12-01T10:26:05Z</time>
      </trkpt>
      <trkpt lat="45.91039" lon="4.37154">
        <ele>765</ele>
        <time>2016-12-01T10:26:06Z</time>
      </trkpt>
      <trkpt lat="45.91047" lon="4.37157">
        <ele>765</ele>
        <time>2016-12-01T10:26:13Z</time>
      </trkpt>
      <trkpt lat="45.91048" lon="4.37158">
        <ele>765</ele>
        <time>2016-12-01T10:26:14Z</time>
      </trkpt>
      <trkpt lat="45.91056" lon="4.3716">
        <ele>765</ele>
        <time>2016-12-01T10:26:22Z</time>
      </trkpt>
      <trkpt lat="45.91057" lon="4.37159">
        <ele>765</ele>
        <time>2016-12-01T10:26:23Z</time>
      </trkpt>
      <trkpt lat="45.91066" lon="4.37157">
        <ele>764</ele>
        <time>2016-12-01T10:26:31Z</time>
      </trkpt>
      <trkpt lat="45.91067" lon="4.37157">
        <ele>764</ele>
        <time>2016-12-01T10:26:32Z</time>
      </trkpt>
      <trkpt lat="45.91074" lon="4.37162">
        <ele>764</ele>
        <time>2016-12-01T10:26:48Z</time>
      </trkpt>
      <trkpt lat="45.91075" lon="4.37163">
        <ele>763</ele>
        <time>2016-12-01T10:26:49Z</time>
      </trkpt>
      <trkpt lat="45.91083" lon="4.37167">
        <ele>762</ele>
        <time>2016-12-01T10:26:55Z</time>
      </trkpt>
      <trkpt lat="45.91085" lon="4.37167">
        <ele>762</ele>
        <time>2016-12-01T10:26:56Z</time>
      </trkpt>
      <trkpt lat="45.91092" lon="4.37165">
        <ele>764</ele>
        <time>2016-12-01T10:27:01Z</time>
      </trkpt>
      <trkpt lat="45.91094" lon="4.37165">
        <ele>764</ele>
        <time>2016-12-01T10:27:02Z</time>
      </trkpt>
      <trkpt lat="45.91103" lon="4.37165">
        <ele>765</ele>
        <time>2016-12-01T10:27:07Z</time>
      </trkpt>
      <trkpt lat="45.91104" lon="4.37165">
        <ele>765</ele>
        <time>2016-12-01T10:27:08Z</time>
      </trkpt>
      <trkpt lat="45.91112" lon="4.37162">
        <ele>766</ele>
        <time>2016-12-01T10:27:14Z</time>
      </trkpt>
      <trkpt lat="45.91113" lon="4.3716">
        <ele>766</ele>
        <time>2016-12-01T10:27:15Z</time>
      </trkpt>
      <trkpt lat="45.9112" lon="4.37153">
        <ele>766</ele>
        <time>2016-12-01T10:27:22Z</time>
      </trkpt>
      <trkpt lat="45.91121" lon="4.37152">
        <ele>766</ele>
        <time>2016-12-01T10:27:23Z</time>
      </trkpt>
      <trkpt lat="45.91128" lon="4.37145">
        <ele>767</ele>
        <time>2016-12-01T10:27:29Z</time>
      </trkpt>
      <trkpt lat="45.91129" lon="4.37144">
        <ele>767</ele>
        <time>2016-12-01T10:27:30Z</time>
      </trkpt>
      <trkpt lat="45.91136" lon="4.37136">
        <ele>767</ele>
        <time>2016-12-01T10:27:39Z</time>
      </trkpt>
      <trkpt lat="45.91137" lon="4.37136">
        <ele>767</ele>
        <time>2016-12-01T10:27:40Z</time>
      </trkpt>
      <trkpt lat="45.91145" lon="4.37129">
        <ele>768</ele>
        <time>2016-12-01T10:27:49Z</time>
      </trkpt>
      <trkpt lat="45.91146" lon="4.37128">
        <ele>768</ele>
        <time>2016-12-01T10:27:50Z</time>
      </trkpt>
      <trkpt lat="45.91151" lon="4.37119">
        <ele>768</ele>
        <time>2016-12-01T10:27:58Z</time>
      </trkpt>
      <trkpt lat="45.91152" lon="4.37118">
        <ele>768</ele>
        <time>2016-12-01T10:27:59Z</time>
      </trkpt>
      <trkpt lat="45.91159" lon="4.37111">
        <ele>768</ele>
        <time>2016-12-01T10:28:07Z</time>
      </trkpt>
      <trkpt lat="45.9116" lon="4.3711">
        <ele>769</ele>
        <time>2016-12-01T10:28:08Z</time>
      </trkpt>
      <trkpt lat="45.91166" lon="4.37103">
        <ele>769</ele>
        <time>2016-12-01T10:28:14Z</time>
      </trkpt>
      <trkpt lat="45.91167" lon="4.37102">
        <ele>770</ele>
        <time>2016-12-01T10:28:15Z</time>
      </trkpt>
      <trkpt lat="45.91173" lon="4.37094">
        <ele>770</ele>
        <time>2016-12-01T10:28:21Z</time>
      </trkpt>
      <trkpt lat="45.91174" lon="4.37092">
        <ele>770</ele>
        <time>2016-12-01T10:28:22Z</time>
      </trkpt>
      <trkpt lat="45.91179" lon="4.37083">
        <ele>770</ele>
        <time>2016-12-01T10:28:28Z</time>
      </trkpt>
      <trkpt lat="45.9118" lon="4.37082">
        <ele>770</ele>
        <time>2016-12-01T10:28:29Z</time>
      </trkpt>
      <trkpt lat="45.91188" lon="4.37077">
        <ele>770</ele>
        <time>2016-12-01T10:28:36Z</time>
      </trkpt>
      <trkpt lat="45.91189" lon="4.37077">
        <ele>770</ele>
        <time>2016-12-01T10:28:37Z</time>
      </trkpt>
      <trkpt lat="45.91198" lon="4.37073">
        <ele>770</ele>
        <time>2016-12-01T10:28:44Z</time>
      </trkpt>
      <trkpt lat="45.91199" lon="4.37073">
        <ele>770</ele>
        <time>2016-12-01T10:28:45Z</time>
      </trkpt>
      <trkpt lat="45.91207" lon="4.37069">
        <ele>770</ele>
        <time>2016-12-01T10:28:51Z</time>
      </trkpt>
      <trkpt lat="45.91208" lon="4.37068">
        <ele>770</ele>
        <time>2016-12-01T10:28:52Z</time>
      </trkpt>
      <trkpt lat="45.91217" lon="4.37067">
        <ele>770</ele>
        <time>2016-12-01T10:28:59Z</time>
      </trkpt>
      <trkpt lat="45.91218" lon="4.37068">
        <ele>770</ele>
        <time>2016-12-01T10:29:00Z</time>
      </trkpt>
      <trkpt lat="45.91222" lon="4.37079">
        <ele>770</ele>
        <time>2016-12-01T10:29:07Z</time>
      </trkpt>
      <trkpt lat="45.91222" lon="4.3708">
        <ele>770</ele>
        <time>2016-12-01T10:29:08Z</time>
      </trkpt>
      <trkpt lat="45.91228" lon="4.37089">
        <ele>770</ele>
        <time>2016-12-01T10:29:16Z</time>
      </trkpt>
      <trkpt lat="45.91229" lon="4.3709">
        <ele>770</ele>
        <time>2016-12-01T10:29:17Z</time>
      </trkpt>
      <trkpt lat="45.91236" lon="4.37096">
        <ele>770</ele>
        <time>2016-12-01T10:29:24Z</time>
      </trkpt>
      <trkpt lat="45.91236" lon="4.37098">
        <ele>770</ele>
        <time>2016-12-01T10:29:25Z</time>
      </trkpt>
      <trkpt lat="45.91242" lon="4.37106">
        <ele>770</ele>
        <time>2016-12-01T10:29:32Z</time>
      </trkpt>
      <trkpt lat="45.91243" lon="4.37107">
        <ele>770</ele>
        <time>2016-12-01T10:29:33Z</time>
      </trkpt>
      <trkpt lat="45.91248" lon="4.37116">
        <ele>770</ele>
        <time>2016-12-01T10:29:39Z</time>
      </trkpt>
      <trkpt lat="45.91249" lon="4.37117">
        <ele>770</ele>
        <time>2016-12-01T10:29:40Z</time>
      </trkpt>
      <trkpt lat="45.91255" lon="4.37126">
        <ele>769</ele>
        <time>2016-12-01T10:29:47Z</time>
      </trkpt>
      <trkpt lat="45.91255" lon="4.37127">
        <ele>769</ele>
        <time>2016-12-01T10:29:48Z</time>
      </trkpt>
      <trkpt lat="45.91261" lon="4.37137">
        <ele>769</ele>
        <time>2016-12-01T10:29:54Z</time>
      </trkpt>
      <trkpt lat="45.91262" lon="4.37138">
        <ele>769</ele>
        <time>2016-12-01T10:29:55Z</time>
      </trkpt>
      <trkpt lat="45.91267" lon="4.37147">
        <ele>770</ele>
        <time>2016-12-01T10:30:01Z</time>
      </trkpt>
      <trkpt lat="45.91267" lon="4.37149">
        <ele>770</ele>
        <time>2016-12-01T10:30:02Z</time>
      </trkpt>
      <trkpt lat="45.91272" lon="4.37159">
        <ele>770</ele>
        <time>2016-12-01T10:30:08Z</time>
      </trkpt>
      <trkpt lat="45.91272" lon="4.3716">
        <ele>770</ele>
        <time>2016-12-01T10:30:09Z</time>
      </trkpt>
      <trkpt lat="45.91278" lon="4.37168">
        <ele>769</ele>
        <time>2016-12-01T10:30:17Z</time>
      </trkpt>
      <trkpt lat="45.91279" lon="4.3717">
        <ele>769</ele>
        <time>2016-12-01T10:30:18Z</time>
      </trkpt>
      <trkpt lat="45.91285" lon="4.37178">
        <ele>769</ele>
        <time>2016-12-01T10:30:26Z</time>
      </trkpt>
      <trkpt lat="45.91286" lon="4.37179">
        <ele>769</ele>
        <time>2016-12-01T10:30:27Z</time>
      </trkpt>
      <trkpt lat="45.91291" lon="4.37188">
        <ele>769</ele>
        <time>2016-12-01T10:30:34Z</time>
      </trkpt>
      <trkpt lat="45.91292" lon="4.37189">
        <ele>769</ele>
        <time>2016-12-01T10:30:35Z</time>
      </trkpt>
      <trkpt lat="45.91298" lon="4.37198">
        <ele>768</ele>
        <time>2016-12-01T10:30:41Z</time>
      </trkpt>
      <trkpt lat="45.91299" lon="4.37199">
        <ele>768</ele>
        <time>2016-12-01T10:30:42Z</time>
      </trkpt>
      <trkpt lat="45.91303" lon="4.3721">
        <ele>768</ele>
        <time>2016-12-01T10:30:48Z</time>
      </trkpt>
      <trkpt lat="45.91303" lon="4.37211">
        <ele>768</ele>
        <time>2016-12-01T10:30:49Z</time>
      </trkpt>
      <trkpt lat="45.91307" lon="4.37222">
        <ele>768</ele>
        <time>2016-12-01T10:30:55Z</time>
      </trkpt>
      <trkpt lat="45.91308" lon="4.37223">
        <ele>768</ele>
        <time>2016-12-01T10:30:56Z</time>
      </trkpt>
      <trkpt lat="45.91313" lon="4.37232">
        <ele>767</ele>
        <time>2016-12-01T10:31:02Z</time>
      </trkpt>
      <trkpt lat="45.91314" lon="4.37233">
        <ele>767</ele>
        <time>2016-12-01T10:31:03Z</time>
      </trkpt>
      <trkpt lat="45.91319" lon="4.37242">
        <ele>767</ele>
        <time>2016-12-01T10:31:09Z</time>
      </trkpt>
      <trkpt lat="45.9132" lon="4.37243">
        <ele>767</ele>
        <time>2016-12-01T10:31:10Z</time>
      </trkpt>
      <trkpt lat="45.91326" lon="4.3725">
        <ele>766</ele>
        <time>2016-12-01T10:31:16Z</time>
      </trkpt>
      <trkpt lat="45.91327" lon="4.37252">
        <ele>766</ele>
        <time>2016-12-01T10:31:17Z</time>
      </trkpt>
      <trkpt lat="45.91334" lon="4.37259">
        <ele>765</ele>
        <time>2016-12-01T10:31:23Z</time>
      </trkpt>
      <trkpt lat="45.91335" lon="4.3726">
        <ele>765</ele>
        <time>2016-12-01T10:31:24Z</time>
      </trkpt>
      <trkpt lat="45.91341" lon="4.37268">
        <ele>764</ele>
        <time>2016-12-01T10:31:31Z</time>
      </trkpt>
      <trkpt lat="45.91341" lon="4.3727">
        <ele>764</ele>
        <time>2016-12-01T10:31:32Z</time>
      </trkpt>
      <trkpt lat="45.91348" lon="4.37278">
        <ele>764</ele>
        <time>2016-12-01T10:31:40Z</time>
      </trkpt>
      <trkpt lat="45.91349" lon="4.37279">
        <ele>764</ele>
        <time>2016-12-01T10:31:41Z</time>
      </trkpt>
      <trkpt lat="45.91355" lon="4.37287">
        <ele>763</ele>
        <time>2016-12-01T10:31:47Z</time>
      </trkpt>
      <trkpt lat="45.91356" lon="4.37288">
        <ele>763</ele>
        <time>2016-12-01T10:31:48Z</time>
      </trkpt>
      <trkpt lat="45.91362" lon="4.37296">
        <ele>763</ele>
        <time>2016-12-01T10:31:53Z</time>
      </trkpt>
      <trkpt lat="45.91363" lon="4.37297">
        <ele>763</ele>
        <time>2016-12-01T10:31:54Z</time>
      </trkpt>
      <trkpt lat="45.91371" lon="4.37304">
        <ele>763</ele>
        <time>2016-12-01T10:31:59Z</time>
      </trkpt>
      <trkpt lat="45.91372" lon="4.37305">
        <ele>763</ele>
        <time>2016-12-01T10:32:00Z</time>
      </trkpt>
      <trkpt lat="45.91379" lon="4.3731">
        <ele>763</ele>
        <time>2016-12-01T10:32:06Z</time>
      </trkpt>
      <trkpt lat="45.91381" lon="4.37311">
        <ele>763</ele>
        <time>2016-12-01T10:32:07Z</time>
      </trkpt>
      <trkpt lat="45.91388" lon="4.37316">
        <ele>762</ele>
        <time>2016-12-01T10:32:13Z</time>
      </trkpt>
      <trkpt lat="45.91389" lon="4.37317">
        <ele>762</ele>
        <time>2016-12-01T10:32:14Z</time>
      </trkpt>
      <trkpt lat="45.91397" lon="4.37321">
        <ele>762</ele>
        <time>2016-12-01T10:32:20Z</time>
      </trkpt>
      <trkpt lat="45.91398" lon="4.37322">
        <ele>762</ele>
        <time>2016-12-01T10:32:21Z</time>
      </trkpt>
      <trkpt lat="45.91406" lon="4.37327">
        <ele>762</ele>
        <time>2016-12-01T10:32:27Z</time>
      </trkpt>
      <trkpt lat="45.91407" lon="4.37328">
        <ele>762</ele>
        <time>2016-12-01T10:32:28Z</time>
      </trkpt>
      <trkpt lat="45.91414" lon="4.37334">
        <ele>761</ele>
        <time>2016-12-01T10:32:34Z</time>
      </trkpt>
      <trkpt lat="45.91415" lon="4.37334">
        <ele>761</ele>
        <time>2016-12-01T10:32:35Z</time>
      </trkpt>
      <trkpt lat="45.91422" lon="4.37342">
        <ele>761</ele>
        <time>2016-12-01T10:32:43Z</time>
      </trkpt>
      <trkpt lat="45.91423" lon="4.37342">
        <ele>761</ele>
        <time>2016-12-01T10:32:44Z</time>
      </trkpt>
      <trkpt lat="45.91431" lon="4.37345">
        <ele>762</ele>
        <time>2016-12-01T10:32:52Z</time>
      </trkpt>
      <trkpt lat="45.91432" lon="4.37345">
        <ele>762</ele>
        <time>2016-12-01T10:32:53Z</time>
      </trkpt>
      <trkpt lat="45.9144" lon="4.37349">
        <ele>762</ele>
        <time>2016-12-01T10:33:00Z</time>
      </trkpt>
      <trkpt lat="45.91441" lon="4.3735">
        <ele>762</ele>
        <time>2016-12-01T10:33:01Z</time>
      </trkpt>
      <trkpt lat="45.91448" lon="4.37354">
        <ele>762</ele>
        <time>2016-12-01T10:33:08Z</time>
      </trkpt>
      <trkpt lat="45.91449" lon="4.37355">
        <ele>762</ele>
        <time>2016-12-01T10:33:09Z</time>
      </trkpt>
      <trkpt lat="45.91457" lon="4.37359">
        <ele>762</ele>
        <time>2016-12-01T10:33:17Z</time>
      </trkpt>
      <trkpt lat="45.91458" lon="4.3736">
        <ele>762</ele>
        <time>2016-12-01T10:33:18Z</time>
      </trkpt>
      <trkpt lat="45.91466" lon="4.37364">
        <ele>763</ele>
        <time>2016-12-01T10:33:25Z</time>
      </trkpt>
      <trkpt lat="45.91467" lon="4.37365">
        <ele>763</ele>
        <time>2016-12-01T10:33:26Z</time>
      </trkpt>
      <trkpt lat="45.91475" lon="4.37369">
        <ele>763</ele>
        <time>2016-12-01T10:33:34Z</time>
      </trkpt>
      <trkpt lat="45.91476" lon="4.37369">
        <ele>763</ele>
        <time>2016-12-01T10:33:35Z</time>
      </trkpt>
      <trkpt lat="45.91483" lon="4.37376">
        <ele>763</ele>
        <time>2016-12-01T10:33:42Z</time>
      </trkpt>
      <trkpt lat="45.91485" lon="4.37377">
        <ele>763</ele>
        <time>2016-12-01T10:33:43Z</time>
      </trkpt>
      <trkpt lat="45.91493" lon="4.3738">
        <ele>764</ele>
        <time>2016-12-01T10:33:50Z</time>
      </trkpt>
      <trkpt lat="45.91494" lon="4.37381">
        <ele>764</ele>
        <time>2016-12-01T10:33:51Z</time>
      </trkpt>
      <trkpt lat="45.91501" lon="4.37387">
        <ele>765</ele>
        <time>2016-12-01T10:33:58Z</time>
      </trkpt>
      <trkpt lat="45.91502" lon="4.37388">
        <ele>765</ele>
        <time>2016-12-01T10:33:59Z</time>
      </trkpt>
      <trkpt lat="45.9151" lon="4.37393">
        <ele>765</ele>
        <time>2016-12-01T10:34:06Z</time>
      </trkpt>
      <trkpt lat="45.91511" lon="4.37394">
        <ele>765</ele>
        <time>2016-12-01T10:34:07Z</time>
      </trkpt>
      <trkpt lat="45.91519" lon="4.37398">
        <ele>765</ele>
        <time>2016-12-01T10:34:14Z</time>
      </trkpt>
      <trkpt lat="45.9152" lon="4.37398">
        <ele>765</ele>
        <time>2016-12-01T10:34:15Z</time>
      </trkpt>
      <trkpt lat="45.91528" lon="4.37403">
        <ele>765</ele>
        <time>2016-12-01T10:34:23Z</time>
      </trkpt>
      <trkpt lat="45.91529" lon="4.37404">
        <ele>765</ele>
        <time>2016-12-01T10:34:24Z</time>
      </trkpt>
      <trkpt lat="45.91536" lon="4.37409">
        <ele>765</ele>
        <time>2016-12-01T10:34:33Z</time>
      </trkpt>
      <trkpt lat="45.91538" lon="4.3741">
        <ele>765</ele>
        <time>2016-12-01T10:34:34Z</time>
      </trkpt>
      <trkpt lat="45.91545" lon="4.37415">
        <ele>765</ele>
        <time>2016-12-01T10:34:40Z</time>
      </trkpt>
      <trkpt lat="45.91546" lon="4.37417">
        <ele>765</ele>
        <time>2016-12-01T10:34:41Z</time>
      </trkpt>
      <trkpt lat="45.91553" lon="4.37424">
        <ele>768</ele>
        <time>2016-12-01T10:34:47Z</time>
      </trkpt>
      <trkpt lat="45.91554" lon="4.37425">
        <ele>768</ele>
        <time>2016-12-01T10:34:48Z</time>
      </trkpt>
      <trkpt lat="45.91561" lon="4.37431">
        <ele>768</ele>
        <time>2016-12-01T10:34:55Z</time>
      </trkpt>
      <trkpt lat="45.91562" lon="4.37432">
        <ele>768</ele>
        <time>2016-12-01T10:34:56Z</time>
      </trkpt>
      <trkpt lat="45.91569" lon="4.37438">
        <ele>768</ele>
        <time>2016-12-01T10:35:02Z</time>
      </trkpt>
      <trkpt lat="45.9157" lon="4.37439">
        <ele>768</ele>
        <time>2016-12-01T10:35:03Z</time>
      </trkpt>
      <trkpt lat="45.91577" lon="4.37444">
        <ele>768</ele>
        <time>2016-12-01T10:35:09Z</time>
      </trkpt>
      <trkpt lat="45.91579" lon="4.37445">
        <ele>768</ele>
        <time>2016-12-01T10:35:10Z</time>
      </trkpt>
      <trkpt lat="45.91586" lon="4.37451">
        <ele>767</ele>
        <time>2016-12-01T10:35:17Z</time>
      </trkpt>
      <trkpt lat="45.91587" lon="4.37451">
        <ele>767</ele>
        <time>2016-12-01T10:35:18Z</time>
      </trkpt>
      <trkpt lat="45.91595" lon="4.37456">
        <ele>767</ele>
        <time>2016-12-01T10:35:25Z</time>
      </trkpt>
      <trkpt lat="45.91596" lon="4.37456">
        <ele>767</ele>
        <time>2016-12-01T10:35:26Z</time>
      </trkpt>
      <trkpt lat="45.91603" lon="4.37463">
        <ele>767</ele>
        <time>2016-12-01T10:35:33Z</time>
      </trkpt>
      <trkpt lat="45.91604" lon="4.37463">
        <ele>766</ele>
        <time>2016-12-01T10:35:34Z</time>
      </trkpt>
      <trkpt lat="45.91612" lon="4.37469">
        <ele>766</ele>
        <time>2016-12-01T10:35:41Z</time>
      </trkpt>
      <trkpt lat="45.91613" lon="4.37469">
        <ele>766</ele>
        <time>2016-12-01T10:35:42Z</time>
      </trkpt>
      <trkpt lat="45.91619" lon="4.37477">
        <ele>766</ele>
        <time>2016-12-01T10:35:49Z</time>
      </trkpt>
      <trkpt lat="45.9162" lon="4.37478">
        <ele>766</ele>
        <time>2016-12-01T10:35:50Z</time>
      </trkpt>
      <trkpt lat="45.91627" lon="4.37485">
        <ele>766</ele>
        <time>2016-12-01T10:35:57Z</time>
      </trkpt>
      <trkpt lat="45.91628" lon="4.37486">
        <ele>766</ele>
        <time>2016-12-01T10:35:58Z</time>
      </trkpt>
      <trkpt lat="45.91636" lon="4.37492">
        <ele>766</ele>
        <time>2016-12-01T10:36:05Z</time>
      </trkpt>
      <trkpt lat="45.91637" lon="4.37493">
        <ele>766</ele>
        <time>2016-12-01T10:36:06Z</time>
      </trkpt>
      <trkpt lat="45.91643" lon="4.37499">
        <ele>766</ele>
        <time>2016-12-01T10:36:12Z</time>
      </trkpt>
      <trkpt lat="45.91644" lon="4.375">
        <ele>766</ele>
        <time>2016-12-01T10:36:13Z</time>
      </trkpt>
      <trkpt lat="45.91652" lon="4.37507">
        <ele>766</ele>
        <time>2016-12-01T10:36:19Z</time>
      </trkpt>
      <trkpt lat="45.91653" lon="4.37508">
        <ele>766</ele>
        <time>2016-12-01T10:36:20Z</time>
      </trkpt>
      <trkpt lat="45.91659" lon="4.37515">
        <ele>766</ele>
        <time>2016-12-01T10:36:25Z</time>
      </trkpt>
      <trkpt lat="45.91661" lon="4.37516">
        <ele>766</ele>
        <time>2016-12-01T10:36:26Z</time>
      </trkpt>
      <trkpt lat="45.91668" lon="4.37519">
        <ele>763</ele>
        <time>2016-12-01T10:36:32Z</time>
      </trkpt>
      <trkpt lat="45.9167" lon="4.3752">
        <ele>763</ele>
        <time>2016-12-01T10:36:33Z</time>
      </trkpt>
      <trkpt lat="45.91675" lon="4.3753">
        <ele>763</ele>
        <time>2016-12-01T10:36:39Z</time>
      </trkpt>
      <trkpt lat="45.91676" lon="4.37532">
        <ele>763</ele>
        <time>2016-12-01T10:36:40Z</time>
      </trkpt>
      <trkpt lat="45.91681" lon="4.37541">
        <ele>762</ele>
        <time>2016-12-01T10:36:47Z</time>
      </trkpt>
      <trkpt lat="45.91682" lon="4.37542">
        <ele>762</ele>
        <time>2016-12-01T10:36:48Z</time>
      </trkpt>
      <trkpt lat="45.91689" lon="4.3755">
        <ele>762</ele>
        <time>2016-12-01T10:36:55Z</time>
      </trkpt>
      <trkpt lat="45.91689" lon="4.37552">
        <ele>762</ele>
        <time>2016-12-01T10:36:56Z</time>
      </trkpt>
      <trkpt lat="45.91694" lon="4.37561">
        <ele>762</ele>
        <time>2016-12-01T10:37:02Z</time>
      </trkpt>
      <trkpt lat="45.91695" lon="4.37562">
        <ele>762</ele>
        <time>2016-12-01T10:37:03Z</time>
      </trkpt>
      <trkpt lat="45.91702" lon="4.37571">
        <ele>762</ele>
        <time>2016-12-01T10:37:10Z</time>
      </trkpt>
      <trkpt lat="45.91702" lon="4.37573">
        <ele>761</ele>
        <time>2016-12-01T10:37:11Z</time>
      </trkpt>
      <trkpt lat="45.91709" lon="4.37581">
        <ele>761</ele>
        <time>2016-12-01T10:37:17Z</time>
      </trkpt>
      <trkpt lat="45.9171" lon="4.37583">
        <ele>761</ele>
        <time>2016-12-01T10:37:18Z</time>
      </trkpt>
      <trkpt lat="45.91716" lon="4.37591">
        <ele>760</ele>
        <time>2016-12-01T10:37:24Z</time>
      </trkpt>
      <trkpt lat="45.91717" lon="4.37593">
        <ele>760</ele>
        <time>2016-12-01T10:37:25Z</time>
      </trkpt>
      <trkpt lat="45.91723" lon="4.376">
        <ele>760</ele>
        <time>2016-12-01T10:37:31Z</time>
      </trkpt>
      <trkpt lat="45.91724" lon="4.37602">
        <ele>759</ele>
        <time>2016-12-01T10:37:32Z</time>
      </trkpt>
      <trkpt lat="45.91731" lon="4.37609">
        <ele>759</ele>
        <time>2016-12-01T10:37:39Z</time>
      </trkpt>
      <trkpt lat="45.91732" lon="4.3761">
        <ele>759</ele>
        <time>2016-12-01T10:37:40Z</time>
      </trkpt>
      <trkpt lat="45.9174" lon="4.37611">
        <ele>759</ele>
        <time>2016-12-01T10:37:47Z</time>
      </trkpt>
      <trkpt lat="45.91741" lon="4.37612">
        <ele>759</ele>
        <time>2016-12-01T10:37:48Z</time>
      </trkpt>
      <trkpt lat="45.91749" lon="4.37618">
        <ele>759</ele>
        <time>2016-12-01T10:37:55Z</time>
      </trkpt>
      <trkpt lat="45.9175" lon="4.37618">
        <ele>759</ele>
        <time>2016-12-01T10:37:56Z</time>
      </trkpt>
      <trkpt lat="45.91757" lon="4.37625">
        <ele>752</ele>
        <time>2016-12-01T10:38:03Z</time>
      </trkpt>
      <trkpt lat="45.91758" lon="4.37626">
        <ele>752</ele>
        <time>2016-12-01T10:38:04Z</time>
      </trkpt>
      <trkpt lat="45.91765" lon="4.37631">
        <ele>752</ele>
        <time>2016-12-01T10:38:10Z</time>
      </trkpt>
      <trkpt lat="45.91766" lon="4.37632">
        <ele>752</ele>
        <time>2016-12-01T10:38:11Z</time>
      </trkpt>
      <trkpt lat="45.91774" lon="4.37638">
        <ele>752</ele>
        <time>2016-12-01T10:38:18Z</time>
      </trkpt>
      <trkpt lat="45.91775" lon="4.3764">
        <ele>752</ele>
        <time>2016-12-01T10:38:19Z</time>
      </trkpt>
      <trkpt lat="45.91781" lon="4.37645">
        <ele>751</ele>
        <time>2016-12-01T10:38:25Z</time>
      </trkpt>
      <trkpt lat="45.91783" lon="4.37646">
        <ele>751</ele>
        <time>2016-12-01T10:38:26Z</time>
      </trkpt>
      <trkpt lat="45.9179" lon="4.37653">
        <ele>751</ele>
        <time>2016-12-01T10:38:31Z</time>
      </trkpt>
      <trkpt lat="45.91792" lon="4.37654">
        <ele>750</ele>
        <time>2016-12-01T10:38:32Z</time>
      </trkpt>
      <trkpt lat="45.91799" lon="4.37662">
        <ele>750</ele>
        <time>2016-12-01T10:38:36Z</time>
      </trkpt>
      <trkpt lat="45.918" lon="4.37664">
        <ele>749</ele>
        <time>2016-12-01T10:38:37Z</time>
      </trkpt>
      <trkpt lat="45.91807" lon="4.37672">
        <ele>748</ele>
        <time>2016-12-01T10:38:42Z</time>
      </trkpt>
      <trkpt lat="45.91808" lon="4.37673">
        <ele>748</ele>
        <time>2016-12-01T10:38:43Z</time>
      </trkpt>
      <trkpt lat="45.91815" lon="4.37679">
        <ele>747</ele>
        <time>2016-12-01T10:38:48Z</time>
      </trkpt>
      <trkpt lat="45.91816" lon="4.37679">
        <ele>747</ele>
        <time>2016-12-01T10:38:49Z</time>
      </trkpt>
      <trkpt lat="45.91824" lon="4.37683">
        <ele>747</ele>
        <time>2016-12-01T10:38:56Z</time>
      </trkpt>
      <trkpt lat="45.91825" lon="4.37684">
        <ele>747</ele>
        <time>2016-12-01T10:38:57Z</time>
      </trkpt>
      <trkpt lat="45.91832" lon="4.3769">
        <ele>747</ele>
        <time>2016-12-01T10:39:05Z</time>
      </trkpt>
      <trkpt lat="45.91833" lon="4.37691">
        <ele>747</ele>
        <time>2016-12-01T10:39:06Z</time>
      </trkpt>
      <trkpt lat="45.91841" lon="4.37696">
        <ele>742</ele>
        <time>2016-12-01T10:39:14Z</time>
      </trkpt>
      <trkpt lat="45.91842" lon="4.37697">
        <ele>742</ele>
        <time>2016-12-01T10:39:15Z</time>
      </trkpt>
      <trkpt lat="45.91848" lon="4.37703">
        <ele>741</ele>
        <time>2016-12-01T10:39:21Z</time>
      </trkpt>
      <trkpt lat="45.91849" lon="4.37704">
        <ele>741</ele>
        <time>2016-12-01T10:39:22Z</time>
      </trkpt>
      <trkpt lat="45.91856" lon="4.3771">
        <ele>741</ele>
        <time>2016-12-01T10:39:29Z</time>
      </trkpt>
      <trkpt lat="45.91857" lon="4.37711">
        <ele>741</ele>
        <time>2016-12-01T10:39:30Z</time>
      </trkpt>
      <trkpt lat="45.91864" lon="4.37716">
        <ele>741</ele>
        <time>2016-12-01T10:39:37Z</time>
      </trkpt>
      <trkpt lat="45.91865" lon="4.37717">
        <ele>741</ele>
        <time>2016-12-01T10:39:38Z</time>
      </trkpt>
      <trkpt lat="45.91867" lon="4.37729">
        <ele>741</ele>
        <time>2016-12-01T10:39:45Z</time>
      </trkpt>
      <trkpt lat="45.91867" lon="4.3773">
        <ele>741</ele>
        <time>2016-12-01T10:39:46Z</time>
      </trkpt>
      <trkpt lat="45.91874" lon="4.37723">
        <ele>740</ele>
        <time>2016-12-01T10:40:43Z</time>
      </trkpt>
      <trkpt lat="45.91875" lon="4.37723">
        <ele>740</ele>
        <time>2016-12-01T10:40:44Z</time>
      </trkpt>
      <trkpt lat="45.91882" lon="4.3773">
        <ele>740</ele>
        <time>2016-12-01T10:40:50Z</time>
      </trkpt>
      <trkpt lat="45.91883" lon="4.37731">
        <ele>740</ele>
        <time>2016-12-01T10:40:51Z</time>
      </trkpt>
      <trkpt lat="45.91888" lon="4.3774">
        <ele>739</ele>
        <time>2016-12-01T10:40:58Z</time>
      </trkpt>
      <trkpt lat="45.91889" lon="4.37742">
        <ele>739</ele>
        <time>2016-12-01T10:40:59Z</time>
      </trkpt>
      <trkpt lat="45.91893" lon="4.37752">
        <ele>738</ele>
        <time>2016-12-01T10:41:06Z</time>
      </trkpt>
      <trkpt lat="45.91894" lon="4.37753">
        <ele>738</ele>
        <time>2016-12-01T10:41:07Z</time>
      </trkpt>
      <trkpt lat="45.91899" lon="4.37762">
        <ele>738</ele>
        <time>2016-12-01T10:41:13Z</time>
      </trkpt>
      <trkpt lat="45.919" lon="4.37763">
        <ele>738</ele>
        <time>2016-12-01T10:41:14Z</time>
      </trkpt>
      <trkpt lat="45.91906" lon="4.37769">
        <ele>737</ele>
        <time>2016-12-01T10:41:19Z</time>
      </trkpt>
      <trkpt lat="45.91907" lon="4.3777">
        <ele>737</ele>
        <time>2016-12-01T10:41:20Z</time>
      </trkpt>
      <trkpt lat="45.91913" lon="4.37777">
        <ele>737</ele>
        <time>2016-12-01T10:41:25Z</time>
      </trkpt>
      <trkpt lat="45.91915" lon="4.37778">
        <ele>737</ele>
        <time>2016-12-01T10:41:26Z</time>
      </trkpt>
      <trkpt lat="45.91923" lon="4.37782">
        <ele>733</ele>
        <time>2016-12-01T10:41:32Z</time>
      </trkpt>
      <trkpt lat="45.91924" lon="4.37783">
        <ele>733</ele>
        <time>2016-12-01T10:41:33Z</time>
      </trkpt>
      <trkpt lat="45.91932" lon="4.37788">
        <ele>733</ele>
        <time>2016-12-01T10:41:39Z</time>
      </trkpt>
      <trkpt lat="45.91933" lon="4.37789">
        <ele>733</ele>
        <time>2016-12-01T10:41:40Z</time>
      </trkpt>
      <trkpt lat="45.91939" lon="4.37795">
        <ele>733</ele>
        <time>2016-12-01T10:41:45Z</time>
      </trkpt>
      <trkpt lat="45.91941" lon="4.37796">
        <ele>732</ele>
        <time>2016-12-01T10:41:46Z</time>
      </trkpt>
      <trkpt lat="45.91948" lon="4.37802">
        <ele>732</ele>
        <time>2016-12-01T10:41:52Z</time>
      </trkpt>
      <trkpt lat="45.91949" lon="4.37803">
        <ele>732</ele>
        <time>2016-12-01T10:41:53Z</time>
      </trkpt>
      <trkpt lat="45.91956" lon="4.37809">
        <ele>732</ele>
        <time>2016-12-01T10:42:01Z</time>
      </trkpt>
      <trkpt lat="45.91957" lon="4.3781">
        <ele>732</ele>
        <time>2016-12-01T10:42:02Z</time>
      </trkpt>
      <trkpt lat="45.91965" lon="4.37814">
        <ele>732</ele>
        <time>2016-12-01T10:42:10Z</time>
      </trkpt>
      <trkpt lat="45.91966" lon="4.37814">
        <ele>732</ele>
        <time>2016-12-01T10:42:11Z</time>
      </trkpt>
      <trkpt lat="45.91975" lon="4.37818">
        <ele>731</ele>
        <time>2016-12-01T10:42:18Z</time>
      </trkpt>
      <trkpt lat="45.91976" lon="4.37818">
        <ele>731</ele>
        <time>2016-12-01T10:42:19Z</time>
      </trkpt>
      <trkpt lat="45.91984" lon="4.37818">
        <ele>731</ele>
        <time>2016-12-01T10:42:25Z</time>
      </trkpt>
      <trkpt lat="45.91985" lon="4.37817">
        <ele>731</ele>
        <time>2016-12-01T10:42:26Z</time>
      </trkpt>
      <trkpt lat="45.91993" lon="4.37817">
        <ele>731</ele>
        <time>2016-12-01T10:42:32Z</time>
      </trkpt>
      <trkpt lat="45.91995" lon="4.37816">
        <ele>731</ele>
        <time>2016-12-01T10:42:33Z</time>
      </trkpt>
      <trkpt lat="45.92002" lon="4.3781">
        <ele>729</ele>
        <time>2016-12-01T10:42:39Z</time>
      </trkpt>
      <trkpt lat="45.92003" lon="4.37808">
        <ele>729</ele>
        <time>2016-12-01T10:42:40Z</time>
      </trkpt>
      <trkpt lat="45.9201" lon="4.37802">
        <ele>729</ele>
        <time>2016-12-01T10:42:46Z</time>
      </trkpt>
      <trkpt lat="45.92011" lon="4.37801">
        <ele>728</ele>
        <time>2016-12-01T10:42:47Z</time>
      </trkpt>
      <trkpt lat="45.92018" lon="4.37795">
        <ele>728</ele>
        <time>2016-12-01T10:42:53Z</time>
      </trkpt>
      <trkpt lat="45.92019" lon="4.37794">
        <ele>728</ele>
        <time>2016-12-01T10:42:54Z</time>
      </trkpt>
      <trkpt lat="45.92028" lon="4.37794">
        <ele>728</ele>
        <time>2016-12-01T10:42:59Z</time>
      </trkpt>
      <trkpt lat="45.92029" lon="4.37794">
        <ele>728</ele>
        <time>2016-12-01T10:43:00Z</time>
      </trkpt>
      <trkpt lat="45.92037" lon="4.37795">
        <ele>728</ele>
        <time>2016-12-01T10:43:05Z</time>
      </trkpt>
      <trkpt lat="45.92039" lon="4.37795">
        <ele>728</ele>
        <time>2016-12-01T10:43:06Z</time>
      </trkpt>
      <trkpt lat="45.92047" lon="4.37796">
        <ele>728</ele>
        <time>2016-12-01T10:43:11Z</time>
      </trkpt>
      <trkpt lat="45.92048" lon="4.37795">
        <ele>728</ele>
        <time>2016-12-01T10:43:12Z</time>
      </trkpt>
      <trkpt lat="45.92056" lon="4.37795">
        <ele>728</ele>
        <time>2016-12-01T10:43:18Z</time>
      </trkpt>
      <trkpt lat="45.92058" lon="4.37796">
        <ele>728</ele>
        <time>2016-12-01T10:43:19Z</time>
      </trkpt>
      <trkpt lat="45.92066" lon="4.37796">
        <ele>727</ele>
        <time>2016-12-01T10:43:25Z</time>
      </trkpt>
      <trkpt lat="45.92067" lon="4.37796">
        <ele>727</ele>
        <time>2016-12-01T10:43:26Z</time>
      </trkpt>
      <trkpt lat="45.92076" lon="4.37794">
        <ele>727</ele>
        <time>2016-12-01T10:43:32Z</time>
      </trkpt>
      <trkpt lat="45.92077" lon="4.37793">
        <ele>727</ele>
        <time>2016-12-01T10:43:33Z</time>
      </trkpt>
      <trkpt lat="45.92084" lon="4.3779">
        <ele>726</ele>
        <time>2016-12-01T10:43:38Z</time>
      </trkpt>
      <trkpt lat="45.92086" lon="4.37789">
        <ele>726</ele>
        <time>2016-12-01T10:43:39Z</time>
      </trkpt>
      <trkpt lat="45.92093" lon="4.37785">
        <ele>726</ele>
        <time>2016-12-01T10:43:44Z</time>
      </trkpt>
      <trkpt lat="45.92095" lon="4.37784">
        <ele>726</ele>
        <time>2016-12-01T10:43:45Z</time>
      </trkpt>
      <trkpt lat="45.92102" lon="4.37779">
        <ele>726</ele>
        <time>2016-12-01T10:43:50Z</time>
      </trkpt>
      <trkpt lat="45.92104" lon="4.37778">
        <ele>726</ele>
        <time>2016-12-01T10:43:51Z</time>
      </trkpt>
      <trkpt lat="45.92111" lon="4.37773">
        <ele>725</ele>
        <time>2016-12-01T10:43:57Z</time>
      </trkpt>
      <trkpt lat="45.92112" lon="4.37772">
        <ele>725</ele>
        <time>2016-12-01T10:43:58Z</time>
      </trkpt>
      <trkpt lat="45.9212" lon="4.37767">
        <ele>725</ele>
        <time>2016-12-01T10:44:05Z</time>
      </trkpt>
      <trkpt lat="45.92121" lon="4.37766">
        <ele>725</ele>
        <time>2016-12-01T10:44:06Z</time>
      </trkpt>
      <trkpt lat="45.92127" lon="4.37759">
        <ele>725</ele>
        <time>2016-12-01T10:44:11Z</time>
      </trkpt>
      <trkpt lat="45.92128" lon="4.37757">
        <ele>725</ele>
        <time>2016-12-01T10:44:12Z</time>
      </trkpt>
      <trkpt lat="45.92135" lon="4.37749">
        <ele>721</ele>
        <time>2016-12-01T10:44:17Z</time>
      </trkpt>
      <trkpt lat="45.92136" lon="4.37747">
        <ele>721</ele>
        <time>2016-12-01T10:44:18Z</time>
      </trkpt>
      <trkpt lat="45.9214" lon="4.37739">
        <ele>721</ele>
        <time>2016-12-01T10:44:22Z</time>
      </trkpt>
      <trkpt lat="45.92142" lon="4.37737">
        <ele>721</ele>
        <time>2016-12-01T10:44:23Z</time>
      </trkpt>
      <trkpt lat="45.92146" lon="4.37728">
        <ele>721</ele>
        <time>2016-12-01T10:44:27Z</time>
      </trkpt>
      <trkpt lat="45.92148" lon="4.37726">
        <ele>721</ele>
        <time>2016-12-01T10:44:28Z</time>
      </trkpt>
      <trkpt lat="45.92156" lon="4.37724">
        <ele>721</ele>
        <time>2016-12-01T10:44:35Z</time>
      </trkpt>
      <trkpt lat="45.92157" lon="4.37724">
        <ele>721</ele>
        <time>2016-12-01T10:44:36Z</time>
      </trkpt>
      <trkpt lat="45.92165" lon="4.37726">
        <ele>721</ele>
        <time>2016-12-01T10:44:43Z</time>
      </trkpt>
      <trkpt lat="45.92166" lon="4.37726">
        <ele>721</ele>
        <time>2016-12-01T10:44:44Z</time>
      </trkpt>
      <trkpt lat="45.92174" lon="4.37728">
        <ele>720</ele>
        <time>2016-12-01T10:44:51Z</time>
      </trkpt>
      <trkpt lat="45.92175" lon="4.37728">
        <ele>720</ele>
        <time>2016-12-01T10:44:52Z</time>
      </trkpt>
      <trkpt lat="45.92183" lon="4.37728">
        <ele>720</ele>
        <time>2016-12-01T10:44:58Z</time>
      </trkpt>
      <trkpt lat="45.92185" lon="4.37727">
        <ele>720</ele>
        <time>2016-12-01T10:44:59Z</time>
      </trkpt>
      <trkpt lat="45.92193" lon="4.37729">
        <ele>720</ele>
        <time>2016-12-01T10:45:08Z</time>
      </trkpt>
      <trkpt lat="45.92194" lon="4.37729">
        <ele>720</ele>
        <time>2016-12-01T10:45:09Z</time>
      </trkpt>
      <trkpt lat="45.92203" lon="4.37731">
        <ele>720</ele>
        <time>2016-12-01T10:45:17Z</time>
      </trkpt>
      <trkpt lat="45.92204" lon="4.3773">
        <ele>720</ele>
        <time>2016-12-01T10:45:18Z</time>
      </trkpt>
      <trkpt lat="45.92213" lon="4.37728">
        <ele>720</ele>
        <time>2016-12-01T10:45:26Z</time>
      </trkpt>
      <trkpt lat="45.92214" lon="4.37728">
        <ele>720</ele>
        <time>2016-12-01T10:45:27Z</time>
      </trkpt>
      <trkpt lat="45.92222" lon="4.37729">
        <ele>720</ele>
        <time>2016-12-01T10:45:33Z</time>
      </trkpt>
      <trkpt lat="45.92224" lon="4.37728">
        <ele>720</ele>
        <time>2016-12-01T10:45:34Z</time>
      </trkpt>
      <trkpt lat="45.92231" lon="4.3773">
        <ele>720</ele>
        <time>2016-12-01T10:45:39Z</time>
      </trkpt>
      <trkpt lat="45.92233" lon="4.37731">
        <ele>720</ele>
        <time>2016-12-01T10:45:40Z</time>
      </trkpt>
      <trkpt lat="45.9224" lon="4.37733">
        <ele>721</ele>
        <time>2016-12-01T10:45:45Z</time>
      </trkpt>
      <trkpt lat="45.92242" lon="4.37734">
        <ele>721</ele>
        <time>2016-12-01T10:45:46Z</time>
      </trkpt>
      <trkpt lat="45.9225" lon="4.37731">
        <ele>721</ele>
        <time>2016-12-01T10:45:52Z</time>
      </trkpt>
      <trkpt lat="45.92252" lon="4.3773">
        <ele>721</ele>
        <time>2016-12-01T10:45:53Z</time>
      </trkpt>
      <trkpt lat="45.9226" lon="4.37728">
        <ele>721</ele>
        <time>2016-12-01T10:45:59Z</time>
      </trkpt>
      <trkpt lat="45.92261" lon="4.37728">
        <ele>721</ele>
        <time>2016-12-01T10:46:00Z</time>
      </trkpt>
      <trkpt lat="45.92269" lon="4.37725">
        <ele>720</ele>
        <time>2016-12-01T10:46:06Z</time>
      </trkpt>
      <trkpt lat="45.92271" lon="4.37725">
        <ele>720</ele>
        <time>2016-12-01T10:46:07Z</time>
      </trkpt>
      <trkpt lat="45.92279" lon="4.37721">
        <ele>720</ele>
        <time>2016-12-01T10:46:13Z</time>
      </trkpt>
      <trkpt lat="45.9228" lon="4.37721">
        <ele>720</ele>
        <time>2016-12-01T10:46:14Z</time>
      </trkpt>
      <trkpt lat="45.92288" lon="4.37719">
        <ele>720</ele>
        <time>2016-12-01T10:46:20Z</time>
      </trkpt>
      <trkpt lat="45.9229" lon="4.37719">
        <ele>720</ele>
        <time>2016-12-01T10:46:21Z</time>
      </trkpt>
      <trkpt lat="45.92297" lon="4.37716">
        <ele>720</ele>
        <time>2016-12-01T10:46:27Z</time>
      </trkpt>
      <trkpt lat="45.92298" lon="4.37716">
        <ele>720</ele>
        <time>2016-12-01T10:46:28Z</time>
      </trkpt>
      <trkpt lat="45.92307" lon="4.37717">
        <ele>720</ele>
        <time>2016-12-01T10:46:35Z</time>
      </trkpt>
      <trkpt lat="45.92308" lon="4.37717">
        <ele>720</ele>
        <time>2016-12-01T10:46:36Z</time>
      </trkpt>
      <trkpt lat="45.92316" lon="4.37716">
        <ele>720</ele>
        <time>2016-12-01T10:46:44Z</time>
      </trkpt>
      <trkpt lat="45.92318" lon="4.37715">
        <ele>720</ele>
        <time>2016-12-01T10:46:45Z</time>
      </trkpt>
      <trkpt lat="45.92325" lon="4.3771">
        <ele>720</ele>
        <time>2016-12-01T10:46:52Z</time>
      </trkpt>
      <trkpt lat="45.92326" lon="4.37709">
        <ele>720</ele>
        <time>2016-12-01T10:46:53Z</time>
      </trkpt>
      <trkpt lat="45.92333" lon="4.37716">
        <ele>721</ele>
        <time>2016-12-01T10:46:58Z</time>
      </trkpt>
      <trkpt lat="45.92334" lon="4.37717">
        <ele>723</ele>
        <time>2016-12-01T10:46:59Z</time>
      </trkpt>
      <trkpt lat="45.92342" lon="4.37717">
        <ele>723</ele>
        <time>2016-12-01T10:47:05Z</time>
      </trkpt>
      <trkpt lat="45.92344" lon="4.37717">
        <ele>723</ele>
        <time>2016-12-01T10:47:06Z</time>
      </trkpt>
      <trkpt lat="45.92352" lon="4.37715">
        <ele>723</ele>
        <time>2016-12-01T10:47:12Z</time>
      </trkpt>
      <trkpt lat="45.92354" lon="4.37716">
        <ele>723</ele>
        <time>2016-12-01T10:47:13Z</time>
      </trkpt>
      <trkpt lat="45.92362" lon="4.37715">
        <ele>723</ele>
        <time>2016-12-01T10:47:19Z</time>
      </trkpt>
      <trkpt lat="45.92364" lon="4.37715">
        <ele>723</ele>
        <time>2016-12-01T10:47:20Z</time>
      </trkpt>
      <trkpt lat="45.92372" lon="4.37714">
        <ele>724</ele>
        <time>2016-12-01T10:47:26Z</time>
      </trkpt>
      <trkpt lat="45.92373" lon="4.37714">
        <ele>724</ele>
        <time>2016-12-01T10:47:27Z</time>
      </trkpt>
      <trkpt lat="45.92381" lon="4.37718">
        <ele>724</ele>
        <time>2016-12-01T10:47:34Z</time>
      </trkpt>
      <trkpt lat="45.92382" lon="4.37718">
        <ele>724</ele>
        <time>2016-12-01T10:47:35Z</time>
      </trkpt>
      <trkpt lat="45.9239" lon="4.37718">
        <ele>724</ele>
        <time>2016-12-01T10:47:41Z</time>
      </trkpt>
      <trkpt lat="45.92391" lon="4.37718">
        <ele>724</ele>
        <time>2016-12-01T10:47:42Z</time>
      </trkpt>
      <trkpt lat="45.924" lon="4.37718">
        <ele>724</ele>
        <time>2016-12-01T10:47:49Z</time>
      </trkpt>
      <trkpt lat="45.92401" lon="4.37718">
        <ele>724</ele>
        <time>2016-12-01T10:47:50Z</time>
      </trkpt>
      <trkpt lat="45.92409" lon="4.37717">
        <ele>725</ele>
        <time>2016-12-01T10:48:05Z</time>
      </trkpt>
      <trkpt lat="45.9241" lon="4.37717">
        <ele>725</ele>
        <time>2016-12-01T10:48:06Z</time>
      </trkpt>
      <trkpt lat="45.92419" lon="4.37716">
        <ele>727</ele>
        <time>2016-12-01T10:48:17Z</time>
      </trkpt>
      <trkpt lat="45.92419" lon="4.37717">
        <ele>727</ele>
        <time>2016-12-01T10:48:18Z</time>
      </trkpt>
      <trkpt lat="45.92415" lon="4.37727">
        <ele>725</ele>
        <time>2016-12-01T10:53:08Z</time>
      </trkpt>
      <trkpt lat="45.92414" lon="4.37727">
        <ele>725</ele>
        <time>2016-12-01T10:53:09Z</time>
      </trkpt>
      <trkpt lat="45.92408" lon="4.37737">
        <ele>725</ele>
        <time>2016-12-01T10:53:20Z</time>
      </trkpt>
      <trkpt lat="45.92408" lon="4.37737">
        <ele>725</ele>
        <time>2016-12-01T10:53:21Z</time>
      </trkpt>
      <trkpt lat="45.92401" lon="4.37745">
        <ele>724</ele>
        <time>2016-12-01T10:53:31Z</time>
      </trkpt>
      <trkpt lat="45.92401" lon="4.37745">
        <ele>724</ele>
        <time>2016-12-01T10:53:32Z</time>
      </trkpt>
      <trkpt lat="45.92396" lon="4.37756">
        <ele>723</ele>
        <time>2016-12-01T11:23:54Z</time>
      </trkpt>
      <trkpt lat="45.92396" lon="4.37756">
        <ele>723</ele>
        <time>2016-12-01T11:23:55Z</time>
      </trkpt>
      <trkpt lat="45.92399" lon="4.37744">
        <ele>724</ele>
        <time>2016-12-01T11:39:36Z</time>
      </trkpt>
      <trkpt lat="45.924" lon="4.37743">
        <ele>724</ele>
        <time>2016-12-01T11:39:37Z</time>
      </trkpt>
      <trkpt lat="45.92407" lon="4.37736">
        <ele>725</ele>
        <time>2016-12-01T11:39:44Z</time>
      </trkpt>
      <trkpt lat="45.92408" lon="4.37735">
        <ele>725</ele>
        <time>2016-12-01T11:39:45Z</time>
      </trkpt>
      <trkpt lat="45.92414" lon="4.37726">
        <ele>725</ele>
        <time>2016-12-01T11:39:52Z</time>
      </trkpt>
      <trkpt lat="45.92415" lon="4.37725">
        <ele>725</ele>
        <time>2016-12-01T11:39:53Z</time>
      </trkpt>
      <trkpt lat="45.92421" lon="4.37716">
        <ele>727</ele>
        <time>2016-12-01T11:40:00Z</time>
      </trkpt>
      <trkpt lat="45.92422" lon="4.37715">
        <ele>727</ele>
        <time>2016-12-01T11:40:01Z</time>
      </trkpt>
      <trkpt lat="45.92429" lon="4.37722">
        <ele>727</ele>
        <time>2016-12-01T11:43:32Z</time>
      </trkpt>
      <trkpt lat="45.92429" lon="4.37722">
        <ele>727</ele>
        <time>2016-12-01T11:43:33Z</time>
      </trkpt>
      <trkpt lat="45.92438" lon="4.37722">
        <ele>727</ele>
        <time>2016-12-01T11:43:43Z</time>
      </trkpt>
      <trkpt lat="45.92439" lon="4.37722">
        <ele>727</ele>
        <time>2016-12-01T11:43:44Z</time>
      </trkpt>
      <trkpt lat="45.92447" lon="4.37723">
        <ele>727</ele>
        <time>2016-12-01T11:43:52Z</time>
      </trkpt>
      <trkpt lat="45.92448" lon="4.37723">
        <ele>727</ele>
        <time>2016-12-01T11:43:53Z</time>
      </trkpt>
      <trkpt lat="45.92457" lon="4.37725">
        <ele>727</ele>
        <time>2016-12-01T11:44:01Z</time>
      </trkpt>
      <trkpt lat="45.92458" lon="4.37725">
        <ele>727</ele>
        <time>2016-12-01T11:44:02Z</time>
      </trkpt>
      <trkpt lat="45.92467" lon="4.37723">
        <ele>727</ele>
        <time>2016-12-01T11:44:09Z</time>
      </trkpt>
      <trkpt lat="45.92468" lon="4.37723">
        <ele>727</ele>
        <time>2016-12-01T11:44:10Z</time>
      </trkpt>
      <trkpt lat="45.92476" lon="4.37725">
        <ele>727</ele>
        <time>2016-12-01T11:44:17Z</time>
      </trkpt>
      <trkpt lat="45.92477" lon="4.37725">
        <ele>727</ele>
        <time>2016-12-01T11:44:18Z</time>
      </trkpt>
      <trkpt lat="45.92485" lon="4.37723">
        <ele>727</ele>
        <time>2016-12-01T11:44:26Z</time>
      </trkpt>
      <trkpt lat="45.92486" lon="4.37723">
        <ele>727</ele>
        <time>2016-12-01T11:44:27Z</time>
      </trkpt>
      <trkpt lat="45.92494" lon="4.37725">
        <ele>727</ele>
        <time>2016-12-01T11:44:34Z</time>
      </trkpt>
      <trkpt lat="45.92495" lon="4.37726">
        <ele>727</ele>
        <time>2016-12-01T11:44:35Z</time>
      </trkpt>
      <trkpt lat="45.92504" lon="4.37727">
        <ele>727</ele>
        <time>2016-12-01T11:44:42Z</time>
      </trkpt>
      <trkpt lat="45.92505" lon="4.37727">
        <ele>727</ele>
        <time>2016-12-01T11:44:43Z</time>
      </trkpt>
      <trkpt lat="45.92513" lon="4.37724">
        <ele>727</ele>
        <time>2016-12-01T11:44:50Z</time>
      </trkpt>
      <trkpt lat="45.92514" lon="4.37724">
        <ele>727</ele>
        <time>2016-12-01T11:44:51Z</time>
      </trkpt>
      <trkpt lat="45.92522" lon="4.37722">
        <ele>727</ele>
        <time>2016-12-01T11:44:58Z</time>
      </trkpt>
      <trkpt lat="45.92524" lon="4.37723">
        <ele>727</ele>
        <time>2016-12-01T11:44:59Z</time>
      </trkpt>
      <trkpt lat="45.92531" lon="4.37725">
        <ele>727</ele>
        <time>2016-12-01T11:45:05Z</time>
      </trkpt>
      <trkpt lat="45.92532" lon="4.37724">
        <ele>727</ele>
        <time>2016-12-01T11:45:06Z</time>
      </trkpt>
      <trkpt lat="45.9254" lon="4.37724">
        <ele>727</ele>
        <time>2016-12-01T11:45:12Z</time>
      </trkpt>
      <trkpt lat="45.92542" lon="4.37724">
        <ele>727</ele>
        <time>2016-12-01T11:45:13Z</time>
      </trkpt>
      <trkpt lat="45.9255" lon="4.37725">
        <ele>727</ele>
        <time>2016-12-01T11:45:21Z</time>
      </trkpt>
      <trkpt lat="45.92551" lon="4.37725">
        <ele>727</ele>
        <time>2016-12-01T11:45:22Z</time>
      </trkpt>
      <trkpt lat="45.92559" lon="4.37722">
        <ele>727</ele>
        <time>2016-12-01T11:45:30Z</time>
      </trkpt>
      <trkpt lat="45.9256" lon="4.37721">
        <ele>727</ele>
        <time>2016-12-01T11:45:31Z</time>
      </trkpt>
      <trkpt lat="45.92568" lon="4.37722">
        <ele>726</ele>
        <time>2016-12-01T11:45:40Z</time>
      </trkpt>
      <trkpt lat="45.92569" lon="4.37722">
        <ele>726</ele>
        <time>2016-12-01T11:45:41Z</time>
      </trkpt>
      <trkpt lat="45.92577" lon="4.37722">
        <ele>726</ele>
        <time>2016-12-01T11:45:48Z</time>
      </trkpt>
      <trkpt lat="45.92578" lon="4.37722">
        <ele>726</ele>
        <time>2016-12-01T11:45:49Z</time>
      </trkpt>
      <trkpt lat="45.92587" lon="4.37724">
        <ele>724</ele>
        <time>2016-12-01T11:45:56Z</time>
      </trkpt>
      <trkpt lat="45.92588" lon="4.37725">
        <ele>724</ele>
        <time>2016-12-01T11:45:57Z</time>
      </trkpt>
      <trkpt lat="45.92596" lon="4.37725">
        <ele>723</ele>
        <time>2016-12-01T11:46:04Z</time>
      </trkpt>
      <trkpt lat="45.92597" lon="4.37725">
        <ele>723</ele>
        <time>2016-12-01T11:46:05Z</time>
      </trkpt>
      <trkpt lat="45.92605" lon="4.37719">
        <ele>723</ele>
        <time>2016-12-01T11:46:12Z</time>
      </trkpt>
      <trkpt lat="45.92606" lon="4.37719">
        <ele>723</ele>
        <time>2016-12-01T11:46:13Z</time>
      </trkpt>
      <trkpt lat="45.92614" lon="4.37718">
        <ele>723</ele>
        <time>2016-12-01T11:46:19Z</time>
      </trkpt>
      <trkpt lat="45.92615" lon="4.37719">
        <ele>723</ele>
        <time>2016-12-01T11:46:20Z</time>
      </trkpt>
      <trkpt lat="45.92624" lon="4.37721">
        <ele>722</ele>
        <time>2016-12-01T11:47:10Z</time>
      </trkpt>
      <trkpt lat="45.92624" lon="4.37722">
        <ele>722</ele>
        <time>2016-12-01T11:47:11Z</time>
      </trkpt>
      <trkpt lat="45.92632" lon="4.37728">
        <ele>722</ele>
        <time>2016-12-01T11:47:18Z</time>
      </trkpt>
      <trkpt lat="45.92633" lon="4.37728">
        <ele>722</ele>
        <time>2016-12-01T11:47:19Z</time>
      </trkpt>
      <trkpt lat="45.9264" lon="4.37735">
        <ele>722</ele>
        <time>2016-12-01T11:47:26Z</time>
      </trkpt>
      <trkpt lat="45.92641" lon="4.37735">
        <ele>722</ele>
        <time>2016-12-01T11:47:27Z</time>
      </trkpt>
      <trkpt lat="45.92648" lon="4.37741">
        <ele>721</ele>
        <time>2016-12-01T11:47:33Z</time>
      </trkpt>
      <trkpt lat="45.92649" lon="4.37742">
        <ele>721</ele>
        <time>2016-12-01T11:47:34Z</time>
      </trkpt>
      <trkpt lat="45.92656" lon="4.37749">
        <ele>721</ele>
        <time>2016-12-01T11:47:41Z</time>
      </trkpt>
      <trkpt lat="45.92657" lon="4.37751">
        <ele>721</ele>
        <time>2016-12-01T11:47:42Z</time>
      </trkpt>
      <trkpt lat="45.92663" lon="4.37759">
        <ele>720</ele>
        <time>2016-12-01T11:47:49Z</time>
      </trkpt>
      <trkpt lat="45.92664" lon="4.3776">
        <ele>721</ele>
        <time>2016-12-01T11:47:50Z</time>
      </trkpt>
      <trkpt lat="45.9267" lon="4.37768">
        <ele>721</ele>
        <time>2016-12-01T11:47:56Z</time>
      </trkpt>
      <trkpt lat="45.92671" lon="4.3777">
        <ele>721</ele>
        <time>2016-12-01T11:47:57Z</time>
      </trkpt>
      <trkpt lat="45.92675" lon="4.37781">
        <ele>721</ele>
        <time>2016-12-01T11:48:03Z</time>
      </trkpt>
      <trkpt lat="45.92676" lon="4.37782">
        <ele>721</ele>
        <time>2016-12-01T11:48:04Z</time>
      </trkpt>
      <trkpt lat="45.92679" lon="4.37793">
        <ele>721</ele>
        <time>2016-12-01T11:48:10Z</time>
      </trkpt>
      <trkpt lat="45.92679" lon="4.37794">
        <ele>721</ele>
        <time>2016-12-01T11:48:11Z</time>
      </trkpt>
      <trkpt lat="45.92682" lon="4.37806">
        <ele>721</ele>
        <time>2016-12-01T11:48:18Z</time>
      </trkpt>
      <trkpt lat="45.92682" lon="4.37808">
        <ele>721</ele>
        <time>2016-12-01T11:48:19Z</time>
      </trkpt>
      <trkpt lat="45.92685" lon="4.37819">
        <ele>721</ele>
        <time>2016-12-01T11:48:26Z</time>
      </trkpt>
      <trkpt lat="45.92685" lon="4.37821">
        <ele>721</ele>
        <time>2016-12-01T11:48:27Z</time>
      </trkpt>
      <trkpt lat="45.92692" lon="4.37829">
        <ele>722</ele>
        <time>2016-12-01T11:48:35Z</time>
      </trkpt>
      <trkpt lat="45.92692" lon="4.3783">
        <ele>722</ele>
        <time>2016-12-01T11:48:36Z</time>
      </trkpt>
      <trkpt lat="45.92687" lon="4.37821">
        <ele>721</ele>
        <time>2016-12-01T11:49:19Z</time>
      </trkpt>
      <trkpt lat="45.92687" lon="4.37819">
        <ele>721</ele>
        <time>2016-12-01T11:49:20Z</time>
      </trkpt>
      <trkpt lat="45.92683" lon="4.37809">
        <ele>721</ele>
        <time>2016-12-01T11:49:27Z</time>
      </trkpt>
      <trkpt lat="45.92682" lon="4.37807">
        <ele>721</ele>
        <time>2016-12-01T11:49:28Z</time>
      </trkpt>
      <trkpt lat="45.92677" lon="4.37797">
        <ele>721</ele>
        <time>2016-12-01T11:49:35Z</time>
      </trkpt>
      <trkpt lat="45.92676" lon="4.37795">
        <ele>721</ele>
        <time>2016-12-01T11:49:36Z</time>
      </trkpt>
      <trkpt lat="45.92672" lon="4.37785">
        <ele>721</ele>
        <time>2016-12-01T11:49:41Z</time>
      </trkpt>
      <trkpt lat="45.92672" lon="4.37783">
        <ele>721</ele>
        <time>2016-12-01T11:49:42Z</time>
      </trkpt>
      <trkpt lat="45.92667" lon="4.37773">
        <ele>721</ele>
        <time>2016-12-01T11:49:48Z</time>
      </trkpt>
      <trkpt lat="45.92666" lon="4.37772">
        <ele>721</ele>
        <time>2016-12-01T11:49:49Z</time>
      </trkpt>
      <trkpt lat="45.92661" lon="4.37762">
        <ele>721</ele>
        <time>2016-12-01T11:49:56Z</time>
      </trkpt>
      <trkpt lat="45.9266" lon="4.3776">
        <ele>721</ele>
        <time>2016-12-01T11:49:57Z</time>
      </trkpt>
      <trkpt lat="45.92656" lon="4.37749">
        <ele>721</ele>
        <time>2016-12-01T11:50:03Z</time>
      </trkpt>
      <trkpt lat="45.92655" lon="4.37748">
        <ele>721</ele>
        <time>2016-12-01T11:50:04Z</time>
      </trkpt>
      <trkpt lat="45.92649" lon="4.3774">
        <ele>721</ele>
        <time>2016-12-01T11:50:10Z</time>
      </trkpt>
      <trkpt lat="45.92648" lon="4.37739">
        <ele>721</ele>
        <time>2016-12-01T11:50:11Z</time>
      </trkpt>
      <trkpt lat="45.92641" lon="4.37733">
        <ele>722</ele>
        <time>2016-12-01T11:50:17Z</time>
      </trkpt>
      <trkpt lat="45.9264" lon="4.37732">
        <ele>722</ele>
        <time>2016-12-01T11:50:18Z</time>
      </trkpt>
      <trkpt lat="45.92632" lon="4.37727">
        <ele>722</ele>
        <time>2016-12-01T11:50:24Z</time>
      </trkpt>
      <trkpt lat="45.92631" lon="4.37727">
        <ele>722</ele>
        <time>2016-12-01T11:50:25Z</time>
      </trkpt>
      <trkpt lat="45.92623" lon="4.37726">
        <ele>722</ele>
        <time>2016-12-01T11:50:31Z</time>
      </trkpt>
      <trkpt lat="45.92621" lon="4.37726">
        <ele>722</ele>
        <time>2016-12-01T11:50:32Z</time>
      </trkpt>
      <trkpt lat="45.92612" lon="4.37728">
        <ele>723</ele>
        <time>2016-12-01T11:50:39Z</time>
      </trkpt>
      <trkpt lat="45.92611" lon="4.37728">
        <ele>723</ele>
        <time>2016-12-01T11:50:40Z</time>
      </trkpt>
      <trkpt lat="45.92603" lon="4.37731">
        <ele>723</ele>
        <time>2016-12-01T11:50:46Z</time>
      </trkpt>
      <trkpt lat="45.92602" lon="4.37731">
        <ele>723</ele>
        <time>2016-12-01T11:50:47Z</time>
      </trkpt>
      <trkpt lat="45.92593" lon="4.37734">
        <ele>724</ele>
        <time>2016-12-01T11:50:53Z</time>
      </trkpt>
      <trkpt lat="45.92592" lon="4.37733">
        <ele>724</ele>
        <time>2016-12-01T11:50:54Z</time>
      </trkpt>
      <trkpt lat="45.92584" lon="4.37734">
        <ele>724</ele>
        <time>2016-12-01T11:51:01Z</time>
      </trkpt>
      <trkpt lat="45.92583" lon="4.37734">
        <ele>726</ele>
        <time>2016-12-01T11:51:02Z</time>
      </trkpt>
      <trkpt lat="45.92574" lon="4.37731">
        <ele>726</ele>
        <time>2016-12-01T11:51:09Z</time>
      </trkpt>
      <trkpt lat="45.92573" lon="4.37731">
        <ele>726</ele>
        <time>2016-12-01T11:51:10Z</time>
      </trkpt>
      <trkpt lat="45.92564" lon="4.37732">
        <ele>726</ele>
        <time>2016-12-01T11:51:17Z</time>
      </trkpt>
      <trkpt lat="45.92563" lon="4.37732">
        <ele>726</ele>
        <time>2016-12-01T11:51:18Z</time>
      </trkpt>
      <trkpt lat="45.92563" lon="4.37744">
        <ele>726</ele>
        <time>2016-12-01T11:51:27Z</time>
      </trkpt>
      <trkpt lat="45.92563" lon="4.37746">
        <ele>726</ele>
        <time>2016-12-01T11:51:28Z</time>
      </trkpt>
      <trkpt lat="45.92565" lon="4.37758">
        <ele>723</ele>
        <time>2016-12-01T11:51:36Z</time>
      </trkpt>
      <trkpt lat="45.92566" lon="4.37759">
        <ele>723</ele>
        <time>2016-12-01T11:51:37Z</time>
      </trkpt>
      <trkpt lat="45.92567" lon="4.37772">
        <ele>722</ele>
        <time>2016-12-01T11:51:44Z</time>
      </trkpt>
      <trkpt lat="45.92568" lon="4.37773">
        <ele>722</ele>
        <time>2016-12-01T11:51:45Z</time>
      </trkpt>
      <trkpt lat="45.92569" lon="4.37786">
        <ele>722</ele>
        <time>2016-12-01T11:51:52Z</time>
      </trkpt>
      <trkpt lat="45.9257" lon="4.37788">
        <ele>722</ele>
        <time>2016-12-01T11:51:53Z</time>
      </trkpt>
      <trkpt lat="45.92574" lon="4.37798">
        <ele>721</ele>
        <time>2016-12-01T11:51:59Z</time>
      </trkpt>
      <trkpt lat="45.92574" lon="4.378">
        <ele>721</ele>
        <time>2016-12-01T11:52:00Z</time>
      </trkpt>
      <trkpt lat="45.92579" lon="4.3781">
        <ele>720</ele>
        <time>2016-12-01T11:52:06Z</time>
      </trkpt>
      <trkpt lat="45.9258" lon="4.37812">
        <ele>720</ele>
        <time>2016-12-01T11:52:07Z</time>
      </trkpt>
      <trkpt lat="45.92584" lon="4.37821">
        <ele>720</ele>
        <time>2016-12-01T11:52:13Z</time>
      </trkpt>
      <trkpt lat="45.92585" lon="4.37823">
        <ele>720</ele>
        <time>2016-12-01T11:52:14Z</time>
      </trkpt>
      <trkpt lat="45.92589" lon="4.37834">
        <ele>719</ele>
        <time>2016-12-01T11:52:21Z</time>
      </trkpt>
      <trkpt lat="45.9259" lon="4.37836">
        <ele>719</ele>
        <time>2016-12-01T11:52:22Z</time>
      </trkpt>
      <trkpt lat="45.92593" lon="4.37847">
        <ele>718</ele>
        <time>2016-12-01T11:52:28Z</time>
      </trkpt>
      <trkpt lat="45.92594" lon="4.37849">
        <ele>718</ele>
        <time>2016-12-01T11:52:29Z</time>
      </trkpt>
      <trkpt lat="45.92599" lon="4.37859">
        <ele>718</ele>
        <time>2016-12-01T11:52:35Z</time>
      </trkpt>
      <trkpt lat="45.926" lon="4.37861">
        <ele>718</ele>
        <time>2016-12-01T11:52:36Z</time>
      </trkpt>
      <trkpt lat="45.92605" lon="4.37868">
        <ele>717</ele>
        <time>2016-12-01T11:52:41Z</time>
      </trkpt>
      <trkpt lat="45.92606" lon="4.3787">
        <ele>717</ele>
        <time>2016-12-01T11:52:42Z</time>
      </trkpt>
      <trkpt lat="45.92612" lon="4.37878">
        <ele>717</ele>
        <time>2016-12-01T11:52:48Z</time>
      </trkpt>
      <trkpt lat="45.92613" lon="4.37879">
        <ele>717</ele>
        <time>2016-12-01T11:52:49Z</time>
      </trkpt>
      <trkpt lat="45.92618" lon="4.37888">
        <ele>717</ele>
        <time>2016-12-01T11:52:55Z</time>
      </trkpt>
      <trkpt lat="45.92619" lon="4.3789">
        <ele>717</ele>
        <time>2016-12-01T11:52:56Z</time>
      </trkpt>
      <trkpt lat="45.92624" lon="4.37899">
        <ele>717</ele>
        <time>2016-12-01T11:53:02Z</time>
      </trkpt>
      <trkpt lat="45.92625" lon="4.37901">
        <ele>717</ele>
        <time>2016-12-01T11:53:03Z</time>
      </trkpt>
      <trkpt lat="45.9263" lon="4.3791">
        <ele>717</ele>
        <time>2016-12-01T11:53:10Z</time>
      </trkpt>
      <trkpt lat="45.92631" lon="4.37912">
        <ele>717</ele>
        <time>2016-12-01T11:53:11Z</time>
      </trkpt>
      <trkpt lat="45.92637" lon="4.3792">
        <ele>715</ele>
        <time>2016-12-01T11:53:17Z</time>
      </trkpt>
      <trkpt lat="45.92638" lon="4.37921">
        <ele>715</ele>
        <time>2016-12-01T11:53:18Z</time>
      </trkpt>
      <trkpt lat="45.92642" lon="4.3793">
        <ele>715</ele>
        <time>2016-12-01T11:53:23Z</time>
      </trkpt>
      <trkpt lat="45.92643" lon="4.37932">
        <ele>715</ele>
        <time>2016-12-01T11:53:24Z</time>
      </trkpt>
      <trkpt lat="45.92646" lon="4.37944">
        <ele>715</ele>
        <time>2016-12-01T11:53:30Z</time>
      </trkpt>
      <trkpt lat="45.92646" lon="4.37946">
        <ele>715</ele>
        <time>2016-12-01T11:53:31Z</time>
      </trkpt>
      <trkpt lat="45.92648" lon="4.37957">
        <ele>714</ele>
        <time>2016-12-01T11:53:36Z</time>
      </trkpt>
      <trkpt lat="45.92648" lon="4.37959">
        <ele>714</ele>
        <time>2016-12-01T11:53:37Z</time>
      </trkpt>
      <trkpt lat="45.92648" lon="4.37971">
        <ele>714</ele>
        <time>2016-12-01T11:53:43Z</time>
      </trkpt>
      <trkpt lat="45.92649" lon="4.37973">
        <ele>714</ele>
        <time>2016-12-01T11:53:44Z</time>
      </trkpt>
      <trkpt lat="45.9265" lon="4.37984">
        <ele>715</ele>
        <time>2016-12-01T11:53:50Z</time>
      </trkpt>
      <trkpt lat="45.9265" lon="4.37986">
        <ele>715</ele>
        <time>2016-12-01T11:53:51Z</time>
      </trkpt>
      <trkpt lat="45.92648" lon="4.37997">
        <ele>715</ele>
        <time>2016-12-01T11:53:58Z</time>
      </trkpt>
      <trkpt lat="45.92648" lon="4.37999">
        <ele>715</ele>
        <time>2016-12-01T11:53:59Z</time>
      </trkpt>
      <trkpt lat="45.92646" lon="4.38012">
        <ele>712</ele>
        <time>2016-12-01T11:54:05Z</time>
      </trkpt>
      <trkpt lat="45.92646" lon="4.38014">
        <ele>712</ele>
        <time>2016-12-01T11:54:06Z</time>
      </trkpt>
      <trkpt lat="45.92646" lon="4.38027">
        <ele>711</ele>
        <time>2016-12-01T11:54:12Z</time>
      </trkpt>
      <trkpt lat="45.92646" lon="4.38029">
        <ele>710</ele>
        <time>2016-12-01T11:54:13Z</time>
      </trkpt>
      <trkpt lat="45.92647" lon="4.38041">
        <ele>710</ele>
        <time>2016-12-01T11:54:19Z</time>
      </trkpt>
      <trkpt lat="45.92647" lon="4.38043">
        <ele>710</ele>
        <time>2016-12-01T11:54:20Z</time>
      </trkpt>
      <trkpt lat="45.92648" lon="4.38055">
        <ele>710</ele>
        <time>2016-12-01T11:54:26Z</time>
      </trkpt>
      <trkpt lat="45.92648" lon="4.38057">
        <ele>710</ele>
        <time>2016-12-01T11:54:27Z</time>
      </trkpt>
      <trkpt lat="45.92649" lon="4.38069">
        <ele>711</ele>
        <time>2016-12-01T11:54:33Z</time>
      </trkpt>
      <trkpt lat="45.92649" lon="4.38071">
        <ele>711</ele>
        <time>2016-12-01T11:54:34Z</time>
      </trkpt>
      <trkpt lat="45.92649" lon="4.38083">
        <ele>711</ele>
        <time>2016-12-01T11:54:40Z</time>
      </trkpt>
      <trkpt lat="45.92649" lon="4.38085">
        <ele>709</ele>
        <time>2016-12-01T11:54:41Z</time>
      </trkpt>
      <trkpt lat="45.9265" lon="4.38097">
        <ele>708</ele>
        <time>2016-12-01T11:54:47Z</time>
      </trkpt>
      <trkpt lat="45.9265" lon="4.38099">
        <ele>708</ele>
        <time>2016-12-01T11:54:48Z</time>
      </trkpt>
      <trkpt lat="45.92653" lon="4.3811">
        <ele>707</ele>
        <time>2016-12-01T11:54:54Z</time>
      </trkpt>
      <trkpt lat="45.92653" lon="4.38112">
        <ele>707</ele>
        <time>2016-12-01T11:54:55Z</time>
      </trkpt>
      <trkpt lat="45.92655" lon="4.38125">
        <ele>706</ele>
        <time>2016-12-01T11:55:01Z</time>
      </trkpt>
      <trkpt lat="45.92656" lon="4.38127">
        <ele>706</ele>
        <time>2016-12-01T11:55:02Z</time>
      </trkpt>
      <trkpt lat="45.92657" lon="4.38139">
        <ele>706</ele>
        <time>2016-12-01T11:55:08Z</time>
      </trkpt>
      <trkpt lat="45.92657" lon="4.38141">
        <ele>707</ele>
        <time>2016-12-01T11:55:09Z</time>
      </trkpt>
      <trkpt lat="45.92658" lon="4.38153">
        <ele>708</ele>
        <time>2016-12-01T11:55:15Z</time>
      </trkpt>
      <trkpt lat="45.92658" lon="4.38155">
        <ele>708</ele>
        <time>2016-12-01T11:55:16Z</time>
      </trkpt>
      <trkpt lat="45.9266" lon="4.38167">
        <ele>709</ele>
        <time>2016-12-01T11:55:22Z</time>
      </trkpt>
      <trkpt lat="45.92661" lon="4.38169">
        <ele>709</ele>
        <time>2016-12-01T11:55:23Z</time>
      </trkpt>
      <trkpt lat="45.92664" lon="4.3818">
        <ele>706</ele>
        <time>2016-12-01T11:55:29Z</time>
      </trkpt>
      <trkpt lat="45.92665" lon="4.38182">
        <ele>706</ele>
        <time>2016-12-01T11:55:30Z</time>
      </trkpt>
      <trkpt lat="45.92671" lon="4.3819">
        <ele>714</ele>
        <time>2016-12-01T11:55:36Z</time>
      </trkpt>
      <trkpt lat="45.92672" lon="4.38191">
        <ele>714</ele>
        <time>2016-12-01T11:55:37Z</time>
      </trkpt>
      <trkpt lat="45.92677" lon="4.38202">
        <ele>715</ele>
        <time>2016-12-01T11:55:44Z</time>
      </trkpt>
      <trkpt lat="45.92677" lon="4.38204">
        <ele>715</ele>
        <time>2016-12-01T11:55:45Z</time>
      </trkpt>
      <trkpt lat="45.92681" lon="4.38214">
        <ele>714</ele>
        <time>2016-12-01T11:55:52Z</time>
      </trkpt>
      <trkpt lat="45.92681" lon="4.38216">
        <ele>714</ele>
        <time>2016-12-01T11:55:53Z</time>
      </trkpt>
      <trkpt lat="45.92686" lon="4.38227">
        <ele>714</ele>
        <time>2016-12-01T11:56:01Z</time>
      </trkpt>
      <trkpt lat="45.92687" lon="4.38228">
        <ele>714</ele>
        <time>2016-12-01T11:56:02Z</time>
      </trkpt>
      <trkpt lat="45.9269" lon="4.38238">
        <ele>714</ele>
        <time>2016-12-01T11:56:08Z</time>
      </trkpt>
      <trkpt lat="45.92691" lon="4.3824">
        <ele>713</ele>
        <time>2016-12-01T11:56:09Z</time>
      </trkpt>
      <trkpt lat="45.92691" lon="4.38252">
        <ele>711</ele>
        <time>2016-12-01T11:56:15Z</time>
      </trkpt>
      <trkpt lat="45.92691" lon="4.38254">
        <ele>711</ele>
        <time>2016-12-01T11:56:16Z</time>
      </trkpt>
      <trkpt lat="45.92691" lon="4.38266">
        <ele>711</ele>
        <time>2016-12-01T11:56:23Z</time>
      </trkpt>
      <trkpt lat="45.92691" lon="4.38268">
        <ele>711</ele>
        <time>2016-12-01T11:56:24Z</time>
      </trkpt>
      <trkpt lat="45.92691" lon="4.38279">
        <ele>711</ele>
        <time>2016-12-01T11:56:30Z</time>
      </trkpt>
      <trkpt lat="45.92691" lon="4.38281">
        <ele>711</ele>
        <time>2016-12-01T11:56:31Z</time>
      </trkpt>
      <trkpt lat="45.92689" lon="4.38292">
        <ele>711</ele>
        <time>2016-12-01T11:56:36Z</time>
      </trkpt>
      <trkpt lat="45.92689" lon="4.38294">
        <ele>711</ele>
        <time>2016-12-01T11:56:37Z</time>
      </trkpt>
      <trkpt lat="45.92687" lon="4.38305">
        <ele>711</ele>
        <time>2016-12-01T11:56:43Z</time>
      </trkpt>
      <trkpt lat="45.92688" lon="4.38307">
        <ele>710</ele>
        <time>2016-12-01T11:56:44Z</time>
      </trkpt>
      <trkpt lat="45.92688" lon="4.38318">
        <ele>710</ele>
        <time>2016-12-01T11:56:50Z</time>
      </trkpt>
      <trkpt lat="45.92688" lon="4.3832">
        <ele>710</ele>
        <time>2016-12-01T11:56:51Z</time>
      </trkpt>
      <trkpt lat="45.92686" lon="4.38332">
        <ele>709</ele>
        <time>2016-12-01T11:57:00Z</time>
      </trkpt>
      <trkpt lat="45.92685" lon="4.38333">
        <ele>709</ele>
        <time>2016-12-01T11:57:01Z</time>
      </trkpt>
      <trkpt lat="45.92681" lon="4.38342">
        <ele>707</ele>
        <time>2016-12-01T11:57:08Z</time>
      </trkpt>
      <trkpt lat="45.9268" lon="4.38344">
        <ele>707</ele>
        <time>2016-12-01T11:57:09Z</time>
      </trkpt>
      <trkpt lat="45.92673" lon="4.38352">
        <ele>707</ele>
        <time>2016-12-01T11:57:15Z</time>
      </trkpt>
      <trkpt lat="45.92672" lon="4.38354">
        <ele>707</ele>
        <time>2016-12-01T11:57:16Z</time>
      </trkpt>
      <trkpt lat="45.92666" lon="4.3836">
        <ele>701</ele>
        <time>2016-12-01T11:57:21Z</time>
      </trkpt>
      <trkpt lat="45.92665" lon="4.38362">
        <ele>701</ele>
        <time>2016-12-01T11:57:22Z</time>
      </trkpt>
      <trkpt lat="45.92658" lon="4.38369">
        <ele>700</ele>
        <time>2016-12-01T11:57:27Z</time>
      </trkpt>
      <trkpt lat="45.92657" lon="4.3837">
        <ele>700</ele>
        <time>2016-12-01T11:57:28Z</time>
      </trkpt>
      <trkpt lat="45.92651" lon="4.38378">
        <ele>700</ele>
        <time>2016-12-01T11:57:33Z</time>
      </trkpt>
      <trkpt lat="45.92651" lon="4.3838">
        <ele>700</ele>
        <time>2016-12-01T11:57:34Z</time>
      </trkpt>
      <trkpt lat="45.92647" lon="4.38392">
        <ele>700</ele>
        <time>2016-12-01T11:57:40Z</time>
      </trkpt>
      <trkpt lat="45.92646" lon="4.38393">
        <ele>700</ele>
        <time>2016-12-01T11:57:41Z</time>
      </trkpt>
      <trkpt lat="45.92646" lon="4.38406">
        <ele>700</ele>
        <time>2016-12-01T11:57:48Z</time>
      </trkpt>
      <trkpt lat="45.92646" lon="4.38407">
        <ele>700</ele>
        <time>2016-12-01T11:57:49Z</time>
      </trkpt>
      <trkpt lat="45.92646" lon="4.3842">
        <ele>698</ele>
        <time>2016-12-01T11:57:57Z</time>
      </trkpt>
      <trkpt lat="45.92645" lon="4.38421">
        <ele>698</ele>
        <time>2016-12-01T11:57:58Z</time>
      </trkpt>
      <trkpt lat="45.92644" lon="4.38433">
        <ele>697</ele>
        <time>2016-12-01T11:58:05Z</time>
      </trkpt>
      <trkpt lat="45.92644" lon="4.38435">
        <ele>696</ele>
        <time>2016-12-01T11:58:06Z</time>
      </trkpt>
      <trkpt lat="45.92645" lon="4.38447">
        <ele>695</ele>
        <time>2016-12-01T11:58:13Z</time>
      </trkpt>
      <trkpt lat="45.92646" lon="4.38449">
        <ele>695</ele>
        <time>2016-12-01T11:58:14Z</time>
      </trkpt>
      <trkpt lat="45.92648" lon="4.38461">
        <ele>694</ele>
        <time>2016-12-01T11:58:21Z</time>
      </trkpt>
      <trkpt lat="45.92648" lon="4.38463">
        <ele>694</ele>
        <time>2016-12-01T11:58:22Z</time>
      </trkpt>
      <trkpt lat="45.9265" lon="4.38475">
        <ele>693</ele>
        <time>2016-12-01T11:58:29Z</time>
      </trkpt>
      <trkpt lat="45.9265" lon="4.38477">
        <ele>693</ele>
        <time>2016-12-01T11:58:30Z</time>
      </trkpt>
      <trkpt lat="45.92651" lon="4.38489">
        <ele>692</ele>
        <time>2016-12-01T11:58:36Z</time>
      </trkpt>
      <trkpt lat="45.92651" lon="4.38491">
        <ele>692</ele>
        <time>2016-12-01T11:58:37Z</time>
      </trkpt>
      <trkpt lat="45.92654" lon="4.38502">
        <ele>689</ele>
        <time>2016-12-01T11:58:43Z</time>
      </trkpt>
      <trkpt lat="45.92655" lon="4.38504">
        <ele>689</ele>
        <time>2016-12-01T11:58:44Z</time>
      </trkpt>
      <trkpt lat="45.92661" lon="4.38512">
        <ele>689</ele>
        <time>2016-12-01T11:58:50Z</time>
      </trkpt>
      <trkpt lat="45.92662" lon="4.38513">
        <ele>689</ele>
        <time>2016-12-01T11:58:51Z</time>
      </trkpt>
      <trkpt lat="45.92669" lon="4.38519">
        <ele>691</ele>
        <time>2016-12-01T11:59:02Z</time>
      </trkpt>
      <trkpt lat="45.9267" lon="4.3852">
        <ele>691</ele>
        <time>2016-12-01T11:59:03Z</time>
      </trkpt>
      <trkpt lat="45.92679" lon="4.38525">
        <ele>692</ele>
        <time>2016-12-01T11:59:11Z</time>
      </trkpt>
      <trkpt lat="45.92679" lon="4.38526">
        <ele>692</ele>
        <time>2016-12-01T11:59:12Z</time>
      </trkpt>
      <trkpt lat="45.92682" lon="4.38538">
        <ele>691</ele>
        <time>2016-12-01T11:59:23Z</time>
      </trkpt>
      <trkpt lat="45.92682" lon="4.38539">
        <ele>691</ele>
        <time>2016-12-01T11:59:24Z</time>
      </trkpt>
      <trkpt lat="45.92676" lon="4.38549">
        <ele>691</ele>
        <time>2016-12-01T11:59:35Z</time>
      </trkpt>
      <trkpt lat="45.92676" lon="4.3855">
        <ele>691</ele>
        <time>2016-12-01T11:59:36Z</time>
      </trkpt>
      <trkpt lat="45.9267" lon="4.38559">
        <ele>690</ele>
        <time>2016-12-01T11:59:48Z</time>
      </trkpt>
      <trkpt lat="45.9267" lon="4.38561">
        <ele>690</ele>
        <time>2016-12-01T11:59:49Z</time>
      </trkpt>
      <trkpt lat="45.92668" lon="4.38572">
        <ele>688</ele>
        <time>2016-12-01T12:00:01Z</time>
      </trkpt>
      <trkpt lat="45.92667" lon="4.38573">
        <ele>688</ele>
        <time>2016-12-01T12:00:02Z</time>
      </trkpt>
      <trkpt lat="45.9266" lon="4.3858">
        <ele>686</ele>
        <time>2016-12-01T12:00:08Z</time>
      </trkpt>
      <trkpt lat="45.92659" lon="4.38581">
        <ele>686</ele>
        <time>2016-12-01T12:00:09Z</time>
      </trkpt>
      <trkpt lat="45.92651" lon="4.38583">
        <ele>686</ele>
        <time>2016-12-01T12:00:15Z</time>
      </trkpt>
      <trkpt lat="45.9265" lon="4.38583">
        <ele>686</ele>
        <time>2016-12-01T12:00:16Z</time>
      </trkpt>
      <trkpt lat="45.92642" lon="4.38588">
        <ele>686</ele>
        <time>2016-12-01T12:00:23Z</time>
      </trkpt>
      <trkpt lat="45.9264" lon="4.38588">
        <ele>686</ele>
        <time>2016-12-01T12:00:24Z</time>
      </trkpt>
      <trkpt lat="45.92632" lon="4.3859">
        <ele>686</ele>
        <time>2016-12-01T12:00:32Z</time>
      </trkpt>
      <trkpt lat="45.92631" lon="4.3859">
        <ele>686</ele>
        <time>2016-12-01T12:00:33Z</time>
      </trkpt>
      <trkpt lat="45.92624" lon="4.38591">
        <ele>686</ele>
        <time>2016-12-01T12:00:43Z</time>
      </trkpt>
      <trkpt lat="45.92622" lon="4.38591">
        <ele>686</ele>
        <time>2016-12-01T12:00:44Z</time>
      </trkpt>
      <trkpt lat="45.92614" lon="4.3859">
        <ele>685</ele>
        <time>2016-12-01T12:00:50Z</time>
      </trkpt>
      <trkpt lat="45.92613" lon="4.3859">
        <ele>685</ele>
        <time>2016-12-01T12:00:51Z</time>
      </trkpt>
      <trkpt lat="45.92605" lon="4.38589">
        <ele>684</ele>
        <time>2016-12-01T12:00:57Z</time>
      </trkpt>
      <trkpt lat="45.92603" lon="4.38589">
        <ele>684</ele>
        <time>2016-12-01T12:00:58Z</time>
      </trkpt>
      <trkpt lat="45.92596" lon="4.38593">
        <ele>683</ele>
        <time>2016-12-01T12:01:03Z</time>
      </trkpt>
      <trkpt lat="45.92594" lon="4.38593">
        <ele>683</ele>
        <time>2016-12-01T12:01:04Z</time>
      </trkpt>
      <trkpt lat="45.92586" lon="4.38595">
        <ele>683</ele>
        <time>2016-12-01T12:01:09Z</time>
      </trkpt>
      <trkpt lat="45.92585" lon="4.38596">
        <ele>683</ele>
        <time>2016-12-01T12:01:10Z</time>
      </trkpt>
      <trkpt lat="45.92577" lon="4.38602">
        <ele>681</ele>
        <time>2016-12-01T12:01:17Z</time>
      </trkpt>
      <trkpt lat="45.92576" lon="4.38603">
        <ele>681</ele>
        <time>2016-12-01T12:01:18Z</time>
      </trkpt>
      <trkpt lat="45.92568" lon="4.38608">
        <ele>682</ele>
        <time>2016-12-01T12:01:25Z</time>
      </trkpt>
      <trkpt lat="45.92567" lon="4.38609">
        <ele>682</ele>
        <time>2016-12-01T12:01:26Z</time>
      </trkpt>
      <trkpt lat="45.9256" lon="4.38614">
        <ele>682</ele>
        <time>2016-12-01T12:01:32Z</time>
      </trkpt>
      <trkpt lat="45.92558" lon="4.38614">
        <ele>682</ele>
        <time>2016-12-01T12:01:33Z</time>
      </trkpt>
      <trkpt lat="45.9255" lon="4.38618">
        <ele>682</ele>
        <time>2016-12-01T12:01:39Z</time>
      </trkpt>
      <trkpt lat="45.92549" lon="4.38619">
        <ele>682</ele>
        <time>2016-12-01T12:01:40Z</time>
      </trkpt>
      <trkpt lat="45.92541" lon="4.38621">
        <ele>682</ele>
        <time>2016-12-01T12:01:46Z</time>
      </trkpt>
      <trkpt lat="45.9254" lon="4.38622">
        <ele>681</ele>
        <time>2016-12-01T12:01:47Z</time>
      </trkpt>
      <trkpt lat="45.92532" lon="4.38624">
        <ele>681</ele>
        <time>2016-12-01T12:01:54Z</time>
      </trkpt>
      <trkpt lat="45.92531" lon="4.38625">
        <ele>681</ele>
        <time>2016-12-01T12:01:55Z</time>
      </trkpt>
      <trkpt lat="45.92525" lon="4.38633">
        <ele>682</ele>
        <time>2016-12-01T12:02:02Z</time>
      </trkpt>
      <trkpt lat="45.92524" lon="4.38634">
        <ele>682</ele>
        <time>2016-12-01T12:02:03Z</time>
      </trkpt>
      <trkpt lat="45.92519" lon="4.38643">
        <ele>683</ele>
        <time>2016-12-01T12:02:09Z</time>
      </trkpt>
      <trkpt lat="45.92518" lon="4.38643">
        <ele>683</ele>
        <time>2016-12-01T12:02:10Z</time>
      </trkpt>
      <trkpt lat="45.9251" lon="4.3865">
        <ele>684</ele>
        <time>2016-12-01T12:02:18Z</time>
      </trkpt>
      <trkpt lat="45.9251" lon="4.38652">
        <ele>685</ele>
        <time>2016-12-01T12:02:19Z</time>
      </trkpt>
      <trkpt lat="45.92505" lon="4.38661">
        <ele>686</ele>
        <time>2016-12-01T12:02:26Z</time>
      </trkpt>
      <trkpt lat="45.92504" lon="4.38662">
        <ele>687</ele>
        <time>2016-12-01T12:02:27Z</time>
      </trkpt>
      <trkpt lat="45.92497" lon="4.38668">
        <ele>688</ele>
        <time>2016-12-01T12:02:34Z</time>
      </trkpt>
      <trkpt lat="45.92496" lon="4.38668">
        <ele>688</ele>
        <time>2016-12-01T12:02:35Z</time>
      </trkpt>
      <trkpt lat="45.9249" lon="4.38677">
        <ele>689</ele>
        <time>2016-12-01T12:02:43Z</time>
      </trkpt>
      <trkpt lat="45.9249" lon="4.38678">
        <ele>689</ele>
        <time>2016-12-01T12:02:44Z</time>
      </trkpt>
      <trkpt lat="45.92484" lon="4.38687">
        <ele>689</ele>
        <time>2016-12-01T12:02:52Z</time>
      </trkpt>
      <trkpt lat="45.92483" lon="4.38687">
        <ele>689</ele>
        <time>2016-12-01T12:02:53Z</time>
      </trkpt>
      <trkpt lat="45.92476" lon="4.38695">
        <ele>690</ele>
        <time>2016-12-01T12:03:00Z</time>
      </trkpt>
      <trkpt lat="45.92476" lon="4.38696">
        <ele>690</ele>
        <time>2016-12-01T12:03:01Z</time>
      </trkpt>
      <trkpt lat="45.9247" lon="4.38706">
        <ele>690</ele>
        <time>2016-12-01T12:03:09Z</time>
      </trkpt>
      <trkpt lat="45.92469" lon="4.38707">
        <ele>691</ele>
        <time>2016-12-01T12:03:10Z</time>
      </trkpt>
      <trkpt lat="45.92461" lon="4.38712">
        <ele>690</ele>
        <time>2016-12-01T12:03:17Z</time>
      </trkpt>
      <trkpt lat="45.92461" lon="4.38713">
        <ele>690</ele>
        <time>2016-12-01T12:03:18Z</time>
      </trkpt>
      <trkpt lat="45.92454" lon="4.38722">
        <ele>691</ele>
        <time>2016-12-01T12:03:27Z</time>
      </trkpt>
      <trkpt lat="45.92453" lon="4.38723">
        <ele>691</ele>
        <time>2016-12-01T12:03:28Z</time>
      </trkpt>
      <trkpt lat="45.92447" lon="4.38732">
        <ele>691</ele>
        <time>2016-12-01T12:03:36Z</time>
      </trkpt>
      <trkpt lat="45.92446" lon="4.38733">
        <ele>691</ele>
        <time>2016-12-01T12:03:37Z</time>
      </trkpt>
      <trkpt lat="45.9244" lon="4.38741">
        <ele>691</ele>
        <time>2016-12-01T12:03:46Z</time>
      </trkpt>
      <trkpt lat="45.92439" lon="4.38742">
        <ele>691</ele>
        <time>2016-12-01T12:03:47Z</time>
      </trkpt>
      <trkpt lat="45.92434" lon="4.38752">
        <ele>702</ele>
        <time>2016-12-01T12:03:58Z</time>
      </trkpt>
      <trkpt lat="45.92434" lon="4.38753">
        <ele>702</ele>
        <time>2016-12-01T12:03:59Z</time>
      </trkpt>
      <trkpt lat="45.92428" lon="4.38763">
        <ele>702</ele>
        <time>2016-12-01T12:04:09Z</time>
      </trkpt>
      <trkpt lat="45.92428" lon="4.38764">
        <ele>702</ele>
        <time>2016-12-01T12:04:10Z</time>
      </trkpt>
      <trkpt lat="45.92422" lon="4.38773">
        <ele>704</ele>
        <time>2016-12-01T12:04:20Z</time>
      </trkpt>
      <trkpt lat="45.92422" lon="4.38774">
        <ele>705</ele>
        <time>2016-12-01T12:04:21Z</time>
      </trkpt>
      <trkpt lat="45.92416" lon="4.38783">
        <ele>694</ele>
        <time>2016-12-01T12:04:31Z</time>
      </trkpt>
      <trkpt lat="45.92415" lon="4.38784">
        <ele>694</ele>
        <time>2016-12-01T12:04:32Z</time>
      </trkpt>
      <trkpt lat="45.9241" lon="4.38793">
        <ele>696</ele>
        <time>2016-12-01T12:04:43Z</time>
      </trkpt>
      <trkpt lat="45.92409" lon="4.38794">
        <ele>696</ele>
        <time>2016-12-01T12:04:44Z</time>
      </trkpt>
      <trkpt lat="45.92404" lon="4.38803">
        <ele>697</ele>
        <time>2016-12-01T12:04:54Z</time>
      </trkpt>
      <trkpt lat="45.92403" lon="4.38804">
        <ele>697</ele>
        <time>2016-12-01T12:04:55Z</time>
      </trkpt>
      <trkpt lat="45.92398" lon="4.38813">
        <ele>699</ele>
        <time>2016-12-01T12:05:03Z</time>
      </trkpt>
      <trkpt lat="45.92397" lon="4.38815">
        <ele>699</ele>
        <time>2016-12-01T12:05:04Z</time>
      </trkpt>
      <trkpt lat="45.92391" lon="4.38822">
        <ele>699</ele>
        <time>2016-12-01T12:05:12Z</time>
      </trkpt>
      <trkpt lat="45.9239" lon="4.38823">
        <ele>698</ele>
        <time>2016-12-01T12:05:13Z</time>
      </trkpt>
      <trkpt lat="45.92383" lon="4.3883">
        <ele>697</ele>
        <time>2016-12-01T12:05:19Z</time>
      </trkpt>
      <trkpt lat="45.92382" lon="4.38831">
        <ele>697</ele>
        <time>2016-12-01T12:05:20Z</time>
      </trkpt>
      <trkpt lat="45.92376" lon="4.38838">
        <ele>710</ele>
        <time>2016-12-01T12:05:26Z</time>
      </trkpt>
      <trkpt lat="45.92375" lon="4.3884">
        <ele>710</ele>
        <time>2016-12-01T12:05:27Z</time>
      </trkpt>
      <trkpt lat="45.92369" lon="4.38848">
        <ele>710</ele>
        <time>2016-12-01T12:05:34Z</time>
      </trkpt>
      <trkpt lat="45.92368" lon="4.3885">
        <ele>710</ele>
        <time>2016-12-01T12:05:35Z</time>
      </trkpt>
      <trkpt lat="45.92362" lon="4.38857">
        <ele>710</ele>
        <time>2016-12-01T12:05:42Z</time>
      </trkpt>
      <trkpt lat="45.92361" lon="4.38859">
        <ele>710</ele>
        <time>2016-12-01T12:05:43Z</time>
      </trkpt>
      <trkpt lat="45.92355" lon="4.38868">
        <ele>710</ele>
        <time>2016-12-01T12:05:50Z</time>
      </trkpt>
      <trkpt lat="45.92354" lon="4.38869">
        <ele>710</ele>
        <time>2016-12-01T12:05:51Z</time>
      </trkpt>
      <trkpt lat="45.92347" lon="4.38876">
        <ele>711</ele>
        <time>2016-12-01T12:05:58Z</time>
      </trkpt>
      <trkpt lat="45.92346" lon="4.38877">
        <ele>711</ele>
        <time>2016-12-01T12:05:59Z</time>
      </trkpt>
      <trkpt lat="45.9234" lon="4.38884">
        <ele>712</ele>
        <time>2016-12-01T12:06:04Z</time>
      </trkpt>
      <trkpt lat="45.92339" lon="4.38886">
        <ele>712</ele>
        <time>2016-12-01T12:06:05Z</time>
      </trkpt>
      <trkpt lat="45.92332" lon="4.38892">
        <ele>700</ele>
        <time>2016-12-01T12:06:10Z</time>
      </trkpt>
      <trkpt lat="45.92331" lon="4.38894">
        <ele>700</ele>
        <time>2016-12-01T12:06:11Z</time>
      </trkpt>
      <trkpt lat="45.92325" lon="4.38901">
        <ele>702</ele>
        <time>2016-12-01T12:06:16Z</time>
      </trkpt>
      <trkpt lat="45.92324" lon="4.38902">
        <ele>702</ele>
        <time>2016-12-01T12:06:17Z</time>
      </trkpt>
      <trkpt lat="45.92317" lon="4.3891">
        <ele>702</ele>
        <time>2016-12-01T12:06:23Z</time>
      </trkpt>
      <trkpt lat="45.92316" lon="4.38912">
        <ele>702</ele>
        <time>2016-12-01T12:06:24Z</time>
      </trkpt>
      <trkpt lat="45.9231" lon="4.38921">
        <ele>709</ele>
        <time>2016-12-01T12:06:32Z</time>
      </trkpt>
      <trkpt lat="45.92309" lon="4.38922">
        <ele>709</ele>
        <time>2016-12-01T12:06:33Z</time>
      </trkpt>
      <trkpt lat="45.92302" lon="4.38929">
        <ele>709</ele>
        <time>2016-12-01T12:06:41Z</time>
      </trkpt>
      <trkpt lat="45.92302" lon="4.3893">
        <ele>708</ele>
        <time>2016-12-01T12:06:42Z</time>
      </trkpt>
      <trkpt lat="45.923" lon="4.38942">
        <ele>709</ele>
        <time>2016-12-01T12:06:50Z</time>
      </trkpt>
      <trkpt lat="45.92299" lon="4.38943">
        <ele>709</ele>
        <time>2016-12-01T12:06:51Z</time>
      </trkpt>
      <trkpt lat="45.92298" lon="4.38955">
        <ele>710</ele>
        <time>2016-12-01T12:06:59Z</time>
      </trkpt>
      <trkpt lat="45.92298" lon="4.38956">
        <ele>710</ele>
        <time>2016-12-01T12:07:00Z</time>
      </trkpt>
      <trkpt lat="45.92294" lon="4.38966">
        <ele>710</ele>
        <time>2016-12-01T12:07:07Z</time>
      </trkpt>
      <trkpt lat="45.92294" lon="4.38968">
        <ele>711</ele>
        <time>2016-12-01T12:07:08Z</time>
      </trkpt>
      <trkpt lat="45.92292" lon="4.3898">
        <ele>711</ele>
        <time>2016-12-01T12:07:15Z</time>
      </trkpt>
      <trkpt lat="45.92291" lon="4.38982">
        <ele>711</ele>
        <time>2016-12-01T12:07:16Z</time>
      </trkpt>
      <trkpt lat="45.9229" lon="4.38993">
        <ele>712</ele>
        <time>2016-12-01T12:07:22Z</time>
      </trkpt>
      <trkpt lat="45.9229" lon="4.38995">
        <ele>712</ele>
        <time>2016-12-01T12:07:23Z</time>
      </trkpt>
      <trkpt lat="45.92288" lon="4.39005">
        <ele>721</ele>
        <time>2016-12-01T12:07:28Z</time>
      </trkpt>
      <trkpt lat="45.92288" lon="4.39008">
        <ele>721</ele>
        <time>2016-12-01T12:07:29Z</time>
      </trkpt>
      <trkpt lat="45.92287" lon="4.3902">
        <ele>721</ele>
        <time>2016-12-01T12:07:36Z</time>
      </trkpt>
      <trkpt lat="45.92287" lon="4.39021">
        <ele>721</ele>
        <time>2016-12-01T12:07:37Z</time>
      </trkpt>
      <trkpt lat="45.92286" lon="4.39033">
        <ele>722</ele>
        <time>2016-12-01T12:07:46Z</time>
      </trkpt>
      <trkpt lat="45.92286" lon="4.39035">
        <ele>722</ele>
        <time>2016-12-01T12:07:47Z</time>
      </trkpt>
      <trkpt lat="45.92281" lon="4.39045">
        <ele>722</ele>
        <time>2016-12-01T12:07:55Z</time>
      </trkpt>
      <trkpt lat="45.9228" lon="4.39046">
        <ele>722</ele>
        <time>2016-12-01T12:07:56Z</time>
      </trkpt>
      <trkpt lat="45.92279" lon="4.39059">
        <ele>722</ele>
        <time>2016-12-01T12:08:05Z</time>
      </trkpt>
      <trkpt lat="45.92278" lon="4.3906">
        <ele>722</ele>
        <time>2016-12-01T12:08:06Z</time>
      </trkpt>
      <trkpt lat="45.92274" lon="4.3907">
        <ele>722</ele>
        <time>2016-12-01T12:08:13Z</time>
      </trkpt>
      <trkpt lat="45.92273" lon="4.39072">
        <ele>722</ele>
        <time>2016-12-01T12:08:14Z</time>
      </trkpt>
      <trkpt lat="45.9227" lon="4.39082">
        <ele>721</ele>
        <time>2016-12-01T12:08:21Z</time>
      </trkpt>
      <trkpt lat="45.92269" lon="4.39084">
        <ele>725</ele>
        <time>2016-12-01T12:08:22Z</time>
      </trkpt>
      <trkpt lat="45.92263" lon="4.39092">
        <ele>724</ele>
        <time>2016-12-01T12:08:30Z</time>
      </trkpt>
      <trkpt lat="45.92263" lon="4.39093">
        <ele>724</ele>
        <time>2016-12-01T12:08:31Z</time>
      </trkpt>
      <trkpt lat="45.92261" lon="4.39104">
        <ele>725</ele>
        <time>2016-12-01T12:08:40Z</time>
      </trkpt>
      <trkpt lat="45.9226" lon="4.39105">
        <ele>725</ele>
        <time>2016-12-01T12:08:41Z</time>
      </trkpt>
      <trkpt lat="45.92257" lon="4.39117">
        <ele>727</ele>
        <time>2016-12-01T12:08:50Z</time>
      </trkpt>
      <trkpt lat="45.92257" lon="4.39118">
        <ele>727</ele>
        <time>2016-12-01T12:08:51Z</time>
      </trkpt>
      <trkpt lat="45.92252" lon="4.39129">
        <ele>727</ele>
        <time>2016-12-01T12:09:01Z</time>
      </trkpt>
      <trkpt lat="45.92252" lon="4.3913">
        <ele>727</ele>
        <time>2016-12-01T12:09:02Z</time>
      </trkpt>
      <trkpt lat="45.9225" lon="4.39142">
        <ele>727</ele>
        <time>2016-12-01T12:09:11Z</time>
      </trkpt>
      <trkpt lat="45.9225" lon="4.39143">
        <ele>722</ele>
        <time>2016-12-01T12:09:12Z</time>
      </trkpt>
      <trkpt lat="45.92244" lon="4.39151">
        <ele>723</ele>
        <time>2016-12-01T12:09:20Z</time>
      </trkpt>
      <trkpt lat="45.92243" lon="4.39153">
        <ele>723</ele>
        <time>2016-12-01T12:09:21Z</time>
      </trkpt>
      <trkpt lat="45.92237" lon="4.39161">
        <ele>723</ele>
        <time>2016-12-01T12:09:28Z</time>
      </trkpt>
      <trkpt lat="45.92236" lon="4.39162">
        <ele>723</ele>
        <time>2016-12-01T12:09:29Z</time>
      </trkpt>
      <trkpt lat="45.92229" lon="4.39169">
        <ele>726</ele>
        <time>2016-12-01T12:09:35Z</time>
      </trkpt>
      <trkpt lat="45.92227" lon="4.3917">
        <ele>726</ele>
        <time>2016-12-01T12:09:36Z</time>
      </trkpt>
      <trkpt lat="45.92219" lon="4.39173">
        <ele>726</ele>
        <time>2016-12-01T12:09:42Z</time>
      </trkpt>
      <trkpt lat="45.92218" lon="4.39173">
        <ele>726</ele>
        <time>2016-12-01T12:09:43Z</time>
      </trkpt>
      <trkpt lat="45.92209" lon="4.39175">
        <ele>726</ele>
        <time>2016-12-01T12:09:49Z</time>
      </trkpt>
      <trkpt lat="45.92208" lon="4.39175">
        <ele>726</ele>
        <time>2016-12-01T12:09:50Z</time>
      </trkpt>
      <trkpt lat="45.922" lon="4.39177">
        <ele>726</ele>
        <time>2016-12-01T12:09:55Z</time>
      </trkpt>
      <trkpt lat="45.92199" lon="4.39177">
        <ele>726</ele>
        <time>2016-12-01T12:09:56Z</time>
      </trkpt>
      <trkpt lat="45.92191" lon="4.39182">
        <ele>725</ele>
        <time>2016-12-01T12:10:02Z</time>
      </trkpt>
      <trkpt lat="45.9219" lon="4.39183">
        <ele>725</ele>
        <time>2016-12-01T12:10:03Z</time>
      </trkpt>
      <trkpt lat="45.92183" lon="4.39191">
        <ele>726</ele>
        <time>2016-12-01T12:10:10Z</time>
      </trkpt>
      <trkpt lat="45.92183" lon="4.39192">
        <ele>726</ele>
        <time>2016-12-01T12:10:11Z</time>
      </trkpt>
      <trkpt lat="45.9218" lon="4.39202">
        <ele>726</ele>
        <time>2016-12-01T12:10:19Z</time>
      </trkpt>
      <trkpt lat="45.9218" lon="4.39204">
        <ele>726</ele>
        <time>2016-12-01T12:10:20Z</time>
      </trkpt>
      <trkpt lat="45.92181" lon="4.39216">
        <ele>726</ele>
        <time>2016-12-01T12:10:29Z</time>
      </trkpt>
      <trkpt lat="45.92181" lon="4.39218">
        <ele>727</ele>
        <time>2016-12-01T12:10:30Z</time>
      </trkpt>
      <trkpt lat="45.92181" lon="4.39231">
        <ele>727</ele>
        <time>2016-12-01T12:10:38Z</time>
      </trkpt>
      <trkpt lat="45.92181" lon="4.39232">
        <ele>727</ele>
        <time>2016-12-01T12:10:39Z</time>
      </trkpt>
      <trkpt lat="45.92184" lon="4.39243">
        <ele>727</ele>
        <time>2016-12-01T12:10:47Z</time>
      </trkpt>
      <trkpt lat="45.92185" lon="4.39244">
        <ele>727</ele>
        <time>2016-12-01T12:10:48Z</time>
      </trkpt>
      <trkpt lat="45.92182" lon="4.39256">
        <ele>728</ele>
        <time>2016-12-01T12:11:46Z</time>
      </trkpt>
      <trkpt lat="45.92182" lon="4.39257">
        <ele>728</ele>
        <time>2016-12-01T12:11:47Z</time>
      </trkpt>
      <trkpt lat="45.92174" lon="4.39263">
        <ele>728</ele>
        <time>2016-12-01T12:11:56Z</time>
      </trkpt>
      <trkpt lat="45.92173" lon="4.39263">
        <ele>728</ele>
        <time>2016-12-01T12:11:57Z</time>
      </trkpt>
      <trkpt lat="45.92167" lon="4.39272">
        <ele>728</ele>
        <time>2016-12-01T12:12:05Z</time>
      </trkpt>
      <trkpt lat="45.92166" lon="4.39273">
        <ele>729</ele>
        <time>2016-12-01T12:12:06Z</time>
      </trkpt>
      <trkpt lat="45.9216" lon="4.39283">
        <ele>729</ele>
        <time>2016-12-01T12:12:14Z</time>
      </trkpt>
      <trkpt lat="45.9216" lon="4.39284">
        <ele>729</ele>
        <time>2016-12-01T12:12:15Z</time>
      </trkpt>
      <trkpt lat="45.92154" lon="4.39293">
        <ele>729</ele>
        <time>2016-12-01T12:12:22Z</time>
      </trkpt>
      <trkpt lat="45.92153" lon="4.39294">
        <ele>729</ele>
        <time>2016-12-01T12:12:23Z</time>
      </trkpt>
      <trkpt lat="45.92149" lon="4.39303">
        <ele>729</ele>
        <time>2016-12-01T12:12:30Z</time>
      </trkpt>
      <trkpt lat="45.92148" lon="4.39304">
        <ele>729</ele>
        <time>2016-12-01T12:12:31Z</time>
      </trkpt>
      <trkpt lat="45.92144" lon="4.39314">
        <ele>729</ele>
        <time>2016-12-01T12:12:38Z</time>
      </trkpt>
      <trkpt lat="45.92143" lon="4.39315">
        <ele>729</ele>
        <time>2016-12-01T12:12:39Z</time>
      </trkpt>
      <trkpt lat="45.92136" lon="4.39323">
        <ele>729</ele>
        <time>2016-12-01T12:12:48Z</time>
      </trkpt>
      <trkpt lat="45.92135" lon="4.39324">
        <ele>729</ele>
        <time>2016-12-01T12:12:49Z</time>
      </trkpt>
      <trkpt lat="45.9213" lon="4.39334">
        <ele>728</ele>
        <time>2016-12-01T12:12:57Z</time>
      </trkpt>
      <trkpt lat="45.9213" lon="4.39336">
        <ele>728</ele>
        <time>2016-12-01T12:12:58Z</time>
      </trkpt>
      <trkpt lat="45.92124" lon="4.39344">
        <ele>729</ele>
        <time>2016-12-01T12:13:07Z</time>
      </trkpt>
      <trkpt lat="45.92123" lon="4.39345">
        <ele>729</ele>
        <time>2016-12-01T12:13:08Z</time>
      </trkpt>
      <trkpt lat="45.92117" lon="4.39354">
        <ele>729</ele>
        <time>2016-12-01T12:13:16Z</time>
      </trkpt>
      <trkpt lat="45.92116" lon="4.39356">
        <ele>729</ele>
        <time>2016-12-01T12:13:17Z</time>
      </trkpt>
      <trkpt lat="45.9211" lon="4.39363">
        <ele>729</ele>
        <time>2016-12-01T12:13:23Z</time>
      </trkpt>
      <trkpt lat="45.92108" lon="4.39364">
        <ele>729</ele>
        <time>2016-12-01T12:13:24Z</time>
      </trkpt>
      <trkpt lat="45.92103" lon="4.39373">
        <ele>729</ele>
        <time>2016-12-01T12:13:30Z</time>
      </trkpt>
      <trkpt lat="45.92102" lon="4.39375">
        <ele>729</ele>
        <time>2016-12-01T12:13:31Z</time>
      </trkpt>
      <trkpt lat="45.92097" lon="4.39385">
        <ele>730</ele>
        <time>2016-12-01T12:13:37Z</time>
      </trkpt>
      <trkpt lat="45.92096" lon="4.39386">
        <ele>730</ele>
        <time>2016-12-01T12:13:38Z</time>
      </trkpt>
      <trkpt lat="45.9209" lon="4.39395">
        <ele>730</ele>
        <time>2016-12-01T12:13:44Z</time>
      </trkpt>
      <trkpt lat="45.9209" lon="4.39397">
        <ele>731</ele>
        <time>2016-12-01T12:13:45Z</time>
      </trkpt>
      <trkpt lat="45.92085" lon="4.39406">
        <ele>732</ele>
        <time>2016-12-01T12:13:51Z</time>
      </trkpt>
      <trkpt lat="45.92085" lon="4.39408">
        <ele>732</ele>
        <time>2016-12-01T12:13:52Z</time>
      </trkpt>
      <trkpt lat="45.92081" lon="4.39418">
        <ele>733</ele>
        <time>2016-12-01T12:13:58Z</time>
      </trkpt>
      <trkpt lat="45.9208" lon="4.3942">
        <ele>733</ele>
        <time>2016-12-01T12:13:59Z</time>
      </trkpt>
      <trkpt lat="45.92074" lon="4.39429">
        <ele>731</ele>
        <time>2016-12-01T12:14:07Z</time>
      </trkpt>
      <trkpt lat="45.92073" lon="4.3943">
        <ele>731</ele>
        <time>2016-12-01T12:14:08Z</time>
      </trkpt>
      <trkpt lat="45.92065" lon="4.39435">
        <ele>730</ele>
        <time>2016-12-01T12:14:16Z</time>
      </trkpt>
      <trkpt lat="45.92065" lon="4.39436">
        <ele>729</ele>
        <time>2016-12-01T12:14:17Z</time>
      </trkpt>
      <trkpt lat="45.9206" lon="4.39446">
        <ele>728</ele>
        <time>2016-12-01T12:14:41Z</time>
      </trkpt>
      <trkpt lat="45.9206" lon="4.39447">
        <ele>728</ele>
        <time>2016-12-01T12:14:42Z</time>
      </trkpt>
      <trkpt lat="45.92052" lon="4.39455">
        <ele>728</ele>
        <time>2016-12-01T12:14:59Z</time>
      </trkpt>
      <trkpt lat="45.92051" lon="4.39456">
        <ele>728</ele>
        <time>2016-12-01T12:15:00Z</time>
      </trkpt>
      <trkpt lat="45.92045" lon="4.39463">
        <ele>727</ele>
        <time>2016-12-01T12:15:07Z</time>
      </trkpt>
      <trkpt lat="45.92044" lon="4.39464">
        <ele>727</ele>
        <time>2016-12-01T12:15:08Z</time>
      </trkpt>
      <trkpt lat="45.92036" lon="4.39468">
        <ele>727</ele>
        <time>2016-12-01T12:15:15Z</time>
      </trkpt>
      <trkpt lat="45.92035" lon="4.39468">
        <ele>727</ele>
        <time>2016-12-01T12:15:16Z</time>
      </trkpt>
      <trkpt lat="45.92027" lon="4.39473">
        <ele>727</ele>
        <time>2016-12-01T12:15:23Z</time>
      </trkpt>
      <trkpt lat="45.92026" lon="4.39473">
        <ele>727</ele>
        <time>2016-12-01T12:15:24Z</time>
      </trkpt>
      <trkpt lat="45.92021" lon="4.39483">
        <ele>726</ele>
        <time>2016-12-01T12:15:42Z</time>
      </trkpt>
      <trkpt lat="45.9202" lon="4.39484">
        <ele>726</ele>
        <time>2016-12-01T12:15:43Z</time>
      </trkpt>
      <trkpt lat="45.92013" lon="4.3949">
        <ele>726</ele>
        <time>2016-12-01T12:15:51Z</time>
      </trkpt>
      <trkpt lat="45.92012" lon="4.3949">
        <ele>726</ele>
        <time>2016-12-01T12:15:52Z</time>
      </trkpt>
      <trkpt lat="45.92004" lon="4.39494">
        <ele>726</ele>
        <time>2016-12-01T12:15:59Z</time>
      </trkpt>
      <trkpt lat="45.92003" lon="4.39495">
        <ele>725</ele>
        <time>2016-12-01T12:16:00Z</time>
      </trkpt>
      <trkpt lat="45.91996" lon="4.39502">
        <ele>723</ele>
        <time>2016-12-01T12:16:07Z</time>
      </trkpt>
      <trkpt lat="45.91995" lon="4.39503">
        <ele>722</ele>
        <time>2016-12-01T12:16:08Z</time>
      </trkpt>
      <trkpt lat="45.91987" lon="4.39507">
        <ele>720</ele>
        <time>2016-12-01T12:16:15Z</time>
      </trkpt>
      <trkpt lat="45.91986" lon="4.39508">
        <ele>719</ele>
        <time>2016-12-01T12:16:16Z</time>
      </trkpt>
      <trkpt lat="45.91978" lon="4.39513">
        <ele>717</ele>
        <time>2016-12-01T12:16:24Z</time>
      </trkpt>
      <trkpt lat="45.91977" lon="4.39514">
        <ele>717</ele>
        <time>2016-12-01T12:16:25Z</time>
      </trkpt>
      <trkpt lat="45.91969" lon="4.39519">
        <ele>715</ele>
        <time>2016-12-01T12:16:32Z</time>
      </trkpt>
      <trkpt lat="45.91968" lon="4.3952">
        <ele>715</ele>
        <time>2016-12-01T12:16:33Z</time>
      </trkpt>
      <trkpt lat="45.9196" lon="4.39525">
        <ele>714</ele>
        <time>2016-12-01T12:16:39Z</time>
      </trkpt>
      <trkpt lat="45.91959" lon="4.39526">
        <ele>714</ele>
        <time>2016-12-01T12:16:40Z</time>
      </trkpt>
      <trkpt lat="45.91952" lon="4.39531">
        <ele>713</ele>
        <time>2016-12-01T12:16:46Z</time>
      </trkpt>
      <trkpt lat="45.91951" lon="4.39532">
        <ele>713</ele>
        <time>2016-12-01T12:16:47Z</time>
      </trkpt>
      <trkpt lat="45.91943" lon="4.39537">
        <ele>712</ele>
        <time>2016-12-01T12:16:54Z</time>
      </trkpt>
      <trkpt lat="45.91942" lon="4.39538">
        <ele>712</ele>
        <time>2016-12-01T12:16:55Z</time>
      </trkpt>
      <trkpt lat="45.91935" lon="4.39544">
        <ele>711</ele>
        <time>2016-12-01T12:17:02Z</time>
      </trkpt>
      <trkpt lat="45.91934" lon="4.39545">
        <ele>711</ele>
        <time>2016-12-01T12:17:03Z</time>
      </trkpt>
      <trkpt lat="45.91926" lon="4.39548">
        <ele>711</ele>
        <time>2016-12-01T12:17:10Z</time>
      </trkpt>
      <trkpt lat="45.91924" lon="4.39549">
        <ele>711</ele>
        <time>2016-12-01T12:17:11Z</time>
      </trkpt>
      <trkpt lat="45.91916" lon="4.39553">
        <ele>702</ele>
        <time>2016-12-01T12:17:17Z</time>
      </trkpt>
      <trkpt lat="45.91915" lon="4.39554">
        <ele>702</ele>
        <time>2016-12-01T12:17:18Z</time>
      </trkpt>
      <trkpt lat="45.91907" lon="4.39557">
        <ele>701</ele>
        <time>2016-12-01T12:17:24Z</time>
      </trkpt>
      <trkpt lat="45.91906" lon="4.39558">
        <ele>701</ele>
        <time>2016-12-01T12:17:25Z</time>
      </trkpt>
      <trkpt lat="45.91898" lon="4.3956">
        <ele>701</ele>
        <time>2016-12-01T12:17:33Z</time>
      </trkpt>
      <trkpt lat="45.91897" lon="4.39561">
        <ele>701</ele>
        <time>2016-12-01T12:17:34Z</time>
      </trkpt>
      <trkpt lat="45.91888" lon="4.39566">
        <ele>700</ele>
        <time>2016-12-01T12:17:41Z</time>
      </trkpt>
      <trkpt lat="45.91887" lon="4.39567">
        <ele>700</ele>
        <time>2016-12-01T12:17:42Z</time>
      </trkpt>
      <trkpt lat="45.91879" lon="4.39572">
        <ele>699</ele>
        <time>2016-12-01T12:17:50Z</time>
      </trkpt>
      <trkpt lat="45.91878" lon="4.39572">
        <ele>699</ele>
        <time>2016-12-01T12:17:51Z</time>
      </trkpt>
      <trkpt lat="45.91871" lon="4.39577">
        <ele>699</ele>
        <time>2016-12-01T12:17:58Z</time>
      </trkpt>
      <trkpt lat="45.9187" lon="4.39578">
        <ele>698</ele>
        <time>2016-12-01T12:17:59Z</time>
      </trkpt>
      <trkpt lat="45.91861" lon="4.39579">
        <ele>698</ele>
        <time>2016-12-01T12:18:08Z</time>
      </trkpt>
      <trkpt lat="45.9186" lon="4.39579">
        <ele>697</ele>
        <time>2016-12-01T12:18:09Z</time>
      </trkpt>
      <trkpt lat="45.91852" lon="4.39583">
        <ele>697</ele>
        <time>2016-12-01T12:18:18Z</time>
      </trkpt>
      <trkpt lat="45.91851" lon="4.39584">
        <ele>695</ele>
        <time>2016-12-01T12:18:19Z</time>
      </trkpt>
      <trkpt lat="45.91843" lon="4.39588">
        <ele>694</ele>
        <time>2016-12-01T12:18:27Z</time>
      </trkpt>
      <trkpt lat="45.91842" lon="4.39589">
        <ele>694</ele>
        <time>2016-12-01T12:18:28Z</time>
      </trkpt>
      <trkpt lat="45.91834" lon="4.39593">
        <ele>694</ele>
        <time>2016-12-01T12:18:36Z</time>
      </trkpt>
      <trkpt lat="45.91834" lon="4.39594">
        <ele>694</ele>
        <time>2016-12-01T12:18:37Z</time>
      </trkpt>
      <trkpt lat="45.91826" lon="4.396">
        <ele>689</ele>
        <time>2016-12-01T12:18:45Z</time>
      </trkpt>
      <trkpt lat="45.91825" lon="4.396">
        <ele>688</ele>
        <time>2016-12-01T12:18:46Z</time>
      </trkpt>
      <trkpt lat="45.91818" lon="4.39606">
        <ele>687</ele>
        <time>2016-12-01T12:18:53Z</time>
      </trkpt>
      <trkpt lat="45.91817" lon="4.39607">
        <ele>687</ele>
        <time>2016-12-01T12:18:54Z</time>
      </trkpt>
      <trkpt lat="45.9181" lon="4.39614">
        <ele>685</ele>
        <time>2016-12-01T12:19:01Z</time>
      </trkpt>
      <trkpt lat="45.91809" lon="4.39615">
        <ele>685</ele>
        <time>2016-12-01T12:19:02Z</time>
      </trkpt>
      <trkpt lat="45.91802" lon="4.39621">
        <ele>684</ele>
        <time>2016-12-01T12:19:10Z</time>
      </trkpt>
      <trkpt lat="45.91801" lon="4.39621">
        <ele>684</ele>
        <time>2016-12-01T12:19:11Z</time>
      </trkpt>
      <trkpt lat="45.91792" lon="4.39623">
        <ele>684</ele>
        <time>2016-12-01T12:19:18Z</time>
      </trkpt>
      <trkpt lat="45.91791" lon="4.39623">
        <ele>684</ele>
        <time>2016-12-01T12:19:19Z</time>
      </trkpt>
      <trkpt lat="45.91782" lon="4.39625">
        <ele>683</ele>
        <time>2016-12-01T12:19:26Z</time>
      </trkpt>
      <trkpt lat="45.91781" lon="4.39625">
        <ele>683</ele>
        <time>2016-12-01T12:19:27Z</time>
      </trkpt>
      <trkpt lat="45.91773" lon="4.3963">
        <ele>682</ele>
        <time>2016-12-01T12:19:35Z</time>
      </trkpt>
      <trkpt lat="45.91772" lon="4.39631">
        <ele>682</ele>
        <time>2016-12-01T12:19:36Z</time>
      </trkpt>
      <trkpt lat="45.91765" lon="4.39638">
        <ele>682</ele>
        <time>2016-12-01T12:19:43Z</time>
      </trkpt>
      <trkpt lat="45.91764" lon="4.39639">
        <ele>682</ele>
        <time>2016-12-01T12:19:44Z</time>
      </trkpt>
      <trkpt lat="45.91758" lon="4.39647">
        <ele>681</ele>
        <time>2016-12-01T12:19:51Z</time>
      </trkpt>
      <trkpt lat="45.91757" lon="4.39648">
        <ele>681</ele>
        <time>2016-12-01T12:19:52Z</time>
      </trkpt>
      <trkpt lat="45.91749" lon="4.39652">
        <ele>676</ele>
        <time>2016-12-01T12:20:00Z</time>
      </trkpt>
      <trkpt lat="45.91748" lon="4.39652">
        <ele>676</ele>
        <time>2016-12-01T12:20:01Z</time>
      </trkpt>
      <trkpt lat="45.9174" lon="4.39648">
        <ele>676</ele>
        <time>2016-12-01T12:20:09Z</time>
      </trkpt>
      <trkpt lat="45.91739" lon="4.39647">
        <ele>676</ele>
        <time>2016-12-01T12:20:10Z</time>
      </trkpt>
      <trkpt lat="45.91735" lon="4.39636">
        <ele>675</ele>
        <time>2016-12-01T12:20:17Z</time>
      </trkpt>
      <trkpt lat="45.91734" lon="4.39634">
        <ele>675</ele>
        <time>2016-12-01T12:20:18Z</time>
      </trkpt>
      <trkpt lat="45.9173" lon="4.39624">
        <ele>675</ele>
        <time>2016-12-01T12:20:26Z</time>
      </trkpt>
      <trkpt lat="45.91729" lon="4.39623">
        <ele>675</ele>
        <time>2016-12-01T12:20:27Z</time>
      </trkpt>
      <trkpt lat="45.91721" lon="4.39624">
        <ele>674</ele>
        <time>2016-12-01T12:23:28Z</time>
      </trkpt>
      <trkpt lat="45.9172" lon="4.39625">
        <ele>674</ele>
        <time>2016-12-01T12:23:29Z</time>
      </trkpt>
      <trkpt lat="45.91713" lon="4.39632">
        <ele>674</ele>
        <time>2016-12-01T12:23:37Z</time>
      </trkpt>
      <trkpt lat="45.91713" lon="4.39633">
        <ele>674</ele>
        <time>2016-12-01T12:23:38Z</time>
      </trkpt>
      <trkpt lat="45.91707" lon="4.39642">
        <ele>674</ele>
        <time>2016-12-01T12:23:44Z</time>
      </trkpt>
      <trkpt lat="45.91706" lon="4.39644">
        <ele>674</ele>
        <time>2016-12-01T12:23:45Z</time>
      </trkpt>
      <trkpt lat="45.91701" lon="4.39653">
        <ele>674</ele>
        <time>2016-12-01T12:23:52Z</time>
      </trkpt>
      <trkpt lat="45.917" lon="4.39654">
        <ele>674</ele>
        <time>2016-12-01T12:23:53Z</time>
      </trkpt>
      <trkpt lat="45.91695" lon="4.39665">
        <ele>674</ele>
        <time>2016-12-01T12:24:00Z</time>
      </trkpt>
      <trkpt lat="45.91695" lon="4.39666">
        <ele>674</ele>
        <time>2016-12-01T12:24:01Z</time>
      </trkpt>
      <trkpt lat="45.9169" lon="4.39677">
        <ele>673</ele>
        <time>2016-12-01T12:24:08Z</time>
      </trkpt>
      <trkpt lat="45.9169" lon="4.39678">
        <ele>673</ele>
        <time>2016-12-01T12:24:09Z</time>
      </trkpt>
      <trkpt lat="45.91685" lon="4.39689">
        <ele>673</ele>
        <time>2016-12-01T12:24:16Z</time>
      </trkpt>
      <trkpt lat="45.91684" lon="4.39691">
        <ele>673</ele>
        <time>2016-12-01T12:24:17Z</time>
      </trkpt>
      <trkpt lat="45.91679" lon="4.39701">
        <ele>672</ele>
        <time>2016-12-01T12:24:23Z</time>
      </trkpt>
      <trkpt lat="45.91678" lon="4.39702">
        <ele>672</ele>
        <time>2016-12-01T12:24:24Z</time>
      </trkpt>
      <trkpt lat="45.91674" lon="4.39712">
        <ele>672</ele>
        <time>2016-12-01T12:24:30Z</time>
      </trkpt>
      <trkpt lat="45.91673" lon="4.39713">
        <ele>672</ele>
        <time>2016-12-01T12:24:31Z</time>
      </trkpt>
      <trkpt lat="45.91668" lon="4.39723">
        <ele>672</ele>
        <time>2016-12-01T12:24:37Z</time>
      </trkpt>
      <trkpt lat="45.91668" lon="4.39725">
        <ele>672</ele>
        <time>2016-12-01T12:24:38Z</time>
      </trkpt>
      <trkpt lat="45.91664" lon="4.39736">
        <ele>674</ele>
        <time>2016-12-01T12:24:45Z</time>
      </trkpt>
      <trkpt lat="45.91664" lon="4.39738">
        <ele>674</ele>
        <time>2016-12-01T12:24:46Z</time>
      </trkpt>
      <trkpt lat="45.9166" lon="4.39748">
        <ele>673</ele>
        <time>2016-12-01T12:24:52Z</time>
      </trkpt>
      <trkpt lat="45.9166" lon="4.39749">
        <ele>673</ele>
        <time>2016-12-01T12:24:53Z</time>
      </trkpt>
      <trkpt lat="45.91655" lon="4.39759">
        <ele>674</ele>
        <time>2016-12-01T12:24:59Z</time>
      </trkpt>
      <trkpt lat="45.91655" lon="4.39761">
        <ele>674</ele>
        <time>2016-12-01T12:25:00Z</time>
      </trkpt>
      <trkpt lat="45.9165" lon="4.3977">
        <ele>674</ele>
        <time>2016-12-01T12:25:06Z</time>
      </trkpt>
      <trkpt lat="45.91649" lon="4.39771">
        <ele>674</ele>
        <time>2016-12-01T12:25:07Z</time>
      </trkpt>
      <trkpt lat="45.91643" lon="4.39781">
        <ele>674</ele>
        <time>2016-12-01T12:25:13Z</time>
      </trkpt>
      <trkpt lat="45.91642" lon="4.39783">
        <ele>675</ele>
        <time>2016-12-01T12:25:14Z</time>
      </trkpt>
      <trkpt lat="45.91636" lon="4.3979">
        <ele>675</ele>
        <time>2016-12-01T12:25:20Z</time>
      </trkpt>
      <trkpt lat="45.91635" lon="4.39792">
        <ele>675</ele>
        <time>2016-12-01T12:25:21Z</time>
      </trkpt>
      <trkpt lat="45.91629" lon="4.39799">
        <ele>675</ele>
        <time>2016-12-01T12:25:28Z</time>
      </trkpt>
      <trkpt lat="45.91628" lon="4.398">
        <ele>675</ele>
        <time>2016-12-01T12:25:29Z</time>
      </trkpt>
      <trkpt lat="45.9162" lon="4.39806">
        <ele>676</ele>
        <time>2016-12-01T12:25:36Z</time>
      </trkpt>
      <trkpt lat="45.91619" lon="4.39807">
        <ele>676</ele>
        <time>2016-12-01T12:25:37Z</time>
      </trkpt>
      <trkpt lat="45.91612" lon="4.39813">
        <ele>677</ele>
        <time>2016-12-01T12:25:44Z</time>
      </trkpt>
      <trkpt lat="45.91611" lon="4.39814">
        <ele>677</ele>
        <time>2016-12-01T12:25:45Z</time>
      </trkpt>
      <trkpt lat="45.91603" lon="4.39821">
        <ele>678</ele>
        <time>2016-12-01T12:25:53Z</time>
      </trkpt>
      <trkpt lat="45.91602" lon="4.39822">
        <ele>678</ele>
        <time>2016-12-01T12:25:54Z</time>
      </trkpt>
      <trkpt lat="45.91595" lon="4.39825">
        <ele>679</ele>
        <time>2016-12-01T12:26:00Z</time>
      </trkpt>
      <trkpt lat="45.91593" lon="4.39826">
        <ele>679</ele>
        <time>2016-12-01T12:26:01Z</time>
      </trkpt>
      <trkpt lat="45.91585" lon="4.39831">
        <ele>681</ele>
        <time>2016-12-01T12:26:09Z</time>
      </trkpt>
      <trkpt lat="45.91585" lon="4.39832">
        <ele>681</ele>
        <time>2016-12-01T12:26:10Z</time>
      </trkpt>
      <trkpt lat="45.91579" lon="4.3984">
        <ele>681</ele>
        <time>2016-12-01T12:26:18Z</time>
      </trkpt>
      <trkpt lat="45.91578" lon="4.39841">
        <ele>681</ele>
        <time>2016-12-01T12:26:19Z</time>
      </trkpt>
      <trkpt lat="45.91571" lon="4.39846">
        <ele>681</ele>
        <time>2016-12-01T12:26:26Z</time>
      </trkpt>
      <trkpt lat="45.9157" lon="4.39847">
        <ele>681</ele>
        <time>2016-12-01T12:26:27Z</time>
      </trkpt>
      <trkpt lat="45.91562" lon="4.39852">
        <ele>681</ele>
        <time>2016-12-01T12:26:33Z</time>
      </trkpt>
      <trkpt lat="45.9156" lon="4.39852">
        <ele>681</ele>
        <time>2016-12-01T12:26:34Z</time>
      </trkpt>
      <trkpt lat="45.91552" lon="4.39855">
        <ele>681</ele>
        <time>2016-12-01T12:26:40Z</time>
      </trkpt>
      <trkpt lat="45.9155" lon="4.39855">
        <ele>681</ele>
        <time>2016-12-01T12:26:41Z</time>
      </trkpt>
      <trkpt lat="45.91543" lon="4.3986">
        <ele>681</ele>
        <time>2016-12-01T12:26:48Z</time>
      </trkpt>
      <trkpt lat="45.91542" lon="4.3986">
        <ele>682</ele>
        <time>2016-12-01T12:26:49Z</time>
      </trkpt>
      <trkpt lat="45.91534" lon="4.39864">
        <ele>682</ele>
        <time>2016-12-01T12:26:57Z</time>
      </trkpt>
      <trkpt lat="45.91533" lon="4.39864">
        <ele>682</ele>
        <time>2016-12-01T12:26:58Z</time>
      </trkpt>
      <trkpt lat="45.91525" lon="4.39869">
        <ele>682</ele>
        <time>2016-12-01T12:27:06Z</time>
      </trkpt>
      <trkpt lat="45.91524" lon="4.3987">
        <ele>682</ele>
        <time>2016-12-01T12:27:07Z</time>
      </trkpt>
      <trkpt lat="45.91516" lon="4.39874">
        <ele>682</ele>
        <time>2016-12-01T12:27:14Z</time>
      </trkpt>
      <trkpt lat="45.91515" lon="4.39875">
        <ele>682</ele>
        <time>2016-12-01T12:27:15Z</time>
      </trkpt>
      <trkpt lat="45.91507" lon="4.39878">
        <ele>682</ele>
        <time>2016-12-01T12:27:22Z</time>
      </trkpt>
      <trkpt lat="45.91506" lon="4.39879">
        <ele>682</ele>
        <time>2016-12-01T12:27:23Z</time>
      </trkpt>
      <trkpt lat="45.91498" lon="4.39882">
        <ele>686</ele>
        <time>2016-12-01T12:27:30Z</time>
      </trkpt>
      <trkpt lat="45.91496" lon="4.39883">
        <ele>686</ele>
        <time>2016-12-01T12:27:31Z</time>
      </trkpt>
      <trkpt lat="45.91489" lon="4.39885">
        <ele>686</ele>
        <time>2016-12-01T12:27:37Z</time>
      </trkpt>
      <trkpt lat="45.91487" lon="4.39886">
        <ele>686</ele>
        <time>2016-12-01T12:27:38Z</time>
      </trkpt>
      <trkpt lat="45.9148" lon="4.39891">
        <ele>686</ele>
        <time>2016-12-01T12:27:44Z</time>
      </trkpt>
      <trkpt lat="45.91478" lon="4.39892">
        <ele>686</ele>
        <time>2016-12-01T12:27:45Z</time>
      </trkpt>
      <trkpt lat="45.91471" lon="4.39896">
        <ele>686</ele>
        <time>2016-12-01T12:27:50Z</time>
      </trkpt>
      <trkpt lat="45.9147" lon="4.39897">
        <ele>686</ele>
        <time>2016-12-01T12:27:51Z</time>
      </trkpt>
      <trkpt lat="45.91463" lon="4.39902">
        <ele>687</ele>
        <time>2016-12-01T12:27:57Z</time>
      </trkpt>
      <trkpt lat="45.91462" lon="4.39903">
        <ele>687</ele>
        <time>2016-12-01T12:27:58Z</time>
      </trkpt>
      <trkpt lat="45.91455" lon="4.3991">
        <ele>687</ele>
        <time>2016-12-01T12:28:06Z</time>
      </trkpt>
      <trkpt lat="45.91454" lon="4.39911">
        <ele>687</ele>
        <time>2016-12-01T12:28:07Z</time>
      </trkpt>
      <trkpt lat="45.91447" lon="4.39917">
        <ele>687</ele>
        <time>2016-12-01T12:28:14Z</time>
      </trkpt>
      <trkpt lat="45.91445" lon="4.39917">
        <ele>684</ele>
        <time>2016-12-01T12:28:15Z</time>
      </trkpt>
      <trkpt lat="45.91438" lon="4.39923">
        <ele>685</ele>
        <time>2016-12-01T12:28:23Z</time>
      </trkpt>
      <trkpt lat="45.91437" lon="4.39923">
        <ele>685</ele>
        <time>2016-12-01T12:28:24Z</time>
      </trkpt>
      <trkpt lat="45.91429" lon="4.39927">
        <ele>685</ele>
        <time>2016-12-01T12:28:31Z</time>
      </trkpt>
      <trkpt lat="45.91427" lon="4.39928">
        <ele>686</ele>
        <time>2016-12-01T12:28:32Z</time>
      </trkpt>
      <trkpt lat="45.9142" lon="4.39931">
        <ele>686</ele>
        <time>2016-12-01T12:28:38Z</time>
      </trkpt>
      <trkpt lat="45.91418" lon="4.39932">
        <ele>686</ele>
        <time>2016-12-01T12:28:39Z</time>
      </trkpt>
      <trkpt lat="45.91411" lon="4.39936">
        <ele>687</ele>
        <time>2016-12-01T12:28:45Z</time>
      </trkpt>
      <trkpt lat="45.9141" lon="4.39937">
        <ele>687</ele>
        <time>2016-12-01T12:28:46Z</time>
      </trkpt>
      <trkpt lat="45.91403" lon="4.39946">
        <ele>687</ele>
        <time>2016-12-01T12:28:53Z</time>
      </trkpt>
      <trkpt lat="45.91402" lon="4.39947">
        <ele>687</ele>
        <time>2016-12-01T12:28:54Z</time>
      </trkpt>
      <trkpt lat="45.91396" lon="4.39956">
        <ele>687</ele>
        <time>2016-12-01T12:29:01Z</time>
      </trkpt>
      <trkpt lat="45.91395" lon="4.39957">
        <ele>687</ele>
        <time>2016-12-01T12:29:02Z</time>
      </trkpt>
      <trkpt lat="45.91389" lon="4.39967">
        <ele>686</ele>
        <time>2016-12-01T12:29:09Z</time>
      </trkpt>
      <trkpt lat="45.91388" lon="4.39968">
        <ele>686</ele>
        <time>2016-12-01T12:29:10Z</time>
      </trkpt>
      <trkpt lat="45.91382" lon="4.39977">
        <ele>687</ele>
        <time>2016-12-01T12:29:17Z</time>
      </trkpt>
      <trkpt lat="45.91382" lon="4.39979">
        <ele>687</ele>
        <time>2016-12-01T12:29:18Z</time>
      </trkpt>
      <trkpt lat="45.91378" lon="4.3999">
        <ele>687</ele>
        <time>2016-12-01T12:29:26Z</time>
      </trkpt>
      <trkpt lat="45.91378" lon="4.39992">
        <ele>687</ele>
        <time>2016-12-01T12:29:27Z</time>
      </trkpt>
      <trkpt lat="45.91375" lon="4.40003">
        <ele>688</ele>
        <time>2016-12-01T12:29:35Z</time>
      </trkpt>
      <trkpt lat="45.91375" lon="4.40004">
        <ele>688</ele>
        <time>2016-12-01T12:29:36Z</time>
      </trkpt>
      <trkpt lat="45.91371" lon="4.40015">
        <ele>688</ele>
        <time>2016-12-01T12:29:43Z</time>
      </trkpt>
      <trkpt lat="45.91371" lon="4.40016">
        <ele>688</ele>
        <time>2016-12-01T12:29:44Z</time>
      </trkpt>
      <trkpt lat="45.91368" lon="4.40028">
        <ele>688</ele>
        <time>2016-12-01T12:29:51Z</time>
      </trkpt>
      <trkpt lat="45.91367" lon="4.40029">
        <ele>688</ele>
        <time>2016-12-01T12:29:52Z</time>
      </trkpt>
      <trkpt lat="45.91361" lon="4.40038">
        <ele>689</ele>
        <time>2016-12-01T12:29:59Z</time>
      </trkpt>
      <trkpt lat="45.9136" lon="4.40039">
        <ele>689</ele>
        <time>2016-12-01T12:30:00Z</time>
      </trkpt>
      <trkpt lat="45.91355" lon="4.40049">
        <ele>690</ele>
        <time>2016-12-01T12:30:08Z</time>
      </trkpt>
      <trkpt lat="45.91355" lon="4.40051">
        <ele>690</ele>
        <time>2016-12-01T12:30:09Z</time>
      </trkpt>
      <trkpt lat="45.91352" lon="4.40063">
        <ele>691</ele>
        <time>2016-12-01T12:30:18Z</time>
      </trkpt>
      <trkpt lat="45.91351" lon="4.40064">
        <ele>691</ele>
        <time>2016-12-01T12:30:19Z</time>
      </trkpt>
      <trkpt lat="45.91347" lon="4.40075">
        <ele>693</ele>
        <time>2016-12-01T12:30:28Z</time>
      </trkpt>
      <trkpt lat="45.91347" lon="4.40076">
        <ele>693</ele>
        <time>2016-12-01T12:30:29Z</time>
      </trkpt>
      <trkpt lat="45.91343" lon="4.40087">
        <ele>695</ele>
        <time>2016-12-01T12:30:43Z</time>
      </trkpt>
      <trkpt lat="45.91343" lon="4.40088">
        <ele>695</ele>
        <time>2016-12-01T12:30:44Z</time>
      </trkpt>
      <trkpt lat="45.91337" lon="4.40098">
        <ele>694</ele>
        <time>2016-12-01T12:30:55Z</time>
      </trkpt>
      <trkpt lat="45.91337" lon="4.401">
        <ele>694</ele>
        <time>2016-12-01T12:30:56Z</time>
      </trkpt>
      <trkpt lat="45.91334" lon="4.40111">
        <ele>694</ele>
        <time>2016-12-01T12:31:06Z</time>
      </trkpt>
      <trkpt lat="45.91334" lon="4.40112">
        <ele>694</ele>
        <time>2016-12-01T12:31:07Z</time>
      </trkpt>
      <trkpt lat="45.91329" lon="4.40122">
        <ele>702</ele>
        <time>2016-12-01T12:31:18Z</time>
      </trkpt>
      <trkpt lat="45.91328" lon="4.40124">
        <ele>702</ele>
        <time>2016-12-01T12:31:19Z</time>
      </trkpt>
      <trkpt lat="45.91326" lon="4.40135">
        <ele>703</ele>
        <time>2016-12-01T12:31:30Z</time>
      </trkpt>
      <trkpt lat="45.91325" lon="4.40136">
        <ele>703</ele>
        <time>2016-12-01T12:31:31Z</time>
      </trkpt>
      <trkpt lat="45.9132" lon="4.40146">
        <ele>703</ele>
        <time>2016-12-01T12:31:42Z</time>
      </trkpt>
      <trkpt lat="45.9132" lon="4.40147">
        <ele>703</ele>
        <time>2016-12-01T12:31:43Z</time>
      </trkpt>
      <trkpt lat="45.91316" lon="4.40158">
        <ele>703</ele>
        <time>2016-12-01T12:31:53Z</time>
      </trkpt>
      <trkpt lat="45.91316" lon="4.40159">
        <ele>703</ele>
        <time>2016-12-01T12:31:54Z</time>
      </trkpt>
      <trkpt lat="45.91311" lon="4.4017">
        <ele>707</ele>
        <time>2016-12-01T12:32:05Z</time>
      </trkpt>
      <trkpt lat="45.91311" lon="4.40171">
        <ele>707</ele>
        <time>2016-12-01T12:32:06Z</time>
      </trkpt>
      <trkpt lat="45.91307" lon="4.40181">
        <ele>708</ele>
        <time>2016-12-01T12:32:17Z</time>
      </trkpt>
      <trkpt lat="45.91307" lon="4.40182">
        <ele>708</ele>
        <time>2016-12-01T12:32:18Z</time>
      </trkpt>
      <trkpt lat="45.91303" lon="4.40194">
        <ele>709</ele>
        <time>2016-12-01T12:32:30Z</time>
      </trkpt>
      <trkpt lat="45.91302" lon="4.40195">
        <ele>709</ele>
        <time>2016-12-01T12:32:31Z</time>
      </trkpt>
      <trkpt lat="45.91298" lon="4.40205">
        <ele>710</ele>
        <time>2016-12-01T12:32:42Z</time>
      </trkpt>
      <trkpt lat="45.91298" lon="4.40206">
        <ele>710</ele>
        <time>2016-12-01T12:32:43Z</time>
      </trkpt>
      <trkpt lat="45.91294" lon="4.40216">
        <ele>710</ele>
        <time>2016-12-01T12:32:54Z</time>
      </trkpt>
      <trkpt lat="45.91293" lon="4.40217">
        <ele>710</ele>
        <time>2016-12-01T12:32:55Z</time>
      </trkpt>
      <trkpt lat="45.91288" lon="4.40227">
        <ele>711</ele>
        <time>2016-12-01T12:33:06Z</time>
      </trkpt>
      <trkpt lat="45.91287" lon="4.40228">
        <ele>711</ele>
        <time>2016-12-01T12:33:07Z</time>
      </trkpt>
      <trkpt lat="45.91283" lon="4.40239">
        <ele>712</ele>
        <time>2016-12-01T12:33:16Z</time>
      </trkpt>
      <trkpt lat="45.91283" lon="4.4024">
        <ele>712</ele>
        <time>2016-12-01T12:33:17Z</time>
      </trkpt>
      <trkpt lat="45.91279" lon="4.40251">
        <ele>715</ele>
        <time>2016-12-01T12:33:26Z</time>
      </trkpt>
      <trkpt lat="45.91279" lon="4.40252">
        <ele>716</ele>
        <time>2016-12-01T12:33:27Z</time>
      </trkpt>
      <trkpt lat="45.91275" lon="4.40263">
        <ele>716</ele>
        <time>2016-12-01T12:33:36Z</time>
      </trkpt>
      <trkpt lat="45.91274" lon="4.40265">
        <ele>716</ele>
        <time>2016-12-01T12:33:37Z</time>
      </trkpt>
      <trkpt lat="45.9127" lon="4.40276">
        <ele>716</ele>
        <time>2016-12-01T12:33:46Z</time>
      </trkpt>
      <trkpt lat="45.91269" lon="4.40277">
        <ele>716</ele>
        <time>2016-12-01T12:33:47Z</time>
      </trkpt>
      <trkpt lat="45.91266" lon="4.40287">
        <ele>716</ele>
        <time>2016-12-01T12:33:56Z</time>
      </trkpt>
      <trkpt lat="45.91265" lon="4.40288">
        <ele>716</ele>
        <time>2016-12-01T12:33:57Z</time>
      </trkpt>
      <trkpt lat="45.91261" lon="4.40299">
        <ele>717</ele>
        <time>2016-12-01T12:34:07Z</time>
      </trkpt>
      <trkpt lat="45.91261" lon="4.40301">
        <ele>717</ele>
        <time>2016-12-01T12:34:08Z</time>
      </trkpt>
      <trkpt lat="45.91256" lon="4.40311">
        <ele>718</ele>
        <time>2016-12-01T12:34:18Z</time>
      </trkpt>
      <trkpt lat="45.91255" lon="4.40312">
        <ele>719</ele>
        <time>2016-12-01T12:34:19Z</time>
      </trkpt>
      <trkpt lat="45.91249" lon="4.40321">
        <ele>723</ele>
        <time>2016-12-01T12:34:29Z</time>
      </trkpt>
      <trkpt lat="45.91249" lon="4.40322">
        <ele>723</ele>
        <time>2016-12-01T12:34:30Z</time>
      </trkpt>
      <trkpt lat="45.91243" lon="4.40331">
        <ele>723</ele>
        <time>2016-12-01T12:34:38Z</time>
      </trkpt>
      <trkpt lat="45.91243" lon="4.40332">
        <ele>723</ele>
        <time>2016-12-01T12:34:39Z</time>
      </trkpt>
      <trkpt lat="45.91237" lon="4.40341">
        <ele>724</ele>
        <time>2016-12-01T12:34:48Z</time>
      </trkpt>
      <trkpt lat="45.91237" lon="4.40342">
        <ele>724</ele>
        <time>2016-12-01T12:34:49Z</time>
      </trkpt>
      <trkpt lat="45.91231" lon="4.40351">
        <ele>724</ele>
        <time>2016-12-01T12:34:59Z</time>
      </trkpt>
      <trkpt lat="45.9123" lon="4.40352">
        <ele>724</ele>
        <time>2016-12-01T12:35:00Z</time>
      </trkpt>
      <trkpt lat="45.91224" lon="4.40361">
        <ele>724</ele>
        <time>2016-12-01T12:35:10Z</time>
      </trkpt>
      <trkpt lat="45.91224" lon="4.40362">
        <ele>724</ele>
        <time>2016-12-01T12:35:11Z</time>
      </trkpt>
      <trkpt lat="45.91219" lon="4.40373">
        <ele>724</ele>
        <time>2016-12-01T12:36:49Z</time>
      </trkpt>
      <trkpt lat="45.91219" lon="4.40374">
        <ele>724</ele>
        <time>2016-12-01T12:36:50Z</time>
      </trkpt>
      <trkpt lat="45.91216" lon="4.40386">
        <ele>724</ele>
        <time>2016-12-01T12:36:59Z</time>
      </trkpt>
      <trkpt lat="45.91216" lon="4.40387">
        <ele>724</ele>
        <time>2016-12-01T12:37:00Z</time>
      </trkpt>
      <trkpt lat="45.91214" lon="4.40398">
        <ele>725</ele>
        <time>2016-12-01T12:37:10Z</time>
      </trkpt>
      <trkpt lat="45.91215" lon="4.404">
        <ele>725</ele>
        <time>2016-12-01T12:37:11Z</time>
      </trkpt>
      <trkpt lat="45.91216" lon="4.40411">
        <ele>725</ele>
        <time>2016-12-01T12:37:19Z</time>
      </trkpt>
      <trkpt lat="45.91216" lon="4.40413">
        <ele>725</ele>
        <time>2016-12-01T12:37:20Z</time>
      </trkpt>
      <trkpt lat="45.91214" lon="4.40424">
        <ele>725</ele>
        <time>2016-12-01T12:37:26Z</time>
      </trkpt>
      <trkpt lat="45.91214" lon="4.40426">
        <ele>725</ele>
        <time>2016-12-01T12:37:27Z</time>
      </trkpt>
      <trkpt lat="45.91213" lon="4.40437">
        <ele>725</ele>
        <time>2016-12-01T12:37:33Z</time>
      </trkpt>
      <trkpt lat="45.91213" lon="4.40439">
        <ele>725</ele>
        <time>2016-12-01T12:37:34Z</time>
      </trkpt>
      <trkpt lat="45.91211" lon="4.40451">
        <ele>726</ele>
        <time>2016-12-01T12:37:41Z</time>
      </trkpt>
      <trkpt lat="45.9121" lon="4.40452">
        <ele>726</ele>
        <time>2016-12-01T12:37:42Z</time>
      </trkpt>
      <trkpt lat="45.91209" lon="4.40465">
        <ele>726</ele>
        <time>2016-12-01T12:37:52Z</time>
      </trkpt>
      <trkpt lat="45.91209" lon="4.40466">
        <ele>726</ele>
        <time>2016-12-01T12:37:53Z</time>
      </trkpt>
      <trkpt lat="45.91208" lon="4.40478">
        <ele>725</ele>
        <time>2016-12-01T12:38:02Z</time>
      </trkpt>
      <trkpt lat="45.91208" lon="4.4048">
        <ele>725</ele>
        <time>2016-12-01T12:38:03Z</time>
      </trkpt>
      <trkpt lat="45.91205" lon="4.40491">
        <ele>725</ele>
        <time>2016-12-01T12:38:10Z</time>
      </trkpt>
      <trkpt lat="45.91205" lon="4.40492">
        <ele>725</ele>
        <time>2016-12-01T12:38:11Z</time>
      </trkpt>
      <trkpt lat="45.91202" lon="4.40504">
        <ele>723</ele>
        <time>2016-12-01T12:38:18Z</time>
      </trkpt>
      <trkpt lat="45.91201" lon="4.40505">
        <ele>723</ele>
        <time>2016-12-01T12:38:19Z</time>
      </trkpt>
      <trkpt lat="45.912" lon="4.40518">
        <ele>723</ele>
        <time>2016-12-01T12:38:26Z</time>
      </trkpt>
      <trkpt lat="45.91201" lon="4.40519">
        <ele>723</ele>
        <time>2016-12-01T12:38:27Z</time>
      </trkpt>
      <trkpt lat="45.91201" lon="4.40532">
        <ele>723</ele>
        <time>2016-12-01T12:38:37Z</time>
      </trkpt>
      <trkpt lat="45.91201" lon="4.40532">
        <ele>723</ele>
        <time>2016-12-01T12:38:38Z</time>
      </trkpt>
      <trkpt lat="45.91198" lon="4.40543">
        <ele>723</ele>
        <time>2016-12-01T12:38:48Z</time>
      </trkpt>
      <trkpt lat="45.91198" lon="4.40545">
        <ele>722</ele>
        <time>2016-12-01T12:38:49Z</time>
      </trkpt>
      <trkpt lat="45.91192" lon="4.40552">
        <ele>722</ele>
        <time>2016-12-01T12:38:56Z</time>
      </trkpt>
      <trkpt lat="45.91191" lon="4.40553">
        <ele>722</ele>
        <time>2016-12-01T12:38:57Z</time>
      </trkpt>
      <trkpt lat="45.91186" lon="4.40562">
        <ele>722</ele>
        <time>2016-12-01T12:39:04Z</time>
      </trkpt>
      <trkpt lat="45.91185" lon="4.40564">
        <ele>722</ele>
        <time>2016-12-01T12:39:05Z</time>
      </trkpt>
      <trkpt lat="45.91181" lon="4.40574">
        <ele>722</ele>
        <time>2016-12-01T12:39:11Z</time>
      </trkpt>
      <trkpt lat="45.91181" lon="4.40576">
        <ele>722</ele>
        <time>2016-12-01T12:39:12Z</time>
      </trkpt>
      <trkpt lat="45.91175" lon="4.40585">
        <ele>719</ele>
        <time>2016-12-01T12:39:18Z</time>
      </trkpt>
      <trkpt lat="45.91174" lon="4.40586">
        <ele>719</ele>
        <time>2016-12-01T12:39:19Z</time>
      </trkpt>
      <trkpt lat="45.91167" lon="4.40592">
        <ele>719</ele>
        <time>2016-12-01T12:39:29Z</time>
      </trkpt>
      <trkpt lat="45.91166" lon="4.40593">
        <ele>719</ele>
        <time>2016-12-01T12:39:30Z</time>
      </trkpt>
      <trkpt lat="45.91161" lon="4.40602">
        <ele>717</ele>
        <time>2016-12-01T12:39:36Z</time>
      </trkpt>
      <trkpt lat="45.9116" lon="4.40603">
        <ele>717</ele>
        <time>2016-12-01T12:39:37Z</time>
      </trkpt>
      <trkpt lat="45.91155" lon="4.40612">
        <ele>716</ele>
        <time>2016-12-01T12:39:44Z</time>
      </trkpt>
      <trkpt lat="45.91154" lon="4.40612">
        <ele>715</ele>
        <time>2016-12-01T12:39:45Z</time>
      </trkpt>
      <trkpt lat="45.91147" lon="4.40621">
        <ele>715</ele>
        <time>2016-12-01T12:39:52Z</time>
      </trkpt>
      <trkpt lat="45.91146" lon="4.40622">
        <ele>714</ele>
        <time>2016-12-01T12:39:53Z</time>
      </trkpt>
      <trkpt lat="45.9114" lon="4.40629">
        <ele>714</ele>
        <time>2016-12-01T12:40:01Z</time>
      </trkpt>
      <trkpt lat="45.91139" lon="4.4063">
        <ele>714</ele>
        <time>2016-12-01T12:40:02Z</time>
      </trkpt>
      <trkpt lat="45.91132" lon="4.40638">
        <ele>714</ele>
        <time>2016-12-01T12:40:12Z</time>
      </trkpt>
      <trkpt lat="45.91131" lon="4.40638">
        <ele>714</ele>
        <time>2016-12-01T12:40:13Z</time>
      </trkpt>
      <trkpt lat="45.91124" lon="4.40644">
        <ele>713</ele>
        <time>2016-12-01T12:40:23Z</time>
      </trkpt>
      <trkpt lat="45.91123" lon="4.40646">
        <ele>713</ele>
        <time>2016-12-01T12:40:24Z</time>
      </trkpt>
      <trkpt lat="45.91118" lon="4.40655">
        <ele>713</ele>
        <time>2016-12-01T12:40:31Z</time>
      </trkpt>
      <trkpt lat="45.91118" lon="4.40656">
        <ele>713</ele>
        <time>2016-12-01T12:40:32Z</time>
      </trkpt>
      <trkpt lat="45.91111" lon="4.40662">
        <ele>713</ele>
        <time>2016-12-01T12:40:39Z</time>
      </trkpt>
      <trkpt lat="45.9111" lon="4.40663">
        <ele>713</ele>
        <time>2016-12-01T12:40:40Z</time>
      </trkpt>
      <trkpt lat="45.91104" lon="4.40671">
        <ele>711</ele>
        <time>2016-12-01T12:40:48Z</time>
      </trkpt>
      <trkpt lat="45.91103" lon="4.40672">
        <ele>711</ele>
        <time>2016-12-01T12:40:49Z</time>
      </trkpt>
      <trkpt lat="45.91097" lon="4.40681">
        <ele>711</ele>
        <time>2016-12-01T12:40:57Z</time>
      </trkpt>
      <trkpt lat="45.91097" lon="4.40682">
        <ele>711</ele>
        <time>2016-12-01T12:40:58Z</time>
      </trkpt>
      <trkpt lat="45.91091" lon="4.4069">
        <ele>711</ele>
        <time>2016-12-01T12:41:07Z</time>
      </trkpt>
      <trkpt lat="45.9109" lon="4.40691">
        <ele>711</ele>
        <time>2016-12-01T12:41:08Z</time>
      </trkpt>
      <trkpt lat="45.91082" lon="4.40697">
        <ele>710</ele>
        <time>2016-12-01T12:41:16Z</time>
      </trkpt>
      <trkpt lat="45.91081" lon="4.40698">
        <ele>710</ele>
        <time>2016-12-01T12:41:17Z</time>
      </trkpt>
      <trkpt lat="45.91074" lon="4.40705">
        <ele>709</ele>
        <time>2016-12-01T12:41:28Z</time>
      </trkpt>
      <trkpt lat="45.91073" lon="4.40706">
        <ele>709</ele>
        <time>2016-12-01T12:41:29Z</time>
      </trkpt>
      <trkpt lat="45.91066" lon="4.40712">
        <ele>709</ele>
        <time>2016-12-01T12:41:36Z</time>
      </trkpt>
      <trkpt lat="45.91065" lon="4.40713">
        <ele>709</ele>
        <time>2016-12-01T12:41:37Z</time>
      </trkpt>
      <trkpt lat="45.91057" lon="4.40717">
        <ele>708</ele>
        <time>2016-12-01T12:41:50Z</time>
      </trkpt>
      <trkpt lat="45.91056" lon="4.40718">
        <ele>708</ele>
        <time>2016-12-01T12:41:51Z</time>
      </trkpt>
      <trkpt lat="45.91049" lon="4.40724">
        <ele>708</ele>
        <time>2016-12-01T12:42:00Z</time>
      </trkpt>
      <trkpt lat="45.91048" lon="4.40725">
        <ele>708</ele>
        <time>2016-12-01T12:42:01Z</time>
      </trkpt>
      <trkpt lat="45.9104" lon="4.4073">
        <ele>707</ele>
        <time>2016-12-01T12:42:11Z</time>
      </trkpt>
      <trkpt lat="45.91039" lon="4.4073">
        <ele>707</ele>
        <time>2016-12-01T12:42:12Z</time>
      </trkpt>
      <trkpt lat="45.91032" lon="4.40734">
        <ele>707</ele>
        <time>2016-12-01T12:42:21Z</time>
      </trkpt>
      <trkpt lat="45.91031" lon="4.40735">
        <ele>707</ele>
        <time>2016-12-01T12:42:22Z</time>
      </trkpt>
      <trkpt lat="45.91023" lon="4.40738">
        <ele>706</ele>
        <time>2016-12-01T12:42:30Z</time>
      </trkpt>
      <trkpt lat="45.91022" lon="4.40739">
        <ele>706</ele>
        <time>2016-12-01T12:42:31Z</time>
      </trkpt>
      <trkpt lat="45.91014" lon="4.40743">
        <ele>706</ele>
        <time>2016-12-01T12:42:38Z</time>
      </trkpt>
      <trkpt lat="45.91013" lon="4.40744">
        <ele>706</ele>
        <time>2016-12-01T12:42:39Z</time>
      </trkpt>
      <trkpt lat="45.91005" lon="4.40749">
        <ele>705</ele>
        <time>2016-12-01T12:42:46Z</time>
      </trkpt>
      <trkpt lat="45.91004" lon="4.4075">
        <ele>705</ele>
        <time>2016-12-01T12:42:47Z</time>
      </trkpt>
      <trkpt lat="45.90997" lon="4.40755">
        <ele>703</ele>
        <time>2016-12-01T12:42:53Z</time>
      </trkpt>
      <trkpt lat="45.90997" lon="4.40757">
        <ele>703</ele>
        <time>2016-12-01T12:42:54Z</time>
      </trkpt>
      <trkpt lat="45.90989" lon="4.40763">
        <ele>701</ele>
        <time>2016-12-01T12:43:01Z</time>
      </trkpt>
      <trkpt lat="45.90987" lon="4.40764">
        <ele>701</ele>
        <time>2016-12-01T12:43:02Z</time>
      </trkpt>
      <trkpt lat="45.90979" lon="4.40766">
        <ele>699</ele>
        <time>2016-12-01T12:43:08Z</time>
      </trkpt>
      <trkpt lat="45.90977" lon="4.40767">
        <ele>699</ele>
        <time>2016-12-01T12:43:09Z</time>
      </trkpt>
      <trkpt lat="45.90968" lon="4.40769">
        <ele>698</ele>
        <time>2016-12-01T12:43:15Z</time>
      </trkpt>
      <trkpt lat="45.90967" lon="4.4077">
        <ele>698</ele>
        <time>2016-12-01T12:43:16Z</time>
      </trkpt>
      <trkpt lat="45.9096" lon="4.40775">
        <ele>697</ele>
        <time>2016-12-01T12:43:26Z</time>
      </trkpt>
      <trkpt lat="45.90959" lon="4.40776">
        <ele>697</ele>
        <time>2016-12-01T12:43:27Z</time>
      </trkpt>
      <trkpt lat="45.90953" lon="4.40783">
        <ele>696</ele>
        <time>2016-12-01T12:43:32Z</time>
      </trkpt>
      <trkpt lat="45.90952" lon="4.40785">
        <ele>696</ele>
        <time>2016-12-01T12:43:33Z</time>
      </trkpt>
      <trkpt lat="45.90945" lon="4.40793">
        <ele>696</ele>
        <time>2016-12-01T12:43:43Z</time>
      </trkpt>
      <trkpt lat="45.90944" lon="4.40793">
        <ele>696</ele>
        <time>2016-12-01T12:43:44Z</time>
      </trkpt>
      <trkpt lat="45.90937" lon="4.408">
        <ele>695</ele>
        <time>2016-12-01T12:43:51Z</time>
      </trkpt>
      <trkpt lat="45.90936" lon="4.40801">
        <ele>695</ele>
        <time>2016-12-01T12:43:52Z</time>
      </trkpt>
      <trkpt lat="45.90929" lon="4.40808">
        <ele>694</ele>
        <time>2016-12-01T12:44:01Z</time>
      </trkpt>
      <trkpt lat="45.90929" lon="4.4081">
        <ele>694</ele>
        <time>2016-12-01T12:44:02Z</time>
      </trkpt>
      <trkpt lat="45.90923" lon="4.40819">
        <ele>693</ele>
        <time>2016-12-01T12:44:10Z</time>
      </trkpt>
      <trkpt lat="45.90923" lon="4.40821">
        <ele>693</ele>
        <time>2016-12-01T12:44:11Z</time>
      </trkpt>
      <trkpt lat="45.90918" lon="4.40832">
        <ele>692</ele>
        <time>2016-12-01T12:44:21Z</time>
      </trkpt>
      <trkpt lat="45.90918" lon="4.40833">
        <ele>691</ele>
        <time>2016-12-01T12:44:22Z</time>
      </trkpt>
      <trkpt lat="45.90914" lon="4.40844">
        <ele>688</ele>
        <time>2016-12-01T12:44:32Z</time>
      </trkpt>
      <trkpt lat="45.90913" lon="4.40845">
        <ele>688</ele>
        <time>2016-12-01T12:44:33Z</time>
      </trkpt>
      <trkpt lat="45.90912" lon="4.40857">
        <ele>686</ele>
        <time>2016-12-01T12:44:41Z</time>
      </trkpt>
      <trkpt lat="45.90911" lon="4.40859">
        <ele>686</ele>
        <time>2016-12-01T12:44:42Z</time>
      </trkpt>
      <trkpt lat="45.90911" lon="4.40871">
        <ele>685</ele>
        <time>2016-12-01T12:44:48Z</time>
      </trkpt>
      <trkpt lat="45.9091" lon="4.40873">
        <ele>685</ele>
        <time>2016-12-01T12:44:49Z</time>
      </trkpt>
      <trkpt lat="45.90905" lon="4.40883">
        <ele>685</ele>
        <time>2016-12-01T12:44:58Z</time>
      </trkpt>
      <trkpt lat="45.90905" lon="4.40883">
        <ele>685</ele>
        <time>2016-12-01T12:44:59Z</time>
      </trkpt>
      <trkpt lat="45.909" lon="4.40893">
        <ele>684</ele>
        <time>2016-12-01T12:45:07Z</time>
      </trkpt>
      <trkpt lat="45.90899" lon="4.40895">
        <ele>684</ele>
        <time>2016-12-01T12:45:08Z</time>
      </trkpt>
      <trkpt lat="45.90893" lon="4.40902">
        <ele>684</ele>
        <time>2016-12-01T12:45:14Z</time>
      </trkpt>
      <trkpt lat="45.90893" lon="4.40904">
        <ele>684</ele>
        <time>2016-12-01T12:45:15Z</time>
      </trkpt>
      <trkpt lat="45.90887" lon="4.40913">
        <ele>684</ele>
        <time>2016-12-01T12:45:22Z</time>
      </trkpt>
      <trkpt lat="45.90886" lon="4.40914">
        <ele>684</ele>
        <time>2016-12-01T12:45:23Z</time>
      </trkpt>
      <trkpt lat="45.9088" lon="4.40922">
        <ele>682</ele>
        <time>2016-12-01T12:45:30Z</time>
      </trkpt>
      <trkpt lat="45.90879" lon="4.40923">
        <ele>682</ele>
        <time>2016-12-01T12:45:31Z</time>
      </trkpt>
      <trkpt lat="45.90872" lon="4.40928">
        <ele>682</ele>
        <time>2016-12-01T12:45:37Z</time>
      </trkpt>
      <trkpt lat="45.90871" lon="4.40929">
        <ele>682</ele>
        <time>2016-12-01T12:45:38Z</time>
      </trkpt>
      <trkpt lat="45.90865" lon="4.40938">
        <ele>682</ele>
        <time>2016-12-01T12:45:45Z</time>
      </trkpt>
      <trkpt lat="45.90864" lon="4.4094">
        <ele>682</ele>
        <time>2016-12-01T12:45:46Z</time>
      </trkpt>
      <trkpt lat="45.90858" lon="4.40947">
        <ele>682</ele>
        <time>2016-12-01T12:45:56Z</time>
      </trkpt>
      <trkpt lat="45.90857" lon="4.40948">
        <ele>682</ele>
        <time>2016-12-01T12:45:57Z</time>
      </trkpt>
      <trkpt lat="45.90849" lon="4.40955">
        <ele>682</ele>
        <time>2016-12-01T12:46:07Z</time>
      </trkpt>
      <trkpt lat="45.90848" lon="4.40955">
        <ele>682</ele>
        <time>2016-12-01T12:46:08Z</time>
      </trkpt>
      <trkpt lat="45.9084" lon="4.40953">
        <ele>682</ele>
        <time>2016-12-01T12:46:53Z</time>
      </trkpt>
      <trkpt lat="45.90839" lon="4.40952">
        <ele>682</ele>
        <time>2016-12-01T12:46:54Z</time>
      </trkpt>
      <trkpt lat="45.90835" lon="4.40942">
        <ele>682</ele>
        <time>2016-12-01T12:48:19Z</time>
      </trkpt>
      <trkpt lat="45.90835" lon="4.40941">
        <ele>682</ele>
        <time>2016-12-01T12:48:20Z</time>
      </trkpt>
      <trkpt lat="45.90838" lon="4.40929">
        <ele>681</ele>
        <time>2016-12-01T12:48:32Z</time>
      </trkpt>
      <trkpt lat="45.90837" lon="4.40928">
        <ele>681</ele>
        <time>2016-12-01T12:48:33Z</time>
      </trkpt>
      <trkpt lat="45.90831" lon="4.4092">
        <ele>681</ele>
        <time>2016-12-01T12:48:39Z</time>
      </trkpt>
      <trkpt lat="45.9083" lon="4.40919">
        <ele>681</ele>
        <time>2016-12-01T12:48:40Z</time>
      </trkpt>
      <trkpt lat="45.90829" lon="4.40906">
        <ele>677</ele>
        <time>2016-12-01T12:48:54Z</time>
      </trkpt>
      <trkpt lat="45.90829" lon="4.40906">
        <ele>677</ele>
        <time>2016-12-01T12:48:55Z</time>
      </trkpt>
      <trkpt lat="45.90823" lon="4.40897">
        <ele>674</ele>
        <time>2016-12-01T12:49:08Z</time>
      </trkpt>
      <trkpt lat="45.90823" lon="4.40896">
        <ele>674</ele>
        <time>2016-12-01T12:49:09Z</time>
      </trkpt>
      <trkpt lat="45.90818" lon="4.40887">
        <ele>673</ele>
        <time>2016-12-01T12:49:22Z</time>
      </trkpt>
      <trkpt lat="45.90818" lon="4.40885">
        <ele>672</ele>
        <time>2016-12-01T12:49:23Z</time>
      </trkpt>
      <trkpt lat="45.90817" lon="4.40873">
        <ele>671</ele>
        <time>2016-12-01T12:49:34Z</time>
      </trkpt>
      <trkpt lat="45.90817" lon="4.40872">
        <ele>671</ele>
        <time>2016-12-01T12:49:35Z</time>
      </trkpt>
      <trkpt lat="45.90819" lon="4.40859">
        <ele>671</ele>
        <time>2016-12-01T12:49:43Z</time>
      </trkpt>
      <trkpt lat="45.90818" lon="4.40858">
        <ele>671</ele>
        <time>2016-12-01T12:49:44Z</time>
      </trkpt>
      <trkpt lat="45.90818" lon="4.40846">
        <ele>671</ele>
        <time>2016-12-01T12:49:53Z</time>
      </trkpt>
      <trkpt lat="45.90818" lon="4.40844">
        <ele>671</ele>
        <time>2016-12-01T12:49:54Z</time>
      </trkpt>
      <trkpt lat="45.90816" lon="4.40832">
        <ele>667</ele>
        <time>2016-12-01T12:50:02Z</time>
      </trkpt>
      <trkpt lat="45.90816" lon="4.40831">
        <ele>667</ele>
        <time>2016-12-01T12:50:03Z</time>
      </trkpt>
      <trkpt lat="45.90814" lon="4.40819">
        <ele>665</ele>
        <time>2016-12-01T12:50:11Z</time>
      </trkpt>
      <trkpt lat="45.90814" lon="4.40818">
        <ele>665</ele>
        <time>2016-12-01T12:50:12Z</time>
      </trkpt>
      <trkpt lat="45.90812" lon="4.40806">
        <ele>663</ele>
        <time>2016-12-01T12:50:21Z</time>
      </trkpt>
      <trkpt lat="45.90812" lon="4.40805">
        <ele>663</ele>
        <time>2016-12-01T12:50:22Z</time>
      </trkpt>
      <trkpt lat="45.90815" lon="4.40794">
        <ele>662</ele>
        <time>2016-12-01T12:50:30Z</time>
      </trkpt>
      <trkpt lat="45.90816" lon="4.40793">
        <ele>662</ele>
        <time>2016-12-01T12:50:31Z</time>
      </trkpt>
      <trkpt lat="45.9082" lon="4.40781">
        <ele>662</ele>
        <time>2016-12-01T12:50:46Z</time>
      </trkpt>
      <trkpt lat="45.9082" lon="4.4078">
        <ele>662</ele>
        <time>2016-12-01T12:50:47Z</time>
      </trkpt>
      <trkpt lat="45.9082" lon="4.40768">
        <ele>663</ele>
        <time>2016-12-01T12:50:55Z</time>
      </trkpt>
      <trkpt lat="45.9082" lon="4.40767">
        <ele>663</ele>
        <time>2016-12-01T12:50:56Z</time>
      </trkpt>
      <trkpt lat="45.90817" lon="4.40755">
        <ele>663</ele>
        <time>2016-12-01T12:51:05Z</time>
      </trkpt>
      <trkpt lat="45.90817" lon="4.40754">
        <ele>663</ele>
        <time>2016-12-01T12:51:06Z</time>
      </trkpt>
      <trkpt lat="45.90819" lon="4.40744">
        <ele>659</ele>
        <time>2016-12-01T12:51:13Z</time>
      </trkpt>
      <trkpt lat="45.9082" lon="4.40742">
        <ele>659</ele>
        <time>2016-12-01T12:51:14Z</time>
      </trkpt>
      <trkpt lat="45.90823" lon="4.40731">
        <ele>658</ele>
        <time>2016-12-01T12:51:20Z</time>
      </trkpt>
      <trkpt lat="45.90824" lon="4.40729">
        <ele>658</ele>
        <time>2016-12-01T12:51:21Z</time>
      </trkpt>
      <trkpt lat="45.90829" lon="4.40722">
        <ele>657</ele>
        <time>2016-12-01T12:51:26Z</time>
      </trkpt>
      <trkpt lat="45.90831" lon="4.4072">
        <ele>657</ele>
        <time>2016-12-01T12:51:27Z</time>
      </trkpt>
      <trkpt lat="45.90835" lon="4.40711">
        <ele>670</ele>
        <time>2016-12-01T12:51:33Z</time>
      </trkpt>
      <trkpt lat="45.90836" lon="4.40709">
        <ele>670</ele>
        <time>2016-12-01T12:51:34Z</time>
      </trkpt>
      <trkpt lat="45.90836" lon="4.40696">
        <ele>669</ele>
        <time>2016-12-01T12:51:41Z</time>
      </trkpt>
      <trkpt lat="45.90836" lon="4.40694">
        <ele>669</ele>
        <time>2016-12-01T12:51:42Z</time>
      </trkpt>
      <trkpt lat="45.9084" lon="4.40686">
        <ele>667</ele>
        <time>2016-12-01T12:51:47Z</time>
      </trkpt>
      <trkpt lat="45.90842" lon="4.40684">
        <ele>667</ele>
        <time>2016-12-01T12:51:48Z</time>
      </trkpt>
      <trkpt lat="45.90848" lon="4.40675">
        <ele>667</ele>
        <time>2016-12-01T12:51:55Z</time>
      </trkpt>
      <trkpt lat="45.90848" lon="4.40674">
        <ele>667</ele>
        <time>2016-12-01T12:51:56Z</time>
      </trkpt>
      <trkpt lat="45.90855" lon="4.40665">
        <ele>664</ele>
        <time>2016-12-01T12:52:07Z</time>
      </trkpt>
      <trkpt lat="45.90856" lon="4.40664">
        <ele>664</ele>
        <time>2016-12-01T12:52:08Z</time>
      </trkpt>
      <trkpt lat="45.90863" lon="4.40657">
        <ele>665</ele>
        <time>2016-12-01T12:52:15Z</time>
      </trkpt>
      <trkpt lat="45.90864" lon="4.40656">
        <ele>665</ele>
        <time>2016-12-01T12:52:16Z</time>
      </trkpt>
      <trkpt lat="45.90869" lon="4.40648">
        <ele>665</ele>
        <time>2016-12-01T12:52:21Z</time>
      </trkpt>
      <trkpt lat="45.9087" lon="4.40647">
        <ele>666</ele>
        <time>2016-12-01T12:52:22Z</time>
      </trkpt>
      <trkpt lat="45.90876" lon="4.40639">
        <ele>666</ele>
        <time>2016-12-01T12:52:28Z</time>
      </trkpt>
      <trkpt lat="45.90877" lon="4.40638">
        <ele>666</ele>
        <time>2016-12-01T12:52:29Z</time>
      </trkpt>
      <trkpt lat="45.90884" lon="4.4063">
        <ele>666</ele>
        <time>2016-12-01T12:52:36Z</time>
      </trkpt>
      <trkpt lat="45.90885" lon="4.40629">
        <ele>666</ele>
        <time>2016-12-01T12:52:37Z</time>
      </trkpt>
      <trkpt lat="45.90892" lon="4.40623">
        <ele>667</ele>
        <time>2016-12-01T12:52:43Z</time>
      </trkpt>
      <trkpt lat="45.90894" lon="4.4062">
        <ele>667</ele>
        <time>2016-12-01T12:52:44Z</time>
      </trkpt>
      <trkpt lat="45.90901" lon="4.40612">
        <ele>667</ele>
        <time>2016-12-01T12:52:52Z</time>
      </trkpt>
      <trkpt lat="45.90902" lon="4.4061">
        <ele>667</ele>
        <time>2016-12-01T12:52:53Z</time>
      </trkpt>
      <trkpt lat="45.90904" lon="4.40599">
        <ele>667</ele>
        <time>2016-12-01T12:53:02Z</time>
      </trkpt>
      <trkpt lat="45.90906" lon="4.40596">
        <ele>668</ele>
        <time>2016-12-01T12:53:03Z</time>
      </trkpt>
      <trkpt lat="45.90911" lon="4.40586">
        <ele>669</ele>
        <time>2016-12-01T12:53:11Z</time>
      </trkpt>
      <trkpt lat="45.90911" lon="4.40584">
        <ele>669</ele>
        <time>2016-12-01T12:53:12Z</time>
      </trkpt>
      <trkpt lat="45.90917" lon="4.40575">
        <ele>672</ele>
        <time>2016-12-01T12:53:18Z</time>
      </trkpt>
      <trkpt lat="45.90918" lon="4.40575">
        <ele>672</ele>
        <time>2016-12-01T12:53:19Z</time>
      </trkpt>
      <trkpt lat="45.90921" lon="4.40565">
        <ele>673</ele>
        <time>2016-12-01T12:53:22Z</time>
      </trkpt>
      <trkpt lat="45.90922" lon="4.40563">
        <ele>673</ele>
        <time>2016-12-01T12:53:23Z</time>
      </trkpt>
      <trkpt lat="45.90926" lon="4.40553">
        <ele>673</ele>
        <time>2016-12-01T12:53:28Z</time>
      </trkpt>
      <trkpt lat="45.90928" lon="4.4055">
        <ele>673</ele>
        <time>2016-12-01T12:53:29Z</time>
      </trkpt>
      <trkpt lat="45.90932" lon="4.40539">
        <ele>673</ele>
        <time>2016-12-01T12:53:38Z</time>
      </trkpt>
      <trkpt lat="45.90932" lon="4.40538">
        <ele>673</ele>
        <time>2016-12-01T12:53:39Z</time>
      </trkpt>
      <trkpt lat="45.90932" lon="4.40526">
        <ele>672</ele>
        <time>2016-12-01T12:53:52Z</time>
      </trkpt>
      <trkpt lat="45.90932" lon="4.40525">
        <ele>672</ele>
        <time>2016-12-01T12:53:53Z</time>
      </trkpt>
      <trkpt lat="45.90931" lon="4.40512">
        <ele>670</ele>
        <time>2016-12-01T12:54:03Z</time>
      </trkpt>
      <trkpt lat="45.90931" lon="4.40511">
        <ele>670</ele>
        <time>2016-12-01T12:54:04Z</time>
      </trkpt>
      <trkpt lat="45.90936" lon="4.40501">
        <ele>670</ele>
        <time>2016-12-01T12:54:09Z</time>
      </trkpt>
      <trkpt lat="45.90936" lon="4.40499">
        <ele>668</ele>
        <time>2016-12-01T12:54:10Z</time>
      </trkpt>
      <trkpt lat="45.90939" lon="4.40488">
        <ele>669</ele>
        <time>2016-12-01T12:54:16Z</time>
      </trkpt>
      <trkpt lat="45.9094" lon="4.40485">
        <ele>669</ele>
        <time>2016-12-01T12:54:17Z</time>
      </trkpt>
      <trkpt lat="45.90941" lon="4.40472">
        <ele>670</ele>
        <time>2016-12-01T12:54:25Z</time>
      </trkpt>
      <trkpt lat="45.90941" lon="4.4047">
        <ele>670</ele>
        <time>2016-12-01T12:54:26Z</time>
      </trkpt>
      <trkpt lat="45.90942" lon="4.40458">
        <ele>670</ele>
        <time>2016-12-01T12:54:32Z</time>
      </trkpt>
      <trkpt lat="45.90941" lon="4.40456">
        <ele>670</ele>
        <time>2016-12-01T12:54:33Z</time>
      </trkpt>
      <trkpt lat="45.90935" lon="4.40447">
        <ele>669</ele>
        <time>2016-12-01T12:54:38Z</time>
      </trkpt>
      <trkpt lat="45.90935" lon="4.40445">
        <ele>668</ele>
        <time>2016-12-01T12:54:39Z</time>
      </trkpt>
      <trkpt lat="45.90933" lon="4.40432">
        <ele>667</ele>
        <time>2016-12-01T12:54:44Z</time>
      </trkpt>
      <trkpt lat="45.90933" lon="4.40429">
        <ele>666</ele>
        <time>2016-12-01T12:54:45Z</time>
      </trkpt>
      <trkpt lat="45.90935" lon="4.4042">
        <ele>666</ele>
        <time>2016-12-01T12:54:48Z</time>
      </trkpt>
      <trkpt lat="45.90936" lon="4.40416">
        <ele>666</ele>
        <time>2016-12-01T12:54:49Z</time>
      </trkpt>
      <trkpt lat="45.90935" lon="4.40405">
        <ele>666</ele>
        <time>2016-12-01T12:54:55Z</time>
      </trkpt>
      <trkpt lat="45.90935" lon="4.40403">
        <ele>666</ele>
        <time>2016-12-01T12:54:56Z</time>
      </trkpt>
      <trkpt lat="45.90935" lon="4.40391">
        <ele>667</ele>
        <time>2016-12-01T12:55:02Z</time>
      </trkpt>
      <trkpt lat="45.90934" lon="4.40389">
        <ele>667</ele>
        <time>2016-12-01T12:55:03Z</time>
      </trkpt>
      <trkpt lat="45.90932" lon="4.40378">
        <ele>668</ele>
        <time>2016-12-01T12:55:09Z</time>
      </trkpt>
      <trkpt lat="45.90932" lon="4.40376">
        <ele>668</ele>
        <time>2016-12-01T12:55:10Z</time>
      </trkpt>
      <trkpt lat="45.90931" lon="4.40363">
        <ele>667</ele>
        <time>2016-12-01T12:55:16Z</time>
      </trkpt>
      <trkpt lat="45.9093" lon="4.40362">
        <ele>667</ele>
        <time>2016-12-01T12:55:17Z</time>
      </trkpt>
      <trkpt lat="45.90933" lon="4.40351">
        <ele>667</ele>
        <time>2016-12-01T12:55:23Z</time>
      </trkpt>
      <trkpt lat="45.90934" lon="4.40349">
        <ele>667</ele>
        <time>2016-12-01T12:55:24Z</time>
      </trkpt>
      <trkpt lat="45.90931" lon="4.40337">
        <ele>665</ele>
        <time>2016-12-01T12:55:35Z</time>
      </trkpt>
      <trkpt lat="45.9093" lon="4.40336">
        <ele>664</ele>
        <time>2016-12-01T12:55:36Z</time>
      </trkpt>
      <trkpt lat="45.9093" lon="4.40323">
        <ele>666</ele>
        <time>2016-12-01T12:55:46Z</time>
      </trkpt>
      <trkpt lat="45.9093" lon="4.40322">
        <ele>667</ele>
        <time>2016-12-01T12:55:47Z</time>
      </trkpt>
      <trkpt lat="45.90936" lon="4.40313">
        <ele>669</ele>
        <time>2016-12-01T12:55:54Z</time>
      </trkpt>
      <trkpt lat="45.90939" lon="4.40311">
        <ele>670</ele>
        <time>2016-12-01T12:55:55Z</time>
      </trkpt>
      <trkpt lat="45.90942" lon="4.40299">
        <ele>671</ele>
        <time>2016-12-01T12:56:01Z</time>
      </trkpt>
      <trkpt lat="45.90942" lon="4.40296">
        <ele>671</ele>
        <time>2016-12-01T12:56:02Z</time>
      </trkpt>
      <trkpt lat="45.90939" lon="4.40285">
        <ele>671</ele>
        <time>2016-12-01T12:56:08Z</time>
      </trkpt>
      <trkpt lat="45.90939" lon="4.40282">
        <ele>671</ele>
        <time>2016-12-01T12:56:09Z</time>
      </trkpt>
      <trkpt lat="45.90939" lon="4.40271">
        <ele>670</ele>
        <time>2016-12-01T12:56:14Z</time>
      </trkpt>
      <trkpt lat="45.90939" lon="4.40269">
        <ele>670</ele>
        <time>2016-12-01T12:56:15Z</time>
      </trkpt>
      <trkpt lat="45.90939" lon="4.40258">
        <ele>670</ele>
        <time>2016-12-01T12:56:19Z</time>
      </trkpt>
      <trkpt lat="45.90939" lon="4.40255">
        <ele>670</ele>
        <time>2016-12-01T12:56:20Z</time>
      </trkpt>
      <trkpt lat="45.90939" lon="4.40244">
        <ele>670</ele>
        <time>2016-12-01T12:56:25Z</time>
      </trkpt>
      <trkpt lat="45.9094" lon="4.40241">
        <ele>670</ele>
        <time>2016-12-01T12:56:26Z</time>
      </trkpt>
      <trkpt lat="45.90941" lon="4.40231">
        <ele>671</ele>
        <time>2016-12-01T12:56:30Z</time>
      </trkpt>
      <trkpt lat="45.90941" lon="4.40229">
        <ele>671</ele>
        <time>2016-12-01T12:56:31Z</time>
      </trkpt>
      <trkpt lat="45.90947" lon="4.40218">
        <ele>672</ele>
        <time>2016-12-01T12:56:35Z</time>
      </trkpt>
      <trkpt lat="45.90947" lon="4.40216">
        <ele>672</ele>
        <time>2016-12-01T12:56:36Z</time>
      </trkpt>
      <trkpt lat="45.90946" lon="4.40204">
        <ele>672</ele>
        <time>2016-12-01T12:56:45Z</time>
      </trkpt>
      <trkpt lat="45.90946" lon="4.40202">
        <ele>672</ele>
        <time>2016-12-01T12:56:46Z</time>
      </trkpt>
      <trkpt lat="45.90948" lon="4.4019">
        <ele>672</ele>
        <time>2016-12-01T12:56:57Z</time>
      </trkpt>
      <trkpt lat="45.90948" lon="4.40189">
        <ele>672</ele>
        <time>2016-12-01T12:56:58Z</time>
      </trkpt>
      <trkpt lat="45.90947" lon="4.40178">
        <ele>671</ele>
        <time>2016-12-01T12:57:04Z</time>
      </trkpt>
      <trkpt lat="45.90946" lon="4.40176">
        <ele>671</ele>
        <time>2016-12-01T12:57:05Z</time>
      </trkpt>
      <trkpt lat="45.90944" lon="4.40164">
        <ele>668</ele>
        <time>2016-12-01T12:57:12Z</time>
      </trkpt>
      <trkpt lat="45.90943" lon="4.40163">
        <ele>668</ele>
        <time>2016-12-01T12:57:13Z</time>
      </trkpt>
      <trkpt lat="45.90941" lon="4.40152">
        <ele>668</ele>
        <time>2016-12-01T12:57:18Z</time>
      </trkpt>
      <trkpt lat="45.90939" lon="4.4015">
        <ele>667</ele>
        <time>2016-12-01T12:57:19Z</time>
      </trkpt>
      <trkpt lat="45.90935" lon="4.40139">
        <ele>667</ele>
        <time>2016-12-01T12:57:25Z</time>
      </trkpt>
      <trkpt lat="45.90935" lon="4.40138">
        <ele>667</ele>
        <time>2016-12-01T12:57:26Z</time>
      </trkpt>
      <trkpt lat="45.90928" lon="4.40131">
        <ele>667</ele>
        <time>2016-12-01T12:57:29Z</time>
      </trkpt>
      <trkpt lat="45.90927" lon="4.40129">
        <ele>666</ele>
        <time>2016-12-01T12:57:30Z</time>
      </trkpt>
      <trkpt lat="45.90921" lon="4.4012">
        <ele>666</ele>
        <time>2016-12-01T12:57:35Z</time>
      </trkpt>
      <trkpt lat="45.9092" lon="4.40118">
        <ele>666</ele>
        <time>2016-12-01T12:57:36Z</time>
      </trkpt>
      <trkpt lat="45.90919" lon="4.40106">
        <ele>665</ele>
        <time>2016-12-01T12:57:40Z</time>
      </trkpt>
      <trkpt lat="45.90918" lon="4.40103">
        <ele>664</ele>
        <time>2016-12-01T12:57:41Z</time>
      </trkpt>
      <trkpt lat="45.90915" lon="4.40093">
        <ele>656</ele>
        <time>2016-12-01T12:57:45Z</time>
      </trkpt>
      <trkpt lat="45.90915" lon="4.40091">
        <ele>656</ele>
        <time>2016-12-01T12:57:46Z</time>
      </trkpt>
      <trkpt lat="45.90916" lon="4.40078">
        <ele>656</ele>
        <time>2016-12-01T12:57:51Z</time>
      </trkpt>
      <trkpt lat="45.90916" lon="4.40075">
        <ele>655</ele>
        <time>2016-12-01T12:57:52Z</time>
      </trkpt>
      <trkpt lat="45.90919" lon="4.40066">
        <ele>658</ele>
        <time>2016-12-01T12:57:56Z</time>
      </trkpt>
      <trkpt lat="45.90919" lon="4.40063">
        <ele>658</ele>
        <time>2016-12-01T12:57:57Z</time>
      </trkpt>
      <trkpt lat="45.90925" lon="4.40054">
        <ele>657</ele>
        <time>2016-12-01T12:58:04Z</time>
      </trkpt>
      <trkpt lat="45.90926" lon="4.40053">
        <ele>657</ele>
        <time>2016-12-01T12:58:05Z</time>
      </trkpt>
      <trkpt lat="45.90933" lon="4.40047">
        <ele>657</ele>
        <time>2016-12-01T12:58:11Z</time>
      </trkpt>
      <trkpt lat="45.90934" lon="4.40046">
        <ele>657</ele>
        <time>2016-12-01T12:58:12Z</time>
      </trkpt>
      <trkpt lat="45.90942" lon="4.40039">
        <ele>657</ele>
        <time>2016-12-01T12:58:17Z</time>
      </trkpt>
      <trkpt lat="45.90943" lon="4.40037">
        <ele>657</ele>
        <time>2016-12-01T12:58:18Z</time>
      </trkpt>
      <trkpt lat="45.90951" lon="4.4003">
        <ele>656</ele>
        <time>2016-12-01T12:58:23Z</time>
      </trkpt>
      <trkpt lat="45.90952" lon="4.40029">
        <ele>656</ele>
        <time>2016-12-01T12:58:24Z</time>
      </trkpt>
      <trkpt lat="45.90959" lon="4.40023">
        <ele>656</ele>
        <time>2016-12-01T12:58:29Z</time>
      </trkpt>
      <trkpt lat="45.9096" lon="4.40021">
        <ele>656</ele>
        <time>2016-12-01T12:58:30Z</time>
      </trkpt>
      <trkpt lat="45.90968" lon="4.40016">
        <ele>656</ele>
        <time>2016-12-01T12:58:36Z</time>
      </trkpt>
      <trkpt lat="45.90969" lon="4.40016">
        <ele>656</ele>
        <time>2016-12-01T12:58:37Z</time>
      </trkpt>
      <trkpt lat="45.90978" lon="4.40013">
        <ele>656</ele>
        <time>2016-12-01T12:58:45Z</time>
      </trkpt>
      <trkpt lat="45.90979" lon="4.40014">
        <ele>656</ele>
        <time>2016-12-01T12:58:46Z</time>
      </trkpt>
      <trkpt lat="45.90988" lon="4.40015">
        <ele>655</ele>
        <time>2016-12-01T12:58:54Z</time>
      </trkpt>
      <trkpt lat="45.90989" lon="4.40015">
        <ele>655</ele>
        <time>2016-12-01T12:58:55Z</time>
      </trkpt>
      <trkpt lat="45.90996" lon="4.40015">
        <ele>655</ele>
        <time>2016-12-01T12:59:02Z</time>
      </trkpt>
      <trkpt lat="45.90998" lon="4.40015">
        <ele>655</ele>
        <time>2016-12-01T12:59:03Z</time>
      </trkpt>
      <trkpt lat="45.91005" lon="4.40014">
        <ele>660</ele>
        <time>2016-12-01T12:59:09Z</time>
      </trkpt>
      <trkpt lat="45.91007" lon="4.40014">
        <ele>660</ele>
        <time>2016-12-01T12:59:10Z</time>
      </trkpt>
      <trkpt lat="45.91015" lon="4.40012">
        <ele>661</ele>
        <time>2016-12-01T12:59:16Z</time>
      </trkpt>
      <trkpt lat="45.91016" lon="4.40011">
        <ele>662</ele>
        <time>2016-12-01T12:59:17Z</time>
      </trkpt>
      <trkpt lat="45.91024" lon="4.40007">
        <ele>663</ele>
        <time>2016-12-01T12:59:23Z</time>
      </trkpt>
      <trkpt lat="45.91026" lon="4.40006">
        <ele>663</ele>
        <time>2016-12-01T12:59:24Z</time>
      </trkpt>
      <trkpt lat="45.91034" lon="4.40002">
        <ele>664</ele>
        <time>2016-12-01T12:59:29Z</time>
      </trkpt>
      <trkpt lat="45.91035" lon="4.40001">
        <ele>665</ele>
        <time>2016-12-01T12:59:30Z</time>
      </trkpt>
      <trkpt lat="45.91043" lon="4.39995">
        <ele>652</ele>
        <time>2016-12-01T12:59:36Z</time>
      </trkpt>
      <trkpt lat="45.91044" lon="4.39993">
        <ele>652</ele>
        <time>2016-12-01T12:59:37Z</time>
      </trkpt>
      <trkpt lat="45.91052" lon="4.39991">
        <ele>653</ele>
        <time>2016-12-01T12:59:43Z</time>
      </trkpt>
      <trkpt lat="45.91053" lon="4.39991">
        <ele>654</ele>
        <time>2016-12-01T12:59:44Z</time>
      </trkpt>
      <trkpt lat="45.91061" lon="4.39988">
        <ele>655</ele>
        <time>2016-12-01T12:59:50Z</time>
      </trkpt>
      <trkpt lat="45.91063" lon="4.39987">
        <ele>655</ele>
        <time>2016-12-01T12:59:51Z</time>
      </trkpt>
      <trkpt lat="45.91071" lon="4.39985">
        <ele>657</ele>
        <time>2016-12-01T12:59:57Z</time>
      </trkpt>
      <trkpt lat="45.91072" lon="4.39984">
        <ele>657</ele>
        <time>2016-12-01T12:59:58Z</time>
      </trkpt>
      <trkpt lat="45.9108" lon="4.39979">
        <ele>656</ele>
        <time>2016-12-01T13:00:03Z</time>
      </trkpt>
      <trkpt lat="45.91081" lon="4.39977">
        <ele>656</ele>
        <time>2016-12-01T13:00:04Z</time>
      </trkpt>
      <trkpt lat="45.91086" lon="4.39967">
        <ele>662</ele>
        <time>2016-12-01T13:00:11Z</time>
      </trkpt>
      <trkpt lat="45.91087" lon="4.39966">
        <ele>662</ele>
        <time>2016-12-01T13:00:12Z</time>
      </trkpt>
      <trkpt lat="45.91093" lon="4.39958">
        <ele>660</ele>
        <time>2016-12-01T13:00:20Z</time>
      </trkpt>
      <trkpt lat="45.91094" lon="4.39956">
        <ele>660</ele>
        <time>2016-12-01T13:00:21Z</time>
      </trkpt>
      <trkpt lat="45.91093" lon="4.39945">
        <ele>658</ele>
        <time>2016-12-01T13:00:29Z</time>
      </trkpt>
      <trkpt lat="45.91093" lon="4.39943">
        <ele>657</ele>
        <time>2016-12-01T13:00:30Z</time>
      </trkpt>
      <trkpt lat="45.91096" lon="4.39932">
        <ele>655</ele>
        <time>2016-12-01T13:00:39Z</time>
      </trkpt>
      <trkpt lat="45.91097" lon="4.3993">
        <ele>655</ele>
        <time>2016-12-01T13:00:40Z</time>
      </trkpt>
      <trkpt lat="45.911" lon="4.39919">
        <ele>654</ele>
        <time>2016-12-01T13:00:48Z</time>
      </trkpt>
      <trkpt lat="45.911" lon="4.39918">
        <ele>654</ele>
        <time>2016-12-01T13:00:49Z</time>
      </trkpt>
      <trkpt lat="45.91104" lon="4.39907">
        <ele>645</ele>
        <time>2016-12-01T13:00:57Z</time>
      </trkpt>
      <trkpt lat="45.91106" lon="4.39905">
        <ele>645</ele>
        <time>2016-12-01T13:00:58Z</time>
      </trkpt>
      <trkpt lat="45.91113" lon="4.39899">
        <ele>645</ele>
        <time>2016-12-01T13:01:02Z</time>
      </trkpt>
      <trkpt lat="45.91115" lon="4.39897">
        <ele>645</ele>
        <time>2016-12-01T13:01:03Z</time>
      </trkpt>
      <trkpt lat="45.9112" lon="4.39891">
        <ele>645</ele>
        <time>2016-12-01T13:01:07Z</time>
      </trkpt>
      <trkpt lat="45.91122" lon="4.39889">
        <ele>645</ele>
        <time>2016-12-01T13:01:08Z</time>
      </trkpt>
      <trkpt lat="45.91128" lon="4.39881">
        <ele>645</ele>
        <time>2016-12-01T13:01:13Z</time>
      </trkpt>
      <trkpt lat="45.91129" lon="4.3988">
        <ele>645</ele>
        <time>2016-12-01T13:01:14Z</time>
      </trkpt>
      <trkpt lat="45.91135" lon="4.39871">
        <ele>645</ele>
        <time>2016-12-01T13:01:21Z</time>
      </trkpt>
      <trkpt lat="45.91136" lon="4.3987">
        <ele>645</ele>
        <time>2016-12-01T13:01:22Z</time>
      </trkpt>
      <trkpt lat="45.91141" lon="4.39861">
        <ele>644</ele>
        <time>2016-12-01T13:01:28Z</time>
      </trkpt>
      <trkpt lat="45.91141" lon="4.39859">
        <ele>644</ele>
        <time>2016-12-01T13:01:29Z</time>
      </trkpt>
      <trkpt lat="45.91145" lon="4.39848">
        <ele>644</ele>
        <time>2016-12-01T13:01:35Z</time>
      </trkpt>
      <trkpt lat="45.91146" lon="4.39846">
        <ele>644</ele>
        <time>2016-12-01T13:01:36Z</time>
      </trkpt>
      <trkpt lat="45.91153" lon="4.39838">
        <ele>644</ele>
        <time>2016-12-01T13:01:42Z</time>
      </trkpt>
      <trkpt lat="45.91154" lon="4.39836">
        <ele>644</ele>
        <time>2016-12-01T13:01:43Z</time>
      </trkpt>
      <trkpt lat="45.9116" lon="4.3983">
        <ele>640</ele>
        <time>2016-12-01T13:01:48Z</time>
      </trkpt>
      <trkpt lat="45.91162" lon="4.39829">
        <ele>640</ele>
        <time>2016-12-01T13:01:49Z</time>
      </trkpt>
      <trkpt lat="45.91169" lon="4.39823">
        <ele>644</ele>
        <time>2016-12-01T13:01:54Z</time>
      </trkpt>
      <trkpt lat="45.91171" lon="4.39822">
        <ele>644</ele>
        <time>2016-12-01T13:01:55Z</time>
      </trkpt>
      <trkpt lat="45.91178" lon="4.39816">
        <ele>643</ele>
        <time>2016-12-01T13:02:00Z</time>
      </trkpt>
      <trkpt lat="45.91179" lon="4.39815">
        <ele>643</ele>
        <time>2016-12-01T13:02:01Z</time>
      </trkpt>
      <trkpt lat="45.91185" lon="4.39807">
        <ele>642</ele>
        <time>2016-12-01T13:02:07Z</time>
      </trkpt>
      <trkpt lat="45.91186" lon="4.39807">
        <ele>642</ele>
        <time>2016-12-01T13:02:08Z</time>
      </trkpt>
      <trkpt lat="45.91192" lon="4.39798">
        <ele>642</ele>
        <time>2016-12-01T13:02:14Z</time>
      </trkpt>
      <trkpt lat="45.91192" lon="4.39796">
        <ele>642</ele>
        <time>2016-12-01T13:02:15Z</time>
      </trkpt>
      <trkpt lat="45.91196" lon="4.39785">
        <ele>640</ele>
        <time>2016-12-01T13:02:22Z</time>
      </trkpt>
      <trkpt lat="45.91196" lon="4.39783">
        <ele>640</ele>
        <time>2016-12-01T13:02:23Z</time>
      </trkpt>
      <trkpt lat="45.91199" lon="4.39772">
        <ele>639</ele>
        <time>2016-12-01T13:02:30Z</time>
      </trkpt>
      <trkpt lat="45.91199" lon="4.39771">
        <ele>639</ele>
        <time>2016-12-01T13:02:31Z</time>
      </trkpt>
      <trkpt lat="45.91202" lon="4.39761">
        <ele>638</ele>
        <time>2016-12-01T13:02:37Z</time>
      </trkpt>
      <trkpt lat="45.91202" lon="4.39759">
        <ele>638</ele>
        <time>2016-12-01T13:02:38Z</time>
      </trkpt>
      <trkpt lat="45.91205" lon="4.39748">
        <ele>629</ele>
        <time>2016-12-01T13:02:45Z</time>
      </trkpt>
      <trkpt lat="45.91206" lon="4.39746">
        <ele>629</ele>
        <time>2016-12-01T13:02:46Z</time>
      </trkpt>
      <trkpt lat="45.91207" lon="4.39733">
        <ele>628</ele>
        <time>2016-12-01T13:02:54Z</time>
      </trkpt>
      <trkpt lat="45.91207" lon="4.39732">
        <ele>628</ele>
        <time>2016-12-01T13:02:55Z</time>
      </trkpt>
      <trkpt lat="45.91211" lon="4.39722">
        <ele>628</ele>
        <time>2016-12-01T13:03:01Z</time>
      </trkpt>
      <trkpt lat="45.91212" lon="4.3972">
        <ele>628</ele>
        <time>2016-12-01T13:03:02Z</time>
      </trkpt>
      <trkpt lat="45.91216" lon="4.3971">
        <ele>628</ele>
        <time>2016-12-01T13:03:07Z</time>
      </trkpt>
      <trkpt lat="45.91216" lon="4.39708">
        <ele>628</ele>
        <time>2016-12-01T13:03:08Z</time>
      </trkpt>
      <trkpt lat="45.9122" lon="4.39697">
        <ele>627</ele>
        <time>2016-12-01T13:03:13Z</time>
      </trkpt>
      <trkpt lat="45.91221" lon="4.39695">
        <ele>627</ele>
        <time>2016-12-01T13:03:14Z</time>
      </trkpt>
      <trkpt lat="45.91225" lon="4.39685">
        <ele>627</ele>
        <time>2016-12-01T13:03:19Z</time>
      </trkpt>
      <trkpt lat="45.91226" lon="4.39683">
        <ele>627</ele>
        <time>2016-12-01T13:03:20Z</time>
      </trkpt>
      <trkpt lat="45.9123" lon="4.39672">
        <ele>628</ele>
        <time>2016-12-01T13:03:26Z</time>
      </trkpt>
      <trkpt lat="45.9123" lon="4.3967">
        <ele>628</ele>
        <time>2016-12-01T13:03:27Z</time>
      </trkpt>
      <trkpt lat="45.91233" lon="4.3966">
        <ele>624</ele>
        <time>2016-12-01T13:03:33Z</time>
      </trkpt>
      <trkpt lat="45.91234" lon="4.39659">
        <ele>624</ele>
        <time>2016-12-01T13:03:34Z</time>
      </trkpt>
      <trkpt lat="45.91239" lon="4.39648">
        <ele>623</ele>
        <time>2016-12-01T13:03:41Z</time>
      </trkpt>
      <trkpt lat="45.91239" lon="4.39647">
        <ele>623</ele>
        <time>2016-12-01T13:03:42Z</time>
      </trkpt>
      <trkpt lat="45.91241" lon="4.39635">
        <ele>622</ele>
        <time>2016-12-01T13:03:52Z</time>
      </trkpt>
      <trkpt lat="45.91242" lon="4.39634">
        <ele>622</ele>
        <time>2016-12-01T13:03:53Z</time>
      </trkpt>
      <trkpt lat="45.91245" lon="4.39623">
        <ele>622</ele>
        <time>2016-12-01T13:04:03Z</time>
      </trkpt>
      <trkpt lat="45.91244" lon="4.39622">
        <ele>622</ele>
        <time>2016-12-01T13:04:04Z</time>
      </trkpt>
      <trkpt lat="45.91238" lon="4.39612">
        <ele>621</ele>
        <time>2016-12-01T13:04:13Z</time>
      </trkpt>
      <trkpt lat="45.91238" lon="4.3961">
        <ele>621</ele>
        <time>2016-12-01T13:04:14Z</time>
      </trkpt>
      <trkpt lat="45.91235" lon="4.39598">
        <ele>622</ele>
        <time>2016-12-01T13:04:21Z</time>
      </trkpt>
      <trkpt lat="45.91235" lon="4.39596">
        <ele>622</ele>
        <time>2016-12-01T13:04:22Z</time>
      </trkpt>
      <trkpt lat="45.91238" lon="4.39585">
        <ele>624</ele>
        <time>2016-12-01T13:04:27Z</time>
      </trkpt>
      <trkpt lat="45.91239" lon="4.39583">
        <ele>623</ele>
        <time>2016-12-01T13:04:28Z</time>
      </trkpt>
      <trkpt lat="45.91241" lon="4.39573">
        <ele>622</ele>
        <time>2016-12-01T13:04:32Z</time>
      </trkpt>
      <trkpt lat="45.91241" lon="4.3957">
        <ele>621</ele>
        <time>2016-12-01T13:04:33Z</time>
      </trkpt>
      <trkpt lat="45.91244" lon="4.3956">
        <ele>620</ele>
        <time>2016-12-01T13:04:38Z</time>
      </trkpt>
      <trkpt lat="45.91245" lon="4.39558">
        <ele>620</ele>
        <time>2016-12-01T13:04:39Z</time>
      </trkpt>
      <trkpt lat="45.91245" lon="4.39547">
        <ele>619</ele>
        <time>2016-12-01T13:04:45Z</time>
      </trkpt>
      <trkpt lat="45.91245" lon="4.39545">
        <ele>619</ele>
        <time>2016-12-01T13:04:46Z</time>
      </trkpt>
      <trkpt lat="45.91246" lon="4.39533">
        <ele>619</ele>
        <time>2016-12-01T13:04:53Z</time>
      </trkpt>
      <trkpt lat="45.91245" lon="4.39531">
        <ele>619</ele>
        <time>2016-12-01T13:04:54Z</time>
      </trkpt>
      <trkpt lat="45.91245" lon="4.3952">
        <ele>620</ele>
        <time>2016-12-01T13:05:02Z</time>
      </trkpt>
      <trkpt lat="45.91244" lon="4.39518">
        <ele>621</ele>
        <time>2016-12-01T13:05:03Z</time>
      </trkpt>
      <trkpt lat="45.91246" lon="4.39507">
        <ele>624</ele>
        <time>2016-12-01T13:05:11Z</time>
      </trkpt>
      <trkpt lat="45.91247" lon="4.39505">
        <ele>625</ele>
        <time>2016-12-01T13:05:12Z</time>
      </trkpt>
      <trkpt lat="45.91251" lon="4.39494">
        <ele>629</ele>
        <time>2016-12-01T13:05:22Z</time>
      </trkpt>
      <trkpt lat="45.91251" lon="4.39493">
        <ele>629</ele>
        <time>2016-12-01T13:05:23Z</time>
      </trkpt>
      <trkpt lat="45.91255" lon="4.39483">
        <ele>631</ele>
        <time>2016-12-01T13:05:30Z</time>
      </trkpt>
      <trkpt lat="45.91255" lon="4.39481">
        <ele>631</ele>
        <time>2016-12-01T13:05:31Z</time>
      </trkpt>
      <trkpt lat="45.91258" lon="4.39469">
        <ele>631</ele>
        <time>2016-12-01T13:05:37Z</time>
      </trkpt>
      <trkpt lat="45.91259" lon="4.39467">
        <ele>631</ele>
        <time>2016-12-01T13:05:38Z</time>
      </trkpt>
      <trkpt lat="45.91263" lon="4.39456">
        <ele>631</ele>
        <time>2016-12-01T13:05:45Z</time>
      </trkpt>
      <trkpt lat="45.91264" lon="4.39455">
        <ele>631</ele>
        <time>2016-12-01T13:05:46Z</time>
      </trkpt>
      <trkpt lat="45.91268" lon="4.39445">
        <ele>630</ele>
        <time>2016-12-01T13:05:53Z</time>
      </trkpt>
      <trkpt lat="45.91269" lon="4.39443">
        <ele>630</ele>
        <time>2016-12-01T13:05:54Z</time>
      </trkpt>
      <trkpt lat="45.91274" lon="4.39433">
        <ele>630</ele>
        <time>2016-12-01T13:06:01Z</time>
      </trkpt>
      <trkpt lat="45.91274" lon="4.39432">
        <ele>629</ele>
        <time>2016-12-01T13:06:02Z</time>
      </trkpt>
      <trkpt lat="45.91277" lon="4.39421">
        <ele>629</ele>
        <time>2016-12-01T13:06:10Z</time>
      </trkpt>
      <trkpt lat="45.91277" lon="4.39419">
        <ele>629</ele>
        <time>2016-12-01T13:06:11Z</time>
      </trkpt>
      <trkpt lat="45.9128" lon="4.39408">
        <ele>623</ele>
        <time>2016-12-01T13:06:18Z</time>
      </trkpt>
      <trkpt lat="45.9128" lon="4.39406">
        <ele>623</ele>
        <time>2016-12-01T13:06:19Z</time>
      </trkpt>
      <trkpt lat="45.91285" lon="4.39397">
        <ele>624</ele>
        <time>2016-12-01T13:06:25Z</time>
      </trkpt>
      <trkpt lat="45.91286" lon="4.39396">
        <ele>624</ele>
        <time>2016-12-01T13:06:26Z</time>
      </trkpt>
      <trkpt lat="45.91292" lon="4.39388">
        <ele>624</ele>
        <time>2016-12-01T13:06:31Z</time>
      </trkpt>
      <trkpt lat="45.91293" lon="4.39386">
        <ele>624</ele>
        <time>2016-12-01T13:06:32Z</time>
      </trkpt>
      <trkpt lat="45.91298" lon="4.39377">
        <ele>624</ele>
        <time>2016-12-01T13:06:37Z</time>
      </trkpt>
      <trkpt lat="45.91299" lon="4.39376">
        <ele>624</ele>
        <time>2016-12-01T13:06:38Z</time>
      </trkpt>
      <trkpt lat="45.91303" lon="4.39366">
        <ele>624</ele>
        <time>2016-12-01T13:06:43Z</time>
      </trkpt>
      <trkpt lat="45.91304" lon="4.39364">
        <ele>624</ele>
        <time>2016-12-01T13:06:44Z</time>
      </trkpt>
      <trkpt lat="45.91308" lon="4.39355">
        <ele>624</ele>
        <time>2016-12-01T13:06:49Z</time>
      </trkpt>
      <trkpt lat="45.91309" lon="4.39353">
        <ele>624</ele>
        <time>2016-12-01T13:06:50Z</time>
      </trkpt>
      <trkpt lat="45.91315" lon="4.39346">
        <ele>624</ele>
        <time>2016-12-01T13:06:54Z</time>
      </trkpt>
      <trkpt lat="45.91317" lon="4.39345">
        <ele>624</ele>
        <time>2016-12-01T13:06:55Z</time>
      </trkpt>
      <trkpt lat="45.91323" lon="4.39337">
        <ele>625</ele>
        <time>2016-12-01T13:07:00Z</time>
      </trkpt>
      <trkpt lat="45.91325" lon="4.39335">
        <ele>625</ele>
        <time>2016-12-01T13:07:01Z</time>
      </trkpt>
      <trkpt lat="45.91332" lon="4.3933">
        <ele>623</ele>
        <time>2016-12-01T13:07:06Z</time>
      </trkpt>
      <trkpt lat="45.91333" lon="4.39329">
        <ele>623</ele>
        <time>2016-12-01T13:07:07Z</time>
      </trkpt>
      <trkpt lat="45.91341" lon="4.39325">
        <ele>623</ele>
        <time>2016-12-01T13:07:13Z</time>
      </trkpt>
      <trkpt lat="45.91342" lon="4.39325">
        <ele>623</ele>
        <time>2016-12-01T13:07:14Z</time>
      </trkpt>
      <trkpt lat="45.9135" lon="4.3932">
        <ele>622</ele>
        <time>2016-12-01T13:07:21Z</time>
      </trkpt>
      <trkpt lat="45.91351" lon="4.39319">
        <ele>622</ele>
        <time>2016-12-01T13:07:22Z</time>
      </trkpt>
      <trkpt lat="45.91358" lon="4.39314">
        <ele>621</ele>
        <time>2016-12-01T13:07:28Z</time>
      </trkpt>
      <trkpt lat="45.91359" lon="4.39313">
        <ele>621</ele>
        <time>2016-12-01T13:07:29Z</time>
      </trkpt>
      <trkpt lat="45.91367" lon="4.39308">
        <ele>621</ele>
        <time>2016-12-01T13:07:37Z</time>
      </trkpt>
      <trkpt lat="45.91368" lon="4.39308">
        <ele>620</ele>
        <time>2016-12-01T13:07:38Z</time>
      </trkpt>
      <trkpt lat="45.91375" lon="4.39303">
        <ele>620</ele>
        <time>2016-12-01T13:07:44Z</time>
      </trkpt>
      <trkpt lat="45.91377" lon="4.39303">
        <ele>620</ele>
        <time>2016-12-01T13:07:45Z</time>
      </trkpt>
      <trkpt lat="45.91385" lon="4.39299">
        <ele>620</ele>
        <time>2016-12-01T13:07:50Z</time>
      </trkpt>
      <trkpt lat="45.91387" lon="4.39298">
        <ele>620</ele>
        <time>2016-12-01T13:07:51Z</time>
      </trkpt>
      <trkpt lat="45.91395" lon="4.39294">
        <ele>619</ele>
        <time>2016-12-01T13:07:58Z</time>
      </trkpt>
      <trkpt lat="45.91396" lon="4.39293">
        <ele>619</ele>
        <time>2016-12-01T13:07:59Z</time>
      </trkpt>
      <trkpt lat="45.91403" lon="4.39288">
        <ele>619</ele>
        <time>2016-12-01T13:08:05Z</time>
      </trkpt>
      <trkpt lat="45.91404" lon="4.39287">
        <ele>618</ele>
        <time>2016-12-01T13:08:06Z</time>
      </trkpt>
      <trkpt lat="45.91411" lon="4.3928">
        <ele>617</ele>
        <time>2016-12-01T13:08:12Z</time>
      </trkpt>
      <trkpt lat="45.91412" lon="4.39279">
        <ele>617</ele>
        <time>2016-12-01T13:08:13Z</time>
      </trkpt>
      <trkpt lat="45.9142" lon="4.39275">
        <ele>616</ele>
        <time>2016-12-01T13:08:21Z</time>
      </trkpt>
      <trkpt lat="45.91422" lon="4.39275">
        <ele>615</ele>
        <time>2016-12-01T13:08:22Z</time>
      </trkpt>
      <trkpt lat="45.91429" lon="4.39272">
        <ele>615</ele>
        <time>2016-12-01T13:08:28Z</time>
      </trkpt>
      <trkpt lat="45.9143" lon="4.39271">
        <ele>615</ele>
        <time>2016-12-01T13:08:29Z</time>
      </trkpt>
      <trkpt lat="45.91437" lon="4.39267">
        <ele>615</ele>
        <time>2016-12-01T13:08:34Z</time>
      </trkpt>
      <trkpt lat="45.91439" lon="4.39266">
        <ele>615</ele>
        <time>2016-12-01T13:08:35Z</time>
      </trkpt>
      <trkpt lat="45.91446" lon="4.39262">
        <ele>614</ele>
        <time>2016-12-01T13:08:40Z</time>
      </trkpt>
      <trkpt lat="45.91448" lon="4.39262">
        <ele>614</ele>
        <time>2016-12-01T13:08:41Z</time>
      </trkpt>
      <trkpt lat="45.91456" lon="4.3926">
        <ele>614</ele>
        <time>2016-12-01T13:08:46Z</time>
      </trkpt>
      <trkpt lat="45.91457" lon="4.3926">
        <ele>614</ele>
        <time>2016-12-01T13:08:47Z</time>
      </trkpt>
      <trkpt lat="45.91465" lon="4.3926">
        <ele>614</ele>
        <time>2016-12-01T13:08:53Z</time>
      </trkpt>
      <trkpt lat="45.91467" lon="4.39261">
        <ele>614</ele>
        <time>2016-12-01T13:08:54Z</time>
      </trkpt>
      <trkpt lat="45.91474" lon="4.39262">
        <ele>613</ele>
        <time>2016-12-01T13:08:59Z</time>
      </trkpt>
      <trkpt lat="45.91476" lon="4.39262">
        <ele>613</ele>
        <time>2016-12-01T13:09:00Z</time>
      </trkpt>
      <trkpt lat="45.91484" lon="4.39262">
        <ele>612</ele>
        <time>2016-12-01T13:09:05Z</time>
      </trkpt>
      <trkpt lat="45.91485" lon="4.39263">
        <ele>612</ele>
        <time>2016-12-01T13:09:06Z</time>
      </trkpt>
      <trkpt lat="45.91493" lon="4.39263">
        <ele>611</ele>
        <time>2016-12-01T13:09:11Z</time>
      </trkpt>
      <trkpt lat="45.91494" lon="4.39264">
        <ele>610</ele>
        <time>2016-12-01T13:09:12Z</time>
      </trkpt>
      <trkpt lat="45.91502" lon="4.39265">
        <ele>609</ele>
        <time>2016-12-01T13:09:18Z</time>
      </trkpt>
      <trkpt lat="45.91503" lon="4.39265">
        <ele>609</ele>
        <time>2016-12-01T13:09:19Z</time>
      </trkpt>
      <trkpt lat="45.91512" lon="4.39267">
        <ele>610</ele>
        <time>2016-12-01T13:09:25Z</time>
      </trkpt>
      <trkpt lat="45.91513" lon="4.39267">
        <ele>610</ele>
        <time>2016-12-01T13:09:26Z</time>
      </trkpt>
      <trkpt lat="45.91521" lon="4.39268">
        <ele>611</ele>
        <time>2016-12-01T13:09:32Z</time>
      </trkpt>
      <trkpt lat="45.91522" lon="4.39269">
        <ele>611</ele>
        <time>2016-12-01T13:09:33Z</time>
      </trkpt>
      <trkpt lat="45.91531" lon="4.39271">
        <ele>611</ele>
        <time>2016-12-01T13:10:08Z</time>
      </trkpt>
      <trkpt lat="45.91532" lon="4.39271">
        <ele>611</ele>
        <time>2016-12-01T13:10:09Z</time>
      </trkpt>
      <trkpt lat="45.9154" lon="4.39277">
        <ele>612</ele>
        <time>2016-12-01T13:10:27Z</time>
      </trkpt>
      <trkpt lat="45.9154" lon="4.39278">
        <ele>612</ele>
        <time>2016-12-01T13:10:28Z</time>
      </trkpt>
      <trkpt lat="45.91547" lon="4.39286">
        <ele>612</ele>
        <time>2016-12-01T13:10:37Z</time>
      </trkpt>
      <trkpt lat="45.91547" lon="4.39287">
        <ele>612</ele>
        <time>2016-12-01T13:10:38Z</time>
      </trkpt>
      <trkpt lat="45.91553" lon="4.39295">
        <ele>613</ele>
        <time>2016-12-01T13:10:46Z</time>
      </trkpt>
      <trkpt lat="45.91554" lon="4.39297">
        <ele>613</ele>
        <time>2016-12-01T13:10:47Z</time>
      </trkpt>
      <trkpt lat="45.9156" lon="4.39304">
        <ele>614</ele>
        <time>2016-12-01T13:10:54Z</time>
      </trkpt>
      <trkpt lat="45.91561" lon="4.39305">
        <ele>614</ele>
        <time>2016-12-01T13:10:55Z</time>
      </trkpt>
      <trkpt lat="45.91567" lon="4.39312">
        <ele>614</ele>
        <time>2016-12-01T13:11:02Z</time>
      </trkpt>
      <trkpt lat="45.91568" lon="4.39313">
        <ele>614</ele>
        <time>2016-12-01T13:11:03Z</time>
      </trkpt>
      <trkpt lat="45.91576" lon="4.39316">
        <ele>615</ele>
        <time>2016-12-01T13:11:09Z</time>
      </trkpt>
      <trkpt lat="45.91577" lon="4.39316">
        <ele>615</ele>
        <time>2016-12-01T13:11:10Z</time>
      </trkpt>
      <trkpt lat="45.91585" lon="4.39311">
        <ele>619</ele>
        <time>2016-12-01T13:11:17Z</time>
      </trkpt>
      <trkpt lat="45.91586" lon="4.3931">
        <ele>619</ele>
        <time>2016-12-01T13:11:18Z</time>
      </trkpt>
      <trkpt lat="45.91592" lon="4.393">
        <ele>619</ele>
        <time>2016-12-01T13:11:26Z</time>
      </trkpt>
      <trkpt lat="45.91592" lon="4.39298">
        <ele>619</ele>
        <time>2016-12-01T13:11:27Z</time>
      </trkpt>
      <trkpt lat="45.91595" lon="4.39286">
        <ele>618</ele>
        <time>2016-12-01T13:11:35Z</time>
      </trkpt>
      <trkpt lat="45.91595" lon="4.39285">
        <ele>618</ele>
        <time>2016-12-01T13:11:36Z</time>
      </trkpt>
      <trkpt lat="45.91596" lon="4.39272">
        <ele>616</ele>
        <time>2016-12-01T13:11:43Z</time>
      </trkpt>
      <trkpt lat="45.91596" lon="4.39271">
        <ele>616</ele>
        <time>2016-12-01T13:11:44Z</time>
      </trkpt>
      <trkpt lat="45.91599" lon="4.3926">
        <ele>615</ele>
        <time>2016-12-01T13:11:51Z</time>
      </trkpt>
      <trkpt lat="45.916" lon="4.39258">
        <ele>614</ele>
        <time>2016-12-01T13:11:52Z</time>
      </trkpt>
      <trkpt lat="45.91605" lon="4.39248">
        <ele>612</ele>
        <time>2016-12-01T13:11:59Z</time>
      </trkpt>
      <trkpt lat="45.91605" lon="4.39247">
        <ele>612</ele>
        <time>2016-12-01T13:12:00Z</time>
      </trkpt>
      <trkpt lat="45.91611" lon="4.39237">
        <ele>613</ele>
        <time>2016-12-01T13:12:09Z</time>
      </trkpt>
      <trkpt lat="45.91612" lon="4.39237">
        <ele>614</ele>
        <time>2016-12-01T13:12:10Z</time>
      </trkpt>
      <trkpt lat="45.91619" lon="4.3923">
        <ele>615</ele>
        <time>2016-12-01T13:12:18Z</time>
      </trkpt>
      <trkpt lat="45.9162" lon="4.3923">
        <ele>615</ele>
        <time>2016-12-01T13:12:19Z</time>
      </trkpt>
      <trkpt lat="45.91629" lon="4.39229">
        <ele>616</ele>
        <time>2016-12-01T13:12:27Z</time>
      </trkpt>
      <trkpt lat="45.9163" lon="4.39228">
        <ele>617</ele>
        <time>2016-12-01T13:12:28Z</time>
      </trkpt>
      <trkpt lat="45.91637" lon="4.39222">
        <ele>618</ele>
        <time>2016-12-01T13:12:36Z</time>
      </trkpt>
      <trkpt lat="45.91638" lon="4.39222">
        <ele>618</ele>
        <time>2016-12-01T13:12:37Z</time>
      </trkpt>
      <trkpt lat="45.91646" lon="4.39217">
        <ele>619</ele>
        <time>2016-12-01T13:12:45Z</time>
      </trkpt>
      <trkpt lat="45.91647" lon="4.39216">
        <ele>619</ele>
        <time>2016-12-01T13:12:46Z</time>
      </trkpt>
      <trkpt lat="45.91652" lon="4.39206">
        <ele>619</ele>
        <time>2016-12-01T13:12:54Z</time>
      </trkpt>
      <trkpt lat="45.91653" lon="4.39205">
        <ele>619</ele>
        <time>2016-12-01T13:12:55Z</time>
      </trkpt>
      <trkpt lat="45.91653" lon="4.39194">
        <ele>619</ele>
        <time>2016-12-01T13:13:06Z</time>
      </trkpt>
      <trkpt lat="45.91652" lon="4.39192">
        <ele>619</ele>
        <time>2016-12-01T13:13:07Z</time>
      </trkpt>
      <trkpt lat="45.91652" lon="4.3918">
        <ele>620</ele>
        <time>2016-12-01T13:13:18Z</time>
      </trkpt>
      <trkpt lat="45.91651" lon="4.39179">
        <ele>620</ele>
        <time>2016-12-01T13:13:19Z</time>
      </trkpt>
      <trkpt lat="45.91652" lon="4.39167">
        <ele>621</ele>
        <time>2016-12-01T13:13:28Z</time>
      </trkpt>
      <trkpt lat="45.91652" lon="4.39166">
        <ele>619</ele>
        <time>2016-12-01T13:13:29Z</time>
      </trkpt>
      <trkpt lat="45.91652" lon="4.39153">
        <ele>618</ele>
        <time>2016-12-01T13:13:46Z</time>
      </trkpt>
      <trkpt lat="45.91652" lon="4.39152">
        <ele>618</ele>
        <time>2016-12-01T13:13:47Z</time>
      </trkpt>
      <trkpt lat="45.91654" lon="4.3914">
        <ele>616</ele>
        <time>2016-12-01T13:14:28Z</time>
      </trkpt>
      <trkpt lat="45.91654" lon="4.39139">
        <ele>616</ele>
        <time>2016-12-01T13:14:29Z</time>
      </trkpt>
      <trkpt lat="45.91655" lon="4.39126">
        <ele>615</ele>
        <time>2016-12-01T13:14:36Z</time>
      </trkpt>
      <trkpt lat="45.91655" lon="4.39125">
        <ele>615</ele>
        <time>2016-12-01T13:14:37Z</time>
      </trkpt>
      <trkpt lat="45.91655" lon="4.39112">
        <ele>615</ele>
        <time>2016-12-01T13:14:45Z</time>
      </trkpt>
      <trkpt lat="45.91655" lon="4.39111">
        <ele>615</ele>
        <time>2016-12-01T13:14:46Z</time>
      </trkpt>
      <trkpt lat="45.91659" lon="4.39101">
        <ele>617</ele>
        <time>2016-12-01T13:14:53Z</time>
      </trkpt>
      <trkpt lat="45.91659" lon="4.391">
        <ele>617</ele>
        <time>2016-12-01T13:14:54Z</time>
      </trkpt>
      <trkpt lat="45.91662" lon="4.39088">
        <ele>620</ele>
        <time>2016-12-01T13:15:04Z</time>
      </trkpt>
      <trkpt lat="45.91663" lon="4.39087">
        <ele>620</ele>
        <time>2016-12-01T13:15:05Z</time>
      </trkpt>
      <trkpt lat="45.91669" lon="4.39079">
        <ele>625</ele>
        <time>2016-12-01T13:15:23Z</time>
      </trkpt>
      <trkpt lat="45.9167" lon="4.39078">
        <ele>625</ele>
        <time>2016-12-01T13:15:24Z</time>
      </trkpt>
      <trkpt lat="45.91676" lon="4.39069">
        <ele>629</ele>
        <time>2016-12-01T13:16:42Z</time>
      </trkpt>
      <trkpt lat="45.91676" lon="4.39068">
        <ele>629</ele>
        <time>2016-12-01T13:16:43Z</time>
      </trkpt>
      <trkpt lat="45.91676" lon="4.39056">
        <ele>631</ele>
        <time>2016-12-01T13:16:52Z</time>
      </trkpt>
      <trkpt lat="45.91676" lon="4.39054">
        <ele>631</ele>
        <time>2016-12-01T13:16:53Z</time>
      </trkpt>
      <trkpt lat="45.91679" lon="4.39043">
        <ele>631</ele>
        <time>2016-12-01T13:17:03Z</time>
      </trkpt>
      <trkpt lat="45.91679" lon="4.39042">
        <ele>631</ele>
        <time>2016-12-01T13:17:04Z</time>
      </trkpt>
      <trkpt lat="45.91681" lon="4.39029">
        <ele>631</ele>
        <time>2016-12-01T13:17:12Z</time>
      </trkpt>
      <trkpt lat="45.91681" lon="4.39027">
        <ele>630</ele>
        <time>2016-12-01T13:17:13Z</time>
      </trkpt>
      <trkpt lat="45.91684" lon="4.39016">
        <ele>630</ele>
        <time>2016-12-01T13:17:20Z</time>
      </trkpt>
      <trkpt lat="45.91685" lon="4.39015">
        <ele>629</ele>
        <time>2016-12-01T13:17:21Z</time>
      </trkpt>
      <trkpt lat="45.91689" lon="4.39003">
        <ele>629</ele>
        <time>2016-12-01T13:17:29Z</time>
      </trkpt>
      <trkpt lat="45.91689" lon="4.39002">
        <ele>630</ele>
        <time>2016-12-01T13:17:30Z</time>
      </trkpt>
      <trkpt lat="45.91694" lon="4.38992">
        <ele>626</ele>
        <time>2016-12-01T13:17:37Z</time>
      </trkpt>
      <trkpt lat="45.91695" lon="4.3899">
        <ele>626</ele>
        <time>2016-12-01T13:17:38Z</time>
      </trkpt>
      <trkpt lat="45.91699" lon="4.3898">
        <ele>627</ele>
        <time>2016-12-01T13:17:45Z</time>
      </trkpt>
      <trkpt lat="45.917" lon="4.38978">
        <ele>627</ele>
        <time>2016-12-01T13:17:46Z</time>
      </trkpt>
      <trkpt lat="45.91705" lon="4.38968">
        <ele>627</ele>
        <time>2016-12-01T13:17:53Z</time>
      </trkpt>
      <trkpt lat="45.91706" lon="4.38966">
        <ele>627</ele>
        <time>2016-12-01T13:17:54Z</time>
      </trkpt>
      <trkpt lat="45.91709" lon="4.38955">
        <ele>627</ele>
        <time>2016-12-01T13:18:01Z</time>
      </trkpt>
      <trkpt lat="45.9171" lon="4.38953">
        <ele>627</ele>
        <time>2016-12-01T13:18:02Z</time>
      </trkpt>
      <trkpt lat="45.91715" lon="4.38944">
        <ele>627</ele>
        <time>2016-12-01T13:18:08Z</time>
      </trkpt>
      <trkpt lat="45.91716" lon="4.38942">
        <ele>627</ele>
        <time>2016-12-01T13:18:09Z</time>
      </trkpt>
      <trkpt lat="45.91721" lon="4.38934">
        <ele>628</ele>
        <time>2016-12-01T13:18:15Z</time>
      </trkpt>
      <trkpt lat="45.91722" lon="4.38932">
        <ele>628</ele>
        <time>2016-12-01T13:18:16Z</time>
      </trkpt>
      <trkpt lat="45.91728" lon="4.38924">
        <ele>629</ele>
        <time>2016-12-01T13:18:21Z</time>
      </trkpt>
      <trkpt lat="45.91729" lon="4.38923">
        <ele>629</ele>
        <time>2016-12-01T13:18:22Z</time>
      </trkpt>
      <trkpt lat="45.91735" lon="4.38914">
        <ele>624</ele>
        <time>2016-12-01T13:18:29Z</time>
      </trkpt>
      <trkpt lat="45.91736" lon="4.38913">
        <ele>624</ele>
        <time>2016-12-01T13:18:30Z</time>
      </trkpt>
      <trkpt lat="45.91744" lon="4.3891">
        <ele>627</ele>
        <time>2016-12-01T13:18:37Z</time>
      </trkpt>
      <trkpt lat="45.91745" lon="4.38909">
        <ele>628</ele>
        <time>2016-12-01T13:18:38Z</time>
      </trkpt>
      <trkpt lat="45.91753" lon="4.38904">
        <ele>633</ele>
        <time>2016-12-01T13:18:45Z</time>
      </trkpt>
      <trkpt lat="45.91754" lon="4.38904">
        <ele>633</ele>
        <time>2016-12-01T13:18:46Z</time>
      </trkpt>
      <trkpt lat="45.91762" lon="4.38898">
        <ele>633</ele>
        <time>2016-12-01T13:18:54Z</time>
      </trkpt>
      <trkpt lat="45.91763" lon="4.38897">
        <ele>632</ele>
        <time>2016-12-01T13:18:55Z</time>
      </trkpt>
      <trkpt lat="45.91771" lon="4.38893">
        <ele>632</ele>
        <time>2016-12-01T13:19:02Z</time>
      </trkpt>
      <trkpt lat="45.91772" lon="4.38892">
        <ele>632</ele>
        <time>2016-12-01T13:19:03Z</time>
      </trkpt>
      <trkpt lat="45.9178" lon="4.38889">
        <ele>632</ele>
        <time>2016-12-01T13:19:09Z</time>
      </trkpt>
      <trkpt lat="45.91781" lon="4.38889">
        <ele>632</ele>
        <time>2016-12-01T13:19:10Z</time>
      </trkpt>
      <trkpt lat="45.9179" lon="4.38889">
        <ele>633</ele>
        <time>2016-12-01T13:19:17Z</time>
      </trkpt>
      <trkpt lat="45.91791" lon="4.38888">
        <ele>633</ele>
        <time>2016-12-01T13:19:18Z</time>
      </trkpt>
      <trkpt lat="45.918" lon="4.38884">
        <ele>633</ele>
        <time>2016-12-01T13:19:25Z</time>
      </trkpt>
      <trkpt lat="45.91801" lon="4.38884">
        <ele>633</ele>
        <time>2016-12-01T13:19:26Z</time>
      </trkpt>
      <trkpt lat="45.91809" lon="4.38881">
        <ele>634</ele>
        <time>2016-12-01T13:19:33Z</time>
      </trkpt>
      <trkpt lat="45.9181" lon="4.3888">
        <ele>634</ele>
        <time>2016-12-01T13:19:34Z</time>
      </trkpt>
      <trkpt lat="45.91818" lon="4.38878">
        <ele>634</ele>
        <time>2016-12-01T13:19:41Z</time>
      </trkpt>
      <trkpt lat="45.9182" lon="4.38878">
        <ele>634</ele>
        <time>2016-12-01T13:19:42Z</time>
      </trkpt>
      <trkpt lat="45.91828" lon="4.38878">
        <ele>635</ele>
        <time>2016-12-01T13:19:50Z</time>
      </trkpt>
      <trkpt lat="45.91829" lon="4.38878">
        <ele>635</ele>
        <time>2016-12-01T13:19:51Z</time>
      </trkpt>
      <trkpt lat="45.91838" lon="4.38879">
        <ele>642</ele>
        <time>2016-12-01T13:19:58Z</time>
      </trkpt>
      <trkpt lat="45.91839" lon="4.38879">
        <ele>642</ele>
        <time>2016-12-01T13:19:59Z</time>
      </trkpt>
      <trkpt lat="45.91847" lon="4.38878">
        <ele>642</ele>
        <time>2016-12-01T13:20:07Z</time>
      </trkpt>
      <trkpt lat="45.91848" lon="4.38879">
        <ele>642</ele>
        <time>2016-12-01T13:20:08Z</time>
      </trkpt>
      <trkpt lat="45.91856" lon="4.38885">
        <ele>643</ele>
        <time>2016-12-01T13:20:16Z</time>
      </trkpt>
      <trkpt lat="45.91856" lon="4.38885">
        <ele>643</ele>
        <time>2016-12-01T13:20:17Z</time>
      </trkpt>
      <trkpt lat="45.91864" lon="4.38884">
        <ele>643</ele>
        <time>2016-12-01T13:20:26Z</time>
      </trkpt>
      <trkpt lat="45.91866" lon="4.38884">
        <ele>643</ele>
        <time>2016-12-01T13:20:27Z</time>
      </trkpt>
      <trkpt lat="45.91874" lon="4.38885">
        <ele>644</ele>
        <time>2016-12-01T13:20:35Z</time>
      </trkpt>
      <trkpt lat="45.91875" lon="4.38886">
        <ele>644</ele>
        <time>2016-12-01T13:20:36Z</time>
      </trkpt>
      <trkpt lat="45.91883" lon="4.38888">
        <ele>645</ele>
        <time>2016-12-01T13:20:43Z</time>
      </trkpt>
      <trkpt lat="45.91884" lon="4.38889">
        <ele>645</ele>
        <time>2016-12-01T13:20:44Z</time>
      </trkpt>
      <trkpt lat="45.91892" lon="4.38891">
        <ele>646</ele>
        <time>2016-12-01T13:20:53Z</time>
      </trkpt>
      <trkpt lat="45.91893" lon="4.38892">
        <ele>646</ele>
        <time>2016-12-01T13:20:54Z</time>
      </trkpt>
      <trkpt lat="45.91902" lon="4.38892">
        <ele>647</ele>
        <time>2016-12-01T13:21:02Z</time>
      </trkpt>
      <trkpt lat="45.91903" lon="4.38892">
        <ele>647</ele>
        <time>2016-12-01T13:21:03Z</time>
      </trkpt>
      <trkpt lat="45.91912" lon="4.38894">
        <ele>649</ele>
        <time>2016-12-01T13:21:10Z</time>
      </trkpt>
      <trkpt lat="45.91913" lon="4.38894">
        <ele>649</ele>
        <time>2016-12-01T13:21:11Z</time>
      </trkpt>
      <trkpt lat="45.9192" lon="4.38899">
        <ele>651</ele>
        <time>2016-12-01T13:21:20Z</time>
      </trkpt>
      <trkpt lat="45.91921" lon="4.389">
        <ele>652</ele>
        <time>2016-12-01T13:21:21Z</time>
      </trkpt>
      <trkpt lat="45.91929" lon="4.389">
        <ele>651</ele>
        <time>2016-12-01T13:21:28Z</time>
      </trkpt>
      <trkpt lat="45.9193" lon="4.389">
        <ele>651</ele>
        <time>2016-12-01T13:21:29Z</time>
      </trkpt>
      <trkpt lat="45.91939" lon="4.38902">
        <ele>650</ele>
        <time>2016-12-01T13:21:35Z</time>
      </trkpt>
      <trkpt lat="45.9194" lon="4.38902">
        <ele>649</ele>
        <time>2016-12-01T13:21:36Z</time>
      </trkpt>
      <trkpt lat="45.91948" lon="4.38903">
        <ele>648</ele>
        <time>2016-12-01T13:21:41Z</time>
      </trkpt>
      <trkpt lat="45.91949" lon="4.38904">
        <ele>648</ele>
        <time>2016-12-01T13:21:42Z</time>
      </trkpt>
      <trkpt lat="45.91957" lon="4.38907">
        <ele>648</ele>
        <time>2016-12-01T13:21:47Z</time>
      </trkpt>
      <trkpt lat="45.9196" lon="4.38907">
        <ele>648</ele>
        <time>2016-12-01T13:21:48Z</time>
      </trkpt>
      <trkpt lat="45.91967" lon="4.38911">
        <ele>648</ele>
        <time>2016-12-01T13:21:55Z</time>
      </trkpt>
      <trkpt lat="45.91968" lon="4.38912">
        <ele>648</ele>
        <time>2016-12-01T13:21:56Z</time>
      </trkpt>
      <trkpt lat="45.91976" lon="4.38916">
        <ele>649</ele>
        <time>2016-12-01T13:22:05Z</time>
      </trkpt>
      <trkpt lat="45.91977" lon="4.38916">
        <ele>649</ele>
        <time>2016-12-01T13:22:06Z</time>
      </trkpt>
      <trkpt lat="45.91984" lon="4.38923">
        <ele>661</ele>
        <time>2016-12-01T13:22:12Z</time>
      </trkpt>
      <trkpt lat="45.91986" lon="4.38924">
        <ele>660</ele>
        <time>2016-12-01T13:22:13Z</time>
      </trkpt>
      <trkpt lat="45.91993" lon="4.38931">
        <ele>661</ele>
        <time>2016-12-01T13:22:18Z</time>
      </trkpt>
      <trkpt lat="45.91994" lon="4.38931">
        <ele>661</ele>
        <time>2016-12-01T13:22:19Z</time>
      </trkpt>
      <trkpt lat="45.92001" lon="4.38937">
        <ele>663</ele>
        <time>2016-12-01T13:22:26Z</time>
      </trkpt>
      <trkpt lat="45.92002" lon="4.38938">
        <ele>663</ele>
        <time>2016-12-01T13:22:27Z</time>
      </trkpt>
      <trkpt lat="45.92009" lon="4.38946">
        <ele>665</ele>
        <time>2016-12-01T13:22:39Z</time>
      </trkpt>
      <trkpt lat="45.9201" lon="4.38946">
        <ele>665</ele>
        <time>2016-12-01T13:22:40Z</time>
      </trkpt>
      <trkpt lat="45.92017" lon="4.3895">
        <ele>666</ele>
        <time>2016-12-01T13:22:46Z</time>
      </trkpt>
      <trkpt lat="45.92019" lon="4.3895">
        <ele>667</ele>
        <time>2016-12-01T13:22:47Z</time>
      </trkpt>
      <trkpt lat="45.92026" lon="4.38953">
        <ele>667</ele>
        <time>2016-12-01T13:22:51Z</time>
      </trkpt>
      <trkpt lat="45.92028" lon="4.38953">
        <ele>668</ele>
        <time>2016-12-01T13:22:52Z</time>
      </trkpt>
      <trkpt lat="45.92035" lon="4.38953">
        <ele>668</ele>
        <time>2016-12-01T13:22:56Z</time>
      </trkpt>
      <trkpt lat="45.92037" lon="4.38953">
        <ele>668</ele>
        <time>2016-12-01T13:22:57Z</time>
      </trkpt>
      <trkpt lat="45.92046" lon="4.38953">
        <ele>668</ele>
        <time>2016-12-01T13:23:02Z</time>
      </trkpt>
      <trkpt lat="45.92047" lon="4.38953">
        <ele>668</ele>
        <time>2016-12-01T13:23:03Z</time>
      </trkpt>
      <trkpt lat="45.92055" lon="4.38952">
        <ele>668</ele>
        <time>2016-12-01T13:23:09Z</time>
      </trkpt>
      <trkpt lat="45.92057" lon="4.38952">
        <ele>669</ele>
        <time>2016-12-01T13:23:10Z</time>
      </trkpt>
      <trkpt lat="45.92065" lon="4.38953">
        <ele>669</ele>
        <time>2016-12-01T13:23:16Z</time>
      </trkpt>
      <trkpt lat="45.92066" lon="4.38952">
        <ele>669</ele>
        <time>2016-12-01T13:23:17Z</time>
      </trkpt>
      <trkpt lat="45.92074" lon="4.38951">
        <ele>669</ele>
        <time>2016-12-01T13:23:23Z</time>
      </trkpt>
      <trkpt lat="45.92076" lon="4.3895">
        <ele>668</ele>
        <time>2016-12-01T13:23:24Z</time>
      </trkpt>
      <trkpt lat="45.92083" lon="4.38949">
        <ele>668</ele>
        <time>2016-12-01T13:23:29Z</time>
      </trkpt>
      <trkpt lat="45.92085" lon="4.38948">
        <ele>673</ele>
        <time>2016-12-01T13:23:30Z</time>
      </trkpt>
      <trkpt lat="45.92092" lon="4.38946">
        <ele>673</ele>
        <time>2016-12-01T13:23:35Z</time>
      </trkpt>
      <trkpt lat="45.92094" lon="4.38945">
        <ele>673</ele>
        <time>2016-12-01T13:23:36Z</time>
      </trkpt>
      <trkpt lat="45.92102" lon="4.38946">
        <ele>673</ele>
        <time>2016-12-01T13:23:43Z</time>
      </trkpt>
      <trkpt lat="45.92103" lon="4.38946">
        <ele>674</ele>
        <time>2016-12-01T13:23:44Z</time>
      </trkpt>
      <trkpt lat="45.92112" lon="4.38948">
        <ele>675</ele>
        <time>2016-12-01T13:23:50Z</time>
      </trkpt>
      <trkpt lat="45.92113" lon="4.38948">
        <ele>675</ele>
        <time>2016-12-01T13:23:51Z</time>
      </trkpt>
      <trkpt lat="45.92121" lon="4.38949">
        <ele>676</ele>
        <time>2016-12-01T13:23:57Z</time>
      </trkpt>
      <trkpt lat="45.92122" lon="4.38949">
        <ele>676</ele>
        <time>2016-12-01T13:23:58Z</time>
      </trkpt>
      <trkpt lat="45.92131" lon="4.38949">
        <ele>676</ele>
        <time>2016-12-01T13:24:05Z</time>
      </trkpt>
      <trkpt lat="45.92132" lon="4.3895">
        <ele>676</ele>
        <time>2016-12-01T13:24:06Z</time>
      </trkpt>
      <trkpt lat="45.92141" lon="4.38952">
        <ele>677</ele>
        <time>2016-12-01T13:24:13Z</time>
      </trkpt>
      <trkpt lat="45.92142" lon="4.38952">
        <ele>677</ele>
        <time>2016-12-01T13:24:14Z</time>
      </trkpt>
      <trkpt lat="45.9215" lon="4.38954">
        <ele>678</ele>
        <time>2016-12-01T13:24:20Z</time>
      </trkpt>
      <trkpt lat="45.92151" lon="4.38954">
        <ele>678</ele>
        <time>2016-12-01T13:24:21Z</time>
      </trkpt>
      <trkpt lat="45.92159" lon="4.38954">
        <ele>678</ele>
        <time>2016-12-01T13:24:28Z</time>
      </trkpt>
      <trkpt lat="45.92161" lon="4.38954">
        <ele>678</ele>
        <time>2016-12-01T13:24:29Z</time>
      </trkpt>
      <trkpt lat="45.92169" lon="4.38953">
        <ele>685</ele>
        <time>2016-12-01T13:24:36Z</time>
      </trkpt>
      <trkpt lat="45.92171" lon="4.38952">
        <ele>685</ele>
        <time>2016-12-01T13:24:37Z</time>
      </trkpt>
      <trkpt lat="45.92179" lon="4.38952">
        <ele>686</ele>
        <time>2016-12-01T13:24:43Z</time>
      </trkpt>
      <trkpt lat="45.9218" lon="4.38952">
        <ele>686</ele>
        <time>2016-12-01T13:24:44Z</time>
      </trkpt>
      <trkpt lat="45.92188" lon="4.3895">
        <ele>686</ele>
        <time>2016-12-01T13:24:51Z</time>
      </trkpt>
      <trkpt lat="45.9219" lon="4.3895">
        <ele>686</ele>
        <time>2016-12-01T13:24:52Z</time>
      </trkpt>
      <trkpt lat="45.92198" lon="4.38947">
        <ele>687</ele>
        <time>2016-12-01T13:25:00Z</time>
      </trkpt>
      <trkpt lat="45.92199" lon="4.38947">
        <ele>687</ele>
        <time>2016-12-01T13:25:01Z</time>
      </trkpt>
      <trkpt lat="45.92206" lon="4.38941">
        <ele>687</ele>
        <time>2016-12-01T13:25:08Z</time>
      </trkpt>
      <trkpt lat="45.92207" lon="4.3894">
        <ele>687</ele>
        <time>2016-12-01T13:25:09Z</time>
      </trkpt>
      <trkpt lat="45.92213" lon="4.38932">
        <ele>687</ele>
        <time>2016-12-01T13:25:18Z</time>
      </trkpt>
      <trkpt lat="45.92214" lon="4.38931">
        <ele>687</ele>
        <time>2016-12-01T13:25:19Z</time>
      </trkpt>
      <trkpt lat="45.92221" lon="4.38923">
        <ele>687</ele>
        <time>2016-12-01T13:25:27Z</time>
      </trkpt>
      <trkpt lat="45.92222" lon="4.38921">
        <ele>687</ele>
        <time>2016-12-01T13:25:28Z</time>
      </trkpt>
      <trkpt lat="45.9223" lon="4.38916">
        <ele>679</ele>
        <time>2016-12-01T13:25:35Z</time>
      </trkpt>
      <trkpt lat="45.92231" lon="4.38917">
        <ele>679</ele>
        <time>2016-12-01T13:25:36Z</time>
      </trkpt>
      <trkpt lat="45.92238" lon="4.38909">
        <ele>681</ele>
        <time>2016-12-01T13:25:44Z</time>
      </trkpt>
      <trkpt lat="45.92238" lon="4.38908">
        <ele>681</ele>
        <time>2016-12-01T13:25:45Z</time>
      </trkpt>
      <trkpt lat="45.92238" lon="4.38897">
        <ele>678</ele>
        <time>2016-12-01T13:25:50Z</time>
      </trkpt>
      <trkpt lat="45.92239" lon="4.38895">
        <ele>678</ele>
        <time>2016-12-01T13:25:51Z</time>
      </trkpt>
      <trkpt lat="45.92242" lon="4.38884">
        <ele>676</ele>
        <time>2016-12-01T13:25:58Z</time>
      </trkpt>
      <trkpt lat="45.92243" lon="4.38884">
        <ele>676</ele>
        <time>2016-12-01T13:25:59Z</time>
      </trkpt>
      <trkpt lat="45.92249" lon="4.38877">
        <ele>675</ele>
        <time>2016-12-01T13:26:05Z</time>
      </trkpt>
      <trkpt lat="45.9225" lon="4.38875">
        <ele>688</ele>
        <time>2016-12-01T13:26:06Z</time>
      </trkpt>
      <trkpt lat="45.92257" lon="4.38868">
        <ele>687</ele>
        <time>2016-12-01T13:26:12Z</time>
      </trkpt>
      <trkpt lat="45.92258" lon="4.38867">
        <ele>687</ele>
        <time>2016-12-01T13:26:13Z</time>
      </trkpt>
      <trkpt lat="45.92262" lon="4.38857">
        <ele>685</ele>
        <time>2016-12-01T13:26:21Z</time>
      </trkpt>
      <trkpt lat="45.92263" lon="4.38856">
        <ele>685</ele>
        <time>2016-12-01T13:26:22Z</time>
      </trkpt>
      <trkpt lat="45.9227" lon="4.3885">
        <ele>685</ele>
        <time>2016-12-01T13:26:29Z</time>
      </trkpt>
      <trkpt lat="45.92272" lon="4.38849">
        <ele>685</ele>
        <time>2016-12-01T13:26:30Z</time>
      </trkpt>
      <trkpt lat="45.92279" lon="4.38843">
        <ele>686</ele>
        <time>2016-12-01T13:26:36Z</time>
      </trkpt>
      <trkpt lat="45.92279" lon="4.38842">
        <ele>686</ele>
        <time>2016-12-01T13:26:37Z</time>
      </trkpt>
      <trkpt lat="45.92285" lon="4.38834">
        <ele>687</ele>
        <time>2016-12-01T13:26:46Z</time>
      </trkpt>
      <trkpt lat="45.92287" lon="4.38833">
        <ele>687</ele>
        <time>2016-12-01T13:26:47Z</time>
      </trkpt>
      <trkpt lat="45.92294" lon="4.38828">
        <ele>676</ele>
        <time>2016-12-01T13:26:53Z</time>
      </trkpt>
      <trkpt lat="45.92294" lon="4.38827">
        <ele>676</ele>
        <time>2016-12-01T13:26:54Z</time>
      </trkpt>
      <trkpt lat="45.92302" lon="4.38825">
        <ele>677</ele>
        <time>2016-12-01T13:27:00Z</time>
      </trkpt>
      <trkpt lat="45.92303" lon="4.38825">
        <ele>678</ele>
        <time>2016-12-01T13:27:01Z</time>
      </trkpt>
      <trkpt lat="45.9231" lon="4.38818">
        <ele>678</ele>
        <time>2016-12-01T13:27:07Z</time>
      </trkpt>
      <trkpt lat="45.92311" lon="4.38817">
        <ele>679</ele>
        <time>2016-12-01T13:27:08Z</time>
      </trkpt>
      <trkpt lat="45.92319" lon="4.38814">
        <ele>680</ele>
        <time>2016-12-01T13:27:15Z</time>
      </trkpt>
      <trkpt lat="45.9232" lon="4.38813">
        <ele>680</ele>
        <time>2016-12-01T13:27:16Z</time>
      </trkpt>
      <trkpt lat="45.92328" lon="4.3881">
        <ele>680</ele>
        <time>2016-12-01T13:27:23Z</time>
      </trkpt>
      <trkpt lat="45.92329" lon="4.3881">
        <ele>680</ele>
        <time>2016-12-01T13:27:24Z</time>
      </trkpt>
      <trkpt lat="45.92337" lon="4.38804">
        <ele>690</ele>
        <time>2016-12-01T13:27:30Z</time>
      </trkpt>
      <trkpt lat="45.92338" lon="4.38803">
        <ele>690</ele>
        <time>2016-12-01T13:27:31Z</time>
      </trkpt>
      <trkpt lat="45.92344" lon="4.38795">
        <ele>689</ele>
        <time>2016-12-01T13:27:37Z</time>
      </trkpt>
      <trkpt lat="45.92345" lon="4.38794">
        <ele>689</ele>
        <time>2016-12-01T13:27:38Z</time>
      </trkpt>
      <trkpt lat="45.92353" lon="4.3879">
        <ele>689</ele>
        <time>2016-12-01T13:27:46Z</time>
      </trkpt>
      <trkpt lat="45.92354" lon="4.3879">
        <ele>689</ele>
        <time>2016-12-01T13:27:47Z</time>
      </trkpt>
      <trkpt lat="45.92362" lon="4.38787">
        <ele>689</ele>
        <time>2016-12-01T13:27:53Z</time>
      </trkpt>
      <trkpt lat="45.92363" lon="4.38787">
        <ele>690</ele>
        <time>2016-12-01T13:27:54Z</time>
      </trkpt>
      <trkpt lat="45.92371" lon="4.38783">
        <ele>690</ele>
        <time>2016-12-01T13:28:00Z</time>
      </trkpt>
      <trkpt lat="45.92372" lon="4.38782">
        <ele>690</ele>
        <time>2016-12-01T13:28:01Z</time>
      </trkpt>
      <trkpt lat="45.92379" lon="4.38777">
        <ele>690</ele>
        <time>2016-12-01T13:28:07Z</time>
      </trkpt>
      <trkpt lat="45.92381" lon="4.38777">
        <ele>691</ele>
        <time>2016-12-01T13:28:08Z</time>
      </trkpt>
      <trkpt lat="45.92388" lon="4.3877">
        <ele>691</ele>
        <time>2016-12-01T13:28:15Z</time>
      </trkpt>
      <trkpt lat="45.92389" lon="4.38769">
        <ele>691</ele>
        <time>2016-12-01T13:28:16Z</time>
      </trkpt>
      <trkpt lat="45.92396" lon="4.38766">
        <ele>691</ele>
        <time>2016-12-01T13:28:24Z</time>
      </trkpt>
      <trkpt lat="45.92398" lon="4.38765">
        <ele>691</ele>
        <time>2016-12-01T13:28:25Z</time>
      </trkpt>
      <trkpt lat="45.92405" lon="4.38761">
        <ele>692</ele>
        <time>2016-12-01T13:28:30Z</time>
      </trkpt>
      <trkpt lat="45.92407" lon="4.3876">
        <ele>692</ele>
        <time>2016-12-01T13:28:31Z</time>
      </trkpt>
      <trkpt lat="45.92414" lon="4.38753">
        <ele>692</ele>
        <time>2016-12-01T13:28:38Z</time>
      </trkpt>
      <trkpt lat="45.92415" lon="4.38752">
        <ele>692</ele>
        <time>2016-12-01T13:28:39Z</time>
      </trkpt>
      <trkpt lat="45.92422" lon="4.38744">
        <ele>691</ele>
        <time>2016-12-01T13:28:46Z</time>
      </trkpt>
      <trkpt lat="45.92423" lon="4.38743">
        <ele>691</ele>
        <time>2016-12-01T13:28:47Z</time>
      </trkpt>
      <trkpt lat="45.92431" lon="4.38741">
        <ele>691</ele>
        <time>2016-12-01T13:28:57Z</time>
      </trkpt>
      <trkpt lat="45.92432" lon="4.3874">
        <ele>691</ele>
        <time>2016-12-01T13:28:58Z</time>
      </trkpt>
      <trkpt lat="45.92438" lon="4.38732">
        <ele>690</ele>
        <time>2016-12-01T13:29:07Z</time>
      </trkpt>
      <trkpt lat="45.92438" lon="4.38731">
        <ele>690</ele>
        <time>2016-12-01T13:29:08Z</time>
      </trkpt>
      <trkpt lat="45.92445" lon="4.38724">
        <ele>690</ele>
        <time>2016-12-01T13:29:15Z</time>
      </trkpt>
      <trkpt lat="45.92446" lon="4.38724">
        <ele>690</ele>
        <time>2016-12-01T13:29:16Z</time>
      </trkpt>
      <trkpt lat="45.92451" lon="4.38713">
        <ele>689</ele>
        <time>2016-12-01T13:29:24Z</time>
      </trkpt>
      <trkpt lat="45.92452" lon="4.38711">
        <ele>689</ele>
        <time>2016-12-01T13:29:25Z</time>
      </trkpt>
      <trkpt lat="45.92456" lon="4.38702">
        <ele>688</ele>
        <time>2016-12-01T13:29:31Z</time>
      </trkpt>
      <trkpt lat="45.92457" lon="4.387">
        <ele>688</ele>
        <time>2016-12-01T13:29:32Z</time>
      </trkpt>
      <trkpt lat="45.9246" lon="4.38691">
        <ele>687</ele>
        <time>2016-12-01T13:29:37Z</time>
      </trkpt>
      <trkpt lat="45.92462" lon="4.38689">
        <ele>687</ele>
        <time>2016-12-01T13:29:38Z</time>
      </trkpt>
      <trkpt lat="45.9247" lon="4.38684">
        <ele>688</ele>
        <time>2016-12-01T13:29:44Z</time>
      </trkpt>
      <trkpt lat="45.92471" lon="4.38683">
        <ele>688</ele>
        <time>2016-12-01T13:29:45Z</time>
      </trkpt>
      <trkpt lat="45.92479" lon="4.38678">
        <ele>688</ele>
        <time>2016-12-01T13:29:52Z</time>
      </trkpt>
      <trkpt lat="45.9248" lon="4.38677">
        <ele>688</ele>
        <time>2016-12-01T13:29:53Z</time>
      </trkpt>
      <trkpt lat="45.92486" lon="4.38669">
        <ele>688</ele>
        <time>2016-12-01T13:29:59Z</time>
      </trkpt>
      <trkpt lat="45.92487" lon="4.38667">
        <ele>688</ele>
        <time>2016-12-01T13:30:00Z</time>
      </trkpt>
      <trkpt lat="45.92493" lon="4.38657">
        <ele>680</ele>
        <time>2016-12-01T13:30:06Z</time>
      </trkpt>
      <trkpt lat="45.92494" lon="4.38656">
        <ele>680</ele>
        <time>2016-12-01T13:30:07Z</time>
      </trkpt>
      <trkpt lat="45.92501" lon="4.3865">
        <ele>684</ele>
        <time>2016-12-01T13:30:14Z</time>
      </trkpt>
      <trkpt lat="45.92502" lon="4.38649">
        <ele>684</ele>
        <time>2016-12-01T13:30:15Z</time>
      </trkpt>
      <trkpt lat="45.92509" lon="4.38645">
        <ele>684</ele>
        <time>2016-12-01T13:30:20Z</time>
      </trkpt>
      <trkpt lat="45.92511" lon="4.38644">
        <ele>683</ele>
        <time>2016-12-01T13:30:21Z</time>
      </trkpt>
      <trkpt lat="45.92517" lon="4.38637">
        <ele>682</ele>
        <time>2016-12-01T13:30:27Z</time>
      </trkpt>
      <trkpt lat="45.92518" lon="4.38636">
        <ele>682</ele>
        <time>2016-12-01T13:30:28Z</time>
      </trkpt>
      <trkpt lat="45.92524" lon="4.38628">
        <ele>681</ele>
        <time>2016-12-01T13:30:33Z</time>
      </trkpt>
      <trkpt lat="45.92525" lon="4.38627">
        <ele>681</ele>
        <time>2016-12-01T13:30:34Z</time>
      </trkpt>
      <trkpt lat="45.92532" lon="4.38619">
        <ele>681</ele>
        <time>2016-12-01T13:30:40Z</time>
      </trkpt>
      <trkpt lat="45.92532" lon="4.38618">
        <ele>680</ele>
        <time>2016-12-01T13:30:41Z</time>
      </trkpt>
      <trkpt lat="45.9254" lon="4.38612">
        <ele>680</ele>
        <time>2016-12-01T13:30:52Z</time>
      </trkpt>
      <trkpt lat="45.92541" lon="4.38611">
        <ele>680</ele>
        <time>2016-12-01T13:30:53Z</time>
      </trkpt>
      <trkpt lat="45.92547" lon="4.38606">
        <ele>680</ele>
        <time>2016-12-01T13:31:00Z</time>
      </trkpt>
      <trkpt lat="45.92549" lon="4.38606">
        <ele>681</ele>
        <time>2016-12-01T13:31:01Z</time>
      </trkpt>
      <trkpt lat="45.92557" lon="4.38602">
        <ele>681</ele>
        <time>2016-12-01T13:31:07Z</time>
      </trkpt>
      <trkpt lat="45.92558" lon="4.38601">
        <ele>681</ele>
        <time>2016-12-01T13:31:08Z</time>
      </trkpt>
      <trkpt lat="45.92566" lon="4.38601">
        <ele>681</ele>
        <time>2016-12-01T13:31:15Z</time>
      </trkpt>
      <trkpt lat="45.92568" lon="4.386">
        <ele>681</ele>
        <time>2016-12-01T13:31:16Z</time>
      </trkpt>
      <trkpt lat="45.92576" lon="4.38599">
        <ele>681</ele>
        <time>2016-12-01T13:31:22Z</time>
      </trkpt>
      <trkpt lat="45.92577" lon="4.38599">
        <ele>681</ele>
        <time>2016-12-01T13:31:23Z</time>
      </trkpt>
      <trkpt lat="45.92586" lon="4.38602">
        <ele>684</ele>
        <time>2016-12-01T13:31:40Z</time>
      </trkpt>
      <trkpt lat="45.92586" lon="4.38601">
        <ele>684</ele>
        <time>2016-12-01T13:31:41Z</time>
      </trkpt>
      <trkpt lat="45.92594" lon="4.386">
        <ele>684</ele>
        <time>2016-12-01T13:31:49Z</time>
      </trkpt>
      <trkpt lat="45.92596" lon="4.386">
        <ele>684</ele>
        <time>2016-12-01T13:31:50Z</time>
      </trkpt>
      <trkpt lat="45.92604" lon="4.38601">
        <ele>685</ele>
        <time>2016-12-01T13:31:56Z</time>
      </trkpt>
      <trkpt lat="45.92605" lon="4.38601">
        <ele>685</ele>
        <time>2016-12-01T13:31:57Z</time>
      </trkpt>
      <trkpt lat="45.92614" lon="4.38601">
        <ele>685</ele>
        <time>2016-12-01T13:32:03Z</time>
      </trkpt>
      <trkpt lat="45.92615" lon="4.38601">
        <ele>686</ele>
        <time>2016-12-01T13:32:04Z</time>
      </trkpt>
      <trkpt lat="45.92623" lon="4.38601">
        <ele>686</ele>
        <time>2016-12-01T13:32:10Z</time>
      </trkpt>
      <trkpt lat="45.92624" lon="4.386">
        <ele>686</ele>
        <time>2016-12-01T13:32:11Z</time>
      </trkpt>
      <trkpt lat="45.92632" lon="4.38599">
        <ele>686</ele>
        <time>2016-12-01T13:32:19Z</time>
      </trkpt>
      <trkpt lat="45.92633" lon="4.38598">
        <ele>686</ele>
        <time>2016-12-01T13:32:20Z</time>
      </trkpt>
      <trkpt lat="45.92641" lon="4.38594">
        <ele>686</ele>
        <time>2016-12-01T13:32:31Z</time>
      </trkpt>
      <trkpt lat="45.92642" lon="4.38593">
        <ele>686</ele>
        <time>2016-12-01T13:32:32Z</time>
      </trkpt>
      <trkpt lat="45.92648" lon="4.38584">
        <ele>686</ele>
        <time>2016-12-01T13:32:48Z</time>
      </trkpt>
      <trkpt lat="45.92649" lon="4.38583">
        <ele>686</ele>
        <time>2016-12-01T13:32:49Z</time>
      </trkpt>
      <trkpt lat="45.92654" lon="4.38575">
        <ele>686</ele>
        <time>2016-12-01T13:32:54Z</time>
      </trkpt>
      <trkpt lat="45.92655" lon="4.38573">
        <ele>686</ele>
        <time>2016-12-01T13:32:55Z</time>
      </trkpt>
      <trkpt lat="45.92661" lon="4.38564">
        <ele>686</ele>
        <time>2016-12-01T13:33:06Z</time>
      </trkpt>
      <trkpt lat="45.92661" lon="4.38563">
        <ele>686</ele>
        <time>2016-12-01T13:33:07Z</time>
      </trkpt>
      <trkpt lat="45.92668" lon="4.38556">
        <ele>690</ele>
        <time>2016-12-01T13:33:17Z</time>
      </trkpt>
      <trkpt lat="45.92668" lon="4.38555">
        <ele>690</ele>
        <time>2016-12-01T13:33:18Z</time>
      </trkpt>
      <trkpt lat="45.92673" lon="4.38545">
        <ele>691</ele>
        <time>2016-12-01T13:33:27Z</time>
      </trkpt>
      <trkpt lat="45.92674" lon="4.38544">
        <ele>691</ele>
        <time>2016-12-01T13:33:28Z</time>
      </trkpt>
      <trkpt lat="45.92679" lon="4.38533">
        <ele>691</ele>
        <time>2016-12-01T13:33:43Z</time>
      </trkpt>
      <trkpt lat="45.92679" lon="4.38533">
        <ele>691</ele>
        <time>2016-12-01T13:33:44Z</time>
      </trkpt>
      <trkpt lat="45.92672" lon="4.38524">
        <ele>691</ele>
        <time>2016-12-01T13:34:04Z</time>
      </trkpt>
      <trkpt lat="45.92672" lon="4.38523">
        <ele>691</ele>
        <time>2016-12-01T13:34:05Z</time>
      </trkpt>
      <trkpt lat="45.92666" lon="4.38514">
        <ele>689</ele>
        <time>2016-12-01T13:34:12Z</time>
      </trkpt>
      <trkpt lat="45.92665" lon="4.38513">
        <ele>689</ele>
        <time>2016-12-01T13:34:13Z</time>
      </trkpt>
      <trkpt lat="45.9266" lon="4.38505">
        <ele>689</ele>
        <time>2016-12-01T13:34:19Z</time>
      </trkpt>
      <trkpt lat="45.92659" lon="4.38503">
        <ele>689</ele>
        <time>2016-12-01T13:34:20Z</time>
      </trkpt>
      <trkpt lat="45.92653" lon="4.38495">
        <ele>692</ele>
        <time>2016-12-01T13:34:25Z</time>
      </trkpt>
      <trkpt lat="45.92653" lon="4.38494">
        <ele>692</ele>
        <time>2016-12-01T13:34:26Z</time>
      </trkpt>
      <trkpt lat="45.92651" lon="4.38481">
        <ele>693</ele>
        <time>2016-12-01T13:34:34Z</time>
      </trkpt>
      <trkpt lat="45.92651" lon="4.3848">
        <ele>693</ele>
        <time>2016-12-01T13:34:35Z</time>
      </trkpt>
      <trkpt lat="45.9265" lon="4.38469">
        <ele>693</ele>
        <time>2016-12-01T13:34:42Z</time>
      </trkpt>
      <trkpt lat="45.92649" lon="4.38467">
        <ele>694</ele>
        <time>2016-12-01T13:34:43Z</time>
      </trkpt>
      <trkpt lat="45.92646" lon="4.38455">
        <ele>695</ele>
        <time>2016-12-01T13:34:50Z</time>
      </trkpt>
      <trkpt lat="45.92646" lon="4.38454">
        <ele>695</ele>
        <time>2016-12-01T13:34:51Z</time>
      </trkpt>
      <trkpt lat="45.92643" lon="4.38443">
        <ele>696</ele>
        <time>2016-12-01T13:34:59Z</time>
      </trkpt>
      <trkpt lat="45.92643" lon="4.38441">
        <ele>696</ele>
        <time>2016-12-01T13:35:00Z</time>
      </trkpt>
      <trkpt lat="45.92641" lon="4.3843">
        <ele>697</ele>
        <time>2016-12-01T13:35:09Z</time>
      </trkpt>
      <trkpt lat="45.92641" lon="4.38429">
        <ele>697</ele>
        <time>2016-12-01T13:35:10Z</time>
      </trkpt>
      <trkpt lat="45.92641" lon="4.38417">
        <ele>700</ele>
        <time>2016-12-01T13:35:20Z</time>
      </trkpt>
      <trkpt lat="45.92641" lon="4.38415">
        <ele>700</ele>
        <time>2016-12-01T13:35:21Z</time>
      </trkpt>
      <trkpt lat="45.92641" lon="4.38403">
        <ele>700</ele>
        <time>2016-12-01T13:35:32Z</time>
      </trkpt>
      <trkpt lat="45.92641" lon="4.38402">
        <ele>700</ele>
        <time>2016-12-01T13:35:33Z</time>
      </trkpt>
      <trkpt lat="45.92645" lon="4.38391">
        <ele>700</ele>
        <time>2016-12-01T13:35:44Z</time>
      </trkpt>
      <trkpt lat="45.92646" lon="4.3839">
        <ele>700</ele>
        <time>2016-12-01T13:35:45Z</time>
      </trkpt>
      <trkpt lat="45.92651" lon="4.38381">
        <ele>700</ele>
        <time>2016-12-01T13:35:56Z</time>
      </trkpt>
      <trkpt lat="45.92652" lon="4.3838">
        <ele>700</ele>
        <time>2016-12-01T13:35:57Z</time>
      </trkpt>
      <trkpt lat="45.92657" lon="4.38371">
        <ele>700</ele>
        <time>2016-12-01T13:36:06Z</time>
      </trkpt>
      <trkpt lat="45.92658" lon="4.3837">
        <ele>700</ele>
        <time>2016-12-01T13:36:07Z</time>
      </trkpt>
      <trkpt lat="45.92663" lon="4.3836">
        <ele>701</ele>
        <time>2016-12-01T13:36:14Z</time>
      </trkpt>
      <trkpt lat="45.92664" lon="4.38359">
        <ele>701</ele>
        <time>2016-12-01T13:36:15Z</time>
      </trkpt>
      <trkpt lat="45.92668" lon="4.38349">
        <ele>707</ele>
        <time>2016-12-01T13:36:21Z</time>
      </trkpt>
      <trkpt lat="45.92669" lon="4.38348">
        <ele>707</ele>
        <time>2016-12-01T13:36:22Z</time>
      </trkpt>
      <trkpt lat="45.92676" lon="4.38341">
        <ele>707</ele>
        <time>2016-12-01T13:36:28Z</time>
      </trkpt>
      <trkpt lat="45.92676" lon="4.3834">
        <ele>707</ele>
        <time>2016-12-01T13:36:29Z</time>
      </trkpt>
      <trkpt lat="45.9268" lon="4.38328">
        <ele>708</ele>
        <time>2016-12-01T13:36:38Z</time>
      </trkpt>
      <trkpt lat="45.9268" lon="4.38327">
        <ele>708</ele>
        <time>2016-12-01T13:36:39Z</time>
      </trkpt>
      <trkpt lat="45.92682" lon="4.38315">
        <ele>710</ele>
        <time>2016-12-01T13:36:48Z</time>
      </trkpt>
      <trkpt lat="45.92682" lon="4.38313">
        <ele>710</ele>
        <time>2016-12-01T13:36:49Z</time>
      </trkpt>
      <trkpt lat="45.92682" lon="4.38301">
        <ele>710</ele>
        <time>2016-12-01T13:36:57Z</time>
      </trkpt>
      <trkpt lat="45.92683" lon="4.383">
        <ele>710</ele>
        <time>2016-12-01T13:36:58Z</time>
      </trkpt>
      <trkpt lat="45.92686" lon="4.38288">
        <ele>711</ele>
        <time>2016-12-01T13:37:05Z</time>
      </trkpt>
      <trkpt lat="45.92686" lon="4.38286">
        <ele>711</ele>
        <time>2016-12-01T13:37:06Z</time>
      </trkpt>
      <trkpt lat="45.92686" lon="4.38274">
        <ele>711</ele>
        <time>2016-12-01T13:37:12Z</time>
      </trkpt>
      <trkpt lat="45.92686" lon="4.38272">
        <ele>711</ele>
        <time>2016-12-01T13:37:13Z</time>
      </trkpt>
      <trkpt lat="45.92688" lon="4.3826">
        <ele>711</ele>
        <time>2016-12-01T13:37:18Z</time>
      </trkpt>
      <trkpt lat="45.92688" lon="4.38258">
        <ele>711</ele>
        <time>2016-12-01T13:37:19Z</time>
      </trkpt>
      <trkpt lat="45.92688" lon="4.38247">
        <ele>713</ele>
        <time>2016-12-01T13:37:24Z</time>
      </trkpt>
      <trkpt lat="45.92688" lon="4.38245">
        <ele>713</ele>
        <time>2016-12-01T13:37:25Z</time>
      </trkpt>
      <trkpt lat="45.92688" lon="4.38232">
        <ele>714</ele>
        <time>2016-12-01T13:37:31Z</time>
      </trkpt>
      <trkpt lat="45.92688" lon="4.3823">
        <ele>714</ele>
        <time>2016-12-01T13:37:32Z</time>
      </trkpt>
      <trkpt lat="45.92685" lon="4.38219">
        <ele>714</ele>
        <time>2016-12-01T13:37:38Z</time>
      </trkpt>
      <trkpt lat="45.92684" lon="4.38218">
        <ele>714</ele>
        <time>2016-12-01T13:37:39Z</time>
      </trkpt>
      <trkpt lat="45.92677" lon="4.3821">
        <ele>714</ele>
        <time>2016-12-01T13:37:44Z</time>
      </trkpt>
      <trkpt lat="45.92676" lon="4.38208">
        <ele>714</ele>
        <time>2016-12-01T13:37:45Z</time>
      </trkpt>
      <trkpt lat="45.9267" lon="4.38198">
        <ele>714</ele>
        <time>2016-12-01T13:37:51Z</time>
      </trkpt>
      <trkpt lat="45.9267" lon="4.38196">
        <ele>714</ele>
        <time>2016-12-01T13:37:52Z</time>
      </trkpt>
      <trkpt lat="45.92668" lon="4.38184">
        <ele>714</ele>
        <time>2016-12-01T13:38:00Z</time>
      </trkpt>
      <trkpt lat="45.92668" lon="4.38183">
        <ele>714</ele>
        <time>2016-12-01T13:38:01Z</time>
      </trkpt>
      <trkpt lat="45.92665" lon="4.38172">
        <ele>709</ele>
        <time>2016-12-01T13:38:08Z</time>
      </trkpt>
      <trkpt lat="45.92665" lon="4.3817">
        <ele>710</ele>
        <time>2016-12-01T13:38:09Z</time>
      </trkpt>
      <trkpt lat="45.92665" lon="4.38159">
        <ele>710</ele>
        <time>2016-12-01T13:38:16Z</time>
      </trkpt>
      <trkpt lat="45.92665" lon="4.38157">
        <ele>709</ele>
        <time>2016-12-01T13:38:17Z</time>
      </trkpt>
      <trkpt lat="45.92662" lon="4.38147">
        <ele>707</ele>
        <time>2016-12-01T13:38:23Z</time>
      </trkpt>
      <trkpt lat="45.92662" lon="4.38145">
        <ele>707</ele>
        <time>2016-12-01T13:38:24Z</time>
      </trkpt>
      <trkpt lat="45.92659" lon="4.38132">
        <ele>706</ele>
        <time>2016-12-01T13:38:31Z</time>
      </trkpt>
      <trkpt lat="45.92658" lon="4.38131">
        <ele>706</ele>
        <time>2016-12-01T13:38:32Z</time>
      </trkpt>
      <trkpt lat="45.92656" lon="4.38119">
        <ele>707</ele>
        <time>2016-12-01T13:38:39Z</time>
      </trkpt>
      <trkpt lat="45.92656" lon="4.38118">
        <ele>707</ele>
        <time>2016-12-01T13:38:40Z</time>
      </trkpt>
      <trkpt lat="45.92654" lon="4.38106">
        <ele>708</ele>
        <time>2016-12-01T13:38:47Z</time>
      </trkpt>
      <trkpt lat="45.92654" lon="4.38104">
        <ele>708</ele>
        <time>2016-12-01T13:38:48Z</time>
      </trkpt>
      <trkpt lat="45.92653" lon="4.38092">
        <ele>710</ele>
        <time>2016-12-01T13:38:55Z</time>
      </trkpt>
      <trkpt lat="45.92653" lon="4.3809">
        <ele>710</ele>
        <time>2016-12-01T13:38:56Z</time>
      </trkpt>
      <trkpt lat="45.92652" lon="4.38078">
        <ele>712</ele>
        <time>2016-12-01T13:39:03Z</time>
      </trkpt>
      <trkpt lat="45.92652" lon="4.38077">
        <ele>712</ele>
        <time>2016-12-01T13:39:04Z</time>
      </trkpt>
      <trkpt lat="45.92652" lon="4.38064">
        <ele>711</ele>
        <time>2016-12-01T13:39:11Z</time>
      </trkpt>
      <trkpt lat="45.92652" lon="4.38063">
        <ele>711</ele>
        <time>2016-12-01T13:39:12Z</time>
      </trkpt>
      <trkpt lat="45.92651" lon="4.38052">
        <ele>710</ele>
        <time>2016-12-01T13:39:18Z</time>
      </trkpt>
      <trkpt lat="45.9265" lon="4.3805">
        <ele>710</ele>
        <time>2016-12-01T13:39:19Z</time>
      </trkpt>
      <trkpt lat="45.92647" lon="4.38038">
        <ele>710</ele>
        <time>2016-12-01T13:39:25Z</time>
      </trkpt>
      <trkpt lat="45.92647" lon="4.38037">
        <ele>710</ele>
        <time>2016-12-01T13:39:26Z</time>
      </trkpt>
      <trkpt lat="45.92645" lon="4.38024">
        <ele>711</ele>
        <time>2016-12-01T13:39:33Z</time>
      </trkpt>
      <trkpt lat="45.92646" lon="4.38023">
        <ele>711</ele>
        <time>2016-12-01T13:39:34Z</time>
      </trkpt>
      <trkpt lat="45.92648" lon="4.38011">
        <ele>712</ele>
        <time>2016-12-01T13:39:41Z</time>
      </trkpt>
      <trkpt lat="45.92648" lon="4.38009">
        <ele>712</ele>
        <time>2016-12-01T13:39:42Z</time>
      </trkpt>
      <trkpt lat="45.92648" lon="4.37996">
        <ele>715</ele>
        <time>2016-12-01T13:39:48Z</time>
      </trkpt>
      <trkpt lat="45.92648" lon="4.37994">
        <ele>715</ele>
        <time>2016-12-01T13:39:49Z</time>
      </trkpt>
      <trkpt lat="45.92648" lon="4.37983">
        <ele>715</ele>
        <time>2016-12-01T13:39:55Z</time>
      </trkpt>
      <trkpt lat="45.92648" lon="4.37981">
        <ele>715</ele>
        <time>2016-12-01T13:39:56Z</time>
      </trkpt>
      <trkpt lat="45.92648" lon="4.37968">
        <ele>714</ele>
        <time>2016-12-01T13:40:03Z</time>
      </trkpt>
      <trkpt lat="45.92648" lon="4.37967">
        <ele>714</ele>
        <time>2016-12-01T13:40:04Z</time>
      </trkpt>
      <trkpt lat="45.92647" lon="4.37956">
        <ele>714</ele>
        <time>2016-12-01T13:40:10Z</time>
      </trkpt>
      <trkpt lat="45.92646" lon="4.37954">
        <ele>714</ele>
        <time>2016-12-01T13:40:11Z</time>
      </trkpt>
      <trkpt lat="45.92644" lon="4.37943">
        <ele>715</ele>
        <time>2016-12-01T13:40:17Z</time>
      </trkpt>
      <trkpt lat="45.92643" lon="4.37941">
        <ele>715</ele>
        <time>2016-12-01T13:40:18Z</time>
      </trkpt>
      <trkpt lat="45.92641" lon="4.37929">
        <ele>715</ele>
        <time>2016-12-01T13:40:25Z</time>
      </trkpt>
      <trkpt lat="45.92641" lon="4.37927">
        <ele>715</ele>
        <time>2016-12-01T13:40:26Z</time>
      </trkpt>
      <trkpt lat="45.92639" lon="4.37915">
        <ele>718</ele>
        <time>2016-12-01T13:40:32Z</time>
      </trkpt>
      <trkpt lat="45.92638" lon="4.37914">
        <ele>718</ele>
        <time>2016-12-01T13:40:33Z</time>
      </trkpt>
      <trkpt lat="45.92634" lon="4.37902">
        <ele>718</ele>
        <time>2016-12-01T13:40:39Z</time>
      </trkpt>
      <trkpt lat="45.92633" lon="4.37901">
        <ele>718</ele>
        <time>2016-12-01T13:40:40Z</time>
      </trkpt>
      <trkpt lat="45.92628" lon="4.37892">
        <ele>717</ele>
        <time>2016-12-01T13:40:45Z</time>
      </trkpt>
      <trkpt lat="45.92627" lon="4.3789">
        <ele>717</ele>
        <time>2016-12-01T13:40:46Z</time>
      </trkpt>
      <trkpt lat="45.92621" lon="4.37884">
        <ele>717</ele>
        <time>2016-12-01T13:40:52Z</time>
      </trkpt>
      <trkpt lat="45.9262" lon="4.37883">
        <ele>717</ele>
        <time>2016-12-01T13:40:53Z</time>
      </trkpt>
      <trkpt lat="45.92613" lon="4.37876">
        <ele>717</ele>
        <time>2016-12-01T13:41:00Z</time>
      </trkpt>
      <trkpt lat="45.92612" lon="4.37874">
        <ele>717</ele>
        <time>2016-12-01T13:41:01Z</time>
      </trkpt>
      <trkpt lat="45.92605" lon="4.37867">
        <ele>717</ele>
        <time>2016-12-01T13:41:07Z</time>
      </trkpt>
      <trkpt lat="45.92604" lon="4.37866">
        <ele>718</ele>
        <time>2016-12-01T13:41:08Z</time>
      </trkpt>
      <trkpt lat="45.92597" lon="4.37857">
        <ele>718</ele>
        <time>2016-12-01T13:41:14Z</time>
      </trkpt>
      <trkpt lat="45.92596" lon="4.37855">
        <ele>718</ele>
        <time>2016-12-01T13:41:15Z</time>
      </trkpt>
      <trkpt lat="45.92592" lon="4.37845">
        <ele>718</ele>
        <time>2016-12-01T13:41:22Z</time>
      </trkpt>
      <trkpt lat="45.92592" lon="4.37843">
        <ele>718</ele>
        <time>2016-12-01T13:41:23Z</time>
      </trkpt>
      <trkpt lat="45.92589" lon="4.37831">
        <ele>720</ele>
        <time>2016-12-01T13:41:30Z</time>
      </trkpt>
      <trkpt lat="45.92588" lon="4.3783">
        <ele>720</ele>
        <time>2016-12-01T13:41:31Z</time>
      </trkpt>
      <trkpt lat="45.92584" lon="4.3782">
        <ele>720</ele>
        <time>2016-12-01T13:41:38Z</time>
      </trkpt>
      <trkpt lat="45.92583" lon="4.37819">
        <ele>720</ele>
        <time>2016-12-01T13:41:39Z</time>
      </trkpt>
      <trkpt lat="45.92578" lon="4.37809">
        <ele>720</ele>
        <time>2016-12-01T13:41:46Z</time>
      </trkpt>
      <trkpt lat="45.92578" lon="4.37808">
        <ele>720</ele>
        <time>2016-12-01T13:41:47Z</time>
      </trkpt>
      <trkpt lat="45.92574" lon="4.37797">
        <ele>721</ele>
        <time>2016-12-01T13:41:54Z</time>
      </trkpt>
      <trkpt lat="45.92574" lon="4.37796">
        <ele>721</ele>
        <time>2016-12-01T13:41:55Z</time>
      </trkpt>
      <trkpt lat="45.92573" lon="4.37784">
        <ele>722</ele>
        <time>2016-12-01T13:42:02Z</time>
      </trkpt>
      <trkpt lat="45.92572" lon="4.37783">
        <ele>722</ele>
        <time>2016-12-01T13:42:03Z</time>
      </trkpt>
      <trkpt lat="45.92568" lon="4.37771">
        <ele>722</ele>
        <time>2016-12-01T13:42:10Z</time>
      </trkpt>
      <trkpt lat="45.92567" lon="4.3777">
        <ele>723</ele>
        <time>2016-12-01T13:42:11Z</time>
      </trkpt>
      <trkpt lat="45.92564" lon="4.37759">
        <ele>723</ele>
        <time>2016-12-01T13:42:17Z</time>
      </trkpt>
      <trkpt lat="45.92563" lon="4.37758">
        <ele>723</ele>
        <time>2016-12-01T13:42:18Z</time>
      </trkpt>
      <trkpt lat="45.92562" lon="4.37746">
        <ele>726</ele>
        <time>2016-12-01T13:42:25Z</time>
      </trkpt>
      <trkpt lat="45.92562" lon="4.37744">
        <ele>726</ele>
        <time>2016-12-01T13:42:26Z</time>
      </trkpt>
      <trkpt lat="45.92564" lon="4.37732">
        <ele>726</ele>
        <time>2016-12-01T13:42:35Z</time>
      </trkpt>
      <trkpt lat="45.92564" lon="4.3773">
        <ele>726</ele>
        <time>2016-12-01T13:42:36Z</time>
      </trkpt>
      <trkpt lat="45.92555" lon="4.37727">
        <ele>727</ele>
        <time>2016-12-01T13:42:46Z</time>
      </trkpt>
      <trkpt lat="45.92554" lon="4.37727">
        <ele>727</ele>
        <time>2016-12-01T13:42:47Z</time>
      </trkpt>
      <trkpt lat="45.92546" lon="4.37724">
        <ele>727</ele>
        <time>2016-12-01T13:42:53Z</time>
      </trkpt>
      <trkpt lat="45.92544" lon="4.37724">
        <ele>727</ele>
        <time>2016-12-01T13:42:54Z</time>
      </trkpt>
      <trkpt lat="45.92537" lon="4.37721">
        <ele>727</ele>
        <time>2016-12-01T13:43:00Z</time>
      </trkpt>
      <trkpt lat="45.92535" lon="4.37721">
        <ele>727</ele>
        <time>2016-12-01T13:43:01Z</time>
      </trkpt>
      <trkpt lat="45.92528" lon="4.37721">
        <ele>727</ele>
        <time>2016-12-01T13:43:06Z</time>
      </trkpt>
      <trkpt lat="45.92526" lon="4.37721">
        <ele>727</ele>
        <time>2016-12-01T13:43:07Z</time>
      </trkpt>
      <trkpt lat="45.92518" lon="4.37722">
        <ele>727</ele>
        <time>2016-12-01T13:43:13Z</time>
      </trkpt>
      <trkpt lat="45.92516" lon="4.37722">
        <ele>727</ele>
        <time>2016-12-01T13:43:14Z</time>
      </trkpt>
      <trkpt lat="45.92508" lon="4.37722">
        <ele>727</ele>
        <time>2016-12-01T13:43:20Z</time>
      </trkpt>
      <trkpt lat="45.92507" lon="4.37722">
        <ele>727</ele>
        <time>2016-12-01T13:43:21Z</time>
      </trkpt>
      <trkpt lat="45.92499" lon="4.37723">
        <ele>727</ele>
        <time>2016-12-01T13:43:27Z</time>
      </trkpt>
      <trkpt lat="45.92498" lon="4.37723">
        <ele>727</ele>
        <time>2016-12-01T13:43:28Z</time>
      </trkpt>
      <trkpt lat="45.92489" lon="4.3772">
        <ele>727</ele>
        <time>2016-12-01T13:43:34Z</time>
      </trkpt>
      <trkpt lat="45.92488" lon="4.3772">
        <ele>727</ele>
        <time>2016-12-01T13:43:35Z</time>
      </trkpt>
      <trkpt lat="45.9248" lon="4.3772">
        <ele>727</ele>
        <time>2016-12-01T13:43:41Z</time>
      </trkpt>
      <trkpt lat="45.92478" lon="4.3772">
        <ele>727</ele>
        <time>2016-12-01T13:43:42Z</time>
      </trkpt>
      <trkpt lat="45.92471" lon="4.3772">
        <ele>727</ele>
        <time>2016-12-01T13:43:48Z</time>
      </trkpt>
      <trkpt lat="45.92469" lon="4.37721">
        <ele>727</ele>
        <time>2016-12-01T13:43:49Z</time>
      </trkpt>
      <trkpt lat="45.9246" lon="4.37722">
        <ele>727</ele>
        <time>2016-12-01T13:43:55Z</time>
      </trkpt>
      <trkpt lat="45.92459" lon="4.37722">
        <ele>727</ele>
        <time>2016-12-01T13:43:56Z</time>
      </trkpt>
      <trkpt lat="45.92451" lon="4.37722">
        <ele>727</ele>
        <time>2016-12-01T13:44:02Z</time>
      </trkpt>
      <trkpt lat="45.9245" lon="4.37722">
        <ele>727</ele>
        <time>2016-12-01T13:44:03Z</time>
      </trkpt>
      <trkpt lat="45.92441" lon="4.37722">
        <ele>727</ele>
        <time>2016-12-01T13:44:10Z</time>
      </trkpt>
      <trkpt lat="45.9244" lon="4.37722">
        <ele>727</ele>
        <time>2016-12-01T13:44:11Z</time>
      </trkpt>
      <trkpt lat="45.92431" lon="4.37722">
        <ele>727</ele>
        <time>2016-12-01T13:44:19Z</time>
      </trkpt>
      <trkpt lat="45.9243" lon="4.37722">
        <ele>727</ele>
        <time>2016-12-01T13:44:20Z</time>
      </trkpt>
      <trkpt lat="45.92422" lon="4.37716">
        <ele>727</ele>
        <time>2016-12-01T13:44:30Z</time>
      </trkpt>
      <trkpt lat="45.92422" lon="4.37715">
        <ele>727</ele>
        <time>2016-12-01T13:44:31Z</time>
      </trkpt>
      <trkpt lat="45.92423" lon="4.37708">
        <ele>727</ele>
        <time>2016-12-01T13:45:32.611Z</time>
      </trkpt>
    </trkseg>
  </trk>
</gpx>